<?xml version="1.0" encoding="UTF-8" standalone="no" ?>
<gpx xmlns="http://www.topografix.com/GPX/1/1" xmlns:xsi="http://www.w3.org/2001/XMLSchema-instance" xsi:schemaLocation="http://www.topografix.com/GPX/1/1 http://www.topografix.com/GPX/1/1/gpx.xsd" version="1.1" creator="VisuGPX - https://www.visugpx.com">
  <metadata>
    <name>StHil - StBé</name>
  </metadata>
  <trk>
    <name><![CDATA[StHil - StBé_1]]></name>
    <extensions>
      <line xmlns="http://www.topografix.com/GPX/gpx_style/0/2">
        <color>0000FF</color>
        <width>4</width>
      </line>
    </extensions>
    <trkseg>
      <trkpt lat="45.30832" lon="5.91764">
        <ele>242.2</ele>
      </trkpt>
      <trkpt lat="45.30825" lon="5.91783">
        <ele>242.4</ele>
      </trkpt>
      <trkpt lat="45.30804" lon="5.91796">
        <ele>242.4</ele>
      </trkpt>
      <trkpt lat="45.3078" lon="5.91822">
        <ele>242.3</ele>
      </trkpt>
      <trkpt lat="45.30754" lon="5.91853">
        <ele>242.1</ele>
      </trkpt>
      <trkpt lat="45.30675" lon="5.91772">
        <ele>239.3</ele>
      </trkpt>
      <trkpt lat="45.30619" lon="5.91736">
        <ele>237.6</ele>
      </trkpt>
      <trkpt lat="45.30541" lon="5.91662">
        <ele>234.5</ele>
      </trkpt>
      <trkpt lat="45.30535" lon="5.91631">
        <ele>234.3</ele>
      </trkpt>
      <trkpt lat="45.3025" lon="5.91353">
        <ele>230</ele>
      </trkpt>
      <trkpt lat="45.30272" lon="5.91295">
        <ele>229.8</ele>
      </trkpt>
      <trkpt lat="45.30299" lon="5.91261">
        <ele>230.9</ele>
      </trkpt>
      <trkpt lat="45.30388" lon="5.91161">
        <ele>232.9</ele>
      </trkpt>
      <trkpt lat="45.30446" lon="5.91108">
        <ele>232.8</ele>
      </trkpt>
      <trkpt lat="45.3023" lon="5.90858">
        <ele>230.1</ele>
      </trkpt>
      <trkpt lat="45.30222" lon="5.90839">
        <ele>229.7</ele>
      </trkpt>
      <trkpt lat="45.30224" lon="5.90814">
        <ele>229.7</ele>
      </trkpt>
      <trkpt lat="45.30232" lon="5.90716">
        <ele>230.4</ele>
      </trkpt>
      <trkpt lat="45.30078" lon="5.9061">
        <ele>227.6</ele>
      </trkpt>
      <trkpt lat="45.29951" lon="5.90563">
        <ele>229.6</ele>
      </trkpt>
      <trkpt lat="45.29761" lon="5.90495">
        <ele>230.1</ele>
      </trkpt>
      <trkpt lat="45.29779" lon="5.90429">
        <ele>232</ele>
      </trkpt>
      <trkpt lat="45.29768" lon="5.90373">
        <ele>233.3</ele>
      </trkpt>
      <trkpt lat="45.29774" lon="5.90326">
        <ele>234.5</ele>
      </trkpt>
      <trkpt lat="45.29774" lon="5.90289">
        <ele>235.3</ele>
      </trkpt>
      <trkpt lat="45.29782" lon="5.9026">
        <ele>236.3</ele>
      </trkpt>
      <trkpt lat="45.29834" lon="5.90129">
        <ele>242.4</ele>
      </trkpt>
      <trkpt lat="45.29842" lon="5.9005">
        <ele>245</ele>
      </trkpt>
      <trkpt lat="45.29871" lon="5.89953">
        <ele>247.9</ele>
      </trkpt>
      <trkpt lat="45.299" lon="5.8992">
        <ele>247</ele>
        <time>2021-02-24T16:22:16Z</time>
      </trkpt>
      <trkpt lat="45.299" lon="5.8992">
        <ele>247.2</ele>
        <time>2021-02-24T16:22:15Z</time>
      </trkpt>
      <trkpt lat="45.299" lon="5.8992">
        <ele>247.2</ele>
        <time>2021-02-24T16:22:14Z</time>
      </trkpt>
      <trkpt lat="45.29903" lon="5.89914">
        <ele>247.8</ele>
        <time>2021-02-24T16:22:13Z</time>
      </trkpt>
      <trkpt lat="45.29904" lon="5.89912">
        <ele>247.8</ele>
        <time>2021-02-24T16:22:12Z</time>
      </trkpt>
      <trkpt lat="45.29905" lon="5.8991">
        <ele>248.2</ele>
        <time>2021-02-24T16:22:11Z</time>
      </trkpt>
      <trkpt lat="45.29915" lon="5.89898">
        <ele>248.4</ele>
        <time>2021-02-24T16:22:10Z</time>
      </trkpt>
      <trkpt lat="45.29915" lon="5.89898">
        <ele>249</ele>
        <time>2021-02-24T16:22:09Z</time>
      </trkpt>
      <trkpt lat="45.29915" lon="5.89898">
        <ele>249</ele>
        <time>2021-02-24T16:22:08Z</time>
      </trkpt>
      <trkpt lat="45.29917" lon="5.89897">
        <ele>249.4</ele>
        <time>2021-02-24T16:22:07Z</time>
      </trkpt>
      <trkpt lat="45.29919" lon="5.89896">
        <ele>249.6</ele>
        <time>2021-02-24T16:22:06Z</time>
      </trkpt>
      <trkpt lat="45.29925" lon="5.89891">
        <ele>250.2</ele>
        <time>2021-02-24T16:22:05Z</time>
      </trkpt>
      <trkpt lat="45.29926" lon="5.89889">
        <ele>250.4</ele>
        <time>2021-02-24T16:22:04Z</time>
      </trkpt>
      <trkpt lat="45.29928" lon="5.89888">
        <ele>251</ele>
        <time>2021-02-24T16:22:03Z</time>
      </trkpt>
      <trkpt lat="45.29937" lon="5.89873">
        <ele>251.4</ele>
        <time>2021-02-24T16:22:02Z</time>
      </trkpt>
      <trkpt lat="45.29937" lon="5.89873">
        <ele>251.8</ele>
        <time>2021-02-24T16:22:01Z</time>
      </trkpt>
      <trkpt lat="45.29939" lon="5.8987">
        <ele>252.2</ele>
        <time>2021-02-24T16:22:00Z</time>
      </trkpt>
      <trkpt lat="45.2994" lon="5.89869">
        <ele>252.8</ele>
        <time>2021-02-24T16:21:59Z</time>
      </trkpt>
      <trkpt lat="45.29941" lon="5.89867">
        <ele>253.2</ele>
        <time>2021-02-24T16:21:58Z</time>
      </trkpt>
      <trkpt lat="45.29951" lon="5.89856">
        <ele>253.6</ele>
        <time>2021-02-24T16:21:57Z</time>
      </trkpt>
      <trkpt lat="45.29951" lon="5.89856">
        <ele>254</ele>
        <time>2021-02-24T16:21:56Z</time>
      </trkpt>
      <trkpt lat="45.29951" lon="5.89856">
        <ele>254.6</ele>
        <time>2021-02-24T16:21:55Z</time>
      </trkpt>
      <trkpt lat="45.29956" lon="5.89852">
        <ele>254.6</ele>
        <time>2021-02-24T16:21:54Z</time>
      </trkpt>
      <trkpt lat="45.29957" lon="5.8985">
        <ele>255.2</ele>
        <time>2021-02-24T16:21:53Z</time>
      </trkpt>
      <trkpt lat="45.29958" lon="5.89849">
        <ele>255.2</ele>
        <time>2021-02-24T16:21:52Z</time>
      </trkpt>
      <trkpt lat="45.29963" lon="5.89842">
        <ele>255.6</ele>
        <time>2021-02-24T16:21:51Z</time>
      </trkpt>
      <trkpt lat="45.29965" lon="5.8984">
        <ele>255.8</ele>
        <time>2021-02-24T16:21:50Z</time>
      </trkpt>
      <trkpt lat="45.29966" lon="5.89838">
        <ele>256</ele>
        <time>2021-02-24T16:21:49Z</time>
      </trkpt>
      <trkpt lat="45.29969" lon="5.89829">
        <ele>256.4</ele>
        <time>2021-02-24T16:21:48Z</time>
      </trkpt>
      <trkpt lat="45.2997" lon="5.89826">
        <ele>256.8</ele>
        <time>2021-02-24T16:21:47Z</time>
      </trkpt>
      <trkpt lat="45.29971" lon="5.89824">
        <ele>257.4</ele>
        <time>2021-02-24T16:21:46Z</time>
      </trkpt>
      <trkpt lat="45.29976" lon="5.89817">
        <ele>258.2</ele>
        <time>2021-02-24T16:21:45Z</time>
      </trkpt>
      <trkpt lat="45.29978" lon="5.89815">
        <ele>259</ele>
        <time>2021-02-24T16:21:44Z</time>
      </trkpt>
      <trkpt lat="45.29979" lon="5.89813">
        <ele>260</ele>
        <time>2021-02-24T16:21:43Z</time>
      </trkpt>
      <trkpt lat="45.29986" lon="5.89808">
        <ele>260.6</ele>
        <time>2021-02-24T16:21:42Z</time>
      </trkpt>
      <trkpt lat="45.29991" lon="5.89805">
        <ele>261.4</ele>
        <time>2021-02-24T16:21:41Z</time>
      </trkpt>
      <trkpt lat="45.29995" lon="5.89802">
        <ele>261.6</ele>
        <time>2021-02-24T16:21:40Z</time>
      </trkpt>
      <trkpt lat="45.29999" lon="5.89799">
        <ele>261.8</ele>
        <time>2021-02-24T16:21:39Z</time>
      </trkpt>
      <trkpt lat="45.30003" lon="5.89796">
        <ele>263</ele>
        <time>2021-02-24T16:21:38Z</time>
      </trkpt>
      <trkpt lat="45.30006" lon="5.89796">
        <ele>263</ele>
        <time>2021-02-24T16:21:37Z</time>
      </trkpt>
      <trkpt lat="45.30008" lon="5.89795">
        <ele>265</ele>
        <time>2021-02-24T16:21:36Z</time>
      </trkpt>
      <trkpt lat="45.30011" lon="5.89794">
        <ele>266</ele>
        <time>2021-02-24T16:21:35Z</time>
      </trkpt>
      <trkpt lat="45.30014" lon="5.89794">
        <ele>266.6</ele>
        <time>2021-02-24T16:21:34Z</time>
      </trkpt>
      <trkpt lat="45.30014" lon="5.89794">
        <ele>266.8</ele>
        <time>2021-02-24T16:21:33Z</time>
      </trkpt>
      <trkpt lat="45.30014" lon="5.89794">
        <ele>267.6</ele>
        <time>2021-02-24T16:21:32Z</time>
      </trkpt>
      <trkpt lat="45.30019" lon="5.89792">
        <ele>268</ele>
        <time>2021-02-24T16:21:31Z</time>
      </trkpt>
      <trkpt lat="45.30021" lon="5.89792">
        <ele>269</ele>
        <time>2021-02-24T16:21:30Z</time>
      </trkpt>
      <trkpt lat="45.30023" lon="5.89791">
        <ele>269</ele>
        <time>2021-02-24T16:21:29Z</time>
      </trkpt>
      <trkpt lat="45.30033" lon="5.8978">
        <ele>269.2</ele>
        <time>2021-02-24T16:21:28Z</time>
      </trkpt>
      <trkpt lat="45.30033" lon="5.8978">
        <ele>269.8</ele>
        <time>2021-02-24T16:21:27Z</time>
      </trkpt>
      <trkpt lat="45.30033" lon="5.8978">
        <ele>270.6</ele>
        <time>2021-02-24T16:21:26Z</time>
      </trkpt>
      <trkpt lat="45.3004" lon="5.89771">
        <ele>272</ele>
        <time>2021-02-24T16:21:25Z</time>
      </trkpt>
      <trkpt lat="45.3004" lon="5.89771">
        <ele>272.8</ele>
        <time>2021-02-24T16:21:24Z</time>
      </trkpt>
      <trkpt lat="45.3004" lon="5.89771">
        <ele>273.2</ele>
        <time>2021-02-24T16:21:23Z</time>
      </trkpt>
      <trkpt lat="45.30045" lon="5.8976">
        <ele>273.4</ele>
        <time>2021-02-24T16:21:22Z</time>
      </trkpt>
      <trkpt lat="45.30045" lon="5.8976">
        <ele>273</ele>
        <time>2021-02-24T16:21:21Z</time>
      </trkpt>
      <trkpt lat="45.30045" lon="5.8976">
        <ele>273.6</ele>
        <time>2021-02-24T16:21:20Z</time>
      </trkpt>
      <trkpt lat="45.30048" lon="5.89754">
        <ele>274.2</ele>
        <time>2021-02-24T16:21:19Z</time>
      </trkpt>
      <trkpt lat="45.3005" lon="5.89749">
        <ele>275</ele>
        <time>2021-02-24T16:21:18Z</time>
      </trkpt>
      <trkpt lat="45.30052" lon="5.89744">
        <ele>276.2</ele>
        <time>2021-02-24T16:21:17Z</time>
      </trkpt>
      <trkpt lat="45.30053" lon="5.8974">
        <ele>276.4</ele>
        <time>2021-02-24T16:21:16Z</time>
      </trkpt>
      <trkpt lat="45.30055" lon="5.89735">
        <ele>276.6</ele>
        <time>2021-02-24T16:21:15Z</time>
      </trkpt>
      <trkpt lat="45.30055" lon="5.89731">
        <ele>277.6</ele>
        <time>2021-02-24T16:21:14Z</time>
      </trkpt>
      <trkpt lat="45.30054" lon="5.89727">
        <ele>278.2</ele>
        <time>2021-02-24T16:21:13Z</time>
      </trkpt>
      <trkpt lat="45.30054" lon="5.89723">
        <ele>279.6</ele>
        <time>2021-02-24T16:21:12Z</time>
      </trkpt>
      <trkpt lat="45.30054" lon="5.89719">
        <ele>280.4</ele>
        <time>2021-02-24T16:21:11Z</time>
      </trkpt>
      <trkpt lat="45.30054" lon="5.89719">
        <ele>281.4</ele>
        <time>2021-02-24T16:21:10Z</time>
      </trkpt>
      <trkpt lat="45.30054" lon="5.89719">
        <ele>282.2</ele>
        <time>2021-02-24T16:21:09Z</time>
      </trkpt>
      <trkpt lat="45.30054" lon="5.89712">
        <ele>283.6</ele>
        <time>2021-02-24T16:21:08Z</time>
      </trkpt>
      <trkpt lat="45.30055" lon="5.8971">
        <ele>284.2</ele>
        <time>2021-02-24T16:21:07Z</time>
      </trkpt>
      <trkpt lat="45.30055" lon="5.89708">
        <ele>285.8</ele>
        <time>2021-02-24T16:21:06Z</time>
      </trkpt>
      <trkpt lat="45.30055" lon="5.89697">
        <ele>286.8</ele>
        <time>2021-02-24T16:21:05Z</time>
      </trkpt>
      <trkpt lat="45.30056" lon="5.89691">
        <ele>287.4</ele>
        <time>2021-02-24T16:21:04Z</time>
      </trkpt>
      <trkpt lat="45.30057" lon="5.89685">
        <ele>288.4</ele>
        <time>2021-02-24T16:21:03Z</time>
      </trkpt>
      <trkpt lat="45.30057" lon="5.89679">
        <ele>288.6</ele>
        <time>2021-02-24T16:21:02Z</time>
      </trkpt>
      <trkpt lat="45.30058" lon="5.89674">
        <ele>289.8</ele>
        <time>2021-02-24T16:21:01Z</time>
      </trkpt>
      <trkpt lat="45.30058" lon="5.8967">
        <ele>290.2</ele>
        <time>2021-02-24T16:21:00Z</time>
      </trkpt>
      <trkpt lat="45.30058" lon="5.89666">
        <ele>291.4</ele>
        <time>2021-02-24T16:20:59Z</time>
      </trkpt>
      <trkpt lat="45.30059" lon="5.89662">
        <ele>292.4</ele>
        <time>2021-02-24T16:20:58Z</time>
      </trkpt>
      <trkpt lat="45.30059" lon="5.89658">
        <ele>294.2</ele>
        <time>2021-02-24T16:20:57Z</time>
      </trkpt>
      <trkpt lat="45.30058" lon="5.89656">
        <ele>294.8</ele>
        <time>2021-02-24T16:20:56Z</time>
      </trkpt>
      <trkpt lat="45.30058" lon="5.89653">
        <ele>295.8</ele>
        <time>2021-02-24T16:20:55Z</time>
      </trkpt>
      <trkpt lat="45.30058" lon="5.8965">
        <ele>296.6</ele>
        <time>2021-02-24T16:20:54Z</time>
      </trkpt>
      <trkpt lat="45.30058" lon="5.89648">
        <ele>298.6</ele>
        <time>2021-02-24T16:20:53Z</time>
      </trkpt>
      <trkpt lat="45.30058" lon="5.89645">
        <ele>299.4</ele>
        <time>2021-02-24T16:20:52Z</time>
      </trkpt>
      <trkpt lat="45.30058" lon="5.89642">
        <ele>299.8</ele>
        <time>2021-02-24T16:20:51Z</time>
      </trkpt>
      <trkpt lat="45.30057" lon="5.89639">
        <ele>300.6</ele>
        <time>2021-02-24T16:20:50Z</time>
      </trkpt>
      <trkpt lat="45.30057" lon="5.89636">
        <ele>301.6</ele>
        <time>2021-02-24T16:20:49Z</time>
      </trkpt>
      <trkpt lat="45.30057" lon="5.89633">
        <ele>302.4</ele>
        <time>2021-02-24T16:20:48Z</time>
      </trkpt>
      <trkpt lat="45.30057" lon="5.8963">
        <ele>303.4</ele>
        <time>2021-02-24T16:20:47Z</time>
      </trkpt>
      <trkpt lat="45.30057" lon="5.8963">
        <ele>304.6</ele>
        <time>2021-02-24T16:20:45Z</time>
      </trkpt>
      <trkpt lat="45.30057" lon="5.89624">
        <ele>305.4</ele>
        <time>2021-02-24T16:20:44Z</time>
      </trkpt>
      <trkpt lat="45.30057" lon="5.89621">
        <ele>306</ele>
        <time>2021-02-24T16:20:43Z</time>
      </trkpt>
      <trkpt lat="45.30056" lon="5.89619">
        <ele>307</ele>
        <time>2021-02-24T16:20:42Z</time>
      </trkpt>
      <trkpt lat="45.30055" lon="5.89608">
        <ele>308.2</ele>
        <time>2021-02-24T16:20:41Z</time>
      </trkpt>
      <trkpt lat="45.30055" lon="5.89603">
        <ele>309.6</ele>
        <time>2021-02-24T16:20:40Z</time>
      </trkpt>
      <trkpt lat="45.30055" lon="5.89598">
        <ele>310</ele>
        <time>2021-02-24T16:20:39Z</time>
      </trkpt>
      <trkpt lat="45.30055" lon="5.89593">
        <ele>310.4</ele>
        <time>2021-02-24T16:20:38Z</time>
      </trkpt>
      <trkpt lat="45.30055" lon="5.89588">
        <ele>311.6</ele>
        <time>2021-02-24T16:20:37Z</time>
      </trkpt>
      <trkpt lat="45.30055" lon="5.89583">
        <ele>312.6</ele>
        <time>2021-02-24T16:20:36Z</time>
      </trkpt>
      <trkpt lat="45.30055" lon="5.8958">
        <ele>313.8</ele>
        <time>2021-02-24T16:20:35Z</time>
      </trkpt>
      <trkpt lat="45.30055" lon="5.89576">
        <ele>314.2</ele>
        <time>2021-02-24T16:20:34Z</time>
      </trkpt>
      <trkpt lat="45.30055" lon="5.89573">
        <ele>316</ele>
        <time>2021-02-24T16:20:33Z</time>
      </trkpt>
      <trkpt lat="45.30055" lon="5.8957">
        <ele>316.8</ele>
        <time>2021-02-24T16:20:32Z</time>
      </trkpt>
      <trkpt lat="45.30055" lon="5.89567">
        <ele>317.6</ele>
        <time>2021-02-24T16:20:31Z</time>
      </trkpt>
      <trkpt lat="45.30055" lon="5.89564">
        <ele>319</ele>
        <time>2021-02-24T16:20:30Z</time>
      </trkpt>
      <trkpt lat="45.30055" lon="5.89561">
        <ele>320</ele>
        <time>2021-02-24T16:20:29Z</time>
      </trkpt>
      <trkpt lat="45.30055" lon="5.89558">
        <ele>321.4</ele>
        <time>2021-02-24T16:20:28Z</time>
      </trkpt>
      <trkpt lat="45.30055" lon="5.89555">
        <ele>322.8</ele>
        <time>2021-02-24T16:20:27Z</time>
      </trkpt>
      <trkpt lat="45.30055" lon="5.89552">
        <ele>323.2</ele>
        <time>2021-02-24T16:20:26Z</time>
      </trkpt>
      <trkpt lat="45.30055" lon="5.8955">
        <ele>322.8</ele>
        <time>2021-02-24T16:20:25Z</time>
      </trkpt>
      <trkpt lat="45.30054" lon="5.89547">
        <ele>324.6</ele>
        <time>2021-02-24T16:20:24Z</time>
      </trkpt>
      <trkpt lat="45.30053" lon="5.89545">
        <ele>325</ele>
        <time>2021-02-24T16:20:23Z</time>
      </trkpt>
      <trkpt lat="45.30052" lon="5.89542">
        <ele>325.6</ele>
        <time>2021-02-24T16:20:22Z</time>
      </trkpt>
      <trkpt lat="45.30052" lon="5.8954">
        <ele>327</ele>
        <time>2021-02-24T16:20:21Z</time>
      </trkpt>
      <trkpt lat="45.3005" lon="5.89537">
        <ele>327.8</ele>
        <time>2021-02-24T16:20:20Z</time>
      </trkpt>
      <trkpt lat="45.30049" lon="5.89535">
        <ele>329</ele>
        <time>2021-02-24T16:20:19Z</time>
      </trkpt>
      <trkpt lat="45.30047" lon="5.89532">
        <ele>330.2</ele>
        <time>2021-02-24T16:20:18Z</time>
      </trkpt>
      <trkpt lat="45.30046" lon="5.8953">
        <ele>330.2</ele>
        <time>2021-02-24T16:20:17Z</time>
      </trkpt>
      <trkpt lat="45.30044" lon="5.89528">
        <ele>331.6</ele>
        <time>2021-02-24T16:20:16Z</time>
      </trkpt>
      <trkpt lat="45.30043" lon="5.89525">
        <ele>332.8</ele>
        <time>2021-02-24T16:20:15Z</time>
      </trkpt>
      <trkpt lat="45.30041" lon="5.89523">
        <ele>333</ele>
        <time>2021-02-24T16:20:14Z</time>
      </trkpt>
      <trkpt lat="45.3004" lon="5.89521">
        <ele>334</ele>
        <time>2021-02-24T16:20:13Z</time>
      </trkpt>
      <trkpt lat="45.30038" lon="5.89519">
        <ele>335.4</ele>
        <time>2021-02-24T16:20:12Z</time>
      </trkpt>
      <trkpt lat="45.30037" lon="5.89516">
        <ele>336.6</ele>
        <time>2021-02-24T16:20:11Z</time>
      </trkpt>
      <trkpt lat="45.30035" lon="5.89513">
        <ele>337.4</ele>
        <time>2021-02-24T16:20:10Z</time>
      </trkpt>
      <trkpt lat="45.30034" lon="5.8951">
        <ele>338.6</ele>
        <time>2021-02-24T16:20:09Z</time>
      </trkpt>
      <trkpt lat="45.30032" lon="5.89507">
        <ele>338.4</ele>
        <time>2021-02-24T16:20:08Z</time>
      </trkpt>
      <trkpt lat="45.30032" lon="5.89507">
        <ele>339.2</ele>
        <time>2021-02-24T16:20:07Z</time>
      </trkpt>
      <trkpt lat="45.30032" lon="5.89507">
        <ele>339.6</ele>
        <time>2021-02-24T16:20:06Z</time>
      </trkpt>
      <trkpt lat="45.30027" lon="5.89501">
        <ele>340.2</ele>
        <time>2021-02-24T16:20:05Z</time>
      </trkpt>
      <trkpt lat="45.30022" lon="5.89496">
        <ele>341.4</ele>
        <time>2021-02-24T16:20:04Z</time>
      </trkpt>
      <trkpt lat="45.30017" lon="5.89491">
        <ele>342.2</ele>
        <time>2021-02-24T16:20:03Z</time>
      </trkpt>
      <trkpt lat="45.30011" lon="5.89485">
        <ele>343</ele>
        <time>2021-02-24T16:20:02Z</time>
      </trkpt>
      <trkpt lat="45.3001" lon="5.89482">
        <ele>343.8</ele>
        <time>2021-02-24T16:20:01Z</time>
      </trkpt>
      <trkpt lat="45.30009" lon="5.89479">
        <ele>345.6</ele>
        <time>2021-02-24T16:20:00Z</time>
      </trkpt>
      <trkpt lat="45.30007" lon="5.89476">
        <ele>345.6</ele>
        <time>2021-02-24T16:19:59Z</time>
      </trkpt>
      <trkpt lat="45.30006" lon="5.89473">
        <ele>346.8</ele>
        <time>2021-02-24T16:19:58Z</time>
      </trkpt>
      <trkpt lat="45.30006" lon="5.89473">
        <ele>348</ele>
        <time>2021-02-24T16:19:57Z</time>
      </trkpt>
      <trkpt lat="45.30006" lon="5.89473">
        <ele>348.8</ele>
        <time>2021-02-24T16:19:56Z</time>
      </trkpt>
      <trkpt lat="45.30003" lon="5.89468">
        <ele>349.6</ele>
        <time>2021-02-24T16:19:55Z</time>
      </trkpt>
      <trkpt lat="45.30001" lon="5.89462">
        <ele>349.8</ele>
        <time>2021-02-24T16:19:54Z</time>
      </trkpt>
      <trkpt lat="45.29999" lon="5.89456">
        <ele>350.2</ele>
        <time>2021-02-24T16:19:53Z</time>
      </trkpt>
      <trkpt lat="45.29996" lon="5.89451">
        <ele>350.8</ele>
        <time>2021-02-24T16:19:52Z</time>
      </trkpt>
      <trkpt lat="45.29996" lon="5.89451">
        <ele>351</ele>
        <time>2021-02-24T16:19:51Z</time>
      </trkpt>
      <trkpt lat="45.29996" lon="5.89451">
        <ele>352.4</ele>
        <time>2021-02-24T16:19:50Z</time>
      </trkpt>
      <trkpt lat="45.29998" lon="5.89444">
        <ele>352.8</ele>
        <time>2021-02-24T16:19:49Z</time>
      </trkpt>
      <trkpt lat="45.3" lon="5.89439">
        <ele>354.2</ele>
        <time>2021-02-24T16:19:48Z</time>
      </trkpt>
      <trkpt lat="45.30002" lon="5.89434">
        <ele>354.8</ele>
        <time>2021-02-24T16:19:47Z</time>
      </trkpt>
      <trkpt lat="45.30004" lon="5.89429">
        <ele>356.4</ele>
        <time>2021-02-24T16:19:46Z</time>
      </trkpt>
      <trkpt lat="45.30006" lon="5.89424">
        <ele>357.6</ele>
        <time>2021-02-24T16:19:45Z</time>
      </trkpt>
      <trkpt lat="45.30007" lon="5.8942">
        <ele>360</ele>
        <time>2021-02-24T16:19:44Z</time>
      </trkpt>
      <trkpt lat="45.30008" lon="5.89416">
        <ele>360.8</ele>
        <time>2021-02-24T16:19:43Z</time>
      </trkpt>
      <trkpt lat="45.30009" lon="5.89412">
        <ele>361.6</ele>
        <time>2021-02-24T16:19:42Z</time>
      </trkpt>
      <trkpt lat="45.30011" lon="5.89409">
        <ele>362.2</ele>
        <time>2021-02-24T16:19:41Z</time>
      </trkpt>
      <trkpt lat="45.30011" lon="5.89409">
        <ele>363.6</ele>
        <time>2021-02-24T16:19:40Z</time>
      </trkpt>
      <trkpt lat="45.30011" lon="5.89409">
        <ele>364</ele>
        <time>2021-02-24T16:19:39Z</time>
      </trkpt>
      <trkpt lat="45.30013" lon="5.89403">
        <ele>365.6</ele>
        <time>2021-02-24T16:19:38Z</time>
      </trkpt>
      <trkpt lat="45.30015" lon="5.89397">
        <ele>365</ele>
        <time>2021-02-24T16:19:37Z</time>
      </trkpt>
      <trkpt lat="45.30016" lon="5.89392">
        <ele>365.4</ele>
        <time>2021-02-24T16:19:36Z</time>
      </trkpt>
      <trkpt lat="45.30018" lon="5.89387">
        <ele>366.6</ele>
        <time>2021-02-24T16:19:35Z</time>
      </trkpt>
      <trkpt lat="45.3002" lon="5.89382">
        <ele>367.2</ele>
        <time>2021-02-24T16:19:34Z</time>
      </trkpt>
      <trkpt lat="45.3002" lon="5.89382">
        <ele>367.8</ele>
        <time>2021-02-24T16:19:33Z</time>
      </trkpt>
      <trkpt lat="45.3002" lon="5.89382">
        <ele>369.2</ele>
        <time>2021-02-24T16:19:32Z</time>
      </trkpt>
      <trkpt lat="45.30024" lon="5.89379">
        <ele>369.8</ele>
        <time>2021-02-24T16:19:31Z</time>
      </trkpt>
      <trkpt lat="45.30025" lon="5.89378">
        <ele>369.6</ele>
        <time>2021-02-24T16:19:30Z</time>
      </trkpt>
      <trkpt lat="45.30026" lon="5.89376">
        <ele>370.2</ele>
        <time>2021-02-24T16:19:29Z</time>
      </trkpt>
      <trkpt lat="45.30033" lon="5.89375">
        <ele>371.2</ele>
        <time>2021-02-24T16:19:28Z</time>
      </trkpt>
      <trkpt lat="45.30037" lon="5.89376">
        <ele>371.4</ele>
        <time>2021-02-24T16:19:27Z</time>
      </trkpt>
      <trkpt lat="45.30042" lon="5.89377">
        <ele>373.2</ele>
        <time>2021-02-24T16:19:26Z</time>
      </trkpt>
      <trkpt lat="45.30046" lon="5.89377">
        <ele>373.8</ele>
        <time>2021-02-24T16:19:25Z</time>
      </trkpt>
      <trkpt lat="45.3005" lon="5.89378">
        <ele>375</ele>
        <time>2021-02-24T16:19:24Z</time>
      </trkpt>
      <trkpt lat="45.3005" lon="5.89378">
        <ele>375</ele>
        <time>2021-02-24T16:19:23Z</time>
      </trkpt>
      <trkpt lat="45.3005" lon="5.89378">
        <ele>376.6</ele>
        <time>2021-02-24T16:19:22Z</time>
      </trkpt>
      <trkpt lat="45.30061" lon="5.89381">
        <ele>377.4</ele>
        <time>2021-02-24T16:19:21Z</time>
      </trkpt>
      <trkpt lat="45.30064" lon="5.89381">
        <ele>378.2</ele>
        <time>2021-02-24T16:19:20Z</time>
      </trkpt>
      <trkpt lat="45.30066" lon="5.89382">
        <ele>379.2</ele>
        <time>2021-02-24T16:19:19Z</time>
      </trkpt>
      <trkpt lat="45.30069" lon="5.89382">
        <ele>380</ele>
        <time>2021-02-24T16:19:18Z</time>
      </trkpt>
      <trkpt lat="45.30072" lon="5.89383">
        <ele>381</ele>
        <time>2021-02-24T16:19:17Z</time>
      </trkpt>
      <trkpt lat="45.30072" lon="5.89383">
        <ele>382</ele>
        <time>2021-02-24T16:19:16Z</time>
      </trkpt>
      <trkpt lat="45.30072" lon="5.89383">
        <ele>383.6</ele>
        <time>2021-02-24T16:19:15Z</time>
      </trkpt>
      <trkpt lat="45.30076" lon="5.89383">
        <ele>383.8</ele>
        <time>2021-02-24T16:19:14Z</time>
      </trkpt>
      <trkpt lat="45.30078" lon="5.89383">
        <ele>385.2</ele>
        <time>2021-02-24T16:19:13Z</time>
      </trkpt>
      <trkpt lat="45.30079" lon="5.89383">
        <ele>386.2</ele>
        <time>2021-02-24T16:19:12Z</time>
      </trkpt>
      <trkpt lat="45.30091" lon="5.89382">
        <ele>387.2</ele>
        <time>2021-02-24T16:19:11Z</time>
      </trkpt>
      <trkpt lat="45.30091" lon="5.89382">
        <ele>388.8</ele>
        <time>2021-02-24T16:19:10Z</time>
      </trkpt>
      <trkpt lat="45.30091" lon="5.89382">
        <ele>389</ele>
        <time>2021-02-24T16:19:09Z</time>
      </trkpt>
      <trkpt lat="45.30096" lon="5.89381">
        <ele>389.8</ele>
        <time>2021-02-24T16:19:08Z</time>
      </trkpt>
      <trkpt lat="45.30097" lon="5.89381">
        <ele>390.6</ele>
        <time>2021-02-24T16:19:07Z</time>
      </trkpt>
      <trkpt lat="45.30099" lon="5.8938">
        <ele>391.6</ele>
        <time>2021-02-24T16:19:06Z</time>
      </trkpt>
      <trkpt lat="45.30112" lon="5.89379">
        <ele>393.2</ele>
        <time>2021-02-24T16:19:05Z</time>
      </trkpt>
      <trkpt lat="45.30112" lon="5.89379">
        <ele>394.2</ele>
        <time>2021-02-24T16:19:04Z</time>
      </trkpt>
      <trkpt lat="45.30117" lon="5.89379">
        <ele>395.4</ele>
        <time>2021-02-24T16:19:03Z</time>
      </trkpt>
      <trkpt lat="45.30118" lon="5.8938">
        <ele>396.6</ele>
        <time>2021-02-24T16:19:02Z</time>
      </trkpt>
      <trkpt lat="45.3012" lon="5.8938">
        <ele>397</ele>
        <time>2021-02-24T16:19:01Z</time>
      </trkpt>
      <trkpt lat="45.30133" lon="5.89387">
        <ele>397.2</ele>
        <time>2021-02-24T16:19:00Z</time>
      </trkpt>
      <trkpt lat="45.30133" lon="5.89387">
        <ele>398.2</ele>
        <time>2021-02-24T16:18:59Z</time>
      </trkpt>
      <trkpt lat="45.30133" lon="5.89387">
        <ele>398.8</ele>
        <time>2021-02-24T16:18:58Z</time>
      </trkpt>
      <trkpt lat="45.30138" lon="5.89388">
        <ele>399.2</ele>
        <time>2021-02-24T16:18:57Z</time>
      </trkpt>
      <trkpt lat="45.30139" lon="5.89389">
        <ele>400.6</ele>
        <time>2021-02-24T16:18:56Z</time>
      </trkpt>
      <trkpt lat="45.30141" lon="5.8939">
        <ele>401.8</ele>
        <time>2021-02-24T16:18:55Z</time>
      </trkpt>
      <trkpt lat="45.30154" lon="5.8939">
        <ele>402.6</ele>
        <time>2021-02-24T16:18:54Z</time>
      </trkpt>
      <trkpt lat="45.30154" lon="5.8939">
        <ele>403.2</ele>
        <time>2021-02-24T16:18:53Z</time>
      </trkpt>
      <trkpt lat="45.30154" lon="5.8939">
        <ele>403.6</ele>
        <time>2021-02-24T16:18:52Z</time>
      </trkpt>
      <trkpt lat="45.30163" lon="5.89384">
        <ele>404.4</ele>
        <time>2021-02-24T16:18:51Z</time>
      </trkpt>
      <trkpt lat="45.30163" lon="5.89384">
        <ele>405.4</ele>
        <time>2021-02-24T16:18:50Z</time>
      </trkpt>
      <trkpt lat="45.30163" lon="5.89384">
        <ele>406.2</ele>
        <time>2021-02-24T16:18:49Z</time>
      </trkpt>
      <trkpt lat="45.30168" lon="5.89383">
        <ele>407</ele>
        <time>2021-02-24T16:18:48Z</time>
      </trkpt>
      <trkpt lat="45.30172" lon="5.89383">
        <ele>407.8</ele>
        <time>2021-02-24T16:18:47Z</time>
      </trkpt>
      <trkpt lat="45.30176" lon="5.89383">
        <ele>409</ele>
        <time>2021-02-24T16:18:46Z</time>
      </trkpt>
      <trkpt lat="45.3018" lon="5.89383">
        <ele>409.6</ele>
        <time>2021-02-24T16:18:45Z</time>
      </trkpt>
      <trkpt lat="45.30184" lon="5.89383">
        <ele>410.8</ele>
        <time>2021-02-24T16:18:44Z</time>
      </trkpt>
      <trkpt lat="45.30184" lon="5.89383">
        <ele>411.6</ele>
        <time>2021-02-24T16:18:43Z</time>
      </trkpt>
      <trkpt lat="45.30184" lon="5.89383">
        <ele>412.2</ele>
        <time>2021-02-24T16:18:42Z</time>
      </trkpt>
      <trkpt lat="45.30195" lon="5.89383">
        <ele>412.6</ele>
        <time>2021-02-24T16:18:41Z</time>
      </trkpt>
      <trkpt lat="45.30195" lon="5.89383">
        <ele>413.4</ele>
        <time>2021-02-24T16:18:40Z</time>
      </trkpt>
      <trkpt lat="45.30195" lon="5.89383">
        <ele>414.2</ele>
        <time>2021-02-24T16:18:39Z</time>
      </trkpt>
      <trkpt lat="45.30199" lon="5.89384">
        <ele>415.2</ele>
        <time>2021-02-24T16:18:38Z</time>
      </trkpt>
      <trkpt lat="45.30203" lon="5.89384">
        <ele>415.6</ele>
        <time>2021-02-24T16:18:37Z</time>
      </trkpt>
      <trkpt lat="45.30207" lon="5.89384">
        <ele>416.4</ele>
        <time>2021-02-24T16:18:36Z</time>
      </trkpt>
      <trkpt lat="45.30211" lon="5.89383">
        <ele>417</ele>
        <time>2021-02-24T16:18:35Z</time>
      </trkpt>
      <trkpt lat="45.30215" lon="5.89383">
        <ele>418.4</ele>
        <time>2021-02-24T16:18:34Z</time>
      </trkpt>
      <trkpt lat="45.30218" lon="5.89382">
        <ele>418.2</ele>
        <time>2021-02-24T16:18:33Z</time>
      </trkpt>
      <trkpt lat="45.30221" lon="5.89381">
        <ele>419.8</ele>
        <time>2021-02-24T16:18:32Z</time>
      </trkpt>
      <trkpt lat="45.30223" lon="5.8938">
        <ele>420.2</ele>
        <time>2021-02-24T16:18:31Z</time>
      </trkpt>
      <trkpt lat="45.30226" lon="5.89379">
        <ele>421.8</ele>
        <time>2021-02-24T16:18:30Z</time>
      </trkpt>
      <trkpt lat="45.30226" lon="5.89379">
        <ele>422.6</ele>
        <time>2021-02-24T16:18:29Z</time>
      </trkpt>
      <trkpt lat="45.30226" lon="5.89379">
        <ele>423.8</ele>
        <time>2021-02-24T16:18:28Z</time>
      </trkpt>
      <trkpt lat="45.30234" lon="5.89374">
        <ele>424.8</ele>
        <time>2021-02-24T16:18:27Z</time>
      </trkpt>
      <trkpt lat="45.30234" lon="5.89374">
        <ele>425.4</ele>
        <time>2021-02-24T16:18:26Z</time>
      </trkpt>
      <trkpt lat="45.30234" lon="5.89374">
        <ele>426.8</ele>
        <time>2021-02-24T16:18:25Z</time>
      </trkpt>
      <trkpt lat="45.30238" lon="5.89372">
        <ele>428</ele>
        <time>2021-02-24T16:18:24Z</time>
      </trkpt>
      <trkpt lat="45.30241" lon="5.89369">
        <ele>429</ele>
        <time>2021-02-24T16:18:23Z</time>
      </trkpt>
      <trkpt lat="45.30245" lon="5.89367">
        <ele>428.8</ele>
        <time>2021-02-24T16:18:22Z</time>
      </trkpt>
      <trkpt lat="45.30248" lon="5.89365">
        <ele>429.4</ele>
        <time>2021-02-24T16:18:21Z</time>
      </trkpt>
      <trkpt lat="45.30251" lon="5.89363">
        <ele>430.6</ele>
        <time>2021-02-24T16:18:20Z</time>
      </trkpt>
      <trkpt lat="45.30253" lon="5.89362">
        <ele>431.4</ele>
        <time>2021-02-24T16:18:19Z</time>
      </trkpt>
      <trkpt lat="45.30255" lon="5.89362">
        <ele>431.4</ele>
        <time>2021-02-24T16:18:18Z</time>
      </trkpt>
      <trkpt lat="45.30257" lon="5.89361">
        <ele>432.6</ele>
        <time>2021-02-24T16:18:17Z</time>
      </trkpt>
      <trkpt lat="45.30259" lon="5.89361">
        <ele>433.4</ele>
        <time>2021-02-24T16:18:16Z</time>
      </trkpt>
      <trkpt lat="45.3026" lon="5.8936">
        <ele>434.6</ele>
        <time>2021-02-24T16:18:15Z</time>
      </trkpt>
      <trkpt lat="45.30262" lon="5.89359">
        <ele>435.4</ele>
        <time>2021-02-24T16:18:14Z</time>
      </trkpt>
      <trkpt lat="45.30264" lon="5.89358">
        <ele>436.4</ele>
        <time>2021-02-24T16:18:13Z</time>
      </trkpt>
      <trkpt lat="45.30267" lon="5.89357">
        <ele>437</ele>
        <time>2021-02-24T16:18:12Z</time>
      </trkpt>
      <trkpt lat="45.30269" lon="5.89355">
        <ele>437.8</ele>
        <time>2021-02-24T16:18:11Z</time>
      </trkpt>
      <trkpt lat="45.30271" lon="5.89354">
        <ele>438.4</ele>
        <time>2021-02-24T16:18:10Z</time>
      </trkpt>
      <trkpt lat="45.30273" lon="5.89352">
        <ele>439</ele>
        <time>2021-02-24T16:18:09Z</time>
      </trkpt>
      <trkpt lat="45.30275" lon="5.8935">
        <ele>441.6</ele>
        <time>2021-02-24T16:18:08Z</time>
      </trkpt>
      <trkpt lat="45.30277" lon="5.89348">
        <ele>441.8</ele>
        <time>2021-02-24T16:18:07Z</time>
      </trkpt>
      <trkpt lat="45.30279" lon="5.89346">
        <ele>443.2</ele>
        <time>2021-02-24T16:18:06Z</time>
      </trkpt>
      <trkpt lat="45.3028" lon="5.89344">
        <ele>444.2</ele>
        <time>2021-02-24T16:18:05Z</time>
      </trkpt>
      <trkpt lat="45.30282" lon="5.89343">
        <ele>445</ele>
        <time>2021-02-24T16:18:04Z</time>
      </trkpt>
      <trkpt lat="45.30284" lon="5.89341">
        <ele>445.8</ele>
        <time>2021-02-24T16:18:03Z</time>
      </trkpt>
      <trkpt lat="45.30286" lon="5.89339">
        <ele>447</ele>
        <time>2021-02-24T16:18:02Z</time>
      </trkpt>
      <trkpt lat="45.30287" lon="5.89337">
        <ele>448.2</ele>
        <time>2021-02-24T16:18:01Z</time>
      </trkpt>
      <trkpt lat="45.30288" lon="5.89333">
        <ele>448.8</ele>
        <time>2021-02-24T16:18:00Z</time>
      </trkpt>
      <trkpt lat="45.30288" lon="5.89329">
        <ele>449.4</ele>
        <time>2021-02-24T16:17:59Z</time>
      </trkpt>
      <trkpt lat="45.30288" lon="5.89326">
        <ele>450.4</ele>
        <time>2021-02-24T16:17:58Z</time>
      </trkpt>
      <trkpt lat="45.30289" lon="5.89322">
        <ele>451.8</ele>
        <time>2021-02-24T16:17:57Z</time>
      </trkpt>
      <trkpt lat="45.30289" lon="5.89322">
        <ele>452.6</ele>
        <time>2021-02-24T16:17:56Z</time>
      </trkpt>
      <trkpt lat="45.30289" lon="5.89322">
        <ele>453.4</ele>
        <time>2021-02-24T16:17:55Z</time>
      </trkpt>
      <trkpt lat="45.30291" lon="5.89317">
        <ele>454.8</ele>
        <time>2021-02-24T16:17:54Z</time>
      </trkpt>
      <trkpt lat="45.30292" lon="5.89315">
        <ele>455.4</ele>
        <time>2021-02-24T16:17:53Z</time>
      </trkpt>
      <trkpt lat="45.30293" lon="5.89313">
        <ele>455.6</ele>
        <time>2021-02-24T16:17:52Z</time>
      </trkpt>
      <trkpt lat="45.30298" lon="5.89306">
        <ele>456.8</ele>
        <time>2021-02-24T16:17:51Z</time>
      </trkpt>
      <trkpt lat="45.303" lon="5.89302">
        <ele>457</ele>
        <time>2021-02-24T16:17:50Z</time>
      </trkpt>
      <trkpt lat="45.30303" lon="5.89297">
        <ele>457.2</ele>
        <time>2021-02-24T16:17:49Z</time>
      </trkpt>
      <trkpt lat="45.30305" lon="5.89293">
        <ele>457.6</ele>
        <time>2021-02-24T16:17:48Z</time>
      </trkpt>
      <trkpt lat="45.30308" lon="5.89288">
        <ele>459</ele>
        <time>2021-02-24T16:17:47Z</time>
      </trkpt>
      <trkpt lat="45.30308" lon="5.89288">
        <ele>459.8</ele>
        <time>2021-02-24T16:17:46Z</time>
      </trkpt>
      <trkpt lat="45.30308" lon="5.89288">
        <ele>460.8</ele>
        <time>2021-02-24T16:17:45Z</time>
      </trkpt>
      <trkpt lat="45.30309" lon="5.89275">
        <ele>461.4</ele>
        <time>2021-02-24T16:17:44Z</time>
      </trkpt>
      <trkpt lat="45.30309" lon="5.89275">
        <ele>462.8</ele>
        <time>2021-02-24T16:17:43Z</time>
      </trkpt>
      <trkpt lat="45.30309" lon="5.89275">
        <ele>463.4</ele>
        <time>2021-02-24T16:17:42Z</time>
      </trkpt>
      <trkpt lat="45.30311" lon="5.89268">
        <ele>465.2</ele>
        <time>2021-02-24T16:17:41Z</time>
      </trkpt>
      <trkpt lat="45.30311" lon="5.89266">
        <ele>465.4</ele>
        <time>2021-02-24T16:17:40Z</time>
      </trkpt>
      <trkpt lat="45.30311" lon="5.89264">
        <ele>467.2</ele>
        <time>2021-02-24T16:17:39Z</time>
      </trkpt>
      <trkpt lat="45.30315" lon="5.89256">
        <ele>468.2</ele>
        <time>2021-02-24T16:17:38Z</time>
      </trkpt>
      <trkpt lat="45.30316" lon="5.89254">
        <ele>468.4</ele>
        <time>2021-02-24T16:17:37Z</time>
      </trkpt>
      <trkpt lat="45.30317" lon="5.89252">
        <ele>469</ele>
        <time>2021-02-24T16:17:36Z</time>
      </trkpt>
      <trkpt lat="45.30327" lon="5.89242">
        <ele>469.8</ele>
        <time>2021-02-24T16:17:35Z</time>
      </trkpt>
      <trkpt lat="45.30329" lon="5.89239">
        <ele>471.4</ele>
        <time>2021-02-24T16:17:34Z</time>
      </trkpt>
      <trkpt lat="45.3033" lon="5.89236">
        <ele>472.6</ele>
        <time>2021-02-24T16:17:33Z</time>
      </trkpt>
      <trkpt lat="45.30332" lon="5.89233">
        <ele>473.8</ele>
        <time>2021-02-24T16:17:32Z</time>
      </trkpt>
      <trkpt lat="45.30334" lon="5.8923">
        <ele>474.6</ele>
        <time>2021-02-24T16:17:31Z</time>
      </trkpt>
      <trkpt lat="45.30336" lon="5.89228">
        <ele>475</ele>
        <time>2021-02-24T16:17:30Z</time>
      </trkpt>
      <trkpt lat="45.30339" lon="5.89227">
        <ele>476.2</ele>
        <time>2021-02-24T16:17:29Z</time>
      </trkpt>
      <trkpt lat="45.30341" lon="5.89225">
        <ele>476.6</ele>
        <time>2021-02-24T16:17:28Z</time>
      </trkpt>
      <trkpt lat="45.30343" lon="5.89224">
        <ele>478</ele>
        <time>2021-02-24T16:17:27Z</time>
      </trkpt>
      <trkpt lat="45.30343" lon="5.89224">
        <ele>478.4</ele>
        <time>2021-02-24T16:17:26Z</time>
      </trkpt>
      <trkpt lat="45.30343" lon="5.89224">
        <ele>479.2</ele>
        <time>2021-02-24T16:17:25Z</time>
      </trkpt>
      <trkpt lat="45.30346" lon="5.89218">
        <ele>480.2</ele>
        <time>2021-02-24T16:17:24Z</time>
      </trkpt>
      <trkpt lat="45.30349" lon="5.89213">
        <ele>481</ele>
        <time>2021-02-24T16:17:23Z</time>
      </trkpt>
      <trkpt lat="45.30351" lon="5.89208">
        <ele>482</ele>
        <time>2021-02-24T16:17:22Z</time>
      </trkpt>
      <trkpt lat="45.30354" lon="5.89204">
        <ele>483.2</ele>
        <time>2021-02-24T16:17:21Z</time>
      </trkpt>
      <trkpt lat="45.30356" lon="5.89199">
        <ele>483.4</ele>
        <time>2021-02-24T16:17:20Z</time>
      </trkpt>
      <trkpt lat="45.30356" lon="5.89199">
        <ele>484.4</ele>
        <time>2021-02-24T16:17:19Z</time>
      </trkpt>
      <trkpt lat="45.30356" lon="5.89199">
        <ele>485</ele>
        <time>2021-02-24T16:17:18Z</time>
      </trkpt>
      <trkpt lat="45.30359" lon="5.89193">
        <ele>485.4</ele>
        <time>2021-02-24T16:17:17Z</time>
      </trkpt>
      <trkpt lat="45.30362" lon="5.89188">
        <ele>485.8</ele>
        <time>2021-02-24T16:17:16Z</time>
      </trkpt>
      <trkpt lat="45.30364" lon="5.89183">
        <ele>486.4</ele>
        <time>2021-02-24T16:17:15Z</time>
      </trkpt>
      <trkpt lat="45.30367" lon="5.89178">
        <ele>487.2</ele>
        <time>2021-02-24T16:17:14Z</time>
      </trkpt>
      <trkpt lat="45.30369" lon="5.89173">
        <ele>487.8</ele>
        <time>2021-02-24T16:17:13Z</time>
      </trkpt>
      <trkpt lat="45.3037" lon="5.89172">
        <ele>488</ele>
        <time>2021-02-24T16:17:12Z</time>
      </trkpt>
      <trkpt lat="45.30372" lon="5.89172">
        <ele>488.4</ele>
        <time>2021-02-24T16:17:11Z</time>
      </trkpt>
      <trkpt lat="45.30373" lon="5.89171">
        <ele>488.6</ele>
        <time>2021-02-24T16:17:10Z</time>
      </trkpt>
      <trkpt lat="45.30375" lon="5.8917">
        <ele>489.2</ele>
        <time>2021-02-24T16:17:09Z</time>
      </trkpt>
      <trkpt lat="45.30376" lon="5.89169">
        <ele>489.2</ele>
        <time>2021-02-24T16:17:08Z</time>
      </trkpt>
      <trkpt lat="45.30377" lon="5.89169">
        <ele>489.6</ele>
        <time>2021-02-24T16:17:07Z</time>
      </trkpt>
      <trkpt lat="45.3038" lon="5.89168">
        <ele>489.6</ele>
        <time>2021-02-24T16:17:06Z</time>
      </trkpt>
      <trkpt lat="45.30382" lon="5.89168">
        <ele>489.6</ele>
        <time>2021-02-24T16:17:05Z</time>
      </trkpt>
      <trkpt lat="45.30384" lon="5.89167">
        <ele>488.8</ele>
        <time>2021-02-24T16:17:04Z</time>
      </trkpt>
      <trkpt lat="45.30386" lon="5.89167">
        <ele>489.2</ele>
        <time>2021-02-24T16:17:03Z</time>
      </trkpt>
      <trkpt lat="45.30388" lon="5.89166">
        <ele>489</ele>
        <time>2021-02-24T16:17:02Z</time>
      </trkpt>
      <trkpt lat="45.30389" lon="5.89168">
        <ele>489.4</ele>
        <time>2021-02-24T16:17:01Z</time>
      </trkpt>
      <trkpt lat="45.30389" lon="5.89169">
        <ele>489.8</ele>
        <time>2021-02-24T16:17:00Z</time>
      </trkpt>
      <trkpt lat="45.30389" lon="5.89171">
        <ele>489.6</ele>
        <time>2021-02-24T16:16:59Z</time>
      </trkpt>
      <trkpt lat="45.3039" lon="5.89172">
        <ele>489.6</ele>
        <time>2021-02-24T16:16:58Z</time>
      </trkpt>
      <trkpt lat="45.3039" lon="5.89174">
        <ele>490.6</ele>
        <time>2021-02-24T16:16:57Z</time>
      </trkpt>
      <trkpt lat="45.30391" lon="5.89176">
        <ele>491.2</ele>
        <time>2021-02-24T16:16:56Z</time>
      </trkpt>
      <trkpt lat="45.30391" lon="5.89177">
        <ele>492.6</ele>
        <time>2021-02-24T16:16:55Z</time>
      </trkpt>
      <trkpt lat="45.30391" lon="5.89179">
        <ele>493.4</ele>
        <time>2021-02-24T16:16:54Z</time>
      </trkpt>
      <trkpt lat="45.30392" lon="5.8918">
        <ele>494.8</ele>
        <time>2021-02-24T16:16:53Z</time>
      </trkpt>
      <trkpt lat="45.30392" lon="5.8918">
        <ele>494.8</ele>
        <time>2021-02-24T16:16:52Z</time>
      </trkpt>
      <trkpt lat="45.30392" lon="5.8918">
        <ele>495.6</ele>
        <time>2021-02-24T16:16:51Z</time>
      </trkpt>
      <trkpt lat="45.30396" lon="5.89184">
        <ele>496.6</ele>
        <time>2021-02-24T16:16:50Z</time>
      </trkpt>
      <trkpt lat="45.30399" lon="5.89189">
        <ele>497.2</ele>
        <time>2021-02-24T16:16:49Z</time>
      </trkpt>
      <trkpt lat="45.30402" lon="5.89193">
        <ele>497.2</ele>
        <time>2021-02-24T16:16:48Z</time>
      </trkpt>
      <trkpt lat="45.30404" lon="5.89198">
        <ele>497.4</ele>
        <time>2021-02-24T16:16:47Z</time>
      </trkpt>
      <trkpt lat="45.30407" lon="5.89203">
        <ele>498.8</ele>
        <time>2021-02-24T16:16:46Z</time>
      </trkpt>
      <trkpt lat="45.30407" lon="5.89203">
        <ele>499.6</ele>
        <time>2021-02-24T16:16:45Z</time>
      </trkpt>
      <trkpt lat="45.30407" lon="5.89203">
        <ele>501.2</ele>
        <time>2021-02-24T16:16:44Z</time>
      </trkpt>
      <trkpt lat="45.30412" lon="5.89205">
        <ele>502</ele>
        <time>2021-02-24T16:16:43Z</time>
      </trkpt>
      <trkpt lat="45.30414" lon="5.89207">
        <ele>503</ele>
        <time>2021-02-24T16:16:42Z</time>
      </trkpt>
      <trkpt lat="45.30416" lon="5.8921">
        <ele>503.8</ele>
        <time>2021-02-24T16:16:41Z</time>
      </trkpt>
      <trkpt lat="45.30418" lon="5.89213">
        <ele>505.2</ele>
        <time>2021-02-24T16:16:40Z</time>
      </trkpt>
      <trkpt lat="45.30421" lon="5.89216">
        <ele>505.8</ele>
        <time>2021-02-24T16:16:39Z</time>
      </trkpt>
      <trkpt lat="45.30423" lon="5.89218">
        <ele>506.8</ele>
        <time>2021-02-24T16:16:38Z</time>
      </trkpt>
      <trkpt lat="45.30423" lon="5.89218">
        <ele>508</ele>
        <time>2021-02-24T16:16:37Z</time>
      </trkpt>
      <trkpt lat="45.30423" lon="5.89218">
        <ele>508.4</ele>
        <time>2021-02-24T16:16:36Z</time>
      </trkpt>
      <trkpt lat="45.30427" lon="5.89222">
        <ele>509.4</ele>
        <time>2021-02-24T16:16:35Z</time>
      </trkpt>
      <trkpt lat="45.30428" lon="5.89223">
        <ele>510.4</ele>
        <time>2021-02-24T16:16:34Z</time>
      </trkpt>
      <trkpt lat="45.3043" lon="5.89224">
        <ele>511.6</ele>
        <time>2021-02-24T16:16:33Z</time>
      </trkpt>
      <trkpt lat="45.3044" lon="5.89235">
        <ele>512.4</ele>
        <time>2021-02-24T16:16:32Z</time>
      </trkpt>
      <trkpt lat="45.3044" lon="5.89235">
        <ele>512.4</ele>
        <time>2021-02-24T16:16:31Z</time>
      </trkpt>
      <trkpt lat="45.3044" lon="5.89235">
        <ele>513</ele>
        <time>2021-02-24T16:16:30Z</time>
      </trkpt>
      <trkpt lat="45.30444" lon="5.89241">
        <ele>513.6</ele>
        <time>2021-02-24T16:16:29Z</time>
      </trkpt>
      <trkpt lat="45.30445" lon="5.89242">
        <ele>514</ele>
        <time>2021-02-24T16:16:28Z</time>
      </trkpt>
      <trkpt lat="45.30446" lon="5.89244">
        <ele>514.6</ele>
        <time>2021-02-24T16:16:27Z</time>
      </trkpt>
      <trkpt lat="45.3045" lon="5.89252">
        <ele>515.2</ele>
        <time>2021-02-24T16:16:26Z</time>
      </trkpt>
      <trkpt lat="45.30452" lon="5.89255">
        <ele>516.2</ele>
        <time>2021-02-24T16:16:25Z</time>
      </trkpt>
      <trkpt lat="45.30454" lon="5.89258">
        <ele>516.8</ele>
        <time>2021-02-24T16:16:24Z</time>
      </trkpt>
      <trkpt lat="45.30456" lon="5.89261">
        <ele>517.8</ele>
        <time>2021-02-24T16:16:23Z</time>
      </trkpt>
      <trkpt lat="45.30457" lon="5.89265">
        <ele>519</ele>
        <time>2021-02-24T16:16:22Z</time>
      </trkpt>
      <trkpt lat="45.30459" lon="5.89268">
        <ele>520.2</ele>
        <time>2021-02-24T16:16:21Z</time>
      </trkpt>
      <trkpt lat="45.30461" lon="5.89271">
        <ele>520.6</ele>
        <time>2021-02-24T16:16:20Z</time>
      </trkpt>
      <trkpt lat="45.30463" lon="5.89272">
        <ele>522.4</ele>
        <time>2021-02-24T16:16:19Z</time>
      </trkpt>
      <trkpt lat="45.30466" lon="5.89273">
        <ele>523.2</ele>
        <time>2021-02-24T16:16:18Z</time>
      </trkpt>
      <trkpt lat="45.30468" lon="5.89274">
        <ele>524.4</ele>
        <time>2021-02-24T16:16:17Z</time>
      </trkpt>
      <trkpt lat="45.3047" lon="5.89275">
        <ele>525.2</ele>
        <time>2021-02-24T16:16:16Z</time>
      </trkpt>
      <trkpt lat="45.30473" lon="5.89275">
        <ele>527.4</ele>
        <time>2021-02-24T16:16:15Z</time>
      </trkpt>
      <trkpt lat="45.30475" lon="5.89274">
        <ele>526.8</ele>
        <time>2021-02-24T16:16:14Z</time>
      </trkpt>
      <trkpt lat="45.30477" lon="5.89274">
        <ele>527.8</ele>
        <time>2021-02-24T16:16:13Z</time>
      </trkpt>
      <trkpt lat="45.30479" lon="5.89273">
        <ele>528.8</ele>
        <time>2021-02-24T16:16:12Z</time>
      </trkpt>
      <trkpt lat="45.30481" lon="5.89274">
        <ele>529.2</ele>
        <time>2021-02-24T16:16:11Z</time>
      </trkpt>
      <trkpt lat="45.30482" lon="5.89274">
        <ele>530</ele>
        <time>2021-02-24T16:16:10Z</time>
      </trkpt>
      <trkpt lat="45.30483" lon="5.89274">
        <ele>531.4</ele>
        <time>2021-02-24T16:16:09Z</time>
      </trkpt>
      <trkpt lat="45.30485" lon="5.89274">
        <ele>532</ele>
        <time>2021-02-24T16:16:08Z</time>
      </trkpt>
      <trkpt lat="45.30486" lon="5.89274">
        <ele>533.2</ele>
        <time>2021-02-24T16:16:07Z</time>
      </trkpt>
      <trkpt lat="45.30487" lon="5.89274">
        <ele>534.4</ele>
        <time>2021-02-24T16:16:06Z</time>
      </trkpt>
      <trkpt lat="45.30489" lon="5.89275">
        <ele>535</ele>
        <time>2021-02-24T16:16:05Z</time>
      </trkpt>
      <trkpt lat="45.3049" lon="5.89275">
        <ele>535.2</ele>
        <time>2021-02-24T16:16:04Z</time>
      </trkpt>
      <trkpt lat="45.30492" lon="5.89278">
        <ele>536.4</ele>
        <time>2021-02-24T16:16:03Z</time>
      </trkpt>
      <trkpt lat="45.30494" lon="5.89281">
        <ele>536.6</ele>
        <time>2021-02-24T16:16:02Z</time>
      </trkpt>
      <trkpt lat="45.30496" lon="5.89284">
        <ele>536.8</ele>
        <time>2021-02-24T16:16:01Z</time>
      </trkpt>
      <trkpt lat="45.30498" lon="5.89286">
        <ele>537.8</ele>
        <time>2021-02-24T16:16:00Z</time>
      </trkpt>
      <trkpt lat="45.30498" lon="5.89291">
        <ele>538.6</ele>
        <time>2021-02-24T16:15:59Z</time>
      </trkpt>
      <trkpt lat="45.30499" lon="5.89295">
        <ele>540.2</ele>
        <time>2021-02-24T16:15:58Z</time>
      </trkpt>
      <trkpt lat="45.305" lon="5.893">
        <ele>540.6</ele>
        <time>2021-02-24T16:15:57Z</time>
      </trkpt>
      <trkpt lat="45.305" lon="5.89304">
        <ele>541.2</ele>
        <time>2021-02-24T16:15:56Z</time>
      </trkpt>
      <trkpt lat="45.30502" lon="5.89306">
        <ele>542</ele>
        <time>2021-02-24T16:15:55Z</time>
      </trkpt>
      <trkpt lat="45.30504" lon="5.89309">
        <ele>541.2</ele>
        <time>2021-02-24T16:15:54Z</time>
      </trkpt>
      <trkpt lat="45.30505" lon="5.89311">
        <ele>541.6</ele>
        <time>2021-02-24T16:15:53Z</time>
      </trkpt>
      <trkpt lat="45.30507" lon="5.89313">
        <ele>542.2</ele>
        <time>2021-02-24T16:15:52Z</time>
      </trkpt>
      <trkpt lat="45.30508" lon="5.89316">
        <ele>543.2</ele>
        <time>2021-02-24T16:15:51Z</time>
      </trkpt>
      <trkpt lat="45.3051" lon="5.89318">
        <ele>544</ele>
        <time>2021-02-24T16:15:50Z</time>
      </trkpt>
      <trkpt lat="45.30511" lon="5.89321">
        <ele>545.6</ele>
        <time>2021-02-24T16:15:49Z</time>
      </trkpt>
      <trkpt lat="45.30513" lon="5.89323">
        <ele>545.8</ele>
        <time>2021-02-24T16:15:48Z</time>
      </trkpt>
      <trkpt lat="45.30514" lon="5.89326">
        <ele>545.6</ele>
        <time>2021-02-24T16:15:47Z</time>
      </trkpt>
      <trkpt lat="45.30516" lon="5.89328">
        <ele>546.2</ele>
        <time>2021-02-24T16:15:46Z</time>
      </trkpt>
      <trkpt lat="45.30517" lon="5.8933">
        <ele>547.4</ele>
        <time>2021-02-24T16:15:45Z</time>
      </trkpt>
      <trkpt lat="45.30519" lon="5.89333">
        <ele>548</ele>
        <time>2021-02-24T16:15:44Z</time>
      </trkpt>
      <trkpt lat="45.3052" lon="5.89335">
        <ele>549</ele>
        <time>2021-02-24T16:15:43Z</time>
      </trkpt>
      <trkpt lat="45.30522" lon="5.89338">
        <ele>550</ele>
        <time>2021-02-24T16:15:42Z</time>
      </trkpt>
      <trkpt lat="45.30523" lon="5.89341">
        <ele>550.8</ele>
        <time>2021-02-24T16:15:41Z</time>
      </trkpt>
      <trkpt lat="45.30525" lon="5.89344">
        <ele>551.2</ele>
        <time>2021-02-24T16:15:40Z</time>
      </trkpt>
      <trkpt lat="45.30525" lon="5.89346">
        <ele>552</ele>
        <time>2021-02-24T16:15:39Z</time>
      </trkpt>
      <trkpt lat="45.30526" lon="5.89348">
        <ele>553</ele>
        <time>2021-02-24T16:15:38Z</time>
      </trkpt>
      <trkpt lat="45.30526" lon="5.8935">
        <ele>553.8</ele>
        <time>2021-02-24T16:15:37Z</time>
      </trkpt>
      <trkpt lat="45.30527" lon="5.89352">
        <ele>554.6</ele>
        <time>2021-02-24T16:15:36Z</time>
      </trkpt>
      <trkpt lat="45.30528" lon="5.89354">
        <ele>555</ele>
        <time>2021-02-24T16:15:35Z</time>
      </trkpt>
      <trkpt lat="45.30528" lon="5.89356">
        <ele>555.6</ele>
        <time>2021-02-24T16:15:34Z</time>
      </trkpt>
      <trkpt lat="45.30529" lon="5.89359">
        <ele>556.6</ele>
        <time>2021-02-24T16:15:33Z</time>
      </trkpt>
      <trkpt lat="45.3053" lon="5.89361">
        <ele>557.2</ele>
        <time>2021-02-24T16:15:32Z</time>
      </trkpt>
      <trkpt lat="45.30531" lon="5.89363">
        <ele>558.2</ele>
        <time>2021-02-24T16:15:31Z</time>
      </trkpt>
      <trkpt lat="45.30532" lon="5.89366">
        <ele>558.8</ele>
        <time>2021-02-24T16:15:30Z</time>
      </trkpt>
      <trkpt lat="45.30532" lon="5.89368">
        <ele>559.4</ele>
        <time>2021-02-24T16:15:29Z</time>
      </trkpt>
      <trkpt lat="45.30534" lon="5.89369">
        <ele>560.2</ele>
        <time>2021-02-24T16:15:28Z</time>
      </trkpt>
      <trkpt lat="45.30535" lon="5.89371">
        <ele>560.4</ele>
        <time>2021-02-24T16:15:27Z</time>
      </trkpt>
      <trkpt lat="45.30536" lon="5.89372">
        <ele>561.6</ele>
        <time>2021-02-24T16:15:26Z</time>
      </trkpt>
      <trkpt lat="45.30537" lon="5.89374">
        <ele>562.8</ele>
        <time>2021-02-24T16:15:25Z</time>
      </trkpt>
      <trkpt lat="45.30538" lon="5.89376">
        <ele>563.8</ele>
        <time>2021-02-24T16:15:24Z</time>
      </trkpt>
      <trkpt lat="45.30539" lon="5.89377">
        <ele>565.2</ele>
        <time>2021-02-24T16:15:23Z</time>
      </trkpt>
      <trkpt lat="45.30541" lon="5.8938">
        <ele>565.8</ele>
        <time>2021-02-24T16:15:22Z</time>
      </trkpt>
      <trkpt lat="45.30542" lon="5.89382">
        <ele>566.4</ele>
        <time>2021-02-24T16:15:21Z</time>
      </trkpt>
      <trkpt lat="45.30544" lon="5.89385">
        <ele>567.4</ele>
        <time>2021-02-24T16:15:20Z</time>
      </trkpt>
      <trkpt lat="45.30545" lon="5.89388">
        <ele>568.2</ele>
        <time>2021-02-24T16:15:19Z</time>
      </trkpt>
      <trkpt lat="45.30545" lon="5.8939">
        <ele>568.6</ele>
        <time>2021-02-24T16:15:18Z</time>
      </trkpt>
      <trkpt lat="45.30545" lon="5.89392">
        <ele>569</ele>
        <time>2021-02-24T16:15:17Z</time>
      </trkpt>
      <trkpt lat="45.30545" lon="5.89394">
        <ele>569.6</ele>
        <time>2021-02-24T16:15:16Z</time>
      </trkpt>
      <trkpt lat="45.30545" lon="5.89396">
        <ele>570.6</ele>
        <time>2021-02-24T16:15:15Z</time>
      </trkpt>
      <trkpt lat="45.30545" lon="5.89398">
        <ele>571.4</ele>
        <time>2021-02-24T16:15:14Z</time>
      </trkpt>
      <trkpt lat="45.30545" lon="5.89401">
        <ele>572</ele>
        <time>2021-02-24T16:15:13Z</time>
      </trkpt>
      <trkpt lat="45.30545" lon="5.89403">
        <ele>573</ele>
        <time>2021-02-24T16:15:12Z</time>
      </trkpt>
      <trkpt lat="45.30548" lon="5.89404">
        <ele>573.6</ele>
        <time>2021-02-24T16:15:11Z</time>
      </trkpt>
      <trkpt lat="45.3055" lon="5.89406">
        <ele>574.6</ele>
        <time>2021-02-24T16:15:10Z</time>
      </trkpt>
      <trkpt lat="45.30552" lon="5.89408">
        <ele>575</ele>
        <time>2021-02-24T16:15:09Z</time>
      </trkpt>
      <trkpt lat="45.30554" lon="5.8941">
        <ele>575.6</ele>
        <time>2021-02-24T16:15:08Z</time>
      </trkpt>
      <trkpt lat="45.30554" lon="5.8941">
        <ele>577.4</ele>
        <time>2021-02-24T16:15:07Z</time>
      </trkpt>
      <trkpt lat="45.30554" lon="5.8941">
        <ele>577.2</ele>
        <time>2021-02-24T16:15:06Z</time>
      </trkpt>
      <trkpt lat="45.30558" lon="5.89414">
        <ele>578</ele>
        <time>2021-02-24T16:15:05Z</time>
      </trkpt>
      <trkpt lat="45.30561" lon="5.89418">
        <ele>578.6</ele>
        <time>2021-02-24T16:15:04Z</time>
      </trkpt>
      <trkpt lat="45.30564" lon="5.89422">
        <ele>579.4</ele>
        <time>2021-02-24T16:15:03Z</time>
      </trkpt>
      <trkpt lat="45.30567" lon="5.89426">
        <ele>580.4</ele>
        <time>2021-02-24T16:15:02Z</time>
      </trkpt>
      <trkpt lat="45.3057" lon="5.8943">
        <ele>580.8</ele>
        <time>2021-02-24T16:15:01Z</time>
      </trkpt>
      <trkpt lat="45.3057" lon="5.89431">
        <ele>581.4</ele>
        <time>2021-02-24T16:15:00Z</time>
      </trkpt>
      <trkpt lat="45.3057" lon="5.89431">
        <ele>582.4</ele>
        <time>2021-02-24T16:14:59Z</time>
      </trkpt>
      <trkpt lat="45.3057" lon="5.89432">
        <ele>582</ele>
        <time>2021-02-24T16:14:58Z</time>
      </trkpt>
      <trkpt lat="45.30571" lon="5.89433">
        <ele>582.6</ele>
        <time>2021-02-24T16:14:57Z</time>
      </trkpt>
      <trkpt lat="45.30571" lon="5.89434">
        <ele>583.2</ele>
        <time>2021-02-24T16:14:56Z</time>
      </trkpt>
      <trkpt lat="45.30571" lon="5.89434">
        <ele>584.2</ele>
        <time>2021-02-24T16:14:55Z</time>
      </trkpt>
      <trkpt lat="45.30571" lon="5.89435">
        <ele>584.8</ele>
        <time>2021-02-24T16:14:54Z</time>
      </trkpt>
      <trkpt lat="45.30572" lon="5.89436">
        <ele>585.4</ele>
        <time>2021-02-24T16:14:53Z</time>
      </trkpt>
      <trkpt lat="45.30572" lon="5.89437">
        <ele>586.4</ele>
        <time>2021-02-24T16:14:52Z</time>
      </trkpt>
      <trkpt lat="45.30572" lon="5.89437">
        <ele>586.8</ele>
        <time>2021-02-24T16:14:51Z</time>
      </trkpt>
      <trkpt lat="45.30572" lon="5.89438">
        <ele>587.4</ele>
        <time>2021-02-24T16:14:50Z</time>
      </trkpt>
      <trkpt lat="45.30573" lon="5.89439">
        <ele>588.2</ele>
        <time>2021-02-24T16:14:49Z</time>
      </trkpt>
      <trkpt lat="45.30573" lon="5.8944">
        <ele>588.6</ele>
        <time>2021-02-24T16:14:48Z</time>
      </trkpt>
      <trkpt lat="45.30573" lon="5.8944">
        <ele>589.4</ele>
        <time>2021-02-24T16:14:47Z</time>
      </trkpt>
      <trkpt lat="45.30573" lon="5.89441">
        <ele>590</ele>
        <time>2021-02-24T16:14:46Z</time>
      </trkpt>
      <trkpt lat="45.30574" lon="5.89442">
        <ele>591</ele>
        <time>2021-02-24T16:14:45Z</time>
      </trkpt>
      <trkpt lat="45.30574" lon="5.89442">
        <ele>591.4</ele>
        <time>2021-02-24T16:14:44Z</time>
      </trkpt>
      <trkpt lat="45.30574" lon="5.89443">
        <ele>592.6</ele>
        <time>2021-02-24T16:14:43Z</time>
      </trkpt>
      <trkpt lat="45.30574" lon="5.89444">
        <ele>593.2</ele>
        <time>2021-02-24T16:14:42Z</time>
      </trkpt>
      <trkpt lat="45.30576" lon="5.89443">
        <ele>594</ele>
        <time>2021-02-24T16:14:41Z</time>
      </trkpt>
      <trkpt lat="45.30578" lon="5.89443">
        <ele>594.8</ele>
        <time>2021-02-24T16:14:40Z</time>
      </trkpt>
      <trkpt lat="45.3058" lon="5.89442">
        <ele>595</ele>
        <time>2021-02-24T16:14:39Z</time>
      </trkpt>
      <trkpt lat="45.30582" lon="5.89441">
        <ele>595.8</ele>
        <time>2021-02-24T16:14:38Z</time>
      </trkpt>
      <trkpt lat="45.30584" lon="5.8944">
        <ele>596.2</ele>
        <time>2021-02-24T16:14:37Z</time>
      </trkpt>
      <trkpt lat="45.30585" lon="5.8944">
        <ele>597</ele>
        <time>2021-02-24T16:14:36Z</time>
      </trkpt>
      <trkpt lat="45.30586" lon="5.89439">
        <ele>597.6</ele>
        <time>2021-02-24T16:14:35Z</time>
      </trkpt>
      <trkpt lat="45.30586" lon="5.89438">
        <ele>598.6</ele>
        <time>2021-02-24T16:14:34Z</time>
      </trkpt>
      <trkpt lat="45.30587" lon="5.89437">
        <ele>598.8</ele>
        <time>2021-02-24T16:14:33Z</time>
      </trkpt>
      <trkpt lat="45.30588" lon="5.89436">
        <ele>599.4</ele>
        <time>2021-02-24T16:14:32Z</time>
      </trkpt>
      <trkpt lat="45.30589" lon="5.89435">
        <ele>600.2</ele>
        <time>2021-02-24T16:14:31Z</time>
      </trkpt>
      <trkpt lat="45.3059" lon="5.89434">
        <ele>601.4</ele>
        <time>2021-02-24T16:14:30Z</time>
      </trkpt>
      <trkpt lat="45.30591" lon="5.89433">
        <ele>602.2</ele>
        <time>2021-02-24T16:14:29Z</time>
      </trkpt>
      <trkpt lat="45.30591" lon="5.89432">
        <ele>602.8</ele>
        <time>2021-02-24T16:14:28Z</time>
      </trkpt>
      <trkpt lat="45.30592" lon="5.89431">
        <ele>603.8</ele>
        <time>2021-02-24T16:14:27Z</time>
      </trkpt>
      <trkpt lat="45.30592" lon="5.89431">
        <ele>604.6</ele>
        <time>2021-02-24T16:14:26Z</time>
      </trkpt>
      <trkpt lat="45.30592" lon="5.89431">
        <ele>606</ele>
        <time>2021-02-24T16:14:25Z</time>
      </trkpt>
      <trkpt lat="45.30585" lon="5.8942">
        <ele>606.2</ele>
        <time>2021-02-24T16:14:24Z</time>
      </trkpt>
      <trkpt lat="45.30585" lon="5.8942">
        <ele>606.6</ele>
        <time>2021-02-24T16:14:23Z</time>
      </trkpt>
      <trkpt lat="45.30585" lon="5.8942">
        <ele>607</ele>
        <time>2021-02-24T16:14:22Z</time>
      </trkpt>
      <trkpt lat="45.30584" lon="5.89413">
        <ele>607</ele>
        <time>2021-02-24T16:14:21Z</time>
      </trkpt>
      <trkpt lat="45.30584" lon="5.89408">
        <ele>608</ele>
        <time>2021-02-24T16:14:20Z</time>
      </trkpt>
      <trkpt lat="45.30584" lon="5.89402">
        <ele>608.8</ele>
        <time>2021-02-24T16:14:19Z</time>
      </trkpt>
      <trkpt lat="45.30585" lon="5.89396">
        <ele>610</ele>
        <time>2021-02-24T16:14:18Z</time>
      </trkpt>
      <trkpt lat="45.30585" lon="5.89391">
        <ele>610.8</ele>
        <time>2021-02-24T16:14:17Z</time>
      </trkpt>
      <trkpt lat="45.30585" lon="5.89391">
        <ele>611.6</ele>
        <time>2021-02-24T16:14:16Z</time>
      </trkpt>
      <trkpt lat="45.30585" lon="5.89391">
        <ele>612.8</ele>
        <time>2021-02-24T16:14:15Z</time>
      </trkpt>
      <trkpt lat="45.30586" lon="5.89384">
        <ele>613.6</ele>
        <time>2021-02-24T16:14:14Z</time>
      </trkpt>
      <trkpt lat="45.30587" lon="5.89382">
        <ele>614.2</ele>
        <time>2021-02-24T16:14:13Z</time>
      </trkpt>
      <trkpt lat="45.30587" lon="5.8938">
        <ele>615</ele>
        <time>2021-02-24T16:14:12Z</time>
      </trkpt>
      <trkpt lat="45.30592" lon="5.89372">
        <ele>616</ele>
        <time>2021-02-24T16:14:11Z</time>
      </trkpt>
      <trkpt lat="45.30593" lon="5.89372">
        <ele>616.8</ele>
        <time>2021-02-24T16:14:10Z</time>
      </trkpt>
      <trkpt lat="45.30595" lon="5.89371">
        <ele>617.4</ele>
        <time>2021-02-24T16:14:09Z</time>
      </trkpt>
      <trkpt lat="45.30596" lon="5.89371">
        <ele>618.6</ele>
        <time>2021-02-24T16:14:08Z</time>
      </trkpt>
      <trkpt lat="45.30598" lon="5.8937">
        <ele>619.2</ele>
        <time>2021-02-24T16:14:07Z</time>
      </trkpt>
      <trkpt lat="45.30599" lon="5.8937">
        <ele>620.6</ele>
        <time>2021-02-24T16:14:06Z</time>
      </trkpt>
      <trkpt lat="45.306" lon="5.89369">
        <ele>621.8</ele>
        <time>2021-02-24T16:14:05Z</time>
      </trkpt>
      <trkpt lat="45.30602" lon="5.89369">
        <ele>622.4</ele>
        <time>2021-02-24T16:14:04Z</time>
      </trkpt>
      <trkpt lat="45.30603" lon="5.89368">
        <ele>623.2</ele>
        <time>2021-02-24T16:14:03Z</time>
      </trkpt>
      <trkpt lat="45.30605" lon="5.89367">
        <ele>624</ele>
        <time>2021-02-24T16:14:02Z</time>
      </trkpt>
      <trkpt lat="45.30606" lon="5.89367">
        <ele>625.8</ele>
        <time>2021-02-24T16:14:01Z</time>
      </trkpt>
      <trkpt lat="45.30606" lon="5.89367">
        <ele>626.6</ele>
        <time>2021-02-24T16:14:00Z</time>
      </trkpt>
      <trkpt lat="45.30606" lon="5.89367">
        <ele>626.8</ele>
        <time>2021-02-24T16:13:59Z</time>
      </trkpt>
      <trkpt lat="45.30606" lon="5.89354">
        <ele>628</ele>
        <time>2021-02-24T16:13:58Z</time>
      </trkpt>
      <trkpt lat="45.30607" lon="5.8935">
        <ele>628.4</ele>
        <time>2021-02-24T16:13:57Z</time>
      </trkpt>
      <trkpt lat="45.30607" lon="5.89347">
        <ele>629.4</ele>
        <time>2021-02-24T16:13:56Z</time>
      </trkpt>
      <trkpt lat="45.30608" lon="5.89344">
        <ele>630.6</ele>
        <time>2021-02-24T16:13:55Z</time>
      </trkpt>
      <trkpt lat="45.30609" lon="5.8934">
        <ele>631.4</ele>
        <time>2021-02-24T16:13:54Z</time>
      </trkpt>
      <trkpt lat="45.30609" lon="5.8934">
        <ele>631.8</ele>
        <time>2021-02-24T16:13:53Z</time>
      </trkpt>
      <trkpt lat="45.30609" lon="5.8934">
        <ele>632.2</ele>
        <time>2021-02-24T16:13:52Z</time>
      </trkpt>
      <trkpt lat="45.30619" lon="5.89346">
        <ele>633.4</ele>
        <time>2021-02-24T16:13:51Z</time>
      </trkpt>
      <trkpt lat="45.30619" lon="5.89346">
        <ele>634.2</ele>
        <time>2021-02-24T16:13:50Z</time>
      </trkpt>
      <trkpt lat="45.30619" lon="5.89346">
        <ele>635.4</ele>
        <time>2021-02-24T16:13:49Z</time>
      </trkpt>
      <trkpt lat="45.30623" lon="5.89351">
        <ele>636.2</ele>
        <time>2021-02-24T16:13:48Z</time>
      </trkpt>
      <trkpt lat="45.30624" lon="5.89352">
        <ele>637</ele>
        <time>2021-02-24T16:13:47Z</time>
      </trkpt>
      <trkpt lat="45.30625" lon="5.89354">
        <ele>638.6</ele>
        <time>2021-02-24T16:13:46Z</time>
      </trkpt>
      <trkpt lat="45.30635" lon="5.89367">
        <ele>639.4</ele>
        <time>2021-02-24T16:13:45Z</time>
      </trkpt>
      <trkpt lat="45.30636" lon="5.89368">
        <ele>640.6</ele>
        <time>2021-02-24T16:13:44Z</time>
      </trkpt>
      <trkpt lat="45.30637" lon="5.89369">
        <ele>641.6</ele>
        <time>2021-02-24T16:13:43Z</time>
      </trkpt>
      <trkpt lat="45.30638" lon="5.8937">
        <ele>642.8</ele>
        <time>2021-02-24T16:13:42Z</time>
      </trkpt>
      <trkpt lat="45.30639" lon="5.89371">
        <ele>643.6</ele>
        <time>2021-02-24T16:13:41Z</time>
      </trkpt>
      <trkpt lat="45.3064" lon="5.89372">
        <ele>643.6</ele>
        <time>2021-02-24T16:13:40Z</time>
      </trkpt>
      <trkpt lat="45.30641" lon="5.89373">
        <ele>644</ele>
        <time>2021-02-24T16:13:39Z</time>
      </trkpt>
      <trkpt lat="45.30642" lon="5.89374">
        <ele>645.2</ele>
        <time>2021-02-24T16:13:38Z</time>
      </trkpt>
      <trkpt lat="45.30644" lon="5.89375">
        <ele>645.6</ele>
        <time>2021-02-24T16:13:37Z</time>
      </trkpt>
      <trkpt lat="45.30644" lon="5.89375">
        <ele>647</ele>
        <time>2021-02-24T16:13:36Z</time>
      </trkpt>
      <trkpt lat="45.30644" lon="5.89375">
        <ele>647.8</ele>
        <time>2021-02-24T16:13:35Z</time>
      </trkpt>
      <trkpt lat="45.30647" lon="5.89362">
        <ele>648.6</ele>
        <time>2021-02-24T16:13:34Z</time>
      </trkpt>
      <trkpt lat="45.30647" lon="5.89362">
        <ele>649.2</ele>
        <time>2021-02-24T16:13:33Z</time>
      </trkpt>
      <trkpt lat="45.30647" lon="5.89362">
        <ele>650</ele>
        <time>2021-02-24T16:13:32Z</time>
      </trkpt>
      <trkpt lat="45.30654" lon="5.89372">
        <ele>652</ele>
        <time>2021-02-24T16:13:31Z</time>
      </trkpt>
      <trkpt lat="45.30655" lon="5.89372">
        <ele>651.8</ele>
        <time>2021-02-24T16:13:30Z</time>
      </trkpt>
      <trkpt lat="45.30657" lon="5.89372">
        <ele>652.4</ele>
        <time>2021-02-24T16:13:29Z</time>
      </trkpt>
      <trkpt lat="45.30658" lon="5.89372">
        <ele>653.6</ele>
        <time>2021-02-24T16:13:28Z</time>
      </trkpt>
      <trkpt lat="45.30659" lon="5.89372">
        <ele>654.4</ele>
        <time>2021-02-24T16:13:27Z</time>
      </trkpt>
      <trkpt lat="45.30661" lon="5.89371">
        <ele>654.8</ele>
        <time>2021-02-24T16:13:26Z</time>
      </trkpt>
      <trkpt lat="45.30662" lon="5.89371">
        <ele>656</ele>
        <time>2021-02-24T16:13:25Z</time>
      </trkpt>
      <trkpt lat="45.30664" lon="5.89371">
        <ele>657.4</ele>
        <time>2021-02-24T16:13:24Z</time>
      </trkpt>
      <trkpt lat="45.30665" lon="5.89368">
        <ele>658</ele>
        <time>2021-02-24T16:13:23Z</time>
      </trkpt>
      <trkpt lat="45.30666" lon="5.89365">
        <ele>658</ele>
        <time>2021-02-24T16:13:22Z</time>
      </trkpt>
      <trkpt lat="45.30667" lon="5.89362">
        <ele>658.6</ele>
        <time>2021-02-24T16:13:21Z</time>
      </trkpt>
      <trkpt lat="45.30668" lon="5.89359">
        <ele>660</ele>
        <time>2021-02-24T16:13:20Z</time>
      </trkpt>
      <trkpt lat="45.30669" lon="5.89361">
        <ele>661</ele>
        <time>2021-02-24T16:13:19Z</time>
      </trkpt>
      <trkpt lat="45.30671" lon="5.89363">
        <ele>661.6</ele>
        <time>2021-02-24T16:13:18Z</time>
      </trkpt>
      <trkpt lat="45.30673" lon="5.89365">
        <ele>663.4</ele>
        <time>2021-02-24T16:13:17Z</time>
      </trkpt>
      <trkpt lat="45.30674" lon="5.89368">
        <ele>664.4</ele>
        <time>2021-02-24T16:13:16Z</time>
      </trkpt>
      <trkpt lat="45.30676" lon="5.8937">
        <ele>666</ele>
        <time>2021-02-24T16:13:15Z</time>
      </trkpt>
      <trkpt lat="45.30678" lon="5.89371">
        <ele>666.8</ele>
        <time>2021-02-24T16:13:14Z</time>
      </trkpt>
      <trkpt lat="45.3068" lon="5.89372">
        <ele>667.2</ele>
        <time>2021-02-24T16:13:13Z</time>
      </trkpt>
      <trkpt lat="45.30682" lon="5.89374">
        <ele>666.8</ele>
        <time>2021-02-24T16:13:12Z</time>
      </trkpt>
      <trkpt lat="45.30684" lon="5.89375">
        <ele>667.4</ele>
        <time>2021-02-24T16:13:11Z</time>
      </trkpt>
      <trkpt lat="45.30686" lon="5.89375">
        <ele>668.6</ele>
        <time>2021-02-24T16:13:10Z</time>
      </trkpt>
      <trkpt lat="45.30687" lon="5.89375">
        <ele>669.4</ele>
        <time>2021-02-24T16:13:09Z</time>
      </trkpt>
      <trkpt lat="45.30688" lon="5.89375">
        <ele>670.8</ele>
        <time>2021-02-24T16:13:08Z</time>
      </trkpt>
      <trkpt lat="45.3069" lon="5.89375">
        <ele>671.8</ele>
        <time>2021-02-24T16:13:07Z</time>
      </trkpt>
      <trkpt lat="45.30691" lon="5.89374">
        <ele>673.2</ele>
        <time>2021-02-24T16:13:06Z</time>
      </trkpt>
      <trkpt lat="45.30692" lon="5.89374">
        <ele>673.2</ele>
        <time>2021-02-24T16:13:05Z</time>
      </trkpt>
      <trkpt lat="45.30694" lon="5.89374">
        <ele>673.2</ele>
        <time>2021-02-24T16:13:04Z</time>
      </trkpt>
      <trkpt lat="45.30694" lon="5.89371">
        <ele>673.4</ele>
        <time>2021-02-24T16:13:03Z</time>
      </trkpt>
      <trkpt lat="45.30694" lon="5.89367">
        <ele>674.8</ele>
        <time>2021-02-24T16:13:02Z</time>
      </trkpt>
      <trkpt lat="45.30694" lon="5.89364">
        <ele>675.6</ele>
        <time>2021-02-24T16:13:01Z</time>
      </trkpt>
      <trkpt lat="45.30694" lon="5.8936">
        <ele>676.8</ele>
        <time>2021-02-24T16:13:00Z</time>
      </trkpt>
      <trkpt lat="45.30694" lon="5.89357">
        <ele>678.2</ele>
        <time>2021-02-24T16:12:59Z</time>
      </trkpt>
      <trkpt lat="45.30694" lon="5.89353">
        <ele>679.2</ele>
        <time>2021-02-24T16:12:58Z</time>
      </trkpt>
      <trkpt lat="45.30693" lon="5.8935">
        <ele>680</ele>
        <time>2021-02-24T16:12:57Z</time>
      </trkpt>
      <trkpt lat="45.30693" lon="5.89347">
        <ele>681.2</ele>
        <time>2021-02-24T16:12:56Z</time>
      </trkpt>
      <trkpt lat="45.30692" lon="5.89343">
        <ele>681.6</ele>
        <time>2021-02-24T16:12:55Z</time>
      </trkpt>
      <trkpt lat="45.30692" lon="5.8934">
        <ele>682.2</ele>
        <time>2021-02-24T16:12:54Z</time>
      </trkpt>
      <trkpt lat="45.30692" lon="5.89336">
        <ele>683.6</ele>
        <time>2021-02-24T16:12:53Z</time>
      </trkpt>
      <trkpt lat="45.30692" lon="5.89332">
        <ele>684.8</ele>
        <time>2021-02-24T16:12:52Z</time>
      </trkpt>
      <trkpt lat="45.30692" lon="5.89328">
        <ele>686.2</ele>
        <time>2021-02-24T16:12:51Z</time>
      </trkpt>
      <trkpt lat="45.30692" lon="5.89328">
        <ele>687.2</ele>
        <time>2021-02-24T16:12:50Z</time>
      </trkpt>
      <trkpt lat="45.30692" lon="5.89328">
        <ele>688.4</ele>
        <time>2021-02-24T16:12:49Z</time>
      </trkpt>
      <trkpt lat="45.30692" lon="5.89312">
        <ele>690</ele>
        <time>2021-02-24T16:12:48Z</time>
      </trkpt>
      <trkpt lat="45.30692" lon="5.89312">
        <ele>689.8</ele>
        <time>2021-02-24T16:12:47Z</time>
      </trkpt>
      <trkpt lat="45.30692" lon="5.89312">
        <ele>690.2</ele>
        <time>2021-02-24T16:12:46Z</time>
      </trkpt>
      <trkpt lat="45.30694" lon="5.89299">
        <ele>691.4</ele>
        <time>2021-02-24T16:12:45Z</time>
      </trkpt>
      <trkpt lat="45.30694" lon="5.89296">
        <ele>692.4</ele>
        <time>2021-02-24T16:12:44Z</time>
      </trkpt>
      <trkpt lat="45.30694" lon="5.89293">
        <ele>692.4</ele>
        <time>2021-02-24T16:12:43Z</time>
      </trkpt>
      <trkpt lat="45.30694" lon="5.8929">
        <ele>694</ele>
        <time>2021-02-24T16:12:42Z</time>
      </trkpt>
      <trkpt lat="45.30694" lon="5.89287">
        <ele>695.2</ele>
        <time>2021-02-24T16:12:41Z</time>
      </trkpt>
      <trkpt lat="45.30693" lon="5.89285">
        <ele>695.6</ele>
        <time>2021-02-24T16:12:40Z</time>
      </trkpt>
      <trkpt lat="45.30693" lon="5.89285">
        <ele>694.4</ele>
        <time>2021-02-24T16:12:39Z</time>
      </trkpt>
      <trkpt lat="45.30693" lon="5.89285">
        <ele>695</ele>
        <time>2021-02-24T16:12:38Z</time>
      </trkpt>
      <trkpt lat="45.30693" lon="5.89278">
        <ele>696</ele>
        <time>2021-02-24T16:12:37Z</time>
      </trkpt>
      <trkpt lat="45.30693" lon="5.89276">
        <ele>696.8</ele>
        <time>2021-02-24T16:12:36Z</time>
      </trkpt>
      <trkpt lat="45.30692" lon="5.89274">
        <ele>698</ele>
        <time>2021-02-24T16:12:35Z</time>
      </trkpt>
      <trkpt lat="45.30688" lon="5.89256">
        <ele>698.6</ele>
        <time>2021-02-24T16:12:34Z</time>
      </trkpt>
      <trkpt lat="45.30688" lon="5.89253">
        <ele>700</ele>
        <time>2021-02-24T16:12:33Z</time>
      </trkpt>
      <trkpt lat="45.30688" lon="5.8925">
        <ele>700.6</ele>
        <time>2021-02-24T16:12:32Z</time>
      </trkpt>
      <trkpt lat="45.30688" lon="5.89246">
        <ele>700.6</ele>
        <time>2021-02-24T16:12:31Z</time>
      </trkpt>
      <trkpt lat="45.30687" lon="5.89243">
        <ele>701.2</ele>
        <time>2021-02-24T16:12:30Z</time>
      </trkpt>
      <trkpt lat="45.30687" lon="5.89243">
        <ele>701.4</ele>
        <time>2021-02-24T16:12:29Z</time>
      </trkpt>
      <trkpt lat="45.30687" lon="5.89243">
        <ele>703.2</ele>
        <time>2021-02-24T16:12:28Z</time>
      </trkpt>
      <trkpt lat="45.30687" lon="5.89228">
        <ele>703.8</ele>
        <time>2021-02-24T16:12:27Z</time>
      </trkpt>
      <trkpt lat="45.30687" lon="5.89228">
        <ele>704.8</ele>
        <time>2021-02-24T16:12:26Z</time>
      </trkpt>
      <trkpt lat="45.30687" lon="5.89228">
        <ele>705.6</ele>
        <time>2021-02-24T16:12:25Z</time>
      </trkpt>
      <trkpt lat="45.30688" lon="5.89222">
        <ele>706.6</ele>
        <time>2021-02-24T16:12:24Z</time>
      </trkpt>
      <trkpt lat="45.30687" lon="5.89217">
        <ele>707.6</ele>
        <time>2021-02-24T16:12:23Z</time>
      </trkpt>
      <trkpt lat="45.30687" lon="5.89213">
        <ele>708.4</ele>
        <time>2021-02-24T16:12:22Z</time>
      </trkpt>
      <trkpt lat="45.30687" lon="5.89208">
        <ele>708.8</ele>
        <time>2021-02-24T16:12:21Z</time>
      </trkpt>
      <trkpt lat="45.30687" lon="5.89204">
        <ele>709.4</ele>
        <time>2021-02-24T16:12:20Z</time>
      </trkpt>
      <trkpt lat="45.30687" lon="5.89199">
        <ele>711.4</ele>
        <time>2021-02-24T16:12:19Z</time>
      </trkpt>
      <trkpt lat="45.30686" lon="5.89196">
        <ele>713</ele>
        <time>2021-02-24T16:12:18Z</time>
      </trkpt>
      <trkpt lat="45.30685" lon="5.89193">
        <ele>714</ele>
        <time>2021-02-24T16:12:17Z</time>
      </trkpt>
      <trkpt lat="45.30685" lon="5.8919">
        <ele>715.4</ele>
        <time>2021-02-24T16:12:16Z</time>
      </trkpt>
      <trkpt lat="45.30684" lon="5.89187">
        <ele>715.4</ele>
        <time>2021-02-24T16:12:15Z</time>
      </trkpt>
      <trkpt lat="45.30684" lon="5.89183">
        <ele>716.2</ele>
        <time>2021-02-24T16:12:14Z</time>
      </trkpt>
      <trkpt lat="45.30684" lon="5.8918">
        <ele>717.6</ele>
        <time>2021-02-24T16:12:13Z</time>
      </trkpt>
      <trkpt lat="45.30684" lon="5.89176">
        <ele>717.4</ele>
        <time>2021-02-24T16:12:12Z</time>
      </trkpt>
      <trkpt lat="45.30684" lon="5.89172">
        <ele>718</ele>
        <time>2021-02-24T16:12:11Z</time>
      </trkpt>
      <trkpt lat="45.30683" lon="5.8917">
        <ele>719.6</ele>
        <time>2021-02-24T16:12:10Z</time>
      </trkpt>
      <trkpt lat="45.30683" lon="5.89167">
        <ele>720.4</ele>
        <time>2021-02-24T16:12:09Z</time>
      </trkpt>
      <trkpt lat="45.30682" lon="5.89164">
        <ele>721.2</ele>
        <time>2021-02-24T16:12:08Z</time>
      </trkpt>
      <trkpt lat="45.30681" lon="5.89161">
        <ele>723</ele>
        <time>2021-02-24T16:12:07Z</time>
      </trkpt>
      <trkpt lat="45.3068" lon="5.89158">
        <ele>724</ele>
        <time>2021-02-24T16:12:06Z</time>
      </trkpt>
      <trkpt lat="45.3068" lon="5.89158">
        <ele>724.8</ele>
        <time>2021-02-24T16:12:05Z</time>
      </trkpt>
      <trkpt lat="45.30678" lon="5.89152">
        <ele>726.4</ele>
        <time>2021-02-24T16:12:04Z</time>
      </trkpt>
      <trkpt lat="45.30677" lon="5.89146">
        <ele>726.8</ele>
        <time>2021-02-24T16:12:03Z</time>
      </trkpt>
      <trkpt lat="45.30675" lon="5.8914">
        <ele>727.4</ele>
        <time>2021-02-24T16:12:02Z</time>
      </trkpt>
      <trkpt lat="45.30674" lon="5.89135">
        <ele>729</ele>
        <time>2021-02-24T16:12:01Z</time>
      </trkpt>
      <trkpt lat="45.30672" lon="5.89129">
        <ele>729.8</ele>
        <time>2021-02-24T16:12:00Z</time>
      </trkpt>
      <trkpt lat="45.30672" lon="5.89129">
        <ele>730.4</ele>
        <time>2021-02-24T16:11:59Z</time>
      </trkpt>
      <trkpt lat="45.30672" lon="5.89129">
        <ele>731.6</ele>
        <time>2021-02-24T16:11:58Z</time>
      </trkpt>
      <trkpt lat="45.3067" lon="5.89114">
        <ele>732.6</ele>
        <time>2021-02-24T16:11:57Z</time>
      </trkpt>
      <trkpt lat="45.3067" lon="5.89114">
        <ele>733.4</ele>
        <time>2021-02-24T16:11:56Z</time>
      </trkpt>
      <trkpt lat="45.3067" lon="5.89114">
        <ele>735</ele>
        <time>2021-02-24T16:11:55Z</time>
      </trkpt>
      <trkpt lat="45.30671" lon="5.89107">
        <ele>736</ele>
        <time>2021-02-24T16:11:54Z</time>
      </trkpt>
      <trkpt lat="45.30674" lon="5.89106">
        <ele>736</ele>
        <time>2021-02-24T16:11:53Z</time>
      </trkpt>
      <trkpt lat="45.30677" lon="5.89104">
        <ele>737.4</ele>
        <time>2021-02-24T16:11:52Z</time>
      </trkpt>
      <trkpt lat="45.3068" lon="5.89103">
        <ele>738.4</ele>
        <time>2021-02-24T16:11:51Z</time>
      </trkpt>
      <trkpt lat="45.30683" lon="5.89102">
        <ele>739.6</ele>
        <time>2021-02-24T16:11:50Z</time>
      </trkpt>
      <trkpt lat="45.30683" lon="5.89102">
        <ele>739.6</ele>
        <time>2021-02-24T16:11:49Z</time>
      </trkpt>
      <trkpt lat="45.30683" lon="5.89102">
        <ele>740.2</ele>
        <time>2021-02-24T16:11:48Z</time>
      </trkpt>
      <trkpt lat="45.30688" lon="5.89104">
        <ele>741.4</ele>
        <time>2021-02-24T16:11:47Z</time>
      </trkpt>
      <trkpt lat="45.30693" lon="5.89105">
        <ele>742</ele>
        <time>2021-02-24T16:11:46Z</time>
      </trkpt>
      <trkpt lat="45.30697" lon="5.89106">
        <ele>742.8</ele>
        <time>2021-02-24T16:11:45Z</time>
      </trkpt>
      <trkpt lat="45.30701" lon="5.89107">
        <ele>743.6</ele>
        <time>2021-02-24T16:11:44Z</time>
      </trkpt>
      <trkpt lat="45.30706" lon="5.89109">
        <ele>744.2</ele>
        <time>2021-02-24T16:11:43Z</time>
      </trkpt>
      <trkpt lat="45.30709" lon="5.89109">
        <ele>745</ele>
        <time>2021-02-24T16:11:42Z</time>
      </trkpt>
      <trkpt lat="45.30711" lon="5.8911">
        <ele>746.2</ele>
        <time>2021-02-24T16:11:41Z</time>
      </trkpt>
      <trkpt lat="45.30714" lon="5.89111">
        <ele>747.2</ele>
        <time>2021-02-24T16:11:40Z</time>
      </trkpt>
      <trkpt lat="45.30717" lon="5.89112">
        <ele>747.8</ele>
        <time>2021-02-24T16:11:39Z</time>
      </trkpt>
      <trkpt lat="45.30717" lon="5.89112">
        <ele>748.4</ele>
        <time>2021-02-24T16:11:38Z</time>
      </trkpt>
      <trkpt lat="45.30717" lon="5.89112">
        <ele>749.2</ele>
        <time>2021-02-24T16:11:37Z</time>
      </trkpt>
      <trkpt lat="45.30722" lon="5.89116">
        <ele>750.8</ele>
        <time>2021-02-24T16:11:36Z</time>
      </trkpt>
      <trkpt lat="45.30724" lon="5.89117">
        <ele>751.4</ele>
        <time>2021-02-24T16:11:35Z</time>
      </trkpt>
      <trkpt lat="45.30725" lon="5.89118">
        <ele>752.2</ele>
        <time>2021-02-24T16:11:34Z</time>
      </trkpt>
      <trkpt lat="45.30732" lon="5.89122">
        <ele>753.6</ele>
        <time>2021-02-24T16:11:33Z</time>
      </trkpt>
      <trkpt lat="45.30734" lon="5.89124">
        <ele>754.8</ele>
        <time>2021-02-24T16:11:32Z</time>
      </trkpt>
      <trkpt lat="45.30736" lon="5.89125">
        <ele>756.6</ele>
        <time>2021-02-24T16:11:31Z</time>
      </trkpt>
      <trkpt lat="45.30742" lon="5.8913">
        <ele>756.2</ele>
        <time>2021-02-24T16:11:30Z</time>
      </trkpt>
      <trkpt lat="45.30743" lon="5.89131">
        <ele>757.2</ele>
        <time>2021-02-24T16:11:29Z</time>
      </trkpt>
      <trkpt lat="45.30745" lon="5.89133">
        <ele>758.4</ele>
        <time>2021-02-24T16:11:28Z</time>
      </trkpt>
      <trkpt lat="45.30748" lon="5.89141">
        <ele>758.6</ele>
        <time>2021-02-24T16:11:27Z</time>
      </trkpt>
      <trkpt lat="45.30749" lon="5.89143">
        <ele>759</ele>
        <time>2021-02-24T16:11:26Z</time>
      </trkpt>
      <trkpt lat="45.3075" lon="5.89146">
        <ele>760.2</ele>
        <time>2021-02-24T16:11:25Z</time>
      </trkpt>
      <trkpt lat="45.30753" lon="5.89154">
        <ele>761.4</ele>
        <time>2021-02-24T16:11:24Z</time>
      </trkpt>
      <trkpt lat="45.30754" lon="5.89156">
        <ele>762</ele>
        <time>2021-02-24T16:11:23Z</time>
      </trkpt>
      <trkpt lat="45.30755" lon="5.89158">
        <ele>763</ele>
        <time>2021-02-24T16:11:22Z</time>
      </trkpt>
      <trkpt lat="45.30761" lon="5.89166">
        <ele>763</ele>
        <time>2021-02-24T16:11:21Z</time>
      </trkpt>
      <trkpt lat="45.30764" lon="5.89171">
        <ele>764.6</ele>
        <time>2021-02-24T16:11:20Z</time>
      </trkpt>
      <trkpt lat="45.30767" lon="5.89175">
        <ele>765.6</ele>
        <time>2021-02-24T16:11:19Z</time>
      </trkpt>
      <trkpt lat="45.3077" lon="5.8918">
        <ele>766.8</ele>
        <time>2021-02-24T16:11:18Z</time>
      </trkpt>
      <trkpt lat="45.30772" lon="5.89184">
        <ele>768.2</ele>
        <time>2021-02-24T16:11:17Z</time>
      </trkpt>
      <trkpt lat="45.30773" lon="5.89185">
        <ele>768.2</ele>
        <time>2021-02-24T16:11:16Z</time>
      </trkpt>
      <trkpt lat="45.30773" lon="5.89186">
        <ele>768.2</ele>
        <time>2021-02-24T16:11:15Z</time>
      </trkpt>
      <trkpt lat="45.30774" lon="5.89186">
        <ele>769.4</ele>
        <time>2021-02-24T16:11:14Z</time>
      </trkpt>
      <trkpt lat="45.30774" lon="5.89187">
        <ele>770.2</ele>
        <time>2021-02-24T16:11:13Z</time>
      </trkpt>
      <trkpt lat="45.30775" lon="5.89188">
        <ele>770.6</ele>
        <time>2021-02-24T16:11:12Z</time>
      </trkpt>
      <trkpt lat="45.30775" lon="5.89189">
        <ele>772</ele>
        <time>2021-02-24T16:11:11Z</time>
      </trkpt>
      <trkpt lat="45.30776" lon="5.89189">
        <ele>772.8</ele>
        <time>2021-02-24T16:11:10Z</time>
      </trkpt>
      <trkpt lat="45.30776" lon="5.8919">
        <ele>774</ele>
        <time>2021-02-24T16:11:09Z</time>
      </trkpt>
      <trkpt lat="45.30777" lon="5.89191">
        <ele>774</ele>
        <time>2021-02-24T16:11:08Z</time>
      </trkpt>
      <trkpt lat="45.30777" lon="5.89192">
        <ele>774.2</ele>
        <time>2021-02-24T16:11:07Z</time>
      </trkpt>
      <trkpt lat="45.30778" lon="5.89193">
        <ele>775.6</ele>
        <time>2021-02-24T16:11:06Z</time>
      </trkpt>
      <trkpt lat="45.30778" lon="5.89193">
        <ele>776</ele>
        <time>2021-02-24T16:11:05Z</time>
      </trkpt>
      <trkpt lat="45.30778" lon="5.89194">
        <ele>777</ele>
        <time>2021-02-24T16:11:04Z</time>
      </trkpt>
      <trkpt lat="45.30778" lon="5.89192">
        <ele>778</ele>
        <time>2021-02-24T16:11:03Z</time>
      </trkpt>
      <trkpt lat="45.30777" lon="5.8919">
        <ele>778.2</ele>
        <time>2021-02-24T16:11:02Z</time>
      </trkpt>
      <trkpt lat="45.30776" lon="5.89188">
        <ele>779</ele>
        <time>2021-02-24T16:11:01Z</time>
      </trkpt>
      <trkpt lat="45.30775" lon="5.89186">
        <ele>780</ele>
        <time>2021-02-24T16:11:00Z</time>
      </trkpt>
      <trkpt lat="45.30774" lon="5.89184">
        <ele>780.6</ele>
        <time>2021-02-24T16:10:59Z</time>
      </trkpt>
      <trkpt lat="45.30774" lon="5.89182">
        <ele>781.4</ele>
        <time>2021-02-24T16:10:58Z</time>
      </trkpt>
      <trkpt lat="45.30774" lon="5.89179">
        <ele>781</ele>
        <time>2021-02-24T16:10:57Z</time>
      </trkpt>
      <trkpt lat="45.30773" lon="5.89175">
        <ele>782</ele>
        <time>2021-02-24T16:10:56Z</time>
      </trkpt>
      <trkpt lat="45.30773" lon="5.89171">
        <ele>781.2</ele>
        <time>2021-02-24T16:10:55Z</time>
      </trkpt>
      <trkpt lat="45.30773" lon="5.89167">
        <ele>781.8</ele>
        <time>2021-02-24T16:10:54Z</time>
      </trkpt>
      <trkpt lat="45.30773" lon="5.89167">
        <ele>782.8</ele>
        <time>2021-02-24T16:10:53Z</time>
      </trkpt>
      <trkpt lat="45.30773" lon="5.89167">
        <ele>783.2</ele>
        <time>2021-02-24T16:10:52Z</time>
      </trkpt>
      <trkpt lat="45.30772" lon="5.89154">
        <ele>784.4</ele>
        <time>2021-02-24T16:10:51Z</time>
      </trkpt>
      <trkpt lat="45.30772" lon="5.89154">
        <ele>784.8</ele>
        <time>2021-02-24T16:10:50Z</time>
      </trkpt>
      <trkpt lat="45.30772" lon="5.89154">
        <ele>785.4</ele>
        <time>2021-02-24T16:10:49Z</time>
      </trkpt>
      <trkpt lat="45.30768" lon="5.89141">
        <ele>785.6</ele>
        <time>2021-02-24T16:10:48Z</time>
      </trkpt>
      <trkpt lat="45.30768" lon="5.89141">
        <ele>786</ele>
        <time>2021-02-24T16:10:47Z</time>
      </trkpt>
      <trkpt lat="45.30768" lon="5.89141">
        <ele>786.8</ele>
        <time>2021-02-24T16:10:46Z</time>
      </trkpt>
      <trkpt lat="45.30766" lon="5.89135">
        <ele>787.8</ele>
        <time>2021-02-24T16:10:45Z</time>
      </trkpt>
      <trkpt lat="45.30764" lon="5.89131">
        <ele>787.6</ele>
        <time>2021-02-24T16:10:44Z</time>
      </trkpt>
      <trkpt lat="45.30762" lon="5.89126">
        <ele>788.2</ele>
        <time>2021-02-24T16:10:43Z</time>
      </trkpt>
      <trkpt lat="45.30759" lon="5.89122">
        <ele>788.6</ele>
        <time>2021-02-24T16:10:42Z</time>
      </trkpt>
      <trkpt lat="45.30757" lon="5.89117">
        <ele>789.8</ele>
        <time>2021-02-24T16:10:41Z</time>
      </trkpt>
      <trkpt lat="45.30755" lon="5.89114">
        <ele>790.4</ele>
        <time>2021-02-24T16:10:40Z</time>
      </trkpt>
      <trkpt lat="45.30754" lon="5.89111">
        <ele>790.2</ele>
        <time>2021-02-24T16:10:39Z</time>
      </trkpt>
      <trkpt lat="45.30752" lon="5.89107">
        <ele>791</ele>
        <time>2021-02-24T16:10:38Z</time>
      </trkpt>
      <trkpt lat="45.3075" lon="5.89104">
        <ele>790.4</ele>
        <time>2021-02-24T16:10:37Z</time>
      </trkpt>
      <trkpt lat="45.3075" lon="5.891">
        <ele>790.6</ele>
        <time>2021-02-24T16:10:36Z</time>
      </trkpt>
      <trkpt lat="45.30749" lon="5.89097">
        <ele>792.2</ele>
        <time>2021-02-24T16:10:35Z</time>
      </trkpt>
      <trkpt lat="45.30748" lon="5.89093">
        <ele>792.2</ele>
        <time>2021-02-24T16:10:34Z</time>
      </trkpt>
      <trkpt lat="45.30748" lon="5.8909">
        <ele>793.6</ele>
        <time>2021-02-24T16:10:33Z</time>
      </trkpt>
      <trkpt lat="45.30748" lon="5.8909">
        <ele>794</ele>
        <time>2021-02-24T16:10:32Z</time>
      </trkpt>
      <trkpt lat="45.30748" lon="5.8909">
        <ele>794</ele>
        <time>2021-02-24T16:10:31Z</time>
      </trkpt>
      <trkpt lat="45.30744" lon="5.89077">
        <ele>794.4</ele>
        <time>2021-02-24T16:10:30Z</time>
      </trkpt>
      <trkpt lat="45.30744" lon="5.89077">
        <ele>795.8</ele>
        <time>2021-02-24T16:10:29Z</time>
      </trkpt>
      <trkpt lat="45.30744" lon="5.89077">
        <ele>796.2</ele>
        <time>2021-02-24T16:10:28Z</time>
      </trkpt>
      <trkpt lat="45.30743" lon="5.8907">
        <ele>797</ele>
        <time>2021-02-24T16:10:27Z</time>
      </trkpt>
      <trkpt lat="45.30742" lon="5.89065">
        <ele>797.8</ele>
        <time>2021-02-24T16:10:26Z</time>
      </trkpt>
      <trkpt lat="45.30741" lon="5.8906">
        <ele>798.8</ele>
        <time>2021-02-24T16:10:25Z</time>
      </trkpt>
      <trkpt lat="45.30739" lon="5.89055">
        <ele>799.2</ele>
        <time>2021-02-24T16:10:24Z</time>
      </trkpt>
      <trkpt lat="45.30738" lon="5.8905">
        <ele>801</ele>
        <time>2021-02-24T16:10:23Z</time>
      </trkpt>
      <trkpt lat="45.30738" lon="5.8905">
        <ele>802.2</ele>
        <time>2021-02-24T16:10:22Z</time>
      </trkpt>
      <trkpt lat="45.30738" lon="5.8905">
        <ele>803</ele>
        <time>2021-02-24T16:10:21Z</time>
      </trkpt>
      <trkpt lat="45.30734" lon="5.89039">
        <ele>803.8</ele>
        <time>2021-02-24T16:10:20Z</time>
      </trkpt>
      <trkpt lat="45.30732" lon="5.89036">
        <ele>804.2</ele>
        <time>2021-02-24T16:10:19Z</time>
      </trkpt>
      <trkpt lat="45.30731" lon="5.89033">
        <ele>805.4</ele>
        <time>2021-02-24T16:10:18Z</time>
      </trkpt>
      <trkpt lat="45.30729" lon="5.89031">
        <ele>806.8</ele>
        <time>2021-02-24T16:10:17Z</time>
      </trkpt>
      <trkpt lat="45.30727" lon="5.89028">
        <ele>806.8</ele>
        <time>2021-02-24T16:10:16Z</time>
      </trkpt>
      <trkpt lat="45.30726" lon="5.89025">
        <ele>808.4</ele>
        <time>2021-02-24T16:10:15Z</time>
      </trkpt>
      <trkpt lat="45.30724" lon="5.89022">
        <ele>808.8</ele>
        <time>2021-02-24T16:10:14Z</time>
      </trkpt>
      <trkpt lat="45.30722" lon="5.89018">
        <ele>808.6</ele>
        <time>2021-02-24T16:10:13Z</time>
      </trkpt>
      <trkpt lat="45.30721" lon="5.89015">
        <ele>808.2</ele>
        <time>2021-02-24T16:10:12Z</time>
      </trkpt>
      <trkpt lat="45.30719" lon="5.89012">
        <ele>808.2</ele>
        <time>2021-02-24T16:10:11Z</time>
      </trkpt>
      <trkpt lat="45.30717" lon="5.89009">
        <ele>809.2</ele>
        <time>2021-02-24T16:10:10Z</time>
      </trkpt>
      <trkpt lat="45.30714" lon="5.89005">
        <ele>809.6</ele>
        <time>2021-02-24T16:10:09Z</time>
      </trkpt>
      <trkpt lat="45.30712" lon="5.89002">
        <ele>811.2</ele>
        <time>2021-02-24T16:10:08Z</time>
      </trkpt>
      <trkpt lat="45.30711" lon="5.88999">
        <ele>812.2</ele>
        <time>2021-02-24T16:10:07Z</time>
      </trkpt>
      <trkpt lat="45.30709" lon="5.88996">
        <ele>813.4</ele>
        <time>2021-02-24T16:10:06Z</time>
      </trkpt>
      <trkpt lat="45.30708" lon="5.88993">
        <ele>814.6</ele>
        <time>2021-02-24T16:10:05Z</time>
      </trkpt>
      <trkpt lat="45.30706" lon="5.8899">
        <ele>814.2</ele>
        <time>2021-02-24T16:10:04Z</time>
      </trkpt>
      <trkpt lat="45.30706" lon="5.8899">
        <ele>815.4</ele>
        <time>2021-02-24T16:10:03Z</time>
      </trkpt>
      <trkpt lat="45.30706" lon="5.8899">
        <ele>816</ele>
        <time>2021-02-24T16:10:02Z</time>
      </trkpt>
      <trkpt lat="45.30702" lon="5.88976">
        <ele>817</ele>
        <time>2021-02-24T16:10:01Z</time>
      </trkpt>
      <trkpt lat="45.30702" lon="5.88976">
        <ele>819</ele>
        <time>2021-02-24T16:09:59Z</time>
      </trkpt>
      <trkpt lat="45.307" lon="5.88968">
        <ele>820</ele>
        <time>2021-02-24T16:09:58Z</time>
      </trkpt>
      <trkpt lat="45.307" lon="5.88964">
        <ele>820.6</ele>
        <time>2021-02-24T16:09:57Z</time>
      </trkpt>
      <trkpt lat="45.307" lon="5.88952">
        <ele>821.8</ele>
        <time>2021-02-24T16:09:56Z</time>
      </trkpt>
      <trkpt lat="45.307" lon="5.88949">
        <ele>822.4</ele>
        <time>2021-02-24T16:09:55Z</time>
      </trkpt>
      <trkpt lat="45.307" lon="5.88946">
        <ele>821.8</ele>
        <time>2021-02-24T16:09:54Z</time>
      </trkpt>
      <trkpt lat="45.30704" lon="5.88929">
        <ele>823.2</ele>
        <time>2021-02-24T16:09:53Z</time>
      </trkpt>
      <trkpt lat="45.30704" lon="5.88929">
        <ele>824.2</ele>
        <time>2021-02-24T16:09:52Z</time>
      </trkpt>
      <trkpt lat="45.30704" lon="5.88929">
        <ele>825</ele>
        <time>2021-02-24T16:09:51Z</time>
      </trkpt>
      <trkpt lat="45.30707" lon="5.88927">
        <ele>825.6</ele>
        <time>2021-02-24T16:09:50Z</time>
      </trkpt>
      <trkpt lat="45.30707" lon="5.88927">
        <ele>827.4</ele>
        <time>2021-02-24T16:09:49Z</time>
      </trkpt>
      <trkpt lat="45.30709" lon="5.88926">
        <ele>828.8</ele>
        <time>2021-02-24T16:09:48Z</time>
      </trkpt>
      <trkpt lat="45.30712" lon="5.88924">
        <ele>830.2</ele>
        <time>2021-02-24T16:09:47Z</time>
      </trkpt>
      <trkpt lat="45.30714" lon="5.88923">
        <ele>831.2</ele>
        <time>2021-02-24T16:09:46Z</time>
      </trkpt>
      <trkpt lat="45.30716" lon="5.88921">
        <ele>831.6</ele>
        <time>2021-02-24T16:09:45Z</time>
      </trkpt>
      <trkpt lat="45.30719" lon="5.8892">
        <ele>832.6</ele>
        <time>2021-02-24T16:09:44Z</time>
      </trkpt>
      <trkpt lat="45.3072" lon="5.8892">
        <ele>834</ele>
        <time>2021-02-24T16:09:43Z</time>
      </trkpt>
      <trkpt lat="45.30722" lon="5.88921">
        <ele>835.2</ele>
        <time>2021-02-24T16:09:42Z</time>
      </trkpt>
      <trkpt lat="45.30724" lon="5.88921">
        <ele>837.6</ele>
        <time>2021-02-24T16:09:41Z</time>
      </trkpt>
      <trkpt lat="45.30726" lon="5.88921">
        <ele>837.8</ele>
        <time>2021-02-24T16:09:40Z</time>
      </trkpt>
      <trkpt lat="45.30728" lon="5.88922">
        <ele>838.2</ele>
        <time>2021-02-24T16:09:39Z</time>
      </trkpt>
      <trkpt lat="45.30728" lon="5.88926">
        <ele>839.2</ele>
        <time>2021-02-24T16:09:38Z</time>
      </trkpt>
      <trkpt lat="45.30729" lon="5.8893">
        <ele>840.2</ele>
        <time>2021-02-24T16:09:37Z</time>
      </trkpt>
      <trkpt lat="45.30729" lon="5.88934">
        <ele>841.6</ele>
        <time>2021-02-24T16:09:36Z</time>
      </trkpt>
      <trkpt lat="45.3073" lon="5.88938">
        <ele>841.4</ele>
        <time>2021-02-24T16:09:35Z</time>
      </trkpt>
      <trkpt lat="45.3073" lon="5.88938">
        <ele>842</ele>
        <time>2021-02-24T16:09:34Z</time>
      </trkpt>
      <trkpt lat="45.3073" lon="5.88938">
        <ele>842</ele>
        <time>2021-02-24T16:09:33Z</time>
      </trkpt>
      <trkpt lat="45.30731" lon="5.88945">
        <ele>842.2</ele>
        <time>2021-02-24T16:09:32Z</time>
      </trkpt>
      <trkpt lat="45.30731" lon="5.88948">
        <ele>842.6</ele>
        <time>2021-02-24T16:09:31Z</time>
      </trkpt>
      <trkpt lat="45.30732" lon="5.8895">
        <ele>843.2</ele>
        <time>2021-02-24T16:09:30Z</time>
      </trkpt>
      <trkpt lat="45.30737" lon="5.88966">
        <ele>843.6</ele>
        <time>2021-02-24T16:09:29Z</time>
      </trkpt>
      <trkpt lat="45.30739" lon="5.88969">
        <ele>844</ele>
        <time>2021-02-24T16:09:28Z</time>
      </trkpt>
      <trkpt lat="45.3074" lon="5.88971">
        <ele>845</ele>
        <time>2021-02-24T16:09:27Z</time>
      </trkpt>
      <trkpt lat="45.30742" lon="5.88974">
        <ele>846</ele>
        <time>2021-02-24T16:09:26Z</time>
      </trkpt>
      <trkpt lat="45.30743" lon="5.88977">
        <ele>846.8</ele>
        <time>2021-02-24T16:09:25Z</time>
      </trkpt>
      <trkpt lat="45.30743" lon="5.88977">
        <ele>846.8</ele>
        <time>2021-02-24T16:09:24Z</time>
      </trkpt>
      <trkpt lat="45.30743" lon="5.88977">
        <ele>847.2</ele>
        <time>2021-02-24T16:09:23Z</time>
      </trkpt>
      <trkpt lat="45.30752" lon="5.88987">
        <ele>848</ele>
        <time>2021-02-24T16:09:22Z</time>
      </trkpt>
      <trkpt lat="45.30752" lon="5.88987">
        <ele>848.8</ele>
        <time>2021-02-24T16:09:21Z</time>
      </trkpt>
      <trkpt lat="45.30752" lon="5.88987">
        <ele>848.4</ele>
        <time>2021-02-24T16:09:20Z</time>
      </trkpt>
      <trkpt lat="45.30755" lon="5.88993">
        <ele>849.4</ele>
        <time>2021-02-24T16:09:19Z</time>
      </trkpt>
      <trkpt lat="45.30755" lon="5.88995">
        <ele>850.2</ele>
        <time>2021-02-24T16:09:18Z</time>
      </trkpt>
      <trkpt lat="45.30756" lon="5.88997">
        <ele>850.6</ele>
        <time>2021-02-24T16:09:17Z</time>
      </trkpt>
      <trkpt lat="45.30762" lon="5.89013">
        <ele>851.4</ele>
        <time>2021-02-24T16:09:16Z</time>
      </trkpt>
      <trkpt lat="45.30762" lon="5.89013">
        <ele>852.2</ele>
        <time>2021-02-24T16:09:15Z</time>
      </trkpt>
      <trkpt lat="45.30762" lon="5.89013">
        <ele>852.6</ele>
        <time>2021-02-24T16:09:14Z</time>
      </trkpt>
      <trkpt lat="45.30764" lon="5.89019">
        <ele>852.4</ele>
        <time>2021-02-24T16:09:13Z</time>
      </trkpt>
      <trkpt lat="45.30767" lon="5.89024">
        <ele>852.8</ele>
        <time>2021-02-24T16:09:12Z</time>
      </trkpt>
      <trkpt lat="45.3077" lon="5.89028">
        <ele>853.6</ele>
        <time>2021-02-24T16:09:11Z</time>
      </trkpt>
      <trkpt lat="45.30772" lon="5.89033">
        <ele>854.8</ele>
        <time>2021-02-24T16:09:10Z</time>
      </trkpt>
      <trkpt lat="45.30775" lon="5.89038">
        <ele>855.8</ele>
        <time>2021-02-24T16:09:09Z</time>
      </trkpt>
      <trkpt lat="45.30777" lon="5.8904">
        <ele>856</ele>
        <time>2021-02-24T16:09:08Z</time>
      </trkpt>
      <trkpt lat="45.30779" lon="5.89042">
        <ele>856.6</ele>
        <time>2021-02-24T16:09:07Z</time>
      </trkpt>
      <trkpt lat="45.30781" lon="5.89045">
        <ele>856.4</ele>
        <time>2021-02-24T16:09:06Z</time>
      </trkpt>
      <trkpt lat="45.30783" lon="5.89047">
        <ele>857.2</ele>
        <time>2021-02-24T16:09:05Z</time>
      </trkpt>
      <trkpt lat="45.30784" lon="5.8905">
        <ele>857.8</ele>
        <time>2021-02-24T16:09:04Z</time>
      </trkpt>
      <trkpt lat="45.30786" lon="5.89053">
        <ele>859.2</ele>
        <time>2021-02-24T16:09:03Z</time>
      </trkpt>
      <trkpt lat="45.30788" lon="5.89056">
        <ele>860.6</ele>
        <time>2021-02-24T16:09:02Z</time>
      </trkpt>
      <trkpt lat="45.3079" lon="5.89059">
        <ele>862.2</ele>
        <time>2021-02-24T16:09:01Z</time>
      </trkpt>
      <trkpt lat="45.30791" lon="5.8906">
        <ele>862.4</ele>
        <time>2021-02-24T16:09:00Z</time>
      </trkpt>
      <trkpt lat="45.30792" lon="5.89062">
        <ele>864.4</ele>
        <time>2021-02-24T16:08:59Z</time>
      </trkpt>
      <trkpt lat="45.30794" lon="5.89063">
        <ele>864.8</ele>
        <time>2021-02-24T16:08:58Z</time>
      </trkpt>
      <trkpt lat="45.30795" lon="5.89064">
        <ele>866.2</ele>
        <time>2021-02-24T16:08:57Z</time>
      </trkpt>
      <trkpt lat="45.30796" lon="5.89065">
        <ele>865</ele>
        <time>2021-02-24T16:08:56Z</time>
      </trkpt>
      <trkpt lat="45.30797" lon="5.89066">
        <ele>865.8</ele>
        <time>2021-02-24T16:08:55Z</time>
      </trkpt>
      <trkpt lat="45.308" lon="5.89068">
        <ele>866.2</ele>
        <time>2021-02-24T16:08:54Z</time>
      </trkpt>
      <trkpt lat="45.30802" lon="5.8907">
        <ele>867</ele>
        <time>2021-02-24T16:08:53Z</time>
      </trkpt>
      <trkpt lat="45.30804" lon="5.89072">
        <ele>867</ele>
        <time>2021-02-24T16:08:52Z</time>
      </trkpt>
      <trkpt lat="45.30806" lon="5.89074">
        <ele>866.6</ele>
        <time>2021-02-24T16:08:51Z</time>
      </trkpt>
      <trkpt lat="45.30808" lon="5.89077">
        <ele>867.4</ele>
        <time>2021-02-24T16:08:50Z</time>
      </trkpt>
      <trkpt lat="45.3081" lon="5.89079">
        <ele>868.8</ele>
        <time>2021-02-24T16:08:49Z</time>
      </trkpt>
      <trkpt lat="45.30811" lon="5.89082">
        <ele>870</ele>
        <time>2021-02-24T16:08:48Z</time>
      </trkpt>
      <trkpt lat="45.30813" lon="5.89085">
        <ele>870.4</ele>
        <time>2021-02-24T16:08:47Z</time>
      </trkpt>
      <trkpt lat="45.30814" lon="5.89088">
        <ele>871.6</ele>
        <time>2021-02-24T16:08:46Z</time>
      </trkpt>
      <trkpt lat="45.30816" lon="5.89091">
        <ele>872.8</ele>
        <time>2021-02-24T16:08:45Z</time>
      </trkpt>
      <trkpt lat="45.30817" lon="5.89094">
        <ele>873.2</ele>
        <time>2021-02-24T16:08:44Z</time>
      </trkpt>
      <trkpt lat="45.30818" lon="5.89098">
        <ele>874.4</ele>
        <time>2021-02-24T16:08:43Z</time>
      </trkpt>
      <trkpt lat="45.30818" lon="5.89098">
        <ele>874.8</ele>
        <time>2021-02-24T16:08:42Z</time>
      </trkpt>
      <trkpt lat="45.30818" lon="5.89098">
        <ele>875.4</ele>
        <time>2021-02-24T16:08:41Z</time>
      </trkpt>
      <trkpt lat="45.30821" lon="5.89105">
        <ele>876.6</ele>
        <time>2021-02-24T16:08:40Z</time>
      </trkpt>
      <trkpt lat="45.30822" lon="5.89107">
        <ele>877.2</ele>
        <time>2021-02-24T16:08:39Z</time>
      </trkpt>
      <trkpt lat="45.30824" lon="5.89109">
        <ele>877.4</ele>
        <time>2021-02-24T16:08:38Z</time>
      </trkpt>
      <trkpt lat="45.30828" lon="5.89128">
        <ele>877.8</ele>
        <time>2021-02-24T16:08:37Z</time>
      </trkpt>
      <trkpt lat="45.30829" lon="5.89131">
        <ele>879</ele>
        <time>2021-02-24T16:08:36Z</time>
      </trkpt>
      <trkpt lat="45.3083" lon="5.89134">
        <ele>879.6</ele>
        <time>2021-02-24T16:08:35Z</time>
      </trkpt>
      <trkpt lat="45.30831" lon="5.89138">
        <ele>880.2</ele>
        <time>2021-02-24T16:08:34Z</time>
      </trkpt>
      <trkpt lat="45.30832" lon="5.89141">
        <ele>880.4</ele>
        <time>2021-02-24T16:08:33Z</time>
      </trkpt>
      <trkpt lat="45.30834" lon="5.89141">
        <ele>881.2</ele>
        <time>2021-02-24T16:08:32Z</time>
      </trkpt>
      <trkpt lat="45.30836" lon="5.89142">
        <ele>881.6</ele>
        <time>2021-02-24T16:08:31Z</time>
      </trkpt>
      <trkpt lat="45.30838" lon="5.89142">
        <ele>882</ele>
        <time>2021-02-24T16:08:30Z</time>
      </trkpt>
      <trkpt lat="45.3084" lon="5.89143">
        <ele>881.4</ele>
        <time>2021-02-24T16:08:29Z</time>
      </trkpt>
      <trkpt lat="45.30842" lon="5.89143">
        <ele>881.6</ele>
        <time>2021-02-24T16:08:28Z</time>
      </trkpt>
      <trkpt lat="45.30843" lon="5.89139">
        <ele>883</ele>
        <time>2021-02-24T16:08:27Z</time>
      </trkpt>
      <trkpt lat="45.30844" lon="5.89136">
        <ele>883.6</ele>
        <time>2021-02-24T16:08:26Z</time>
      </trkpt>
      <trkpt lat="45.30845" lon="5.89132">
        <ele>883.6</ele>
        <time>2021-02-24T16:08:25Z</time>
      </trkpt>
      <trkpt lat="45.30847" lon="5.89128">
        <ele>884.6</ele>
        <time>2021-02-24T16:08:24Z</time>
      </trkpt>
      <trkpt lat="45.30848" lon="5.89125">
        <ele>885.2</ele>
        <time>2021-02-24T16:08:23Z</time>
      </trkpt>
      <trkpt lat="45.30849" lon="5.89122">
        <ele>886.4</ele>
        <time>2021-02-24T16:08:22Z</time>
      </trkpt>
      <trkpt lat="45.3085" lon="5.89119">
        <ele>887.4</ele>
        <time>2021-02-24T16:08:21Z</time>
      </trkpt>
      <trkpt lat="45.30851" lon="5.89116">
        <ele>888</ele>
        <time>2021-02-24T16:08:20Z</time>
      </trkpt>
      <trkpt lat="45.30851" lon="5.89116">
        <ele>888.2</ele>
        <time>2021-02-24T16:08:19Z</time>
      </trkpt>
      <trkpt lat="45.30851" lon="5.89116">
        <ele>888.8</ele>
        <time>2021-02-24T16:08:18Z</time>
      </trkpt>
      <trkpt lat="45.30853" lon="5.8911">
        <ele>889.2</ele>
        <time>2021-02-24T16:08:17Z</time>
      </trkpt>
      <trkpt lat="45.30854" lon="5.89108">
        <ele>889.8</ele>
        <time>2021-02-24T16:08:16Z</time>
      </trkpt>
      <trkpt lat="45.30855" lon="5.89106">
        <ele>890.8</ele>
        <time>2021-02-24T16:08:15Z</time>
      </trkpt>
      <trkpt lat="45.30857" lon="5.89095">
        <ele>891</ele>
        <time>2021-02-24T16:08:14Z</time>
      </trkpt>
      <trkpt lat="45.30857" lon="5.89093">
        <ele>892.2</ele>
        <time>2021-02-24T16:08:13Z</time>
      </trkpt>
      <trkpt lat="45.30858" lon="5.8909">
        <ele>892.4</ele>
        <time>2021-02-24T16:08:12Z</time>
      </trkpt>
      <trkpt lat="45.3086" lon="5.89079">
        <ele>892.2</ele>
        <time>2021-02-24T16:08:11Z</time>
      </trkpt>
      <trkpt lat="45.3086" lon="5.89076">
        <ele>893.2</ele>
        <time>2021-02-24T16:08:10Z</time>
      </trkpt>
      <trkpt lat="45.3086" lon="5.89073">
        <ele>894.4</ele>
        <time>2021-02-24T16:08:09Z</time>
      </trkpt>
      <trkpt lat="45.30862" lon="5.89054">
        <ele>895.4</ele>
        <time>2021-02-24T16:08:08Z</time>
      </trkpt>
      <trkpt lat="45.30862" lon="5.89054">
        <ele>896.2</ele>
        <time>2021-02-24T16:08:07Z</time>
      </trkpt>
      <trkpt lat="45.30862" lon="5.89054">
        <ele>896.8</ele>
        <time>2021-02-24T16:08:06Z</time>
      </trkpt>
      <trkpt lat="45.30862" lon="5.89047">
        <ele>898</ele>
        <time>2021-02-24T16:08:05Z</time>
      </trkpt>
      <trkpt lat="45.30863" lon="5.89044">
        <ele>898.8</ele>
        <time>2021-02-24T16:08:04Z</time>
      </trkpt>
      <trkpt lat="45.30863" lon="5.8904">
        <ele>899.8</ele>
        <time>2021-02-24T16:08:03Z</time>
      </trkpt>
      <trkpt lat="45.30865" lon="5.89021">
        <ele>901.4</ele>
        <time>2021-02-24T16:08:02Z</time>
      </trkpt>
      <trkpt lat="45.30865" lon="5.89021">
        <ele>902.8</ele>
        <time>2021-02-24T16:08:01Z</time>
      </trkpt>
      <trkpt lat="45.30865" lon="5.89021">
        <ele>902.8</ele>
        <time>2021-02-24T16:08:00Z</time>
      </trkpt>
      <trkpt lat="45.30865" lon="5.89007">
        <ele>902.6</ele>
        <time>2021-02-24T16:07:59Z</time>
      </trkpt>
      <trkpt lat="45.30865" lon="5.89007">
        <ele>902.6</ele>
        <time>2021-02-24T16:07:58Z</time>
      </trkpt>
      <trkpt lat="45.30865" lon="5.89007">
        <ele>903</ele>
        <time>2021-02-24T16:07:57Z</time>
      </trkpt>
      <trkpt lat="45.30865" lon="5.89">
        <ele>904</ele>
        <time>2021-02-24T16:07:56Z</time>
      </trkpt>
      <trkpt lat="45.30865" lon="5.88998">
        <ele>903.8</ele>
        <time>2021-02-24T16:07:55Z</time>
      </trkpt>
      <trkpt lat="45.30865" lon="5.88996">
        <ele>905</ele>
        <time>2021-02-24T16:07:54Z</time>
      </trkpt>
      <trkpt lat="45.30864" lon="5.88978">
        <ele>906</ele>
        <time>2021-02-24T16:07:53Z</time>
      </trkpt>
      <trkpt lat="45.30864" lon="5.88978">
        <ele>906.6</ele>
        <time>2021-02-24T16:07:52Z</time>
      </trkpt>
      <trkpt lat="45.30864" lon="5.88978">
        <ele>907.4</ele>
        <time>2021-02-24T16:07:51Z</time>
      </trkpt>
      <trkpt lat="45.3086" lon="5.88966">
        <ele>908.4</ele>
        <time>2021-02-24T16:07:50Z</time>
      </trkpt>
      <trkpt lat="45.3086" lon="5.88966">
        <ele>909.2</ele>
        <time>2021-02-24T16:07:49Z</time>
      </trkpt>
      <trkpt lat="45.3086" lon="5.88966">
        <ele>910.6</ele>
        <time>2021-02-24T16:07:48Z</time>
      </trkpt>
      <trkpt lat="45.30857" lon="5.8896">
        <ele>911.8</ele>
        <time>2021-02-24T16:07:47Z</time>
      </trkpt>
      <trkpt lat="45.30856" lon="5.88958">
        <ele>912.8</ele>
        <time>2021-02-24T16:07:46Z</time>
      </trkpt>
      <trkpt lat="45.30856" lon="5.88956">
        <ele>913.2</ele>
        <time>2021-02-24T16:07:45Z</time>
      </trkpt>
      <trkpt lat="45.30854" lon="5.88946">
        <ele>914.4</ele>
        <time>2021-02-24T16:07:44Z</time>
      </trkpt>
      <trkpt lat="45.30853" lon="5.88944">
        <ele>914.6</ele>
        <time>2021-02-24T16:07:43Z</time>
      </trkpt>
      <trkpt lat="45.30853" lon="5.88941">
        <ele>916</ele>
        <time>2021-02-24T16:07:42Z</time>
      </trkpt>
      <trkpt lat="45.30849" lon="5.88922">
        <ele>916.4</ele>
        <time>2021-02-24T16:07:41Z</time>
      </trkpt>
      <trkpt lat="45.30849" lon="5.88922">
        <ele>917.2</ele>
        <time>2021-02-24T16:07:40Z</time>
      </trkpt>
      <trkpt lat="45.30848" lon="5.88916">
        <ele>917.8</ele>
        <time>2021-02-24T16:07:39Z</time>
      </trkpt>
      <trkpt lat="45.30847" lon="5.88913">
        <ele>918.4</ele>
        <time>2021-02-24T16:07:38Z</time>
      </trkpt>
      <trkpt lat="45.30847" lon="5.88911">
        <ele>919.4</ele>
        <time>2021-02-24T16:07:37Z</time>
      </trkpt>
      <trkpt lat="45.30851" lon="5.88893">
        <ele>920.4</ele>
        <time>2021-02-24T16:07:36Z</time>
      </trkpt>
      <trkpt lat="45.30853" lon="5.88893">
        <ele>920.8</ele>
        <time>2021-02-24T16:07:35Z</time>
      </trkpt>
      <trkpt lat="45.30855" lon="5.88893">
        <ele>920.4</ele>
        <time>2021-02-24T16:07:34Z</time>
      </trkpt>
      <trkpt lat="45.30857" lon="5.88893">
        <ele>921.8</ele>
        <time>2021-02-24T16:07:33Z</time>
      </trkpt>
      <trkpt lat="45.30859" lon="5.88893">
        <ele>922.4</ele>
        <time>2021-02-24T16:07:32Z</time>
      </trkpt>
      <trkpt lat="45.30861" lon="5.88893">
        <ele>923.4</ele>
        <time>2021-02-24T16:07:31Z</time>
      </trkpt>
      <trkpt lat="45.30861" lon="5.88893">
        <ele>924.4</ele>
        <time>2021-02-24T16:07:30Z</time>
      </trkpt>
      <trkpt lat="45.30861" lon="5.88893">
        <ele>924.8</ele>
        <time>2021-02-24T16:07:29Z</time>
      </trkpt>
      <trkpt lat="45.30859" lon="5.88878">
        <ele>925.8</ele>
        <time>2021-02-24T16:07:28Z</time>
      </trkpt>
      <trkpt lat="45.30859" lon="5.88878">
        <ele>926.4</ele>
        <time>2021-02-24T16:07:27Z</time>
      </trkpt>
      <trkpt lat="45.30859" lon="5.88878">
        <ele>927.2</ele>
        <time>2021-02-24T16:07:26Z</time>
      </trkpt>
      <trkpt lat="45.30858" lon="5.88873">
        <ele>927.8</ele>
        <time>2021-02-24T16:07:25Z</time>
      </trkpt>
      <trkpt lat="45.30859" lon="5.88865">
        <ele>928.4</ele>
        <time>2021-02-24T16:07:24Z</time>
      </trkpt>
      <trkpt lat="45.30859" lon="5.88865">
        <ele>929</ele>
        <time>2021-02-24T16:07:23Z</time>
      </trkpt>
      <trkpt lat="45.30859" lon="5.8886">
        <ele>929.6</ele>
        <time>2021-02-24T16:07:22Z</time>
      </trkpt>
      <trkpt lat="45.30859" lon="5.88855">
        <ele>929.8</ele>
        <time>2021-02-24T16:07:21Z</time>
      </trkpt>
      <trkpt lat="45.30859" lon="5.88853">
        <ele>930.4</ele>
        <time>2021-02-24T16:07:20Z</time>
      </trkpt>
      <trkpt lat="45.30859" lon="5.8885">
        <ele>931.8</ele>
        <time>2021-02-24T16:07:19Z</time>
      </trkpt>
      <trkpt lat="45.30858" lon="5.88841">
        <ele>932.4</ele>
        <time>2021-02-24T16:07:18Z</time>
      </trkpt>
      <trkpt lat="45.30858" lon="5.88839">
        <ele>933</ele>
        <time>2021-02-24T16:07:17Z</time>
      </trkpt>
      <trkpt lat="45.30858" lon="5.88837">
        <ele>933.4</ele>
        <time>2021-02-24T16:07:16Z</time>
      </trkpt>
      <trkpt lat="45.30855" lon="5.88827">
        <ele>934.2</ele>
        <time>2021-02-24T16:07:15Z</time>
      </trkpt>
      <trkpt lat="45.30855" lon="5.88825">
        <ele>935.2</ele>
        <time>2021-02-24T16:07:14Z</time>
      </trkpt>
      <trkpt lat="45.30854" lon="5.88822">
        <ele>935.6</ele>
        <time>2021-02-24T16:07:13Z</time>
      </trkpt>
      <trkpt lat="45.3085" lon="5.88802">
        <ele>936.6</ele>
        <time>2021-02-24T16:07:12Z</time>
      </trkpt>
      <trkpt lat="45.3085" lon="5.88802">
        <ele>937</ele>
        <time>2021-02-24T16:07:11Z</time>
      </trkpt>
      <trkpt lat="45.3085" lon="5.88802">
        <ele>937.6</ele>
        <time>2021-02-24T16:07:10Z</time>
      </trkpt>
      <trkpt lat="45.30849" lon="5.88795">
        <ele>938.6</ele>
        <time>2021-02-24T16:07:09Z</time>
      </trkpt>
      <trkpt lat="45.30849" lon="5.88793">
        <ele>939.6</ele>
        <time>2021-02-24T16:07:08Z</time>
      </trkpt>
      <trkpt lat="45.30851" lon="5.88785">
        <ele>940.4</ele>
        <time>2021-02-24T16:07:07Z</time>
      </trkpt>
      <trkpt lat="45.30852" lon="5.88779">
        <ele>941.2</ele>
        <time>2021-02-24T16:07:06Z</time>
      </trkpt>
      <trkpt lat="45.30853" lon="5.88766">
        <ele>942.4</ele>
        <time>2021-02-24T16:07:05Z</time>
      </trkpt>
      <trkpt lat="45.30853" lon="5.88764">
        <ele>942</ele>
        <time>2021-02-24T16:07:04Z</time>
      </trkpt>
      <trkpt lat="45.30854" lon="5.88762">
        <ele>942.6</ele>
        <time>2021-02-24T16:07:03Z</time>
      </trkpt>
      <trkpt lat="45.30856" lon="5.88742">
        <ele>943.2</ele>
        <time>2021-02-24T16:07:02Z</time>
      </trkpt>
      <trkpt lat="45.30856" lon="5.88742">
        <ele>944</ele>
        <time>2021-02-24T16:07:01Z</time>
      </trkpt>
      <trkpt lat="45.30856" lon="5.88742">
        <ele>945</ele>
        <time>2021-02-24T16:07:00Z</time>
      </trkpt>
      <trkpt lat="45.30865" lon="5.8874">
        <ele>946.2</ele>
        <time>2021-02-24T16:06:59Z</time>
      </trkpt>
      <trkpt lat="45.30865" lon="5.8874">
        <ele>946.8</ele>
        <time>2021-02-24T16:06:58Z</time>
      </trkpt>
      <trkpt lat="45.30872" lon="5.88741">
        <ele>947.8</ele>
        <time>2021-02-24T16:06:57Z</time>
      </trkpt>
      <trkpt lat="45.30874" lon="5.88741">
        <ele>948.8</ele>
        <time>2021-02-24T16:06:56Z</time>
      </trkpt>
      <trkpt lat="45.30876" lon="5.88741">
        <ele>949.8</ele>
        <time>2021-02-24T16:06:55Z</time>
      </trkpt>
      <trkpt lat="45.30883" lon="5.88746">
        <ele>949.8</ele>
        <time>2021-02-24T16:06:54Z</time>
      </trkpt>
      <trkpt lat="45.30884" lon="5.88747">
        <ele>950.6</ele>
        <time>2021-02-24T16:06:53Z</time>
      </trkpt>
      <trkpt lat="45.30885" lon="5.88749">
        <ele>951.2</ele>
        <time>2021-02-24T16:06:52Z</time>
      </trkpt>
      <trkpt lat="45.30891" lon="5.88756">
        <ele>951.6</ele>
        <time>2021-02-24T16:06:51Z</time>
      </trkpt>
      <trkpt lat="45.30895" lon="5.88761">
        <ele>952.4</ele>
        <time>2021-02-24T16:06:50Z</time>
      </trkpt>
      <trkpt lat="45.30898" lon="5.88765">
        <ele>953.2</ele>
        <time>2021-02-24T16:06:49Z</time>
      </trkpt>
      <trkpt lat="45.30901" lon="5.8877">
        <ele>954.2</ele>
        <time>2021-02-24T16:06:48Z</time>
      </trkpt>
      <trkpt lat="45.30905" lon="5.88775">
        <ele>955.2</ele>
        <time>2021-02-24T16:06:47Z</time>
      </trkpt>
      <trkpt lat="45.30905" lon="5.88775">
        <ele>956.4</ele>
        <time>2021-02-24T16:06:46Z</time>
      </trkpt>
      <trkpt lat="45.30905" lon="5.88775">
        <ele>957.4</ele>
        <time>2021-02-24T16:06:45Z</time>
      </trkpt>
      <trkpt lat="45.3091" lon="5.88776">
        <ele>958.4</ele>
        <time>2021-02-24T16:06:44Z</time>
      </trkpt>
      <trkpt lat="45.30912" lon="5.88776">
        <ele>959.2</ele>
        <time>2021-02-24T16:06:43Z</time>
      </trkpt>
      <trkpt lat="45.30914" lon="5.88777">
        <ele>959.6</ele>
        <time>2021-02-24T16:06:42Z</time>
      </trkpt>
      <trkpt lat="45.30921" lon="5.88776">
        <ele>959.8</ele>
        <time>2021-02-24T16:06:41Z</time>
      </trkpt>
      <trkpt lat="45.30923" lon="5.88776">
        <ele>960.2</ele>
        <time>2021-02-24T16:06:40Z</time>
      </trkpt>
      <trkpt lat="45.30925" lon="5.88776">
        <ele>961.2</ele>
        <time>2021-02-24T16:06:39Z</time>
      </trkpt>
      <trkpt lat="45.30933" lon="5.88775">
        <ele>962</ele>
        <time>2021-02-24T16:06:38Z</time>
      </trkpt>
      <trkpt lat="45.30935" lon="5.88774">
        <ele>962.2</ele>
        <time>2021-02-24T16:06:37Z</time>
      </trkpt>
      <trkpt lat="45.30937" lon="5.88774">
        <ele>962.6</ele>
        <time>2021-02-24T16:06:36Z</time>
      </trkpt>
      <trkpt lat="45.30945" lon="5.88772">
        <ele>962.8</ele>
        <time>2021-02-24T16:06:35Z</time>
      </trkpt>
      <trkpt lat="45.30947" lon="5.88772">
        <ele>963.4</ele>
        <time>2021-02-24T16:06:34Z</time>
      </trkpt>
      <trkpt lat="45.30949" lon="5.88771">
        <ele>963.2</ele>
        <time>2021-02-24T16:06:33Z</time>
      </trkpt>
      <trkpt lat="45.30956" lon="5.88769">
        <ele>963.6</ele>
        <time>2021-02-24T16:06:32Z</time>
      </trkpt>
      <trkpt lat="45.30958" lon="5.88769">
        <ele>963.6</ele>
        <time>2021-02-24T16:06:31Z</time>
      </trkpt>
      <trkpt lat="45.3096" lon="5.88768">
        <ele>963.6</ele>
        <time>2021-02-24T16:06:30Z</time>
      </trkpt>
      <trkpt lat="45.30968" lon="5.88766">
        <ele>963.6</ele>
        <time>2021-02-24T16:06:29Z</time>
      </trkpt>
      <trkpt lat="45.3097" lon="5.88766">
        <ele>964.2</ele>
        <time>2021-02-24T16:06:28Z</time>
      </trkpt>
      <trkpt lat="45.30972" lon="5.88765">
        <ele>965.2</ele>
        <time>2021-02-24T16:06:27Z</time>
      </trkpt>
      <trkpt lat="45.3098" lon="5.88767">
        <ele>966</ele>
        <time>2021-02-24T16:06:26Z</time>
      </trkpt>
      <trkpt lat="45.30984" lon="5.88771">
        <ele>966</ele>
        <time>2021-02-24T16:06:25Z</time>
      </trkpt>
      <trkpt lat="45.30987" lon="5.88774">
        <ele>966</ele>
        <time>2021-02-24T16:06:24Z</time>
      </trkpt>
      <trkpt lat="45.3099" lon="5.88778">
        <ele>966.4</ele>
        <time>2021-02-24T16:06:23Z</time>
      </trkpt>
      <trkpt lat="45.30994" lon="5.88782">
        <ele>967</ele>
        <time>2021-02-24T16:06:22Z</time>
      </trkpt>
      <trkpt lat="45.30996" lon="5.88784">
        <ele>967.4</ele>
        <time>2021-02-24T16:06:21Z</time>
      </trkpt>
      <trkpt lat="45.30999" lon="5.88787">
        <ele>966.8</ele>
        <time>2021-02-24T16:06:20Z</time>
      </trkpt>
      <trkpt lat="45.31001" lon="5.8879">
        <ele>966.4</ele>
        <time>2021-02-24T16:06:19Z</time>
      </trkpt>
      <trkpt lat="45.31003" lon="5.88792">
        <ele>966.6</ele>
        <time>2021-02-24T16:06:18Z</time>
      </trkpt>
      <trkpt lat="45.31003" lon="5.88792">
        <ele>966.6</ele>
        <time>2021-02-24T16:06:17Z</time>
      </trkpt>
      <trkpt lat="45.31003" lon="5.88792">
        <ele>966.8</ele>
        <time>2021-02-24T16:06:16Z</time>
      </trkpt>
      <trkpt lat="45.31008" lon="5.88796">
        <ele>967.2</ele>
        <time>2021-02-24T16:06:15Z</time>
      </trkpt>
      <trkpt lat="45.31011" lon="5.88799">
        <ele>967.6</ele>
        <time>2021-02-24T16:06:14Z</time>
      </trkpt>
      <trkpt lat="45.31014" lon="5.88803">
        <ele>968.2</ele>
        <time>2021-02-24T16:06:13Z</time>
      </trkpt>
      <trkpt lat="45.31018" lon="5.88807">
        <ele>967.4</ele>
        <time>2021-02-24T16:06:12Z</time>
      </trkpt>
      <trkpt lat="45.31021" lon="5.8881">
        <ele>966.8</ele>
        <time>2021-02-24T16:06:11Z</time>
      </trkpt>
      <trkpt lat="45.31022" lon="5.88814">
        <ele>966.2</ele>
        <time>2021-02-24T16:06:10Z</time>
      </trkpt>
      <trkpt lat="45.31023" lon="5.88818">
        <ele>966</ele>
        <time>2021-02-24T16:06:09Z</time>
      </trkpt>
      <trkpt lat="45.31025" lon="5.88822">
        <ele>966</ele>
        <time>2021-02-24T16:06:08Z</time>
      </trkpt>
      <trkpt lat="45.31026" lon="5.88825">
        <ele>966.2</ele>
        <time>2021-02-24T16:06:07Z</time>
      </trkpt>
      <trkpt lat="45.31027" lon="5.88829">
        <ele>966.4</ele>
        <time>2021-02-24T16:06:06Z</time>
      </trkpt>
      <trkpt lat="45.31029" lon="5.88832">
        <ele>966.8</ele>
        <time>2021-02-24T16:06:05Z</time>
      </trkpt>
      <trkpt lat="45.3103" lon="5.88836">
        <ele>967</ele>
        <time>2021-02-24T16:06:04Z</time>
      </trkpt>
      <trkpt lat="45.31031" lon="5.88839">
        <ele>966.4</ele>
        <time>2021-02-24T16:06:03Z</time>
      </trkpt>
      <trkpt lat="45.31031" lon="5.88839">
        <ele>965.4</ele>
        <time>2021-02-24T16:06:02Z</time>
      </trkpt>
      <trkpt lat="45.31031" lon="5.88839">
        <ele>964.8</ele>
        <time>2021-02-24T16:06:01Z</time>
      </trkpt>
      <trkpt lat="45.31033" lon="5.88846">
        <ele>964.4</ele>
        <time>2021-02-24T16:06:00Z</time>
      </trkpt>
      <trkpt lat="45.31034" lon="5.88848">
        <ele>964.2</ele>
        <time>2021-02-24T16:05:59Z</time>
      </trkpt>
      <trkpt lat="45.31034" lon="5.88851">
        <ele>964.2</ele>
        <time>2021-02-24T16:05:58Z</time>
      </trkpt>
      <trkpt lat="45.31037" lon="5.8886">
        <ele>964.2</ele>
        <time>2021-02-24T16:05:57Z</time>
      </trkpt>
      <trkpt lat="45.31037" lon="5.88863">
        <ele>964.2</ele>
        <time>2021-02-24T16:05:56Z</time>
      </trkpt>
      <trkpt lat="45.31038" lon="5.88865">
        <ele>964.6</ele>
        <time>2021-02-24T16:05:55Z</time>
      </trkpt>
      <trkpt lat="45.3104" lon="5.88876">
        <ele>965.2</ele>
        <time>2021-02-24T16:05:54Z</time>
      </trkpt>
      <trkpt lat="45.31042" lon="5.88882">
        <ele>965.6</ele>
        <time>2021-02-24T16:05:53Z</time>
      </trkpt>
      <trkpt lat="45.31044" lon="5.88888">
        <ele>966</ele>
        <time>2021-02-24T16:05:52Z</time>
      </trkpt>
      <trkpt lat="45.31045" lon="5.88894">
        <ele>966.6</ele>
        <time>2021-02-24T16:05:51Z</time>
      </trkpt>
      <trkpt lat="45.31047" lon="5.889">
        <ele>966.6</ele>
        <time>2021-02-24T16:05:50Z</time>
      </trkpt>
      <trkpt lat="45.31047" lon="5.889">
        <ele>965.8</ele>
        <time>2021-02-24T16:05:49Z</time>
      </trkpt>
      <trkpt lat="45.31047" lon="5.889">
        <ele>965.6</ele>
        <time>2021-02-24T16:05:48Z</time>
      </trkpt>
      <trkpt lat="45.31051" lon="5.88912">
        <ele>965.2</ele>
        <time>2021-02-24T16:05:47Z</time>
      </trkpt>
      <trkpt lat="45.31051" lon="5.88912">
        <ele>965.4</ele>
        <time>2021-02-24T16:05:46Z</time>
      </trkpt>
      <trkpt lat="45.31051" lon="5.88912">
        <ele>965.4</ele>
        <time>2021-02-24T16:05:45Z</time>
      </trkpt>
      <trkpt lat="45.31053" lon="5.88918">
        <ele>965.2</ele>
        <time>2021-02-24T16:05:44Z</time>
      </trkpt>
      <trkpt lat="45.31054" lon="5.88923">
        <ele>965.4</ele>
        <time>2021-02-24T16:05:43Z</time>
      </trkpt>
      <trkpt lat="45.31055" lon="5.88929">
        <ele>966</ele>
        <time>2021-02-24T16:05:42Z</time>
      </trkpt>
      <trkpt lat="45.31057" lon="5.88934">
        <ele>966.4</ele>
        <time>2021-02-24T16:05:41Z</time>
      </trkpt>
      <trkpt lat="45.31058" lon="5.8894">
        <ele>967</ele>
        <time>2021-02-24T16:05:40Z</time>
      </trkpt>
      <trkpt lat="45.31058" lon="5.8894">
        <ele>967.6</ele>
        <time>2021-02-24T16:05:39Z</time>
      </trkpt>
      <trkpt lat="45.31058" lon="5.8894">
        <ele>967.2</ele>
        <time>2021-02-24T16:05:38Z</time>
      </trkpt>
      <trkpt lat="45.31063" lon="5.88952">
        <ele>967.2</ele>
        <time>2021-02-24T16:05:37Z</time>
      </trkpt>
      <trkpt lat="45.31063" lon="5.88952">
        <ele>967.6</ele>
        <time>2021-02-24T16:05:36Z</time>
      </trkpt>
      <trkpt lat="45.31063" lon="5.88952">
        <ele>967.4</ele>
        <time>2021-02-24T16:05:35Z</time>
      </trkpt>
      <trkpt lat="45.31067" lon="5.88964">
        <ele>967.8</ele>
        <time>2021-02-24T16:05:34Z</time>
      </trkpt>
      <trkpt lat="45.31067" lon="5.88964">
        <ele>967.4</ele>
        <time>2021-02-24T16:05:33Z</time>
      </trkpt>
      <trkpt lat="45.31067" lon="5.88964">
        <ele>966.8</ele>
        <time>2021-02-24T16:05:32Z</time>
      </trkpt>
      <trkpt lat="45.3107" lon="5.88969">
        <ele>966.8</ele>
        <time>2021-02-24T16:05:31Z</time>
      </trkpt>
      <trkpt lat="45.31071" lon="5.88971">
        <ele>967.2</ele>
        <time>2021-02-24T16:05:30Z</time>
      </trkpt>
      <trkpt lat="45.31072" lon="5.88972">
        <ele>967.2</ele>
        <time>2021-02-24T16:05:29Z</time>
      </trkpt>
      <trkpt lat="45.3108" lon="5.88984">
        <ele>967.4</ele>
        <time>2021-02-24T16:05:28Z</time>
      </trkpt>
      <trkpt lat="45.3108" lon="5.88984">
        <ele>967.4</ele>
        <time>2021-02-24T16:05:27Z</time>
      </trkpt>
      <trkpt lat="45.3108" lon="5.88984">
        <ele>966.4</ele>
        <time>2021-02-24T16:05:26Z</time>
      </trkpt>
      <trkpt lat="45.31086" lon="5.88995">
        <ele>965.6</ele>
        <time>2021-02-24T16:05:25Z</time>
      </trkpt>
      <trkpt lat="45.31088" lon="5.88998">
        <ele>965.2</ele>
        <time>2021-02-24T16:05:24Z</time>
      </trkpt>
      <trkpt lat="45.31089" lon="5.89001">
        <ele>965.2</ele>
        <time>2021-02-24T16:05:23Z</time>
      </trkpt>
      <trkpt lat="45.31091" lon="5.89004">
        <ele>965.2</ele>
        <time>2021-02-24T16:05:22Z</time>
      </trkpt>
      <trkpt lat="45.31092" lon="5.89007">
        <ele>965.2</ele>
        <time>2021-02-24T16:05:21Z</time>
      </trkpt>
      <trkpt lat="45.31094" lon="5.8901">
        <ele>965.4</ele>
        <time>2021-02-24T16:05:20Z</time>
      </trkpt>
      <trkpt lat="45.31095" lon="5.89014">
        <ele>964.8</ele>
        <time>2021-02-24T16:05:19Z</time>
      </trkpt>
      <trkpt lat="45.31097" lon="5.89017">
        <ele>964.2</ele>
        <time>2021-02-24T16:05:18Z</time>
      </trkpt>
      <trkpt lat="45.31098" lon="5.8902">
        <ele>963.8</ele>
        <time>2021-02-24T16:05:17Z</time>
      </trkpt>
      <trkpt lat="45.31098" lon="5.8902">
        <ele>963.4</ele>
        <time>2021-02-24T16:05:16Z</time>
      </trkpt>
      <trkpt lat="45.31098" lon="5.8902">
        <ele>963.6</ele>
        <time>2021-02-24T16:05:15Z</time>
      </trkpt>
      <trkpt lat="45.31102" lon="5.89032">
        <ele>963.6</ele>
        <time>2021-02-24T16:05:14Z</time>
      </trkpt>
      <trkpt lat="45.31102" lon="5.89032">
        <ele>964</ele>
        <time>2021-02-24T16:05:13Z</time>
      </trkpt>
      <trkpt lat="45.31102" lon="5.89032">
        <ele>964.2</ele>
        <time>2021-02-24T16:05:12Z</time>
      </trkpt>
      <trkpt lat="45.31103" lon="5.89038">
        <ele>964.6</ele>
        <time>2021-02-24T16:05:11Z</time>
      </trkpt>
      <trkpt lat="45.31104" lon="5.89044">
        <ele>964.6</ele>
        <time>2021-02-24T16:05:10Z</time>
      </trkpt>
      <trkpt lat="45.31105" lon="5.89049">
        <ele>964</ele>
        <time>2021-02-24T16:05:09Z</time>
      </trkpt>
      <trkpt lat="45.31106" lon="5.89054">
        <ele>963.8</ele>
        <time>2021-02-24T16:05:08Z</time>
      </trkpt>
      <trkpt lat="45.31107" lon="5.8906">
        <ele>963.8</ele>
        <time>2021-02-24T16:05:07Z</time>
      </trkpt>
      <trkpt lat="45.31108" lon="5.89063">
        <ele>964</ele>
        <time>2021-02-24T16:05:06Z</time>
      </trkpt>
      <trkpt lat="45.31108" lon="5.89067">
        <ele>964.2</ele>
        <time>2021-02-24T16:05:05Z</time>
      </trkpt>
      <trkpt lat="45.31109" lon="5.8907">
        <ele>964.8</ele>
        <time>2021-02-24T16:05:04Z</time>
      </trkpt>
      <trkpt lat="45.3111" lon="5.89073">
        <ele>965.2</ele>
        <time>2021-02-24T16:05:03Z</time>
      </trkpt>
      <trkpt lat="45.31111" lon="5.89077">
        <ele>964</ele>
        <time>2021-02-24T16:05:02Z</time>
      </trkpt>
      <trkpt lat="45.31112" lon="5.8908">
        <ele>964</ele>
        <time>2021-02-24T16:05:01Z</time>
      </trkpt>
      <trkpt lat="45.31112" lon="5.89083">
        <ele>964</ele>
        <time>2021-02-24T16:05:00Z</time>
      </trkpt>
      <trkpt lat="45.31113" lon="5.89087">
        <ele>964.2</ele>
        <time>2021-02-24T16:04:59Z</time>
      </trkpt>
      <trkpt lat="45.31113" lon="5.89087">
        <ele>964.4</ele>
        <time>2021-02-24T16:04:58Z</time>
      </trkpt>
      <trkpt lat="45.31113" lon="5.89087">
        <ele>964.4</ele>
        <time>2021-02-24T16:04:57Z</time>
      </trkpt>
      <trkpt lat="45.31116" lon="5.89099">
        <ele>964.2</ele>
        <time>2021-02-24T16:04:56Z</time>
      </trkpt>
      <trkpt lat="45.31116" lon="5.89099">
        <ele>964.2</ele>
        <time>2021-02-24T16:04:55Z</time>
      </trkpt>
      <trkpt lat="45.31116" lon="5.89099">
        <ele>964.2</ele>
        <time>2021-02-24T16:04:54Z</time>
      </trkpt>
      <trkpt lat="45.31119" lon="5.89105">
        <ele>964.2</ele>
        <time>2021-02-24T16:04:53Z</time>
      </trkpt>
      <trkpt lat="45.31121" lon="5.8911">
        <ele>964.4</ele>
        <time>2021-02-24T16:04:52Z</time>
      </trkpt>
      <trkpt lat="45.31123" lon="5.89115">
        <ele>964.6</ele>
        <time>2021-02-24T16:04:51Z</time>
      </trkpt>
      <trkpt lat="45.31125" lon="5.8912">
        <ele>964.8</ele>
        <time>2021-02-24T16:04:50Z</time>
      </trkpt>
      <trkpt lat="45.31127" lon="5.89125">
        <ele>965</ele>
        <time>2021-02-24T16:04:49Z</time>
      </trkpt>
      <trkpt lat="45.31128" lon="5.89129">
        <ele>964.6</ele>
        <time>2021-02-24T16:04:48Z</time>
      </trkpt>
      <trkpt lat="45.3113" lon="5.89132">
        <ele>963.8</ele>
        <time>2021-02-24T16:04:47Z</time>
      </trkpt>
      <trkpt lat="45.31131" lon="5.89135">
        <ele>963.6</ele>
        <time>2021-02-24T16:04:46Z</time>
      </trkpt>
      <trkpt lat="45.31133" lon="5.89139">
        <ele>963.6</ele>
        <time>2021-02-24T16:04:45Z</time>
      </trkpt>
      <trkpt lat="45.31135" lon="5.89142">
        <ele>963.8</ele>
        <time>2021-02-24T16:04:44Z</time>
      </trkpt>
      <trkpt lat="45.31136" lon="5.89146">
        <ele>964.2</ele>
        <time>2021-02-24T16:04:43Z</time>
      </trkpt>
      <trkpt lat="45.31138" lon="5.8915">
        <ele>964.2</ele>
        <time>2021-02-24T16:04:42Z</time>
      </trkpt>
      <trkpt lat="45.31139" lon="5.89153">
        <ele>964.4</ele>
        <time>2021-02-24T16:04:41Z</time>
      </trkpt>
      <trkpt lat="45.31139" lon="5.89153">
        <ele>963.8</ele>
        <time>2021-02-24T16:04:40Z</time>
      </trkpt>
      <trkpt lat="45.31139" lon="5.89153">
        <ele>963.2</ele>
        <time>2021-02-24T16:04:39Z</time>
      </trkpt>
      <trkpt lat="45.31147" lon="5.89163">
        <ele>963</ele>
        <time>2021-02-24T16:04:38Z</time>
      </trkpt>
      <trkpt lat="45.31147" lon="5.89163">
        <ele>963.2</ele>
        <time>2021-02-24T16:04:37Z</time>
      </trkpt>
      <trkpt lat="45.31147" lon="5.89163">
        <ele>963.4</ele>
        <time>2021-02-24T16:04:36Z</time>
      </trkpt>
      <trkpt lat="45.31154" lon="5.89173">
        <ele>963.6</ele>
        <time>2021-02-24T16:04:35Z</time>
      </trkpt>
      <trkpt lat="45.31154" lon="5.89173">
        <ele>963.8</ele>
        <time>2021-02-24T16:04:34Z</time>
      </trkpt>
      <trkpt lat="45.31154" lon="5.89173">
        <ele>963</ele>
        <time>2021-02-24T16:04:33Z</time>
      </trkpt>
      <trkpt lat="45.31157" lon="5.89178">
        <ele>962.2</ele>
        <time>2021-02-24T16:04:32Z</time>
      </trkpt>
      <trkpt lat="45.3116" lon="5.89182">
        <ele>961.8</ele>
        <time>2021-02-24T16:04:31Z</time>
      </trkpt>
      <trkpt lat="45.31163" lon="5.89186">
        <ele>961.6</ele>
        <time>2021-02-24T16:04:30Z</time>
      </trkpt>
      <trkpt lat="45.31166" lon="5.8919">
        <ele>962</ele>
        <time>2021-02-24T16:04:29Z</time>
      </trkpt>
      <trkpt lat="45.31168" lon="5.89195">
        <ele>962.2</ele>
        <time>2021-02-24T16:04:28Z</time>
      </trkpt>
      <trkpt lat="45.31168" lon="5.89195">
        <ele>962.6</ele>
        <time>2021-02-24T16:04:27Z</time>
      </trkpt>
      <trkpt lat="45.31168" lon="5.89195">
        <ele>962.8</ele>
        <time>2021-02-24T16:04:26Z</time>
      </trkpt>
      <trkpt lat="45.31171" lon="5.892">
        <ele>962.2</ele>
        <time>2021-02-24T16:04:25Z</time>
      </trkpt>
      <trkpt lat="45.31174" lon="5.89204">
        <ele>961.4</ele>
        <time>2021-02-24T16:04:24Z</time>
      </trkpt>
      <trkpt lat="45.31176" lon="5.89209">
        <ele>961</ele>
        <time>2021-02-24T16:04:23Z</time>
      </trkpt>
      <trkpt lat="45.31179" lon="5.89213">
        <ele>961</ele>
        <time>2021-02-24T16:04:22Z</time>
      </trkpt>
      <trkpt lat="45.31181" lon="5.89218">
        <ele>961</ele>
        <time>2021-02-24T16:04:21Z</time>
      </trkpt>
      <trkpt lat="45.31182" lon="5.8922">
        <ele>961.2</ele>
        <time>2021-02-24T16:04:20Z</time>
      </trkpt>
      <trkpt lat="45.31183" lon="5.89223">
        <ele>961.6</ele>
        <time>2021-02-24T16:04:19Z</time>
      </trkpt>
      <trkpt lat="45.31184" lon="5.89225">
        <ele>962</ele>
        <time>2021-02-24T16:04:18Z</time>
      </trkpt>
      <trkpt lat="45.31186" lon="5.89228">
        <ele>961.2</ele>
        <time>2021-02-24T16:04:17Z</time>
      </trkpt>
      <trkpt lat="45.31187" lon="5.89231">
        <ele>960.8</ele>
        <time>2021-02-24T16:04:16Z</time>
      </trkpt>
      <trkpt lat="45.31188" lon="5.89233">
        <ele>960.8</ele>
        <time>2021-02-24T16:04:15Z</time>
      </trkpt>
      <trkpt lat="45.31189" lon="5.89236">
        <ele>961</ele>
        <time>2021-02-24T16:04:14Z</time>
      </trkpt>
      <trkpt lat="45.3119" lon="5.89238">
        <ele>961.2</ele>
        <time>2021-02-24T16:04:13Z</time>
      </trkpt>
      <trkpt lat="45.31192" lon="5.89241">
        <ele>961.2</ele>
        <time>2021-02-24T16:04:12Z</time>
      </trkpt>
      <trkpt lat="45.31193" lon="5.89243">
        <ele>960.6</ele>
        <time>2021-02-24T16:04:11Z</time>
      </trkpt>
      <trkpt lat="45.31194" lon="5.89246">
        <ele>960.4</ele>
        <time>2021-02-24T16:04:10Z</time>
      </trkpt>
      <trkpt lat="45.31195" lon="5.89249">
        <ele>960.4</ele>
        <time>2021-02-24T16:04:09Z</time>
      </trkpt>
      <trkpt lat="45.31197" lon="5.89252">
        <ele>960.6</ele>
        <time>2021-02-24T16:04:08Z</time>
      </trkpt>
      <trkpt lat="45.31198" lon="5.89255">
        <ele>960.4</ele>
        <time>2021-02-24T16:04:07Z</time>
      </trkpt>
      <trkpt lat="45.31199" lon="5.89257">
        <ele>959.4</ele>
        <time>2021-02-24T16:04:06Z</time>
      </trkpt>
      <trkpt lat="45.31201" lon="5.89258">
        <ele>959</ele>
        <time>2021-02-24T16:04:05Z</time>
      </trkpt>
      <trkpt lat="45.31202" lon="5.8926">
        <ele>959.2</ele>
        <time>2021-02-24T16:04:04Z</time>
      </trkpt>
      <trkpt lat="45.31204" lon="5.89262">
        <ele>959</ele>
        <time>2021-02-24T16:04:03Z</time>
      </trkpt>
      <trkpt lat="45.31206" lon="5.89264">
        <ele>959</ele>
        <time>2021-02-24T16:04:02Z</time>
      </trkpt>
      <trkpt lat="45.31206" lon="5.89264">
        <ele>958</ele>
        <time>2021-02-24T16:04:01Z</time>
      </trkpt>
      <trkpt lat="45.31206" lon="5.89264">
        <ele>957.8</ele>
        <time>2021-02-24T16:04:00Z</time>
      </trkpt>
      <trkpt lat="45.31206" lon="5.89265">
        <ele>957.8</ele>
        <time>2021-02-24T16:03:59Z</time>
      </trkpt>
      <trkpt lat="45.31209" lon="5.89268">
        <ele>957.8</ele>
        <time>2021-02-24T16:03:58Z</time>
      </trkpt>
      <trkpt lat="45.31212" lon="5.89272">
        <ele>957.6</ele>
        <time>2021-02-24T16:03:57Z</time>
      </trkpt>
      <trkpt lat="45.31212" lon="5.89272">
        <ele>957</ele>
        <time>2021-02-24T16:03:56Z</time>
      </trkpt>
      <trkpt lat="45.31213" lon="5.89273">
        <ele>956.4</ele>
        <time>2021-02-24T16:03:55Z</time>
      </trkpt>
      <trkpt lat="45.31216" lon="5.89276">
        <ele>956.4</ele>
        <time>2021-02-24T16:03:54Z</time>
      </trkpt>
      <trkpt lat="45.31219" lon="5.89282">
        <ele>956.4</ele>
        <time>2021-02-24T16:03:53Z</time>
      </trkpt>
      <trkpt lat="45.31219" lon="5.89282">
        <ele>956.4</ele>
        <time>2021-02-24T16:03:52Z</time>
      </trkpt>
      <trkpt lat="45.31221" lon="5.89285">
        <ele>956.6</ele>
        <time>2021-02-24T16:03:51Z</time>
      </trkpt>
      <trkpt lat="45.31223" lon="5.89288">
        <ele>955.6</ele>
        <time>2021-02-24T16:03:50Z</time>
      </trkpt>
      <trkpt lat="45.31224" lon="5.89291">
        <ele>955</ele>
        <time>2021-02-24T16:03:49Z</time>
      </trkpt>
      <trkpt lat="45.31225" lon="5.89295">
        <ele>955</ele>
        <time>2021-02-24T16:03:48Z</time>
      </trkpt>
      <trkpt lat="45.31226" lon="5.89298">
        <ele>955.2</ele>
        <time>2021-02-24T16:03:47Z</time>
      </trkpt>
      <trkpt lat="45.31227" lon="5.89301">
        <ele>955.4</ele>
        <time>2021-02-24T16:03:46Z</time>
      </trkpt>
      <trkpt lat="45.31228" lon="5.89304">
        <ele>955.6</ele>
        <time>2021-02-24T16:03:45Z</time>
      </trkpt>
      <trkpt lat="45.31229" lon="5.89306">
        <ele>955</ele>
        <time>2021-02-24T16:03:44Z</time>
      </trkpt>
      <trkpt lat="45.3123" lon="5.89309">
        <ele>954</ele>
        <time>2021-02-24T16:03:43Z</time>
      </trkpt>
      <trkpt lat="45.31233" lon="5.89317">
        <ele>953.6</ele>
        <time>2021-02-24T16:03:42Z</time>
      </trkpt>
      <trkpt lat="45.31234" lon="5.89319">
        <ele>953.8</ele>
        <time>2021-02-24T16:03:41Z</time>
      </trkpt>
      <trkpt lat="45.31234" lon="5.89321">
        <ele>953.8</ele>
        <time>2021-02-24T16:03:40Z</time>
      </trkpt>
      <trkpt lat="45.31237" lon="5.89331">
        <ele>954.2</ele>
        <time>2021-02-24T16:03:39Z</time>
      </trkpt>
      <trkpt lat="45.31238" lon="5.89333">
        <ele>954.6</ele>
        <time>2021-02-24T16:03:38Z</time>
      </trkpt>
      <trkpt lat="45.31238" lon="5.89336">
        <ele>955</ele>
        <time>2021-02-24T16:03:37Z</time>
      </trkpt>
      <trkpt lat="45.31241" lon="5.89345">
        <ele>955.4</ele>
        <time>2021-02-24T16:03:36Z</time>
      </trkpt>
      <trkpt lat="45.31243" lon="5.89351">
        <ele>956</ele>
        <time>2021-02-24T16:03:35Z</time>
      </trkpt>
      <trkpt lat="45.31244" lon="5.89357">
        <ele>956.6</ele>
        <time>2021-02-24T16:03:34Z</time>
      </trkpt>
      <trkpt lat="45.31245" lon="5.89363">
        <ele>957.2</ele>
        <time>2021-02-24T16:03:33Z</time>
      </trkpt>
      <trkpt lat="45.31247" lon="5.89368">
        <ele>956.8</ele>
        <time>2021-02-24T16:03:32Z</time>
      </trkpt>
      <trkpt lat="45.31248" lon="5.89372">
        <ele>956.6</ele>
        <time>2021-02-24T16:03:31Z</time>
      </trkpt>
      <trkpt lat="45.31248" lon="5.89376">
        <ele>956.8</ele>
        <time>2021-02-24T16:03:30Z</time>
      </trkpt>
      <trkpt lat="45.31249" lon="5.89379">
        <ele>957.4</ele>
        <time>2021-02-24T16:03:29Z</time>
      </trkpt>
      <trkpt lat="45.31249" lon="5.89383">
        <ele>958</ele>
        <time>2021-02-24T16:03:28Z</time>
      </trkpt>
      <trkpt lat="45.31249" lon="5.89383">
        <ele>958.2</ele>
        <time>2021-02-24T16:03:27Z</time>
      </trkpt>
      <trkpt lat="45.31249" lon="5.89383">
        <ele>958.4</ele>
        <time>2021-02-24T16:03:26Z</time>
      </trkpt>
      <trkpt lat="45.31253" lon="5.89388">
        <ele>958.4</ele>
        <time>2021-02-24T16:03:25Z</time>
      </trkpt>
      <trkpt lat="45.31256" lon="5.89393">
        <ele>958.8</ele>
        <time>2021-02-24T16:03:24Z</time>
      </trkpt>
      <trkpt lat="45.31259" lon="5.89397">
        <ele>958</ele>
        <time>2021-02-24T16:03:23Z</time>
      </trkpt>
      <trkpt lat="45.31262" lon="5.89401">
        <ele>958</ele>
        <time>2021-02-24T16:03:22Z</time>
      </trkpt>
      <trkpt lat="45.31264" lon="5.89406">
        <ele>958.4</ele>
        <time>2021-02-24T16:03:21Z</time>
      </trkpt>
      <trkpt lat="45.31266" lon="5.89409">
        <ele>958.6</ele>
        <time>2021-02-24T16:03:20Z</time>
      </trkpt>
      <trkpt lat="45.31267" lon="5.89411">
        <ele>958.4</ele>
        <time>2021-02-24T16:03:19Z</time>
      </trkpt>
      <trkpt lat="45.31268" lon="5.89414">
        <ele>957.4</ele>
        <time>2021-02-24T16:03:18Z</time>
      </trkpt>
      <trkpt lat="45.31269" lon="5.89417">
        <ele>957.4</ele>
        <time>2021-02-24T16:03:17Z</time>
      </trkpt>
      <trkpt lat="45.3127" lon="5.8942">
        <ele>957.4</ele>
        <time>2021-02-24T16:03:16Z</time>
      </trkpt>
      <trkpt lat="45.31272" lon="5.89422">
        <ele>957.6</ele>
        <time>2021-02-24T16:03:15Z</time>
      </trkpt>
      <trkpt lat="45.31273" lon="5.89425">
        <ele>957.4</ele>
        <time>2021-02-24T16:03:14Z</time>
      </trkpt>
      <trkpt lat="45.31274" lon="5.89427">
        <ele>956.6</ele>
        <time>2021-02-24T16:03:13Z</time>
      </trkpt>
      <trkpt lat="45.31275" lon="5.8943">
        <ele>956.2</ele>
        <time>2021-02-24T16:03:12Z</time>
      </trkpt>
      <trkpt lat="45.31277" lon="5.89433">
        <ele>955.8</ele>
        <time>2021-02-24T16:03:11Z</time>
      </trkpt>
      <trkpt lat="45.31278" lon="5.89436">
        <ele>956</ele>
        <time>2021-02-24T16:03:10Z</time>
      </trkpt>
      <trkpt lat="45.3128" lon="5.89439">
        <ele>956.2</ele>
        <time>2021-02-24T16:03:09Z</time>
      </trkpt>
      <trkpt lat="45.31281" lon="5.89442">
        <ele>956.6</ele>
        <time>2021-02-24T16:03:08Z</time>
      </trkpt>
      <trkpt lat="45.31283" lon="5.89445">
        <ele>956.2</ele>
        <time>2021-02-24T16:03:07Z</time>
      </trkpt>
      <trkpt lat="45.31285" lon="5.89448">
        <ele>955.2</ele>
        <time>2021-02-24T16:03:06Z</time>
      </trkpt>
      <trkpt lat="45.31286" lon="5.8945">
        <ele>955</ele>
        <time>2021-02-24T16:03:05Z</time>
      </trkpt>
      <trkpt lat="45.31288" lon="5.89453">
        <ele>955</ele>
        <time>2021-02-24T16:03:04Z</time>
      </trkpt>
      <trkpt lat="45.3129" lon="5.89455">
        <ele>955.2</ele>
        <time>2021-02-24T16:03:03Z</time>
      </trkpt>
      <trkpt lat="45.31292" lon="5.89456">
        <ele>955.2</ele>
        <time>2021-02-24T16:03:02Z</time>
      </trkpt>
      <trkpt lat="45.31294" lon="5.89458">
        <ele>955.2</ele>
        <time>2021-02-24T16:03:01Z</time>
      </trkpt>
      <trkpt lat="45.31296" lon="5.8946">
        <ele>955</ele>
        <time>2021-02-24T16:03:00Z</time>
      </trkpt>
      <trkpt lat="45.31297" lon="5.89462">
        <ele>954.2</ele>
        <time>2021-02-24T16:02:59Z</time>
      </trkpt>
      <trkpt lat="45.31297" lon="5.89462">
        <ele>953.8</ele>
        <time>2021-02-24T16:02:58Z</time>
      </trkpt>
      <trkpt lat="45.31297" lon="5.89462">
        <ele>953.8</ele>
        <time>2021-02-24T16:02:57Z</time>
      </trkpt>
      <trkpt lat="45.31299" lon="5.89463">
        <ele>954.2</ele>
        <time>2021-02-24T16:02:56Z</time>
      </trkpt>
      <trkpt lat="45.31303" lon="5.89465">
        <ele>954.2</ele>
        <time>2021-02-24T16:02:55Z</time>
      </trkpt>
      <trkpt lat="45.31303" lon="5.89465">
        <ele>953.2</ele>
        <time>2021-02-24T16:02:54Z</time>
      </trkpt>
      <trkpt lat="45.31305" lon="5.89466">
        <ele>953</ele>
        <time>2021-02-24T16:02:53Z</time>
      </trkpt>
      <trkpt lat="45.31307" lon="5.89466">
        <ele>953</ele>
        <time>2021-02-24T16:02:52Z</time>
      </trkpt>
      <trkpt lat="45.31309" lon="5.89466">
        <ele>953</ele>
        <time>2021-02-24T16:02:51Z</time>
      </trkpt>
      <trkpt lat="45.31311" lon="5.89466">
        <ele>952.6</ele>
        <time>2021-02-24T16:02:50Z</time>
      </trkpt>
      <trkpt lat="45.31313" lon="5.89466">
        <ele>951.8</ele>
        <time>2021-02-24T16:02:49Z</time>
      </trkpt>
      <trkpt lat="45.31317" lon="5.89465">
        <ele>951.8</ele>
        <time>2021-02-24T16:02:48Z</time>
      </trkpt>
      <trkpt lat="45.31317" lon="5.89465">
        <ele>951.6</ele>
        <time>2021-02-24T16:02:47Z</time>
      </trkpt>
      <trkpt lat="45.31319" lon="5.89465">
        <ele>951.4</ele>
        <time>2021-02-24T16:02:46Z</time>
      </trkpt>
      <trkpt lat="45.31323" lon="5.89465">
        <ele>950.6</ele>
        <time>2021-02-24T16:02:45Z</time>
      </trkpt>
      <trkpt lat="45.31323" lon="5.89465">
        <ele>950.4</ele>
        <time>2021-02-24T16:02:44Z</time>
      </trkpt>
      <trkpt lat="45.31325" lon="5.89465">
        <ele>950.4</ele>
        <time>2021-02-24T16:02:43Z</time>
      </trkpt>
      <trkpt lat="45.31327" lon="5.89465">
        <ele>950.2</ele>
        <time>2021-02-24T16:02:42Z</time>
      </trkpt>
      <trkpt lat="45.31329" lon="5.89465">
        <ele>949.4</ele>
        <time>2021-02-24T16:02:41Z</time>
      </trkpt>
      <trkpt lat="45.31331" lon="5.89464">
        <ele>948.8</ele>
        <time>2021-02-24T16:02:40Z</time>
      </trkpt>
      <trkpt lat="45.31334" lon="5.89463">
        <ele>949</ele>
        <time>2021-02-24T16:02:39Z</time>
      </trkpt>
      <trkpt lat="45.31334" lon="5.89463">
        <ele>948.8</ele>
        <time>2021-02-24T16:02:38Z</time>
      </trkpt>
      <trkpt lat="45.31336" lon="5.89463">
        <ele>948.2</ele>
        <time>2021-02-24T16:02:37Z</time>
      </trkpt>
      <trkpt lat="45.31338" lon="5.89463">
        <ele>947.6</ele>
        <time>2021-02-24T16:02:36Z</time>
      </trkpt>
      <trkpt lat="45.31341" lon="5.89462">
        <ele>947.4</ele>
        <time>2021-02-24T16:02:35Z</time>
      </trkpt>
      <trkpt lat="45.31342" lon="5.89461">
        <ele>947.4</ele>
        <time>2021-02-24T16:02:34Z</time>
      </trkpt>
      <trkpt lat="45.31345" lon="5.8946">
        <ele>947.4</ele>
        <time>2021-02-24T16:02:33Z</time>
      </trkpt>
      <trkpt lat="45.31347" lon="5.8946">
        <ele>946.8</ele>
        <time>2021-02-24T16:02:32Z</time>
      </trkpt>
      <trkpt lat="45.31349" lon="5.89459">
        <ele>946.8</ele>
        <time>2021-02-24T16:02:31Z</time>
      </trkpt>
      <trkpt lat="45.31352" lon="5.89458">
        <ele>946.8</ele>
        <time>2021-02-24T16:02:30Z</time>
      </trkpt>
      <trkpt lat="45.31354" lon="5.89457">
        <ele>946.6</ele>
        <time>2021-02-24T16:02:29Z</time>
      </trkpt>
      <trkpt lat="45.31356" lon="5.89457">
        <ele>945.6</ele>
        <time>2021-02-24T16:02:28Z</time>
      </trkpt>
      <trkpt lat="45.3136" lon="5.89456">
        <ele>945.4</ele>
        <time>2021-02-24T16:02:27Z</time>
      </trkpt>
      <trkpt lat="45.31362" lon="5.89455">
        <ele>945.4</ele>
        <time>2021-02-24T16:02:26Z</time>
      </trkpt>
      <trkpt lat="45.31364" lon="5.89453">
        <ele>945.4</ele>
        <time>2021-02-24T16:02:25Z</time>
      </trkpt>
      <trkpt lat="45.31365" lon="5.89451">
        <ele>944.4</ele>
        <time>2021-02-24T16:02:24Z</time>
      </trkpt>
      <trkpt lat="45.31367" lon="5.89449">
        <ele>943.8</ele>
        <time>2021-02-24T16:02:23Z</time>
      </trkpt>
      <trkpt lat="45.31369" lon="5.89447">
        <ele>943.8</ele>
        <time>2021-02-24T16:02:22Z</time>
      </trkpt>
      <trkpt lat="45.31371" lon="5.89445">
        <ele>944</ele>
        <time>2021-02-24T16:02:21Z</time>
      </trkpt>
      <trkpt lat="45.31371" lon="5.89445">
        <ele>942.8</ele>
        <time>2021-02-24T16:02:20Z</time>
      </trkpt>
      <trkpt lat="45.31371" lon="5.89445">
        <ele>942.8</ele>
        <time>2021-02-24T16:02:19Z</time>
      </trkpt>
      <trkpt lat="45.31373" lon="5.89443">
        <ele>942.8</ele>
        <time>2021-02-24T16:02:18Z</time>
      </trkpt>
      <trkpt lat="45.31375" lon="5.8944">
        <ele>943</ele>
        <time>2021-02-24T16:02:17Z</time>
      </trkpt>
      <trkpt lat="45.31376" lon="5.89437">
        <ele>942.6</ele>
        <time>2021-02-24T16:02:16Z</time>
      </trkpt>
      <trkpt lat="45.31378" lon="5.89435">
        <ele>941.8</ele>
        <time>2021-02-24T16:02:15Z</time>
      </trkpt>
      <trkpt lat="45.3138" lon="5.89432">
        <ele>941.8</ele>
        <time>2021-02-24T16:02:14Z</time>
      </trkpt>
      <trkpt lat="45.31382" lon="5.89429">
        <ele>941.8</ele>
        <time>2021-02-24T16:02:13Z</time>
      </trkpt>
      <trkpt lat="45.31384" lon="5.89427">
        <ele>941.8</ele>
        <time>2021-02-24T16:02:12Z</time>
      </trkpt>
      <trkpt lat="45.31386" lon="5.89425">
        <ele>941.2</ele>
        <time>2021-02-24T16:02:11Z</time>
      </trkpt>
      <trkpt lat="45.31388" lon="5.89424">
        <ele>941</ele>
        <time>2021-02-24T16:02:10Z</time>
      </trkpt>
      <trkpt lat="45.3139" lon="5.89422">
        <ele>941</ele>
        <time>2021-02-24T16:02:09Z</time>
      </trkpt>
      <trkpt lat="45.3139" lon="5.89422">
        <ele>941</ele>
        <time>2021-02-24T16:02:08Z</time>
      </trkpt>
      <trkpt lat="45.3139" lon="5.89422">
        <ele>940.6</ele>
        <time>2021-02-24T16:02:07Z</time>
      </trkpt>
      <trkpt lat="45.31391" lon="5.89419">
        <ele>940.2</ele>
        <time>2021-02-24T16:02:06Z</time>
      </trkpt>
      <trkpt lat="45.31393" lon="5.89417">
        <ele>940</ele>
        <time>2021-02-24T16:02:05Z</time>
      </trkpt>
      <trkpt lat="45.31395" lon="5.89415">
        <ele>940</ele>
        <time>2021-02-24T16:02:04Z</time>
      </trkpt>
      <trkpt lat="45.31396" lon="5.89413">
        <ele>940.2</ele>
        <time>2021-02-24T16:02:03Z</time>
      </trkpt>
      <trkpt lat="45.31399" lon="5.89411">
        <ele>939.8</ele>
        <time>2021-02-24T16:02:02Z</time>
      </trkpt>
      <trkpt lat="45.31401" lon="5.89409">
        <ele>939.2</ele>
        <time>2021-02-24T16:02:01Z</time>
      </trkpt>
      <trkpt lat="45.31403" lon="5.89408">
        <ele>938.6</ele>
        <time>2021-02-24T16:02:00Z</time>
      </trkpt>
      <trkpt lat="45.31405" lon="5.89407">
        <ele>938.8</ele>
        <time>2021-02-24T16:01:59Z</time>
      </trkpt>
      <trkpt lat="45.31407" lon="5.89405">
        <ele>938.8</ele>
        <time>2021-02-24T16:01:58Z</time>
      </trkpt>
      <trkpt lat="45.31408" lon="5.89403">
        <ele>938.8</ele>
        <time>2021-02-24T16:01:57Z</time>
      </trkpt>
      <trkpt lat="45.3141" lon="5.89401">
        <ele>938.2</ele>
        <time>2021-02-24T16:01:56Z</time>
      </trkpt>
      <trkpt lat="45.31412" lon="5.89399">
        <ele>937.6</ele>
        <time>2021-02-24T16:01:55Z</time>
      </trkpt>
      <trkpt lat="45.31412" lon="5.89397">
        <ele>937.2</ele>
        <time>2021-02-24T16:01:54Z</time>
      </trkpt>
      <trkpt lat="45.31415" lon="5.89394">
        <ele>937</ele>
        <time>2021-02-24T16:01:53Z</time>
      </trkpt>
      <trkpt lat="45.31419" lon="5.89391">
        <ele>937.2</ele>
        <time>2021-02-24T16:01:52Z</time>
      </trkpt>
      <trkpt lat="45.31419" lon="5.89391">
        <ele>937.2</ele>
        <time>2021-02-24T16:01:51Z</time>
      </trkpt>
      <trkpt lat="45.31421" lon="5.89389">
        <ele>937</ele>
        <time>2021-02-24T16:01:50Z</time>
      </trkpt>
      <trkpt lat="45.31423" lon="5.89387">
        <ele>936.4</ele>
        <time>2021-02-24T16:01:49Z</time>
      </trkpt>
      <trkpt lat="45.31424" lon="5.89384">
        <ele>936.4</ele>
        <time>2021-02-24T16:01:48Z</time>
      </trkpt>
      <trkpt lat="45.31426" lon="5.89381">
        <ele>936.4</ele>
        <time>2021-02-24T16:01:47Z</time>
      </trkpt>
      <trkpt lat="45.31428" lon="5.89379">
        <ele>936</ele>
        <time>2021-02-24T16:01:46Z</time>
      </trkpt>
      <trkpt lat="45.3143" lon="5.89376">
        <ele>935.2</ele>
        <time>2021-02-24T16:01:45Z</time>
      </trkpt>
      <trkpt lat="45.31432" lon="5.89375">
        <ele>934.8</ele>
        <time>2021-02-24T16:01:44Z</time>
      </trkpt>
      <trkpt lat="45.31434" lon="5.89373">
        <ele>934.8</ele>
        <time>2021-02-24T16:01:43Z</time>
      </trkpt>
      <trkpt lat="45.31436" lon="5.89372">
        <ele>934.8</ele>
        <time>2021-02-24T16:01:42Z</time>
      </trkpt>
      <trkpt lat="45.31438" lon="5.8937">
        <ele>934.6</ele>
        <time>2021-02-24T16:01:41Z</time>
      </trkpt>
      <trkpt lat="45.3144" lon="5.89368">
        <ele>934.4</ele>
        <time>2021-02-24T16:01:40Z</time>
      </trkpt>
      <trkpt lat="45.31442" lon="5.89368">
        <ele>933.6</ele>
        <time>2021-02-24T16:01:39Z</time>
      </trkpt>
      <trkpt lat="45.31444" lon="5.89367">
        <ele>933.2</ele>
        <time>2021-02-24T16:01:38Z</time>
      </trkpt>
      <trkpt lat="45.31446" lon="5.89366">
        <ele>933.4</ele>
        <time>2021-02-24T16:01:37Z</time>
      </trkpt>
      <trkpt lat="45.31449" lon="5.89365">
        <ele>933.4</ele>
        <time>2021-02-24T16:01:36Z</time>
      </trkpt>
      <trkpt lat="45.31449" lon="5.89365">
        <ele>933.6</ele>
        <time>2021-02-24T16:01:35Z</time>
      </trkpt>
      <trkpt lat="45.31449" lon="5.89365">
        <ele>932.8</ele>
        <time>2021-02-24T16:01:34Z</time>
      </trkpt>
      <trkpt lat="45.3145" lon="5.89365">
        <ele>932.6</ele>
        <time>2021-02-24T16:01:33Z</time>
      </trkpt>
      <trkpt lat="45.31452" lon="5.89365">
        <ele>932.6</ele>
        <time>2021-02-24T16:01:32Z</time>
      </trkpt>
      <trkpt lat="45.31461" lon="5.89365">
        <ele>932.6</ele>
        <time>2021-02-24T16:01:31Z</time>
      </trkpt>
      <trkpt lat="45.31461" lon="5.89365">
        <ele>933</ele>
        <time>2021-02-24T16:01:30Z</time>
      </trkpt>
      <trkpt lat="45.31461" lon="5.89365">
        <ele>932.8</ele>
        <time>2021-02-24T16:01:29Z</time>
      </trkpt>
      <trkpt lat="45.31464" lon="5.89364">
        <ele>932</ele>
        <time>2021-02-24T16:01:28Z</time>
      </trkpt>
      <trkpt lat="45.31466" lon="5.89364">
        <ele>932</ele>
        <time>2021-02-24T16:01:27Z</time>
      </trkpt>
      <trkpt lat="45.31469" lon="5.89364">
        <ele>932.2</ele>
        <time>2021-02-24T16:01:26Z</time>
      </trkpt>
      <trkpt lat="45.31471" lon="5.89363">
        <ele>932.2</ele>
        <time>2021-02-24T16:01:25Z</time>
      </trkpt>
      <trkpt lat="45.31472" lon="5.89363">
        <ele>932</ele>
        <time>2021-02-24T16:01:24Z</time>
      </trkpt>
      <trkpt lat="45.31478" lon="5.89362">
        <ele>931.2</ele>
        <time>2021-02-24T16:01:23Z</time>
      </trkpt>
      <trkpt lat="45.31481" lon="5.89362">
        <ele>930.8</ele>
        <time>2021-02-24T16:01:22Z</time>
      </trkpt>
      <trkpt lat="45.31483" lon="5.89362">
        <ele>930.8</ele>
        <time>2021-02-24T16:01:21Z</time>
      </trkpt>
      <trkpt lat="45.31486" lon="5.89361">
        <ele>930.8</ele>
        <time>2021-02-24T16:01:20Z</time>
      </trkpt>
      <trkpt lat="45.31489" lon="5.89361">
        <ele>930.6</ele>
        <time>2021-02-24T16:01:19Z</time>
      </trkpt>
      <trkpt lat="45.31492" lon="5.8936">
        <ele>929.8</ele>
        <time>2021-02-24T16:01:18Z</time>
      </trkpt>
      <trkpt lat="45.31495" lon="5.8936">
        <ele>929.6</ele>
        <time>2021-02-24T16:01:17Z</time>
      </trkpt>
      <trkpt lat="45.31497" lon="5.89359">
        <ele>929.8</ele>
        <time>2021-02-24T16:01:16Z</time>
      </trkpt>
      <trkpt lat="45.31499" lon="5.89359">
        <ele>929.6</ele>
        <time>2021-02-24T16:01:15Z</time>
      </trkpt>
      <trkpt lat="45.31501" lon="5.89358">
        <ele>929.8</ele>
        <time>2021-02-24T16:01:14Z</time>
      </trkpt>
      <trkpt lat="45.31503" lon="5.89358">
        <ele>929</ele>
        <time>2021-02-24T16:01:13Z</time>
      </trkpt>
      <trkpt lat="45.31505" lon="5.89357">
        <ele>928.6</ele>
        <time>2021-02-24T16:01:12Z</time>
      </trkpt>
      <trkpt lat="45.31507" lon="5.89357">
        <ele>928.6</ele>
        <time>2021-02-24T16:01:11Z</time>
      </trkpt>
      <trkpt lat="45.3151" lon="5.89356">
        <ele>928.6</ele>
        <time>2021-02-24T16:01:10Z</time>
      </trkpt>
      <trkpt lat="45.31512" lon="5.89356">
        <ele>927.6</ele>
        <time>2021-02-24T16:01:09Z</time>
      </trkpt>
      <trkpt lat="45.31514" lon="5.89355">
        <ele>927.6</ele>
        <time>2021-02-24T16:01:08Z</time>
      </trkpt>
      <trkpt lat="45.31516" lon="5.89354">
        <ele>927.8</ele>
        <time>2021-02-24T16:01:07Z</time>
      </trkpt>
      <trkpt lat="45.31518" lon="5.89353">
        <ele>927.6</ele>
        <time>2021-02-24T16:01:06Z</time>
      </trkpt>
      <trkpt lat="45.3152" lon="5.89352">
        <ele>927</ele>
        <time>2021-02-24T16:01:05Z</time>
      </trkpt>
      <trkpt lat="45.31522" lon="5.89351">
        <ele>926.6</ele>
        <time>2021-02-24T16:01:04Z</time>
      </trkpt>
      <trkpt lat="45.31522" lon="5.89351">
        <ele>927</ele>
        <time>2021-02-24T16:01:03Z</time>
      </trkpt>
      <trkpt lat="45.31522" lon="5.89351">
        <ele>927</ele>
        <time>2021-02-24T16:01:02Z</time>
      </trkpt>
      <trkpt lat="45.31526" lon="5.8935">
        <ele>926.2</ele>
        <time>2021-02-24T16:01:01Z</time>
      </trkpt>
      <trkpt lat="45.31526" lon="5.8935">
        <ele>926</ele>
        <time>2021-02-24T16:01:00Z</time>
      </trkpt>
      <trkpt lat="45.31528" lon="5.8935">
        <ele>926</ele>
        <time>2021-02-24T16:00:59Z</time>
      </trkpt>
      <trkpt lat="45.3153" lon="5.89349">
        <ele>926</ele>
        <time>2021-02-24T16:00:58Z</time>
      </trkpt>
      <trkpt lat="45.31533" lon="5.89349">
        <ele>925.2</ele>
        <time>2021-02-24T16:00:57Z</time>
      </trkpt>
      <trkpt lat="45.31535" lon="5.89349">
        <ele>924.6</ele>
        <time>2021-02-24T16:00:56Z</time>
      </trkpt>
      <trkpt lat="45.31538" lon="5.89349">
        <ele>924.6</ele>
        <time>2021-02-24T16:00:55Z</time>
      </trkpt>
      <trkpt lat="45.31539" lon="5.89349">
        <ele>925</ele>
        <time>2021-02-24T16:00:54Z</time>
      </trkpt>
      <trkpt lat="45.31543" lon="5.89349">
        <ele>925</ele>
        <time>2021-02-24T16:00:53Z</time>
      </trkpt>
      <trkpt lat="45.31546" lon="5.89348">
        <ele>924.4</ele>
        <time>2021-02-24T16:00:52Z</time>
      </trkpt>
      <trkpt lat="45.31548" lon="5.89348">
        <ele>923.8</ele>
        <time>2021-02-24T16:00:51Z</time>
      </trkpt>
      <trkpt lat="45.3155" lon="5.89347">
        <ele>923.8</ele>
        <time>2021-02-24T16:00:50Z</time>
      </trkpt>
      <trkpt lat="45.31552" lon="5.89347">
        <ele>923.6</ele>
        <time>2021-02-24T16:00:49Z</time>
      </trkpt>
      <trkpt lat="45.31555" lon="5.89345">
        <ele>923.6</ele>
        <time>2021-02-24T16:00:48Z</time>
      </trkpt>
      <trkpt lat="45.31555" lon="5.89345">
        <ele>923</ele>
        <time>2021-02-24T16:00:47Z</time>
      </trkpt>
      <trkpt lat="45.31559" lon="5.89344">
        <ele>922.6</ele>
        <time>2021-02-24T16:00:46Z</time>
      </trkpt>
      <trkpt lat="45.31559" lon="5.89344">
        <ele>922.6</ele>
        <time>2021-02-24T16:00:45Z</time>
      </trkpt>
      <trkpt lat="45.31562" lon="5.89343">
        <ele>922.4</ele>
        <time>2021-02-24T16:00:44Z</time>
      </trkpt>
      <trkpt lat="45.31562" lon="5.89343">
        <ele>922.2</ele>
        <time>2021-02-24T16:00:43Z</time>
      </trkpt>
      <trkpt lat="45.31564" lon="5.89343">
        <ele>921.6</ele>
        <time>2021-02-24T16:00:42Z</time>
      </trkpt>
      <trkpt lat="45.31564" lon="5.89343">
        <ele>921.4</ele>
        <time>2021-02-24T16:00:41Z</time>
      </trkpt>
      <trkpt lat="45.31565" lon="5.89343">
        <ele>920.8</ele>
        <time>2021-02-24T16:00:40Z</time>
      </trkpt>
      <trkpt lat="45.31567" lon="5.89342">
        <ele>920.6</ele>
        <time>2021-02-24T16:00:39Z</time>
      </trkpt>
      <trkpt lat="45.31568" lon="5.89342">
        <ele>920.2</ele>
        <time>2021-02-24T16:00:38Z</time>
      </trkpt>
      <trkpt lat="45.31569" lon="5.89342">
        <ele>919.8</ele>
        <time>2021-02-24T16:00:37Z</time>
      </trkpt>
      <trkpt lat="45.31571" lon="5.89342">
        <ele>919.6</ele>
        <time>2021-02-24T16:00:36Z</time>
      </trkpt>
      <trkpt lat="45.31572" lon="5.89342">
        <ele>919.2</ele>
        <time>2021-02-24T16:00:35Z</time>
      </trkpt>
      <trkpt lat="45.31574" lon="5.89342">
        <ele>918.8</ele>
        <time>2021-02-24T16:00:34Z</time>
      </trkpt>
      <trkpt lat="45.31575" lon="5.89342">
        <ele>918.4</ele>
        <time>2021-02-24T16:00:33Z</time>
      </trkpt>
      <trkpt lat="45.31576" lon="5.89342">
        <ele>918.4</ele>
        <time>2021-02-24T16:00:32Z</time>
      </trkpt>
      <trkpt lat="45.31577" lon="5.89342">
        <ele>918</ele>
        <time>2021-02-24T16:00:31Z</time>
      </trkpt>
      <trkpt lat="45.31578" lon="5.89342">
        <ele>917.8</ele>
        <time>2021-02-24T16:00:30Z</time>
      </trkpt>
      <trkpt lat="45.31579" lon="5.89341">
        <ele>917.6</ele>
        <time>2021-02-24T16:00:29Z</time>
      </trkpt>
      <trkpt lat="45.3158" lon="5.89341">
        <ele>917.4</ele>
        <time>2021-02-24T16:00:28Z</time>
      </trkpt>
      <trkpt lat="45.31581" lon="5.89341">
        <ele>916.8</ele>
        <time>2021-02-24T16:00:27Z</time>
      </trkpt>
      <trkpt lat="45.31582" lon="5.89341">
        <ele>916.4</ele>
        <time>2021-02-24T16:00:26Z</time>
      </trkpt>
      <trkpt lat="45.31583" lon="5.89341">
        <ele>916</ele>
        <time>2021-02-24T16:00:25Z</time>
      </trkpt>
      <trkpt lat="45.31584" lon="5.89341">
        <ele>915.8</ele>
        <time>2021-02-24T16:00:24Z</time>
      </trkpt>
      <trkpt lat="45.31585" lon="5.89341">
        <ele>915.6</ele>
        <time>2021-02-24T16:00:23Z</time>
      </trkpt>
      <trkpt lat="45.31586" lon="5.89341">
        <ele>915.2</ele>
        <time>2021-02-24T16:00:22Z</time>
      </trkpt>
      <trkpt lat="45.31587" lon="5.89341">
        <ele>914.8</ele>
        <time>2021-02-24T16:00:21Z</time>
      </trkpt>
      <trkpt lat="45.31587" lon="5.89342">
        <ele>914.4</ele>
        <time>2021-02-24T16:00:20Z</time>
      </trkpt>
      <trkpt lat="45.31588" lon="5.89342">
        <ele>914</ele>
        <time>2021-02-24T16:00:19Z</time>
      </trkpt>
      <trkpt lat="45.31589" lon="5.89342">
        <ele>913.6</ele>
        <time>2021-02-24T16:00:18Z</time>
      </trkpt>
      <trkpt lat="45.3159" lon="5.89342">
        <ele>913.2</ele>
        <time>2021-02-24T16:00:17Z</time>
      </trkpt>
      <trkpt lat="45.31591" lon="5.89342">
        <ele>912.6</ele>
        <time>2021-02-24T16:00:16Z</time>
      </trkpt>
      <trkpt lat="45.31592" lon="5.89343">
        <ele>912.4</ele>
        <time>2021-02-24T16:00:15Z</time>
      </trkpt>
      <trkpt lat="45.31593" lon="5.89343">
        <ele>912.2</ele>
        <time>2021-02-24T16:00:14Z</time>
      </trkpt>
      <trkpt lat="45.31594" lon="5.89343">
        <ele>912</ele>
        <time>2021-02-24T16:00:13Z</time>
      </trkpt>
      <trkpt lat="45.31595" lon="5.89343">
        <ele>911.8</ele>
        <time>2021-02-24T16:00:12Z</time>
      </trkpt>
      <trkpt lat="45.31595" lon="5.89344">
        <ele>911.2</ele>
        <time>2021-02-24T16:00:11Z</time>
      </trkpt>
      <trkpt lat="45.31596" lon="5.89344">
        <ele>910.8</ele>
        <time>2021-02-24T16:00:10Z</time>
      </trkpt>
      <trkpt lat="45.31597" lon="5.89344">
        <ele>910.6</ele>
        <time>2021-02-24T16:00:09Z</time>
      </trkpt>
      <trkpt lat="45.31598" lon="5.89345">
        <ele>910.4</ele>
        <time>2021-02-24T16:00:08Z</time>
      </trkpt>
      <trkpt lat="45.31599" lon="5.89345">
        <ele>910.2</ele>
        <time>2021-02-24T16:00:07Z</time>
      </trkpt>
      <trkpt lat="45.316" lon="5.89345">
        <ele>909.8</ele>
        <time>2021-02-24T16:00:06Z</time>
      </trkpt>
      <trkpt lat="45.31601" lon="5.89346">
        <ele>909.2</ele>
        <time>2021-02-24T16:00:05Z</time>
      </trkpt>
      <trkpt lat="45.31602" lon="5.89346">
        <ele>908.6</ele>
        <time>2021-02-24T16:00:04Z</time>
      </trkpt>
      <trkpt lat="45.31602" lon="5.89346">
        <ele>908.4</ele>
        <time>2021-02-24T16:00:03Z</time>
      </trkpt>
      <trkpt lat="45.31603" lon="5.89346">
        <ele>908</ele>
        <time>2021-02-24T16:00:02Z</time>
      </trkpt>
      <trkpt lat="45.31604" lon="5.89346">
        <ele>907.8</ele>
        <time>2021-02-24T16:00:01Z</time>
      </trkpt>
      <trkpt lat="45.31605" lon="5.89346">
        <ele>907.4</ele>
        <time>2021-02-24T15:59:59Z</time>
      </trkpt>
      <trkpt lat="45.31606" lon="5.89345">
        <ele>907.2</ele>
        <time>2021-02-24T15:59:58Z</time>
      </trkpt>
      <trkpt lat="45.31607" lon="5.89345">
        <ele>906.8</ele>
        <time>2021-02-24T15:59:57Z</time>
      </trkpt>
      <trkpt lat="45.31608" lon="5.89345">
        <ele>906.6</ele>
        <time>2021-02-24T15:59:56Z</time>
      </trkpt>
      <trkpt lat="45.31609" lon="5.89345">
        <ele>906.2</ele>
        <time>2021-02-24T15:59:55Z</time>
      </trkpt>
      <trkpt lat="45.3161" lon="5.89344">
        <ele>905.8</ele>
        <time>2021-02-24T15:59:54Z</time>
      </trkpt>
      <trkpt lat="45.31611" lon="5.89344">
        <ele>905.4</ele>
        <time>2021-02-24T15:59:53Z</time>
      </trkpt>
      <trkpt lat="45.31611" lon="5.89344">
        <ele>904.8</ele>
        <time>2021-02-24T15:59:52Z</time>
      </trkpt>
      <trkpt lat="45.31611" lon="5.89344">
        <ele>904.6</ele>
        <time>2021-02-24T15:59:51Z</time>
      </trkpt>
      <trkpt lat="45.31613" lon="5.89343">
        <ele>904.4</ele>
        <time>2021-02-24T15:59:50Z</time>
      </trkpt>
      <trkpt lat="45.31614" lon="5.89342">
        <ele>904.2</ele>
        <time>2021-02-24T15:59:49Z</time>
      </trkpt>
      <trkpt lat="45.31616" lon="5.89341">
        <ele>904.2</ele>
        <time>2021-02-24T15:59:48Z</time>
      </trkpt>
      <trkpt lat="45.31617" lon="5.8934">
        <ele>903.8</ele>
        <time>2021-02-24T15:59:47Z</time>
      </trkpt>
      <trkpt lat="45.31618" lon="5.8934">
        <ele>903.4</ele>
        <time>2021-02-24T15:59:46Z</time>
      </trkpt>
      <trkpt lat="45.3162" lon="5.89339">
        <ele>903.2</ele>
        <time>2021-02-24T15:59:45Z</time>
      </trkpt>
      <trkpt lat="45.31621" lon="5.89338">
        <ele>903</ele>
        <time>2021-02-24T15:59:44Z</time>
      </trkpt>
      <trkpt lat="45.31622" lon="5.89337">
        <ele>902.8</ele>
        <time>2021-02-24T15:59:43Z</time>
      </trkpt>
      <trkpt lat="45.31623" lon="5.89337">
        <ele>902.6</ele>
        <time>2021-02-24T15:59:42Z</time>
      </trkpt>
      <trkpt lat="45.31624" lon="5.89336">
        <ele>902.2</ele>
        <time>2021-02-24T15:59:41Z</time>
      </trkpt>
      <trkpt lat="45.31624" lon="5.89336">
        <ele>901.8</ele>
        <time>2021-02-24T15:59:40Z</time>
      </trkpt>
      <trkpt lat="45.31625" lon="5.89335">
        <ele>901.2</ele>
        <time>2021-02-24T15:59:39Z</time>
      </trkpt>
      <trkpt lat="45.31626" lon="5.89334">
        <ele>901</ele>
        <time>2021-02-24T15:59:38Z</time>
      </trkpt>
      <trkpt lat="45.31627" lon="5.89334">
        <ele>901</ele>
        <time>2021-02-24T15:59:37Z</time>
      </trkpt>
      <trkpt lat="45.31627" lon="5.89334">
        <ele>900.8</ele>
        <time>2021-02-24T15:59:36Z</time>
      </trkpt>
      <trkpt lat="45.31627" lon="5.89334">
        <ele>900.6</ele>
        <time>2021-02-24T15:59:35Z</time>
      </trkpt>
      <trkpt lat="45.31629" lon="5.89332">
        <ele>900.4</ele>
        <time>2021-02-24T15:59:34Z</time>
      </trkpt>
      <trkpt lat="45.31629" lon="5.89332">
        <ele>900</ele>
        <time>2021-02-24T15:59:33Z</time>
      </trkpt>
      <trkpt lat="45.31631" lon="5.8933">
        <ele>899.8</ele>
        <time>2021-02-24T15:59:32Z</time>
      </trkpt>
      <trkpt lat="45.31631" lon="5.8933">
        <ele>899.4</ele>
        <time>2021-02-24T15:59:31Z</time>
      </trkpt>
      <trkpt lat="45.31634" lon="5.89329">
        <ele>899.2</ele>
        <time>2021-02-24T15:59:30Z</time>
      </trkpt>
      <trkpt lat="45.31634" lon="5.89329">
        <ele>899</ele>
        <time>2021-02-24T15:59:29Z</time>
      </trkpt>
      <trkpt lat="45.31636" lon="5.89329">
        <ele>898.8</ele>
        <time>2021-02-24T15:59:28Z</time>
      </trkpt>
      <trkpt lat="45.31636" lon="5.89329">
        <ele>898.4</ele>
        <time>2021-02-24T15:59:27Z</time>
      </trkpt>
      <trkpt lat="45.31639" lon="5.89329">
        <ele>898</ele>
        <time>2021-02-24T15:59:26Z</time>
      </trkpt>
      <trkpt lat="45.31639" lon="5.89329">
        <ele>897.8</ele>
        <time>2021-02-24T15:59:25Z</time>
      </trkpt>
      <trkpt lat="45.31641" lon="5.89327">
        <ele>897.6</ele>
        <time>2021-02-24T15:59:24Z</time>
      </trkpt>
      <trkpt lat="45.31641" lon="5.89327">
        <ele>897.4</ele>
        <time>2021-02-24T15:59:23Z</time>
      </trkpt>
      <trkpt lat="45.31643" lon="5.89327">
        <ele>897.4</ele>
        <time>2021-02-24T15:59:22Z</time>
      </trkpt>
      <trkpt lat="45.31643" lon="5.89327">
        <ele>897.2</ele>
        <time>2021-02-24T15:59:21Z</time>
      </trkpt>
      <trkpt lat="45.31646" lon="5.89327">
        <ele>897</ele>
        <time>2021-02-24T15:59:20Z</time>
      </trkpt>
      <trkpt lat="45.31646" lon="5.89327">
        <ele>896.8</ele>
        <time>2021-02-24T15:59:19Z</time>
      </trkpt>
      <trkpt lat="45.31649" lon="5.89328">
        <ele>896.6</ele>
        <time>2021-02-24T15:59:18Z</time>
      </trkpt>
      <trkpt lat="45.31649" lon="5.89328">
        <ele>896.2</ele>
        <time>2021-02-24T15:59:17Z</time>
      </trkpt>
      <trkpt lat="45.31651" lon="5.89328">
        <ele>896.2</ele>
        <time>2021-02-24T15:59:16Z</time>
      </trkpt>
      <trkpt lat="45.31651" lon="5.89328">
        <ele>896</ele>
        <time>2021-02-24T15:59:15Z</time>
      </trkpt>
      <trkpt lat="45.31652" lon="5.89326">
        <ele>895.4</ele>
        <time>2021-02-24T15:59:14Z</time>
      </trkpt>
      <trkpt lat="45.31652" lon="5.89326">
        <ele>895</ele>
        <time>2021-02-24T15:59:13Z</time>
      </trkpt>
      <trkpt lat="45.31654" lon="5.89325">
        <ele>894.4</ele>
        <time>2021-02-24T15:59:12Z</time>
      </trkpt>
      <trkpt lat="45.31654" lon="5.89325">
        <ele>894.2</ele>
        <time>2021-02-24T15:59:11Z</time>
      </trkpt>
      <trkpt lat="45.31656" lon="5.89324">
        <ele>894</ele>
        <time>2021-02-24T15:59:10Z</time>
      </trkpt>
      <trkpt lat="45.31656" lon="5.89324">
        <ele>893.8</ele>
        <time>2021-02-24T15:59:09Z</time>
      </trkpt>
      <trkpt lat="45.31658" lon="5.89325">
        <ele>893.4</ele>
        <time>2021-02-24T15:59:08Z</time>
      </trkpt>
      <trkpt lat="45.31658" lon="5.89325">
        <ele>893.2</ele>
        <time>2021-02-24T15:59:07Z</time>
      </trkpt>
      <trkpt lat="45.31658" lon="5.89325">
        <ele>892.6</ele>
        <time>2021-02-24T15:59:06Z</time>
      </trkpt>
      <trkpt lat="45.31661" lon="5.89326">
        <ele>892.4</ele>
        <time>2021-02-24T15:59:05Z</time>
      </trkpt>
      <trkpt lat="45.31661" lon="5.89326">
        <ele>892.2</ele>
        <time>2021-02-24T15:59:04Z</time>
      </trkpt>
      <trkpt lat="45.31661" lon="5.89326">
        <ele>892</ele>
        <time>2021-02-24T15:59:03Z</time>
      </trkpt>
      <trkpt lat="45.31661" lon="5.89326">
        <ele>891.6</ele>
        <time>2021-02-24T15:59:02Z</time>
      </trkpt>
      <trkpt lat="45.31663" lon="5.89326">
        <ele>891.2</ele>
        <time>2021-02-24T15:59:01Z</time>
      </trkpt>
      <trkpt lat="45.31663" lon="5.89326">
        <ele>890.8</ele>
        <time>2021-02-24T15:59:00Z</time>
      </trkpt>
      <trkpt lat="45.31664" lon="5.89325">
        <ele>890.4</ele>
        <time>2021-02-24T15:58:59Z</time>
      </trkpt>
      <trkpt lat="45.31664" lon="5.89325">
        <ele>890.2</ele>
        <time>2021-02-24T15:58:58Z</time>
      </trkpt>
      <trkpt lat="45.31667" lon="5.89323">
        <ele>890</ele>
        <time>2021-02-24T15:58:57Z</time>
      </trkpt>
      <trkpt lat="45.31667" lon="5.89323">
        <ele>889.6</ele>
        <time>2021-02-24T15:58:56Z</time>
      </trkpt>
      <trkpt lat="45.31667" lon="5.89323">
        <ele>889.4</ele>
        <time>2021-02-24T15:58:55Z</time>
      </trkpt>
      <trkpt lat="45.31667" lon="5.89322">
        <ele>889</ele>
        <time>2021-02-24T15:58:54Z</time>
      </trkpt>
      <trkpt lat="45.31668" lon="5.89321">
        <ele>888.8</ele>
        <time>2021-02-24T15:58:53Z</time>
      </trkpt>
      <trkpt lat="45.31673" lon="5.89318">
        <ele>888.6</ele>
        <time>2021-02-24T15:58:52Z</time>
      </trkpt>
      <trkpt lat="45.31673" lon="5.89318">
        <ele>888.4</ele>
        <time>2021-02-24T15:58:51Z</time>
      </trkpt>
      <trkpt lat="45.31675" lon="5.89318">
        <ele>888.2</ele>
        <time>2021-02-24T15:58:50Z</time>
      </trkpt>
      <trkpt lat="45.31676" lon="5.89318">
        <ele>888</ele>
        <time>2021-02-24T15:58:49Z</time>
      </trkpt>
      <trkpt lat="45.31678" lon="5.89318">
        <ele>887.8</ele>
        <time>2021-02-24T15:58:48Z</time>
      </trkpt>
      <trkpt lat="45.31679" lon="5.89318">
        <ele>887.6</ele>
        <time>2021-02-24T15:58:47Z</time>
      </trkpt>
      <trkpt lat="45.31681" lon="5.89318">
        <ele>887.4</ele>
        <time>2021-02-24T15:58:46Z</time>
      </trkpt>
      <trkpt lat="45.31682" lon="5.89318">
        <ele>887</ele>
        <time>2021-02-24T15:58:45Z</time>
      </trkpt>
      <trkpt lat="45.31684" lon="5.89319">
        <ele>886.6</ele>
        <time>2021-02-24T15:58:44Z</time>
      </trkpt>
      <trkpt lat="45.31685" lon="5.89319">
        <ele>886.4</ele>
        <time>2021-02-24T15:58:43Z</time>
      </trkpt>
      <trkpt lat="45.31687" lon="5.89319">
        <ele>886.2</ele>
        <time>2021-02-24T15:58:42Z</time>
      </trkpt>
      <trkpt lat="45.31688" lon="5.8932">
        <ele>886</ele>
        <time>2021-02-24T15:58:41Z</time>
      </trkpt>
      <trkpt lat="45.3169" lon="5.89321">
        <ele>885.6</ele>
        <time>2021-02-24T15:58:40Z</time>
      </trkpt>
      <trkpt lat="45.31691" lon="5.89323">
        <ele>885.2</ele>
        <time>2021-02-24T15:58:39Z</time>
      </trkpt>
      <trkpt lat="45.31693" lon="5.89324">
        <ele>884.8</ele>
        <time>2021-02-24T15:58:38Z</time>
      </trkpt>
      <trkpt lat="45.31694" lon="5.89325">
        <ele>884.6</ele>
        <time>2021-02-24T15:58:37Z</time>
      </trkpt>
      <trkpt lat="45.31696" lon="5.89327">
        <ele>884.4</ele>
        <time>2021-02-24T15:58:36Z</time>
      </trkpt>
      <trkpt lat="45.31698" lon="5.89328">
        <ele>884.2</ele>
        <time>2021-02-24T15:58:35Z</time>
      </trkpt>
      <trkpt lat="45.31701" lon="5.89328">
        <ele>884</ele>
        <time>2021-02-24T15:58:34Z</time>
      </trkpt>
      <trkpt lat="45.31703" lon="5.89329">
        <ele>884</ele>
        <time>2021-02-24T15:58:33Z</time>
      </trkpt>
      <trkpt lat="45.31706" lon="5.8933">
        <ele>883.8</ele>
        <time>2021-02-24T15:58:32Z</time>
      </trkpt>
      <trkpt lat="45.31706" lon="5.8933">
        <ele>883.6</ele>
        <time>2021-02-24T15:58:31Z</time>
      </trkpt>
      <trkpt lat="45.31706" lon="5.8933">
        <ele>883.4</ele>
        <time>2021-02-24T15:58:30Z</time>
      </trkpt>
      <trkpt lat="45.3171" lon="5.89331">
        <ele>883</ele>
        <time>2021-02-24T15:58:29Z</time>
      </trkpt>
      <trkpt lat="45.31712" lon="5.89332">
        <ele>882.4</ele>
        <time>2021-02-24T15:58:28Z</time>
      </trkpt>
      <trkpt lat="45.31714" lon="5.89333">
        <ele>882.2</ele>
        <time>2021-02-24T15:58:27Z</time>
      </trkpt>
      <trkpt lat="45.31716" lon="5.89334">
        <ele>881.6</ele>
        <time>2021-02-24T15:58:26Z</time>
      </trkpt>
      <trkpt lat="45.31718" lon="5.89335">
        <ele>881.2</ele>
        <time>2021-02-24T15:58:25Z</time>
      </trkpt>
      <trkpt lat="45.3172" lon="5.89337">
        <ele>880.8</ele>
        <time>2021-02-24T15:58:24Z</time>
      </trkpt>
      <trkpt lat="45.31722" lon="5.89338">
        <ele>880.4</ele>
        <time>2021-02-24T15:58:23Z</time>
      </trkpt>
      <trkpt lat="45.31724" lon="5.89339">
        <ele>880</ele>
        <time>2021-02-24T15:58:22Z</time>
      </trkpt>
      <trkpt lat="45.31726" lon="5.89342">
        <ele>879.8</ele>
        <time>2021-02-24T15:58:21Z</time>
      </trkpt>
      <trkpt lat="45.31728" lon="5.89344">
        <ele>879.6</ele>
        <time>2021-02-24T15:58:20Z</time>
      </trkpt>
      <trkpt lat="45.3173" lon="5.89347">
        <ele>879.2</ele>
        <time>2021-02-24T15:58:19Z</time>
      </trkpt>
      <trkpt lat="45.31732" lon="5.8935">
        <ele>879</ele>
        <time>2021-02-24T15:58:18Z</time>
      </trkpt>
      <trkpt lat="45.31734" lon="5.89352">
        <ele>878.8</ele>
        <time>2021-02-24T15:58:17Z</time>
      </trkpt>
      <trkpt lat="45.31735" lon="5.89354">
        <ele>878.6</ele>
        <time>2021-02-24T15:58:16Z</time>
      </trkpt>
      <trkpt lat="45.31737" lon="5.89356">
        <ele>878.4</ele>
        <time>2021-02-24T15:58:15Z</time>
      </trkpt>
      <trkpt lat="45.31738" lon="5.89358">
        <ele>878.2</ele>
        <time>2021-02-24T15:58:14Z</time>
      </trkpt>
      <trkpt lat="45.3174" lon="5.8936">
        <ele>878</ele>
        <time>2021-02-24T15:58:13Z</time>
      </trkpt>
      <trkpt lat="45.31741" lon="5.89361">
        <ele>878</ele>
        <time>2021-02-24T15:58:12Z</time>
      </trkpt>
      <trkpt lat="45.31742" lon="5.89362">
        <ele>877.6</ele>
        <time>2021-02-24T15:58:11Z</time>
      </trkpt>
      <trkpt lat="45.31743" lon="5.89364">
        <ele>877.2</ele>
        <time>2021-02-24T15:58:10Z</time>
      </trkpt>
      <trkpt lat="45.31744" lon="5.89365">
        <ele>877</ele>
        <time>2021-02-24T15:58:09Z</time>
      </trkpt>
      <trkpt lat="45.31745" lon="5.89367">
        <ele>876.6</ele>
        <time>2021-02-24T15:58:08Z</time>
      </trkpt>
      <trkpt lat="45.31746" lon="5.89368">
        <ele>876.6</ele>
        <time>2021-02-24T15:58:07Z</time>
      </trkpt>
      <trkpt lat="45.31747" lon="5.89369">
        <ele>876.4</ele>
        <time>2021-02-24T15:58:06Z</time>
      </trkpt>
      <trkpt lat="45.31748" lon="5.89371">
        <ele>876</ele>
        <time>2021-02-24T15:58:05Z</time>
      </trkpt>
      <trkpt lat="45.31749" lon="5.89372">
        <ele>875.6</ele>
        <time>2021-02-24T15:58:04Z</time>
      </trkpt>
      <trkpt lat="45.31749" lon="5.89373">
        <ele>875.4</ele>
        <time>2021-02-24T15:58:03Z</time>
      </trkpt>
      <trkpt lat="45.3175" lon="5.89374">
        <ele>875</ele>
        <time>2021-02-24T15:58:02Z</time>
      </trkpt>
      <trkpt lat="45.31751" lon="5.89375">
        <ele>874.6</ele>
        <time>2021-02-24T15:58:01Z</time>
      </trkpt>
      <trkpt lat="45.31752" lon="5.89376">
        <ele>874.6</ele>
        <time>2021-02-24T15:58:00Z</time>
      </trkpt>
      <trkpt lat="45.31753" lon="5.89378">
        <ele>874.4</ele>
        <time>2021-02-24T15:57:59Z</time>
      </trkpt>
      <trkpt lat="45.31753" lon="5.89379">
        <ele>874.2</ele>
        <time>2021-02-24T15:57:58Z</time>
      </trkpt>
      <trkpt lat="45.31754" lon="5.8938">
        <ele>874</ele>
        <time>2021-02-24T15:57:57Z</time>
      </trkpt>
      <trkpt lat="45.31755" lon="5.89382">
        <ele>873.6</ele>
        <time>2021-02-24T15:57:56Z</time>
      </trkpt>
      <trkpt lat="45.31756" lon="5.89383">
        <ele>873.6</ele>
        <time>2021-02-24T15:57:55Z</time>
      </trkpt>
      <trkpt lat="45.31757" lon="5.89385">
        <ele>873.6</ele>
        <time>2021-02-24T15:57:54Z</time>
      </trkpt>
      <trkpt lat="45.31758" lon="5.89386">
        <ele>873.6</ele>
        <time>2021-02-24T15:57:53Z</time>
      </trkpt>
      <trkpt lat="45.31758" lon="5.89388">
        <ele>873.4</ele>
        <time>2021-02-24T15:57:52Z</time>
      </trkpt>
      <trkpt lat="45.31759" lon="5.89389">
        <ele>873</ele>
        <time>2021-02-24T15:57:51Z</time>
      </trkpt>
      <trkpt lat="45.31761" lon="5.89391">
        <ele>871.8</ele>
        <time>2021-02-24T15:57:50Z</time>
      </trkpt>
      <trkpt lat="45.31762" lon="5.89392">
        <ele>871.8</ele>
        <time>2021-02-24T15:57:49Z</time>
      </trkpt>
      <trkpt lat="45.31763" lon="5.89393">
        <ele>872</ele>
        <time>2021-02-24T15:57:48Z</time>
      </trkpt>
      <trkpt lat="45.31765" lon="5.89394">
        <ele>871.4</ele>
        <time>2021-02-24T15:57:47Z</time>
      </trkpt>
      <trkpt lat="45.31766" lon="5.89396">
        <ele>870.8</ele>
        <time>2021-02-24T15:57:46Z</time>
      </trkpt>
      <trkpt lat="45.31767" lon="5.89397">
        <ele>870.6</ele>
        <time>2021-02-24T15:57:45Z</time>
      </trkpt>
      <trkpt lat="45.31769" lon="5.89398">
        <ele>870.6</ele>
        <time>2021-02-24T15:57:44Z</time>
      </trkpt>
      <trkpt lat="45.3177" lon="5.89399">
        <ele>870.8</ele>
        <time>2021-02-24T15:57:43Z</time>
      </trkpt>
      <trkpt lat="45.31772" lon="5.894">
        <ele>870</ele>
        <time>2021-02-24T15:57:42Z</time>
      </trkpt>
      <trkpt lat="45.31773" lon="5.89401">
        <ele>869.4</ele>
        <time>2021-02-24T15:57:41Z</time>
      </trkpt>
      <trkpt lat="45.31775" lon="5.89402">
        <ele>869.4</ele>
        <time>2021-02-24T15:57:40Z</time>
      </trkpt>
      <trkpt lat="45.31776" lon="5.89403">
        <ele>869.4</ele>
        <time>2021-02-24T15:57:39Z</time>
      </trkpt>
      <trkpt lat="45.31778" lon="5.89404">
        <ele>869.4</ele>
        <time>2021-02-24T15:57:38Z</time>
      </trkpt>
      <trkpt lat="45.31778" lon="5.89404">
        <ele>868.4</ele>
        <time>2021-02-24T15:57:37Z</time>
      </trkpt>
      <trkpt lat="45.31778" lon="5.89404">
        <ele>868</ele>
        <time>2021-02-24T15:57:36Z</time>
      </trkpt>
      <trkpt lat="45.31787" lon="5.89407">
        <ele>867.8</ele>
        <time>2021-02-24T15:57:35Z</time>
      </trkpt>
      <trkpt lat="45.31789" lon="5.89408">
        <ele>867.4</ele>
        <time>2021-02-24T15:57:34Z</time>
      </trkpt>
      <trkpt lat="45.31791" lon="5.89409">
        <ele>867.4</ele>
        <time>2021-02-24T15:57:33Z</time>
      </trkpt>
      <trkpt lat="45.31793" lon="5.8941">
        <ele>867.2</ele>
        <time>2021-02-24T15:57:32Z</time>
      </trkpt>
      <trkpt lat="45.31795" lon="5.89411">
        <ele>867.2</ele>
        <time>2021-02-24T15:57:31Z</time>
      </trkpt>
      <trkpt lat="45.31797" lon="5.89413">
        <ele>866</ele>
        <time>2021-02-24T15:57:30Z</time>
      </trkpt>
      <trkpt lat="45.318" lon="5.89415">
        <ele>865.8</ele>
        <time>2021-02-24T15:57:29Z</time>
      </trkpt>
      <trkpt lat="45.31802" lon="5.89416">
        <ele>865.8</ele>
        <time>2021-02-24T15:57:28Z</time>
      </trkpt>
      <trkpt lat="45.31804" lon="5.89418">
        <ele>866</ele>
        <time>2021-02-24T15:57:27Z</time>
      </trkpt>
      <trkpt lat="45.31804" lon="5.89418">
        <ele>865.4</ele>
        <time>2021-02-24T15:57:26Z</time>
      </trkpt>
      <trkpt lat="45.31804" lon="5.89418">
        <ele>865</ele>
        <time>2021-02-24T15:57:25Z</time>
      </trkpt>
      <trkpt lat="45.31808" lon="5.89423">
        <ele>865.2</ele>
        <time>2021-02-24T15:57:24Z</time>
      </trkpt>
      <trkpt lat="45.3181" lon="5.89426">
        <ele>865.2</ele>
        <time>2021-02-24T15:57:23Z</time>
      </trkpt>
      <trkpt lat="45.31813" lon="5.89429">
        <ele>864.6</ele>
        <time>2021-02-24T15:57:22Z</time>
      </trkpt>
      <trkpt lat="45.31815" lon="5.89432">
        <ele>864</ele>
        <time>2021-02-24T15:57:21Z</time>
      </trkpt>
      <trkpt lat="45.31818" lon="5.89435">
        <ele>863.6</ele>
        <time>2021-02-24T15:57:20Z</time>
      </trkpt>
      <trkpt lat="45.31821" lon="5.89439">
        <ele>863.8</ele>
        <time>2021-02-24T15:57:19Z</time>
      </trkpt>
      <trkpt lat="45.31822" lon="5.8944">
        <ele>863.6</ele>
        <time>2021-02-24T15:57:18Z</time>
      </trkpt>
      <trkpt lat="45.31823" lon="5.89442">
        <ele>862.6</ele>
        <time>2021-02-24T15:57:17Z</time>
      </trkpt>
      <trkpt lat="45.31824" lon="5.89444">
        <ele>862.4</ele>
        <time>2021-02-24T15:57:16Z</time>
      </trkpt>
      <trkpt lat="45.31825" lon="5.89445">
        <ele>862.6</ele>
        <time>2021-02-24T15:57:15Z</time>
      </trkpt>
      <trkpt lat="45.31826" lon="5.89447">
        <ele>862.6</ele>
        <time>2021-02-24T15:57:14Z</time>
      </trkpt>
      <trkpt lat="45.31827" lon="5.89448">
        <ele>862.2</ele>
        <time>2021-02-24T15:57:13Z</time>
      </trkpt>
      <trkpt lat="45.31828" lon="5.8945">
        <ele>861.4</ele>
        <time>2021-02-24T15:57:12Z</time>
      </trkpt>
      <trkpt lat="45.31829" lon="5.89451">
        <ele>861.2</ele>
        <time>2021-02-24T15:57:11Z</time>
      </trkpt>
      <trkpt lat="45.31831" lon="5.89452">
        <ele>861</ele>
        <time>2021-02-24T15:57:10Z</time>
      </trkpt>
      <trkpt lat="45.31832" lon="5.89452">
        <ele>860.6</ele>
        <time>2021-02-24T15:57:09Z</time>
      </trkpt>
      <trkpt lat="45.31834" lon="5.89453">
        <ele>860.4</ele>
        <time>2021-02-24T15:57:08Z</time>
      </trkpt>
      <trkpt lat="45.31835" lon="5.89454">
        <ele>860</ele>
        <time>2021-02-24T15:57:07Z</time>
      </trkpt>
      <trkpt lat="45.31836" lon="5.89454">
        <ele>859.8</ele>
        <time>2021-02-24T15:57:06Z</time>
      </trkpt>
      <trkpt lat="45.31837" lon="5.89456">
        <ele>860</ele>
        <time>2021-02-24T15:57:05Z</time>
      </trkpt>
      <trkpt lat="45.31838" lon="5.89457">
        <ele>859.8</ele>
        <time>2021-02-24T15:57:04Z</time>
      </trkpt>
      <trkpt lat="45.31839" lon="5.89458">
        <ele>859.2</ele>
        <time>2021-02-24T15:57:03Z</time>
      </trkpt>
      <trkpt lat="45.31839" lon="5.89459">
        <ele>859</ele>
        <time>2021-02-24T15:57:02Z</time>
      </trkpt>
      <trkpt lat="45.3184" lon="5.8946">
        <ele>858.6</ele>
        <time>2021-02-24T15:57:01Z</time>
      </trkpt>
      <trkpt lat="45.31841" lon="5.89462">
        <ele>858.2</ele>
        <time>2021-02-24T15:57:00Z</time>
      </trkpt>
      <trkpt lat="45.31842" lon="5.89463">
        <ele>857.6</ele>
        <time>2021-02-24T15:56:59Z</time>
      </trkpt>
      <trkpt lat="45.31842" lon="5.89464">
        <ele>857</ele>
        <time>2021-02-24T15:56:58Z</time>
      </trkpt>
      <trkpt lat="45.31843" lon="5.89465">
        <ele>856.6</ele>
        <time>2021-02-24T15:56:57Z</time>
      </trkpt>
      <trkpt lat="45.31844" lon="5.89466">
        <ele>856.2</ele>
        <time>2021-02-24T15:56:56Z</time>
      </trkpt>
      <trkpt lat="45.31845" lon="5.89467">
        <ele>856</ele>
        <time>2021-02-24T15:56:55Z</time>
      </trkpt>
      <trkpt lat="45.31845" lon="5.89468">
        <ele>855.8</ele>
        <time>2021-02-24T15:56:54Z</time>
      </trkpt>
      <trkpt lat="45.31846" lon="5.89468">
        <ele>855.6</ele>
        <time>2021-02-24T15:56:53Z</time>
      </trkpt>
      <trkpt lat="45.31846" lon="5.89469">
        <ele>855.2</ele>
        <time>2021-02-24T15:56:52Z</time>
      </trkpt>
      <trkpt lat="45.31847" lon="5.8947">
        <ele>854.8</ele>
        <time>2021-02-24T15:56:51Z</time>
      </trkpt>
      <trkpt lat="45.31848" lon="5.89471">
        <ele>854.4</ele>
        <time>2021-02-24T15:56:50Z</time>
      </trkpt>
      <trkpt lat="45.31848" lon="5.89472">
        <ele>854.2</ele>
        <time>2021-02-24T15:56:49Z</time>
      </trkpt>
      <trkpt lat="45.31849" lon="5.89472">
        <ele>853.8</ele>
        <time>2021-02-24T15:56:48Z</time>
      </trkpt>
      <trkpt lat="45.3185" lon="5.89473">
        <ele>853.4</ele>
        <time>2021-02-24T15:56:47Z</time>
      </trkpt>
      <trkpt lat="45.3185" lon="5.89474">
        <ele>853</ele>
        <time>2021-02-24T15:56:46Z</time>
      </trkpt>
      <trkpt lat="45.31851" lon="5.89475">
        <ele>852.6</ele>
        <time>2021-02-24T15:56:45Z</time>
      </trkpt>
      <trkpt lat="45.31852" lon="5.89476">
        <ele>852</ele>
        <time>2021-02-24T15:56:44Z</time>
      </trkpt>
      <trkpt lat="45.31854" lon="5.89477">
        <ele>851.8</ele>
        <time>2021-02-24T15:56:43Z</time>
      </trkpt>
      <trkpt lat="45.31855" lon="5.89478">
        <ele>851.2</ele>
        <time>2021-02-24T15:56:42Z</time>
      </trkpt>
      <trkpt lat="45.31856" lon="5.89479">
        <ele>851.2</ele>
        <time>2021-02-24T15:56:41Z</time>
      </trkpt>
      <trkpt lat="45.31857" lon="5.89481">
        <ele>850.8</ele>
        <time>2021-02-24T15:56:40Z</time>
      </trkpt>
      <trkpt lat="45.31858" lon="5.89482">
        <ele>850.4</ele>
        <time>2021-02-24T15:56:39Z</time>
      </trkpt>
      <trkpt lat="45.31859" lon="5.89482">
        <ele>850.2</ele>
        <time>2021-02-24T15:56:38Z</time>
      </trkpt>
      <trkpt lat="45.31861" lon="5.89483">
        <ele>849.8</ele>
        <time>2021-02-24T15:56:37Z</time>
      </trkpt>
      <trkpt lat="45.31863" lon="5.89484">
        <ele>849.4</ele>
        <time>2021-02-24T15:56:36Z</time>
      </trkpt>
      <trkpt lat="45.31864" lon="5.89485">
        <ele>849</ele>
        <time>2021-02-24T15:56:35Z</time>
      </trkpt>
      <trkpt lat="45.31866" lon="5.89485">
        <ele>848.4</ele>
        <time>2021-02-24T15:56:34Z</time>
      </trkpt>
      <trkpt lat="45.31867" lon="5.89486">
        <ele>848.2</ele>
        <time>2021-02-24T15:56:33Z</time>
      </trkpt>
      <trkpt lat="45.31869" lon="5.89486">
        <ele>848</ele>
        <time>2021-02-24T15:56:32Z</time>
      </trkpt>
      <trkpt lat="45.31871" lon="5.89487">
        <ele>847.4</ele>
        <time>2021-02-24T15:56:31Z</time>
      </trkpt>
      <trkpt lat="45.31873" lon="5.89487">
        <ele>847</ele>
        <time>2021-02-24T15:56:30Z</time>
      </trkpt>
      <trkpt lat="45.31875" lon="5.89487">
        <ele>846.6</ele>
        <time>2021-02-24T15:56:29Z</time>
      </trkpt>
      <trkpt lat="45.31877" lon="5.89487">
        <ele>846</ele>
        <time>2021-02-24T15:56:28Z</time>
      </trkpt>
      <trkpt lat="45.31879" lon="5.89489">
        <ele>845.8</ele>
        <time>2021-02-24T15:56:27Z</time>
      </trkpt>
      <trkpt lat="45.3188" lon="5.8949">
        <ele>845.6</ele>
        <time>2021-02-24T15:56:26Z</time>
      </trkpt>
      <trkpt lat="45.31882" lon="5.89491">
        <ele>845.2</ele>
        <time>2021-02-24T15:56:25Z</time>
      </trkpt>
      <trkpt lat="45.31883" lon="5.89492">
        <ele>845</ele>
        <time>2021-02-24T15:56:24Z</time>
      </trkpt>
      <trkpt lat="45.31884" lon="5.89494">
        <ele>844.6</ele>
        <time>2021-02-24T15:56:23Z</time>
      </trkpt>
      <trkpt lat="45.31886" lon="5.89495">
        <ele>844.2</ele>
        <time>2021-02-24T15:56:22Z</time>
      </trkpt>
      <trkpt lat="45.31887" lon="5.89496">
        <ele>844</ele>
        <time>2021-02-24T15:56:21Z</time>
      </trkpt>
      <trkpt lat="45.31887" lon="5.89498">
        <ele>843.6</ele>
        <time>2021-02-24T15:56:20Z</time>
      </trkpt>
      <trkpt lat="45.31888" lon="5.89499">
        <ele>843.4</ele>
        <time>2021-02-24T15:56:19Z</time>
      </trkpt>
      <trkpt lat="45.31889" lon="5.895">
        <ele>843</ele>
        <time>2021-02-24T15:56:18Z</time>
      </trkpt>
      <trkpt lat="45.3189" lon="5.89502">
        <ele>842.6</ele>
        <time>2021-02-24T15:56:17Z</time>
      </trkpt>
      <trkpt lat="45.3189" lon="5.89503">
        <ele>842.2</ele>
        <time>2021-02-24T15:56:16Z</time>
      </trkpt>
      <trkpt lat="45.31891" lon="5.89504">
        <ele>842</ele>
        <time>2021-02-24T15:56:15Z</time>
      </trkpt>
      <trkpt lat="45.31892" lon="5.89506">
        <ele>841.6</ele>
        <time>2021-02-24T15:56:14Z</time>
      </trkpt>
      <trkpt lat="45.31892" lon="5.89508">
        <ele>841.4</ele>
        <time>2021-02-24T15:56:13Z</time>
      </trkpt>
      <trkpt lat="45.31892" lon="5.89511">
        <ele>841</ele>
        <time>2021-02-24T15:56:12Z</time>
      </trkpt>
      <trkpt lat="45.31892" lon="5.89513">
        <ele>840.6</ele>
        <time>2021-02-24T15:56:11Z</time>
      </trkpt>
      <trkpt lat="45.31891" lon="5.89516">
        <ele>840.2</ele>
        <time>2021-02-24T15:56:10Z</time>
      </trkpt>
      <trkpt lat="45.31891" lon="5.89518">
        <ele>840</ele>
        <time>2021-02-24T15:56:09Z</time>
      </trkpt>
      <trkpt lat="45.31891" lon="5.89521">
        <ele>840</ele>
        <time>2021-02-24T15:56:08Z</time>
      </trkpt>
      <trkpt lat="45.31892" lon="5.89522">
        <ele>839.6</ele>
        <time>2021-02-24T15:56:07Z</time>
      </trkpt>
      <trkpt lat="45.31892" lon="5.89524">
        <ele>839.6</ele>
        <time>2021-02-24T15:56:06Z</time>
      </trkpt>
      <trkpt lat="45.31892" lon="5.89526">
        <ele>839.4</ele>
        <time>2021-02-24T15:56:05Z</time>
      </trkpt>
      <trkpt lat="45.31892" lon="5.89527">
        <ele>839</ele>
        <time>2021-02-24T15:56:04Z</time>
      </trkpt>
      <trkpt lat="45.31892" lon="5.89529">
        <ele>838.8</ele>
        <time>2021-02-24T15:56:03Z</time>
      </trkpt>
      <trkpt lat="45.31893" lon="5.8953">
        <ele>838.2</ele>
        <time>2021-02-24T15:56:02Z</time>
      </trkpt>
      <trkpt lat="45.31893" lon="5.89532">
        <ele>837.8</ele>
        <time>2021-02-24T15:56:01Z</time>
      </trkpt>
      <trkpt lat="45.31893" lon="5.89534">
        <ele>837.6</ele>
        <time>2021-02-24T15:56:00Z</time>
      </trkpt>
      <trkpt lat="45.31893" lon="5.89535">
        <ele>837.2</ele>
        <time>2021-02-24T15:55:59Z</time>
      </trkpt>
      <trkpt lat="45.31894" lon="5.89538">
        <ele>837</ele>
        <time>2021-02-24T15:55:58Z</time>
      </trkpt>
      <trkpt lat="45.31894" lon="5.89541">
        <ele>836.6</ele>
        <time>2021-02-24T15:55:57Z</time>
      </trkpt>
      <trkpt lat="45.31894" lon="5.89543">
        <ele>836.4</ele>
        <time>2021-02-24T15:55:56Z</time>
      </trkpt>
      <trkpt lat="45.31895" lon="5.89546">
        <ele>836</ele>
        <time>2021-02-24T15:55:55Z</time>
      </trkpt>
      <trkpt lat="45.31895" lon="5.89548">
        <ele>835.6</ele>
        <time>2021-02-24T15:55:54Z</time>
      </trkpt>
      <trkpt lat="45.31895" lon="5.89551">
        <ele>835.4</ele>
        <time>2021-02-24T15:55:53Z</time>
      </trkpt>
      <trkpt lat="45.31895" lon="5.89552">
        <ele>835</ele>
        <time>2021-02-24T15:55:52Z</time>
      </trkpt>
      <trkpt lat="45.31895" lon="5.89553">
        <ele>834.6</ele>
        <time>2021-02-24T15:55:51Z</time>
      </trkpt>
      <trkpt lat="45.31896" lon="5.89554">
        <ele>834.2</ele>
        <time>2021-02-24T15:55:50Z</time>
      </trkpt>
      <trkpt lat="45.31896" lon="5.89556">
        <ele>834</ele>
        <time>2021-02-24T15:55:49Z</time>
      </trkpt>
      <trkpt lat="45.31896" lon="5.89557">
        <ele>833.6</ele>
        <time>2021-02-24T15:55:48Z</time>
      </trkpt>
      <trkpt lat="45.31896" lon="5.89558">
        <ele>833.2</ele>
        <time>2021-02-24T15:55:47Z</time>
      </trkpt>
      <trkpt lat="45.31896" lon="5.89559">
        <ele>833</ele>
        <time>2021-02-24T15:55:46Z</time>
      </trkpt>
      <trkpt lat="45.31896" lon="5.89561">
        <ele>832.6</ele>
        <time>2021-02-24T15:55:45Z</time>
      </trkpt>
      <trkpt lat="45.31896" lon="5.89562">
        <ele>832.4</ele>
        <time>2021-02-24T15:55:44Z</time>
      </trkpt>
      <trkpt lat="45.31896" lon="5.89563">
        <ele>832</ele>
        <time>2021-02-24T15:55:43Z</time>
      </trkpt>
      <trkpt lat="45.31896" lon="5.89564">
        <ele>831.6</ele>
        <time>2021-02-24T15:55:42Z</time>
      </trkpt>
      <trkpt lat="45.31896" lon="5.89566">
        <ele>831.6</ele>
        <time>2021-02-24T15:55:41Z</time>
      </trkpt>
      <trkpt lat="45.31896" lon="5.89567">
        <ele>831.4</ele>
        <time>2021-02-24T15:55:40Z</time>
      </trkpt>
      <trkpt lat="45.31897" lon="5.89568">
        <ele>831.2</ele>
        <time>2021-02-24T15:55:39Z</time>
      </trkpt>
      <trkpt lat="45.31897" lon="5.8957">
        <ele>831</ele>
        <time>2021-02-24T15:55:38Z</time>
      </trkpt>
      <trkpt lat="45.31897" lon="5.89571">
        <ele>830.8</ele>
        <time>2021-02-24T15:55:37Z</time>
      </trkpt>
      <trkpt lat="45.31897" lon="5.89573">
        <ele>830.6</ele>
        <time>2021-02-24T15:55:36Z</time>
      </trkpt>
      <trkpt lat="45.31897" lon="5.89574">
        <ele>830.4</ele>
        <time>2021-02-24T15:55:35Z</time>
      </trkpt>
      <trkpt lat="45.31897" lon="5.89575">
        <ele>830</ele>
        <time>2021-02-24T15:55:34Z</time>
      </trkpt>
      <trkpt lat="45.31897" lon="5.89577">
        <ele>830</ele>
        <time>2021-02-24T15:55:33Z</time>
      </trkpt>
      <trkpt lat="45.31897" lon="5.89578">
        <ele>829.6</ele>
        <time>2021-02-24T15:55:32Z</time>
      </trkpt>
      <trkpt lat="45.31897" lon="5.8958">
        <ele>829.2</ele>
        <time>2021-02-24T15:55:31Z</time>
      </trkpt>
      <trkpt lat="45.31897" lon="5.89581">
        <ele>828.8</ele>
        <time>2021-02-24T15:55:30Z</time>
      </trkpt>
      <trkpt lat="45.31897" lon="5.89583">
        <ele>828.4</ele>
        <time>2021-02-24T15:55:29Z</time>
      </trkpt>
      <trkpt lat="45.31897" lon="5.89585">
        <ele>828.2</ele>
        <time>2021-02-24T15:55:28Z</time>
      </trkpt>
      <trkpt lat="45.31897" lon="5.89587">
        <ele>827.8</ele>
        <time>2021-02-24T15:55:27Z</time>
      </trkpt>
      <trkpt lat="45.31897" lon="5.89589">
        <ele>827.4</ele>
        <time>2021-02-24T15:55:26Z</time>
      </trkpt>
      <trkpt lat="45.31897" lon="5.8959">
        <ele>827</ele>
        <time>2021-02-24T15:55:25Z</time>
      </trkpt>
      <trkpt lat="45.31898" lon="5.89592">
        <ele>826.8</ele>
        <time>2021-02-24T15:55:24Z</time>
      </trkpt>
      <trkpt lat="45.31898" lon="5.89595">
        <ele>826.4</ele>
        <time>2021-02-24T15:55:23Z</time>
      </trkpt>
      <trkpt lat="45.31899" lon="5.89598">
        <ele>826.2</ele>
        <time>2021-02-24T15:55:22Z</time>
      </trkpt>
      <trkpt lat="45.319" lon="5.89601">
        <ele>826</ele>
        <time>2021-02-24T15:55:21Z</time>
      </trkpt>
      <trkpt lat="45.31901" lon="5.89605">
        <ele>826</ele>
        <time>2021-02-24T15:55:20Z</time>
      </trkpt>
      <trkpt lat="45.31902" lon="5.89607">
        <ele>825.8</ele>
        <time>2021-02-24T15:55:19Z</time>
      </trkpt>
      <trkpt lat="45.31902" lon="5.89609">
        <ele>825.4</ele>
        <time>2021-02-24T15:55:18Z</time>
      </trkpt>
      <trkpt lat="45.31903" lon="5.89611">
        <ele>825</ele>
        <time>2021-02-24T15:55:17Z</time>
      </trkpt>
      <trkpt lat="45.31904" lon="5.89614">
        <ele>825</ele>
        <time>2021-02-24T15:55:16Z</time>
      </trkpt>
      <trkpt lat="45.31905" lon="5.89616">
        <ele>825</ele>
        <time>2021-02-24T15:55:15Z</time>
      </trkpt>
      <trkpt lat="45.31906" lon="5.89618">
        <ele>824.6</ele>
        <time>2021-02-24T15:55:14Z</time>
      </trkpt>
      <trkpt lat="45.31906" lon="5.89621">
        <ele>824.2</ele>
        <time>2021-02-24T15:55:13Z</time>
      </trkpt>
      <trkpt lat="45.31907" lon="5.89625">
        <ele>824</ele>
        <time>2021-02-24T15:55:12Z</time>
      </trkpt>
      <trkpt lat="45.31908" lon="5.89628">
        <ele>823.8</ele>
        <time>2021-02-24T15:55:11Z</time>
      </trkpt>
      <trkpt lat="45.31908" lon="5.89632">
        <ele>823.2</ele>
        <time>2021-02-24T15:55:10Z</time>
      </trkpt>
      <trkpt lat="45.31908" lon="5.89634">
        <ele>823</ele>
        <time>2021-02-24T15:55:09Z</time>
      </trkpt>
      <trkpt lat="45.31909" lon="5.89636">
        <ele>823</ele>
        <time>2021-02-24T15:55:08Z</time>
      </trkpt>
      <trkpt lat="45.31909" lon="5.89637">
        <ele>822.8</ele>
        <time>2021-02-24T15:55:07Z</time>
      </trkpt>
      <trkpt lat="45.3191" lon="5.89639">
        <ele>822</ele>
        <time>2021-02-24T15:55:06Z</time>
      </trkpt>
      <trkpt lat="45.3191" lon="5.89641">
        <ele>822</ele>
        <time>2021-02-24T15:55:05Z</time>
      </trkpt>
      <trkpt lat="45.3191" lon="5.89643">
        <ele>822</ele>
        <time>2021-02-24T15:55:04Z</time>
      </trkpt>
      <trkpt lat="45.31911" lon="5.89645">
        <ele>821.2</ele>
        <time>2021-02-24T15:55:03Z</time>
      </trkpt>
      <trkpt lat="45.31911" lon="5.89647">
        <ele>820.6</ele>
        <time>2021-02-24T15:55:02Z</time>
      </trkpt>
      <trkpt lat="45.31911" lon="5.89648">
        <ele>820.4</ele>
        <time>2021-02-24T15:55:01Z</time>
      </trkpt>
      <trkpt lat="45.31911" lon="5.8965">
        <ele>820.2</ele>
        <time>2021-02-24T15:55:00Z</time>
      </trkpt>
      <trkpt lat="45.31911" lon="5.89652">
        <ele>820</ele>
        <time>2021-02-24T15:54:59Z</time>
      </trkpt>
      <trkpt lat="45.31911" lon="5.89653">
        <ele>819.6</ele>
        <time>2021-02-24T15:54:58Z</time>
      </trkpt>
      <trkpt lat="45.31911" lon="5.89655">
        <ele>819.2</ele>
        <time>2021-02-24T15:54:57Z</time>
      </trkpt>
      <trkpt lat="45.31911" lon="5.89656">
        <ele>818.6</ele>
        <time>2021-02-24T15:54:56Z</time>
      </trkpt>
      <trkpt lat="45.31911" lon="5.89658">
        <ele>818</ele>
        <time>2021-02-24T15:54:55Z</time>
      </trkpt>
      <trkpt lat="45.31911" lon="5.8966">
        <ele>817.6</ele>
        <time>2021-02-24T15:54:54Z</time>
      </trkpt>
      <trkpt lat="45.31911" lon="5.8966">
        <ele>817.6</ele>
        <time>2021-02-24T15:54:53Z</time>
      </trkpt>
      <trkpt lat="45.31911" lon="5.89661">
        <ele>817.2</ele>
        <time>2021-02-24T15:54:52Z</time>
      </trkpt>
      <trkpt lat="45.31911" lon="5.89662">
        <ele>817</ele>
        <time>2021-02-24T15:54:51Z</time>
      </trkpt>
      <trkpt lat="45.31911" lon="5.89663">
        <ele>816.8</ele>
        <time>2021-02-24T15:54:50Z</time>
      </trkpt>
      <trkpt lat="45.31911" lon="5.89664">
        <ele>816.4</ele>
        <time>2021-02-24T15:54:49Z</time>
      </trkpt>
      <trkpt lat="45.3191" lon="5.89664">
        <ele>816</ele>
        <time>2021-02-24T15:54:48Z</time>
      </trkpt>
      <trkpt lat="45.3191" lon="5.89665">
        <ele>815.8</ele>
        <time>2021-02-24T15:54:47Z</time>
      </trkpt>
      <trkpt lat="45.3191" lon="5.89666">
        <ele>815.6</ele>
        <time>2021-02-24T15:54:46Z</time>
      </trkpt>
      <trkpt lat="45.3191" lon="5.89667">
        <ele>815.2</ele>
        <time>2021-02-24T15:54:45Z</time>
      </trkpt>
      <trkpt lat="45.3191" lon="5.89668">
        <ele>814.8</ele>
        <time>2021-02-24T15:54:44Z</time>
      </trkpt>
      <trkpt lat="45.3191" lon="5.89668">
        <ele>814.4</ele>
        <time>2021-02-24T15:54:43Z</time>
      </trkpt>
      <trkpt lat="45.3191" lon="5.89669">
        <ele>813.8</ele>
        <time>2021-02-24T15:54:42Z</time>
      </trkpt>
      <trkpt lat="45.31909" lon="5.8967">
        <ele>813.4</ele>
        <time>2021-02-24T15:54:41Z</time>
      </trkpt>
      <trkpt lat="45.31909" lon="5.89671">
        <ele>813</ele>
        <time>2021-02-24T15:54:40Z</time>
      </trkpt>
      <trkpt lat="45.31909" lon="5.89672">
        <ele>812.6</ele>
        <time>2021-02-24T15:54:39Z</time>
      </trkpt>
      <trkpt lat="45.31909" lon="5.89672">
        <ele>812.4</ele>
        <time>2021-02-24T15:54:38Z</time>
      </trkpt>
      <trkpt lat="45.31909" lon="5.89673">
        <ele>812.2</ele>
        <time>2021-02-24T15:54:37Z</time>
      </trkpt>
      <trkpt lat="45.31909" lon="5.89675">
        <ele>811.8</ele>
        <time>2021-02-24T15:54:36Z</time>
      </trkpt>
      <trkpt lat="45.31909" lon="5.89677">
        <ele>811.4</ele>
        <time>2021-02-24T15:54:35Z</time>
      </trkpt>
      <trkpt lat="45.31909" lon="5.89679">
        <ele>811</ele>
        <time>2021-02-24T15:54:34Z</time>
      </trkpt>
      <trkpt lat="45.31909" lon="5.89681">
        <ele>810.8</ele>
        <time>2021-02-24T15:54:33Z</time>
      </trkpt>
      <trkpt lat="45.31909" lon="5.89682">
        <ele>810.6</ele>
        <time>2021-02-24T15:54:32Z</time>
      </trkpt>
      <trkpt lat="45.31909" lon="5.89684">
        <ele>810.6</ele>
        <time>2021-02-24T15:54:31Z</time>
      </trkpt>
      <trkpt lat="45.31909" lon="5.89686">
        <ele>810.6</ele>
        <time>2021-02-24T15:54:30Z</time>
      </trkpt>
      <trkpt lat="45.3191" lon="5.89688">
        <ele>811</ele>
        <time>2021-02-24T15:54:29Z</time>
      </trkpt>
      <trkpt lat="45.31911" lon="5.8969">
        <ele>810.4</ele>
        <time>2021-02-24T15:54:28Z</time>
      </trkpt>
      <trkpt lat="45.31912" lon="5.89691">
        <ele>810</ele>
        <time>2021-02-24T15:54:27Z</time>
      </trkpt>
      <trkpt lat="45.31913" lon="5.89693">
        <ele>809.8</ele>
        <time>2021-02-24T15:54:26Z</time>
      </trkpt>
      <trkpt lat="45.31914" lon="5.89695">
        <ele>810</ele>
        <time>2021-02-24T15:54:25Z</time>
      </trkpt>
      <trkpt lat="45.31915" lon="5.89697">
        <ele>810.2</ele>
        <time>2021-02-24T15:54:24Z</time>
      </trkpt>
      <trkpt lat="45.31916" lon="5.89698">
        <ele>809</ele>
        <time>2021-02-24T15:54:23Z</time>
      </trkpt>
      <trkpt lat="45.31918" lon="5.897">
        <ele>808.6</ele>
        <time>2021-02-24T15:54:22Z</time>
      </trkpt>
      <trkpt lat="45.31919" lon="5.89701">
        <ele>808.4</ele>
        <time>2021-02-24T15:54:21Z</time>
      </trkpt>
      <trkpt lat="45.31921" lon="5.89703">
        <ele>808.2</ele>
        <time>2021-02-24T15:54:20Z</time>
      </trkpt>
      <trkpt lat="45.31922" lon="5.89704">
        <ele>808</ele>
        <time>2021-02-24T15:54:19Z</time>
      </trkpt>
      <trkpt lat="45.31924" lon="5.89705">
        <ele>808</ele>
        <time>2021-02-24T15:54:18Z</time>
      </trkpt>
      <trkpt lat="45.31925" lon="5.89706">
        <ele>807.8</ele>
        <time>2021-02-24T15:54:17Z</time>
      </trkpt>
      <trkpt lat="45.31926" lon="5.89706">
        <ele>807.6</ele>
        <time>2021-02-24T15:54:16Z</time>
      </trkpt>
      <trkpt lat="45.31927" lon="5.89707">
        <ele>807.2</ele>
        <time>2021-02-24T15:54:15Z</time>
      </trkpt>
      <trkpt lat="45.31929" lon="5.89707">
        <ele>806.8</ele>
        <time>2021-02-24T15:54:14Z</time>
      </trkpt>
      <trkpt lat="45.3193" lon="5.89707">
        <ele>806.4</ele>
        <time>2021-02-24T15:54:13Z</time>
      </trkpt>
      <trkpt lat="45.31931" lon="5.89708">
        <ele>806.2</ele>
        <time>2021-02-24T15:54:12Z</time>
      </trkpt>
      <trkpt lat="45.31932" lon="5.89708">
        <ele>806</ele>
        <time>2021-02-24T15:54:11Z</time>
      </trkpt>
      <trkpt lat="45.31933" lon="5.89708">
        <ele>806</ele>
        <time>2021-02-24T15:54:10Z</time>
      </trkpt>
      <trkpt lat="45.31934" lon="5.8971">
        <ele>806</ele>
        <time>2021-02-24T15:54:09Z</time>
      </trkpt>
      <trkpt lat="45.31935" lon="5.89712">
        <ele>806.2</ele>
        <time>2021-02-24T15:54:08Z</time>
      </trkpt>
      <trkpt lat="45.31936" lon="5.89714">
        <ele>806.8</ele>
        <time>2021-02-24T15:54:07Z</time>
      </trkpt>
      <trkpt lat="45.31937" lon="5.89716">
        <ele>807.8</ele>
        <time>2021-02-24T15:54:06Z</time>
      </trkpt>
      <trkpt lat="45.31938" lon="5.89718">
        <ele>808.2</ele>
        <time>2021-02-24T15:54:05Z</time>
      </trkpt>
      <trkpt lat="45.31939" lon="5.8972">
        <ele>807.2</ele>
        <time>2021-02-24T15:54:04Z</time>
      </trkpt>
      <trkpt lat="45.3194" lon="5.89723">
        <ele>807.2</ele>
        <time>2021-02-24T15:54:03Z</time>
      </trkpt>
      <trkpt lat="45.31941" lon="5.89725">
        <ele>807.2</ele>
        <time>2021-02-24T15:54:02Z</time>
      </trkpt>
      <trkpt lat="45.31941" lon="5.89728">
        <ele>807</ele>
        <time>2021-02-24T15:54:01Z</time>
      </trkpt>
      <trkpt lat="45.31942" lon="5.8973">
        <ele>807.2</ele>
        <time>2021-02-24T15:54:00Z</time>
      </trkpt>
      <trkpt lat="45.31943" lon="5.89732">
        <ele>807</ele>
        <time>2021-02-24T15:53:59Z</time>
      </trkpt>
      <trkpt lat="45.31944" lon="5.89734">
        <ele>806.6</ele>
        <time>2021-02-24T15:53:58Z</time>
      </trkpt>
      <trkpt lat="45.31944" lon="5.89735">
        <ele>806.4</ele>
        <time>2021-02-24T15:53:57Z</time>
      </trkpt>
      <trkpt lat="45.31945" lon="5.89736">
        <ele>806.2</ele>
        <time>2021-02-24T15:53:56Z</time>
      </trkpt>
      <trkpt lat="45.31946" lon="5.89737">
        <ele>805.8</ele>
        <time>2021-02-24T15:53:55Z</time>
      </trkpt>
      <trkpt lat="45.31947" lon="5.89738">
        <ele>805.4</ele>
        <time>2021-02-24T15:53:54Z</time>
      </trkpt>
      <trkpt lat="45.31947" lon="5.8974">
        <ele>805.2</ele>
        <time>2021-02-24T15:53:53Z</time>
      </trkpt>
      <trkpt lat="45.31948" lon="5.89741">
        <ele>804.8</ele>
        <time>2021-02-24T15:53:52Z</time>
      </trkpt>
      <trkpt lat="45.31949" lon="5.89742">
        <ele>804.6</ele>
        <time>2021-02-24T15:53:51Z</time>
      </trkpt>
      <trkpt lat="45.3195" lon="5.89743">
        <ele>804.2</ele>
        <time>2021-02-24T15:53:50Z</time>
      </trkpt>
      <trkpt lat="45.31951" lon="5.89745">
        <ele>803.8</ele>
        <time>2021-02-24T15:53:49Z</time>
      </trkpt>
      <trkpt lat="45.31952" lon="5.89746">
        <ele>803.4</ele>
        <time>2021-02-24T15:53:48Z</time>
      </trkpt>
      <trkpt lat="45.31954" lon="5.89748">
        <ele>803.2</ele>
        <time>2021-02-24T15:53:47Z</time>
      </trkpt>
      <trkpt lat="45.31955" lon="5.89749">
        <ele>803</ele>
        <time>2021-02-24T15:53:46Z</time>
      </trkpt>
      <trkpt lat="45.31956" lon="5.8975">
        <ele>803</ele>
        <time>2021-02-24T15:53:45Z</time>
      </trkpt>
      <trkpt lat="45.31958" lon="5.89752">
        <ele>803</ele>
        <time>2021-02-24T15:53:44Z</time>
      </trkpt>
      <trkpt lat="45.31959" lon="5.89754">
        <ele>803.2</ele>
        <time>2021-02-24T15:53:43Z</time>
      </trkpt>
      <trkpt lat="45.31961" lon="5.89755">
        <ele>804.2</ele>
        <time>2021-02-24T15:53:42Z</time>
      </trkpt>
      <trkpt lat="45.31962" lon="5.89757">
        <ele>804.8</ele>
        <time>2021-02-24T15:53:41Z</time>
      </trkpt>
      <trkpt lat="45.31964" lon="5.89759">
        <ele>804.6</ele>
        <time>2021-02-24T15:53:40Z</time>
      </trkpt>
      <trkpt lat="45.31965" lon="5.89759">
        <ele>805</ele>
        <time>2021-02-24T15:53:39Z</time>
      </trkpt>
      <trkpt lat="45.31966" lon="5.8976">
        <ele>805.2</ele>
        <time>2021-02-24T15:53:38Z</time>
      </trkpt>
      <trkpt lat="45.31966" lon="5.89761">
        <ele>805</ele>
        <time>2021-02-24T15:53:37Z</time>
      </trkpt>
      <trkpt lat="45.31967" lon="5.89762">
        <ele>804.6</ele>
        <time>2021-02-24T15:53:36Z</time>
      </trkpt>
      <trkpt lat="45.31968" lon="5.89763">
        <ele>804.2</ele>
        <time>2021-02-24T15:53:35Z</time>
      </trkpt>
      <trkpt lat="45.31969" lon="5.89764">
        <ele>803.8</ele>
        <time>2021-02-24T15:53:34Z</time>
      </trkpt>
      <trkpt lat="45.3197" lon="5.89765">
        <ele>803.6</ele>
        <time>2021-02-24T15:53:33Z</time>
      </trkpt>
      <trkpt lat="45.31971" lon="5.89766">
        <ele>803</ele>
        <time>2021-02-24T15:53:32Z</time>
      </trkpt>
      <trkpt lat="45.31972" lon="5.89767">
        <ele>802.8</ele>
        <time>2021-02-24T15:53:31Z</time>
      </trkpt>
      <trkpt lat="45.31973" lon="5.89768">
        <ele>802.8</ele>
        <time>2021-02-24T15:53:30Z</time>
      </trkpt>
      <trkpt lat="45.31973" lon="5.8977">
        <ele>802.4</ele>
        <time>2021-02-24T15:53:29Z</time>
      </trkpt>
      <trkpt lat="45.31974" lon="5.89771">
        <ele>802.2</ele>
        <time>2021-02-24T15:53:28Z</time>
      </trkpt>
      <trkpt lat="45.31975" lon="5.89773">
        <ele>801.8</ele>
        <time>2021-02-24T15:53:27Z</time>
      </trkpt>
      <trkpt lat="45.31976" lon="5.89774">
        <ele>801.8</ele>
        <time>2021-02-24T15:53:26Z</time>
      </trkpt>
      <trkpt lat="45.31976" lon="5.89776">
        <ele>801.4</ele>
        <time>2021-02-24T15:53:25Z</time>
      </trkpt>
      <trkpt lat="45.31977" lon="5.89777">
        <ele>801.2</ele>
        <time>2021-02-24T15:53:24Z</time>
      </trkpt>
      <trkpt lat="45.31977" lon="5.89779">
        <ele>801</ele>
        <time>2021-02-24T15:53:23Z</time>
      </trkpt>
      <trkpt lat="45.31978" lon="5.89781">
        <ele>800.6</ele>
        <time>2021-02-24T15:53:22Z</time>
      </trkpt>
      <trkpt lat="45.31978" lon="5.89782">
        <ele>800.2</ele>
        <time>2021-02-24T15:53:21Z</time>
      </trkpt>
      <trkpt lat="45.31978" lon="5.89784">
        <ele>799.8</ele>
        <time>2021-02-24T15:53:20Z</time>
      </trkpt>
      <trkpt lat="45.31978" lon="5.89785">
        <ele>799.6</ele>
        <time>2021-02-24T15:53:19Z</time>
      </trkpt>
      <trkpt lat="45.31978" lon="5.89787">
        <ele>799.6</ele>
        <time>2021-02-24T15:53:18Z</time>
      </trkpt>
      <trkpt lat="45.31979" lon="5.89788">
        <ele>799.4</ele>
        <time>2021-02-24T15:53:17Z</time>
      </trkpt>
      <trkpt lat="45.31979" lon="5.8979">
        <ele>799.4</ele>
        <time>2021-02-24T15:53:16Z</time>
      </trkpt>
      <trkpt lat="45.31979" lon="5.89791">
        <ele>799.6</ele>
        <time>2021-02-24T15:53:15Z</time>
      </trkpt>
      <trkpt lat="45.31979" lon="5.89792">
        <ele>799</ele>
        <time>2021-02-24T15:53:14Z</time>
      </trkpt>
      <trkpt lat="45.3198" lon="5.89794">
        <ele>798.8</ele>
        <time>2021-02-24T15:53:13Z</time>
      </trkpt>
      <trkpt lat="45.3198" lon="5.89795">
        <ele>799.4</ele>
        <time>2021-02-24T15:53:12Z</time>
      </trkpt>
      <trkpt lat="45.3198" lon="5.89796">
        <ele>800</ele>
        <time>2021-02-24T15:53:11Z</time>
      </trkpt>
      <trkpt lat="45.31981" lon="5.89797">
        <ele>801</ele>
        <time>2021-02-24T15:53:10Z</time>
      </trkpt>
      <trkpt lat="45.31981" lon="5.89799">
        <ele>801.8</ele>
        <time>2021-02-24T15:53:09Z</time>
      </trkpt>
      <trkpt lat="45.31981" lon="5.898">
        <ele>801.8</ele>
        <time>2021-02-24T15:53:08Z</time>
      </trkpt>
      <trkpt lat="45.31981" lon="5.89801">
        <ele>802.6</ele>
        <time>2021-02-24T15:53:07Z</time>
      </trkpt>
      <trkpt lat="45.31982" lon="5.89802">
        <ele>803.2</ele>
        <time>2021-02-24T15:53:06Z</time>
      </trkpt>
      <trkpt lat="45.31982" lon="5.89803">
        <ele>803.2</ele>
        <time>2021-02-24T15:53:05Z</time>
      </trkpt>
      <trkpt lat="45.31982" lon="5.89804">
        <ele>802.8</ele>
        <time>2021-02-24T15:53:04Z</time>
      </trkpt>
      <trkpt lat="45.31983" lon="5.89805">
        <ele>802.6</ele>
        <time>2021-02-24T15:53:03Z</time>
      </trkpt>
      <trkpt lat="45.31983" lon="5.89805">
        <ele>802.4</ele>
        <time>2021-02-24T15:53:02Z</time>
      </trkpt>
      <trkpt lat="45.31983" lon="5.89806">
        <ele>802</ele>
        <time>2021-02-24T15:53:01Z</time>
      </trkpt>
      <trkpt lat="45.31984" lon="5.89806">
        <ele>801.4</ele>
        <time>2021-02-24T15:53:00Z</time>
      </trkpt>
      <trkpt lat="45.31984" lon="5.89807">
        <ele>801</ele>
        <time>2021-02-24T15:52:59Z</time>
      </trkpt>
      <trkpt lat="45.31984" lon="5.89807">
        <ele>800.6</ele>
        <time>2021-02-24T15:52:58Z</time>
      </trkpt>
      <trkpt lat="45.31985" lon="5.89808">
        <ele>800.2</ele>
        <time>2021-02-24T15:52:57Z</time>
      </trkpt>
      <trkpt lat="45.31985" lon="5.89809">
        <ele>800</ele>
        <time>2021-02-24T15:52:56Z</time>
      </trkpt>
      <trkpt lat="45.31985" lon="5.89809">
        <ele>799.6</ele>
        <time>2021-02-24T15:52:55Z</time>
      </trkpt>
      <trkpt lat="45.31986" lon="5.8981">
        <ele>799.4</ele>
        <time>2021-02-24T15:52:54Z</time>
      </trkpt>
      <trkpt lat="45.31986" lon="5.8981">
        <ele>799</ele>
        <time>2021-02-24T15:52:53Z</time>
      </trkpt>
      <trkpt lat="45.31986" lon="5.89811">
        <ele>798.6</ele>
        <time>2021-02-24T15:52:52Z</time>
      </trkpt>
      <trkpt lat="45.31987" lon="5.89812">
        <ele>798.2</ele>
        <time>2021-02-24T15:52:51Z</time>
      </trkpt>
      <trkpt lat="45.31987" lon="5.89812">
        <ele>798</ele>
        <time>2021-02-24T15:52:50Z</time>
      </trkpt>
      <trkpt lat="45.31987" lon="5.89813">
        <ele>797.6</ele>
        <time>2021-02-24T15:52:49Z</time>
      </trkpt>
      <trkpt lat="45.31988" lon="5.89813">
        <ele>797.4</ele>
        <time>2021-02-24T15:52:48Z</time>
      </trkpt>
      <trkpt lat="45.31988" lon="5.89814">
        <ele>797</ele>
        <time>2021-02-24T15:52:47Z</time>
      </trkpt>
      <trkpt lat="45.31989" lon="5.89815">
        <ele>796.8</ele>
        <time>2021-02-24T15:52:46Z</time>
      </trkpt>
      <trkpt lat="45.31989" lon="5.89817">
        <ele>796.2</ele>
        <time>2021-02-24T15:52:45Z</time>
      </trkpt>
      <trkpt lat="45.31989" lon="5.89818">
        <ele>795.8</ele>
        <time>2021-02-24T15:52:44Z</time>
      </trkpt>
      <trkpt lat="45.3199" lon="5.89819">
        <ele>795.4</ele>
        <time>2021-02-24T15:52:43Z</time>
      </trkpt>
      <trkpt lat="45.3199" lon="5.8982">
        <ele>795</ele>
        <time>2021-02-24T15:52:42Z</time>
      </trkpt>
      <trkpt lat="45.31991" lon="5.89821">
        <ele>794.4</ele>
        <time>2021-02-24T15:52:41Z</time>
      </trkpt>
      <trkpt lat="45.31991" lon="5.89822">
        <ele>794.2</ele>
        <time>2021-02-24T15:52:40Z</time>
      </trkpt>
      <trkpt lat="45.31992" lon="5.89823">
        <ele>794</ele>
        <time>2021-02-24T15:52:39Z</time>
      </trkpt>
      <trkpt lat="45.31992" lon="5.89824">
        <ele>794</ele>
        <time>2021-02-24T15:52:38Z</time>
      </trkpt>
      <trkpt lat="45.31993" lon="5.89825">
        <ele>794</ele>
        <time>2021-02-24T15:52:37Z</time>
      </trkpt>
      <trkpt lat="45.31993" lon="5.89827">
        <ele>794</ele>
        <time>2021-02-24T15:52:36Z</time>
      </trkpt>
      <trkpt lat="45.31994" lon="5.89828">
        <ele>794.2</ele>
        <time>2021-02-24T15:52:35Z</time>
      </trkpt>
      <trkpt lat="45.31994" lon="5.8983">
        <ele>793.2</ele>
        <time>2021-02-24T15:52:34Z</time>
      </trkpt>
      <trkpt lat="45.31995" lon="5.89831">
        <ele>792.6</ele>
        <time>2021-02-24T15:52:33Z</time>
      </trkpt>
      <trkpt lat="45.31995" lon="5.89833">
        <ele>792.4</ele>
        <time>2021-02-24T15:52:32Z</time>
      </trkpt>
      <trkpt lat="45.31995" lon="5.89835">
        <ele>792</ele>
        <time>2021-02-24T15:52:31Z</time>
      </trkpt>
      <trkpt lat="45.31996" lon="5.89836">
        <ele>791.6</ele>
        <time>2021-02-24T15:52:30Z</time>
      </trkpt>
      <trkpt lat="45.31996" lon="5.89838">
        <ele>791.4</ele>
        <time>2021-02-24T15:52:29Z</time>
      </trkpt>
      <trkpt lat="45.31997" lon="5.89839">
        <ele>791.2</ele>
        <time>2021-02-24T15:52:28Z</time>
      </trkpt>
      <trkpt lat="45.31997" lon="5.89841">
        <ele>790.8</ele>
        <time>2021-02-24T15:52:27Z</time>
      </trkpt>
      <trkpt lat="45.31998" lon="5.89842">
        <ele>790.4</ele>
        <time>2021-02-24T15:52:26Z</time>
      </trkpt>
      <trkpt lat="45.31998" lon="5.89844">
        <ele>790</ele>
        <time>2021-02-24T15:52:25Z</time>
      </trkpt>
      <trkpt lat="45.31999" lon="5.89845">
        <ele>789.6</ele>
        <time>2021-02-24T15:52:24Z</time>
      </trkpt>
      <trkpt lat="45.31999" lon="5.89847">
        <ele>789.4</ele>
        <time>2021-02-24T15:52:23Z</time>
      </trkpt>
      <trkpt lat="45.32" lon="5.89848">
        <ele>789</ele>
        <time>2021-02-24T15:52:22Z</time>
      </trkpt>
      <trkpt lat="45.32" lon="5.8985">
        <ele>788.8</ele>
        <time>2021-02-24T15:52:21Z</time>
      </trkpt>
      <trkpt lat="45.32001" lon="5.8985">
        <ele>788.2</ele>
        <time>2021-02-24T15:52:20Z</time>
      </trkpt>
      <trkpt lat="45.32001" lon="5.89851">
        <ele>788</ele>
        <time>2021-02-24T15:52:19Z</time>
      </trkpt>
      <trkpt lat="45.32002" lon="5.89852">
        <ele>787.6</ele>
        <time>2021-02-24T15:52:18Z</time>
      </trkpt>
      <trkpt lat="45.32002" lon="5.89853">
        <ele>787.4</ele>
        <time>2021-02-24T15:52:17Z</time>
      </trkpt>
      <trkpt lat="45.32003" lon="5.89854">
        <ele>787</ele>
        <time>2021-02-24T15:52:16Z</time>
      </trkpt>
      <trkpt lat="45.32003" lon="5.89854">
        <ele>786.8</ele>
        <time>2021-02-24T15:52:15Z</time>
      </trkpt>
      <trkpt lat="45.32004" lon="5.89855">
        <ele>786.2</ele>
        <time>2021-02-24T15:52:14Z</time>
      </trkpt>
      <trkpt lat="45.32004" lon="5.89856">
        <ele>785.8</ele>
        <time>2021-02-24T15:52:13Z</time>
      </trkpt>
      <trkpt lat="45.32005" lon="5.89857">
        <ele>785.6</ele>
        <time>2021-02-24T15:52:12Z</time>
      </trkpt>
      <trkpt lat="45.32005" lon="5.89858">
        <ele>785.2</ele>
        <time>2021-02-24T15:52:11Z</time>
      </trkpt>
      <trkpt lat="45.32006" lon="5.89859">
        <ele>784.6</ele>
        <time>2021-02-24T15:52:10Z</time>
      </trkpt>
      <trkpt lat="45.32006" lon="5.89859">
        <ele>784.4</ele>
        <time>2021-02-24T15:52:09Z</time>
      </trkpt>
      <trkpt lat="45.32007" lon="5.8986">
        <ele>784.2</ele>
        <time>2021-02-24T15:52:08Z</time>
      </trkpt>
      <trkpt lat="45.32007" lon="5.89861">
        <ele>784</ele>
        <time>2021-02-24T15:52:07Z</time>
      </trkpt>
      <trkpt lat="45.32008" lon="5.89862">
        <ele>783.6</ele>
        <time>2021-02-24T15:52:06Z</time>
      </trkpt>
      <trkpt lat="45.32009" lon="5.89863">
        <ele>783.4</ele>
        <time>2021-02-24T15:52:05Z</time>
      </trkpt>
      <trkpt lat="45.32011" lon="5.89865">
        <ele>783.2</ele>
        <time>2021-02-24T15:52:04Z</time>
      </trkpt>
      <trkpt lat="45.32012" lon="5.89866">
        <ele>782.6</ele>
        <time>2021-02-24T15:52:03Z</time>
      </trkpt>
      <trkpt lat="45.32013" lon="5.89867">
        <ele>782.4</ele>
        <time>2021-02-24T15:52:02Z</time>
      </trkpt>
      <trkpt lat="45.32014" lon="5.89868">
        <ele>782.2</ele>
        <time>2021-02-24T15:52:01Z</time>
      </trkpt>
      <trkpt lat="45.32015" lon="5.89869">
        <ele>782</ele>
        <time>2021-02-24T15:52:00Z</time>
      </trkpt>
      <trkpt lat="45.32016" lon="5.89871">
        <ele>781.6</ele>
        <time>2021-02-24T15:51:59Z</time>
      </trkpt>
      <trkpt lat="45.32017" lon="5.89872">
        <ele>781.2</ele>
        <time>2021-02-24T15:51:58Z</time>
      </trkpt>
      <trkpt lat="45.32018" lon="5.89873">
        <ele>781</ele>
        <time>2021-02-24T15:51:57Z</time>
      </trkpt>
      <trkpt lat="45.32019" lon="5.89874">
        <ele>780.6</ele>
        <time>2021-02-24T15:51:56Z</time>
      </trkpt>
      <trkpt lat="45.3202" lon="5.89875">
        <ele>780.4</ele>
        <time>2021-02-24T15:51:55Z</time>
      </trkpt>
      <trkpt lat="45.32021" lon="5.89876">
        <ele>780.2</ele>
        <time>2021-02-24T15:51:54Z</time>
      </trkpt>
      <trkpt lat="45.32022" lon="5.89877">
        <ele>780.4</ele>
        <time>2021-02-24T15:51:53Z</time>
      </trkpt>
      <trkpt lat="45.32023" lon="5.89879">
        <ele>779.4</ele>
        <time>2021-02-24T15:51:52Z</time>
      </trkpt>
      <trkpt lat="45.32024" lon="5.8988">
        <ele>779</ele>
        <time>2021-02-24T15:51:51Z</time>
      </trkpt>
      <trkpt lat="45.32024" lon="5.89881">
        <ele>779.2</ele>
        <time>2021-02-24T15:51:50Z</time>
      </trkpt>
      <trkpt lat="45.32025" lon="5.89882">
        <ele>779.6</ele>
        <time>2021-02-24T15:51:49Z</time>
      </trkpt>
      <trkpt lat="45.32026" lon="5.89884">
        <ele>779.4</ele>
        <time>2021-02-24T15:51:48Z</time>
      </trkpt>
      <trkpt lat="45.32026" lon="5.89885">
        <ele>780</ele>
        <time>2021-02-24T15:51:47Z</time>
      </trkpt>
      <trkpt lat="45.32027" lon="5.89886">
        <ele>780</ele>
        <time>2021-02-24T15:51:46Z</time>
      </trkpt>
      <trkpt lat="45.32028" lon="5.89887">
        <ele>780</ele>
        <time>2021-02-24T15:51:45Z</time>
      </trkpt>
      <trkpt lat="45.32029" lon="5.89889">
        <ele>780.4</ele>
        <time>2021-02-24T15:51:44Z</time>
      </trkpt>
      <trkpt lat="45.32029" lon="5.8989">
        <ele>780</ele>
        <time>2021-02-24T15:51:43Z</time>
      </trkpt>
      <trkpt lat="45.3203" lon="5.89892">
        <ele>779.2</ele>
        <time>2021-02-24T15:51:42Z</time>
      </trkpt>
      <trkpt lat="45.3203" lon="5.89894">
        <ele>779.2</ele>
        <time>2021-02-24T15:51:41Z</time>
      </trkpt>
      <trkpt lat="45.32031" lon="5.89896">
        <ele>779</ele>
        <time>2021-02-24T15:51:40Z</time>
      </trkpt>
      <trkpt lat="45.32031" lon="5.89898">
        <ele>778.4</ele>
        <time>2021-02-24T15:51:39Z</time>
      </trkpt>
      <trkpt lat="45.32032" lon="5.899">
        <ele>778</ele>
        <time>2021-02-24T15:51:38Z</time>
      </trkpt>
      <trkpt lat="45.32032" lon="5.89901">
        <ele>777.8</ele>
        <time>2021-02-24T15:51:37Z</time>
      </trkpt>
      <trkpt lat="45.32033" lon="5.89903">
        <ele>777.4</ele>
        <time>2021-02-24T15:51:36Z</time>
      </trkpt>
      <trkpt lat="45.32033" lon="5.89904">
        <ele>777</ele>
        <time>2021-02-24T15:51:35Z</time>
      </trkpt>
      <trkpt lat="45.32034" lon="5.89905">
        <ele>776.6</ele>
        <time>2021-02-24T15:51:34Z</time>
      </trkpt>
      <trkpt lat="45.32034" lon="5.89906">
        <ele>776.4</ele>
        <time>2021-02-24T15:51:33Z</time>
      </trkpt>
      <trkpt lat="45.32035" lon="5.89907">
        <ele>776.2</ele>
        <time>2021-02-24T15:51:32Z</time>
      </trkpt>
      <trkpt lat="45.32035" lon="5.89909">
        <ele>776</ele>
        <time>2021-02-24T15:51:31Z</time>
      </trkpt>
      <trkpt lat="45.32036" lon="5.8991">
        <ele>775.6</ele>
        <time>2021-02-24T15:51:30Z</time>
      </trkpt>
      <trkpt lat="45.32036" lon="5.89911">
        <ele>775.2</ele>
        <time>2021-02-24T15:51:29Z</time>
      </trkpt>
      <trkpt lat="45.32037" lon="5.89912">
        <ele>774.8</ele>
        <time>2021-02-24T15:51:28Z</time>
      </trkpt>
      <trkpt lat="45.32037" lon="5.89914">
        <ele>774.4</ele>
        <time>2021-02-24T15:51:27Z</time>
      </trkpt>
      <trkpt lat="45.32038" lon="5.89916">
        <ele>774.2</ele>
        <time>2021-02-24T15:51:26Z</time>
      </trkpt>
      <trkpt lat="45.32038" lon="5.89919">
        <ele>774</ele>
        <time>2021-02-24T15:51:25Z</time>
      </trkpt>
      <trkpt lat="45.32039" lon="5.89922">
        <ele>773.6</ele>
        <time>2021-02-24T15:51:24Z</time>
      </trkpt>
      <trkpt lat="45.32039" lon="5.89925">
        <ele>773.2</ele>
        <time>2021-02-24T15:51:23Z</time>
      </trkpt>
      <trkpt lat="45.32039" lon="5.89927">
        <ele>773</ele>
        <time>2021-02-24T15:51:22Z</time>
      </trkpt>
      <trkpt lat="45.3204" lon="5.8993">
        <ele>772.8</ele>
        <time>2021-02-24T15:51:21Z</time>
      </trkpt>
      <trkpt lat="45.32042" lon="5.89933">
        <ele>772.6</ele>
        <time>2021-02-24T15:51:20Z</time>
      </trkpt>
      <trkpt lat="45.32043" lon="5.89936">
        <ele>772.6</ele>
        <time>2021-02-24T15:51:19Z</time>
      </trkpt>
      <trkpt lat="45.32044" lon="5.89939">
        <ele>772.8</ele>
        <time>2021-02-24T15:51:18Z</time>
      </trkpt>
      <trkpt lat="45.32045" lon="5.89942">
        <ele>772.6</ele>
        <time>2021-02-24T15:51:17Z</time>
      </trkpt>
      <trkpt lat="45.32046" lon="5.89944">
        <ele>772.6</ele>
        <time>2021-02-24T15:51:16Z</time>
      </trkpt>
      <trkpt lat="45.32047" lon="5.89946">
        <ele>772.2</ele>
        <time>2021-02-24T15:51:15Z</time>
      </trkpt>
      <trkpt lat="45.32047" lon="5.89948">
        <ele>772.4</ele>
        <time>2021-02-24T15:51:14Z</time>
      </trkpt>
      <trkpt lat="45.32048" lon="5.89951">
        <ele>772.8</ele>
        <time>2021-02-24T15:51:13Z</time>
      </trkpt>
      <trkpt lat="45.32049" lon="5.89953">
        <ele>773</ele>
        <time>2021-02-24T15:51:12Z</time>
      </trkpt>
      <trkpt lat="45.3205" lon="5.89955">
        <ele>772.4</ele>
        <time>2021-02-24T15:51:11Z</time>
      </trkpt>
      <trkpt lat="45.32051" lon="5.89958">
        <ele>772</ele>
        <time>2021-02-24T15:51:10Z</time>
      </trkpt>
      <trkpt lat="45.32052" lon="5.8996">
        <ele>771.4</ele>
        <time>2021-02-24T15:51:09Z</time>
      </trkpt>
      <trkpt lat="45.32053" lon="5.89962">
        <ele>770.6</ele>
        <time>2021-02-24T15:51:08Z</time>
      </trkpt>
      <trkpt lat="45.32053" lon="5.89965">
        <ele>770.4</ele>
        <time>2021-02-24T15:51:07Z</time>
      </trkpt>
      <trkpt lat="45.32053" lon="5.89967">
        <ele>770.4</ele>
        <time>2021-02-24T15:51:06Z</time>
      </trkpt>
      <trkpt lat="45.32054" lon="5.89969">
        <ele>770.2</ele>
        <time>2021-02-24T15:51:05Z</time>
      </trkpt>
      <trkpt lat="45.32054" lon="5.89971">
        <ele>769.4</ele>
        <time>2021-02-24T15:51:04Z</time>
      </trkpt>
      <trkpt lat="45.32054" lon="5.89973">
        <ele>768.8</ele>
        <time>2021-02-24T15:51:03Z</time>
      </trkpt>
      <trkpt lat="45.32054" lon="5.89975">
        <ele>768.8</ele>
        <time>2021-02-24T15:51:02Z</time>
      </trkpt>
      <trkpt lat="45.32054" lon="5.89977">
        <ele>769</ele>
        <time>2021-02-24T15:51:01Z</time>
      </trkpt>
      <trkpt lat="45.32054" lon="5.89979">
        <ele>769</ele>
        <time>2021-02-24T15:51:00Z</time>
      </trkpt>
      <trkpt lat="45.32053" lon="5.89981">
        <ele>768.6</ele>
        <time>2021-02-24T15:50:59Z</time>
      </trkpt>
      <trkpt lat="45.32053" lon="5.89984">
        <ele>768.2</ele>
        <time>2021-02-24T15:50:58Z</time>
      </trkpt>
      <trkpt lat="45.32053" lon="5.89986">
        <ele>767.6</ele>
        <time>2021-02-24T15:50:57Z</time>
      </trkpt>
      <trkpt lat="45.32053" lon="5.89989">
        <ele>767</ele>
        <time>2021-02-24T15:50:56Z</time>
      </trkpt>
      <trkpt lat="45.32053" lon="5.89991">
        <ele>766.6</ele>
        <time>2021-02-24T15:50:55Z</time>
      </trkpt>
      <trkpt lat="45.32052" lon="5.89993">
        <ele>766.6</ele>
        <time>2021-02-24T15:50:54Z</time>
      </trkpt>
      <trkpt lat="45.32052" lon="5.89995">
        <ele>766.8</ele>
        <time>2021-02-24T15:50:53Z</time>
      </trkpt>
      <trkpt lat="45.32052" lon="5.89997">
        <ele>766.6</ele>
        <time>2021-02-24T15:50:52Z</time>
      </trkpt>
      <trkpt lat="45.32052" lon="5.89999">
        <ele>766</ele>
        <time>2021-02-24T15:50:51Z</time>
      </trkpt>
      <trkpt lat="45.32052" lon="5.90001">
        <ele>765.2</ele>
        <time>2021-02-24T15:50:50Z</time>
      </trkpt>
      <trkpt lat="45.32052" lon="5.90003">
        <ele>765</ele>
        <time>2021-02-24T15:50:49Z</time>
      </trkpt>
      <trkpt lat="45.32052" lon="5.90005">
        <ele>764.8</ele>
        <time>2021-02-24T15:50:48Z</time>
      </trkpt>
      <trkpt lat="45.32052" lon="5.90007">
        <ele>764.8</ele>
        <time>2021-02-24T15:50:47Z</time>
      </trkpt>
      <trkpt lat="45.32053" lon="5.90009">
        <ele>764.8</ele>
        <time>2021-02-24T15:50:46Z</time>
      </trkpt>
      <trkpt lat="45.32053" lon="5.90012">
        <ele>764.6</ele>
        <time>2021-02-24T15:50:45Z</time>
      </trkpt>
      <trkpt lat="45.32054" lon="5.90014">
        <ele>764.8</ele>
        <time>2021-02-24T15:50:44Z</time>
      </trkpt>
      <trkpt lat="45.32055" lon="5.90017">
        <ele>764.8</ele>
        <time>2021-02-24T15:50:43Z</time>
      </trkpt>
      <trkpt lat="45.32055" lon="5.90019">
        <ele>764.8</ele>
        <time>2021-02-24T15:50:42Z</time>
      </trkpt>
      <trkpt lat="45.32056" lon="5.90022">
        <ele>764.4</ele>
        <time>2021-02-24T15:50:41Z</time>
      </trkpt>
      <trkpt lat="45.32056" lon="5.90026">
        <ele>763.8</ele>
        <time>2021-02-24T15:50:40Z</time>
      </trkpt>
      <trkpt lat="45.32057" lon="5.90029">
        <ele>763.2</ele>
        <time>2021-02-24T15:50:39Z</time>
      </trkpt>
      <trkpt lat="45.32057" lon="5.90032">
        <ele>763</ele>
        <time>2021-02-24T15:50:38Z</time>
      </trkpt>
      <trkpt lat="45.32058" lon="5.90035">
        <ele>762.8</ele>
        <time>2021-02-24T15:50:37Z</time>
      </trkpt>
      <trkpt lat="45.32059" lon="5.90038">
        <ele>762.4</ele>
        <time>2021-02-24T15:50:36Z</time>
      </trkpt>
      <trkpt lat="45.32059" lon="5.90042">
        <ele>762.2</ele>
        <time>2021-02-24T15:50:35Z</time>
      </trkpt>
      <trkpt lat="45.3206" lon="5.90045">
        <ele>762</ele>
        <time>2021-02-24T15:50:34Z</time>
      </trkpt>
      <trkpt lat="45.32061" lon="5.90048">
        <ele>761.8</ele>
        <time>2021-02-24T15:50:33Z</time>
      </trkpt>
      <trkpt lat="45.32061" lon="5.90052">
        <ele>761.4</ele>
        <time>2021-02-24T15:50:32Z</time>
      </trkpt>
      <trkpt lat="45.32061" lon="5.90056">
        <ele>761.2</ele>
        <time>2021-02-24T15:50:31Z</time>
      </trkpt>
      <trkpt lat="45.32061" lon="5.90059">
        <ele>761.2</ele>
        <time>2021-02-24T15:50:30Z</time>
      </trkpt>
      <trkpt lat="45.32061" lon="5.90063">
        <ele>761.4</ele>
        <time>2021-02-24T15:50:29Z</time>
      </trkpt>
      <trkpt lat="45.32061" lon="5.90063">
        <ele>761</ele>
        <time>2021-02-24T15:50:27Z</time>
      </trkpt>
      <trkpt lat="45.32062" lon="5.90076">
        <ele>761.2</ele>
        <time>2021-02-24T15:50:26Z</time>
      </trkpt>
      <trkpt lat="45.32062" lon="5.90076">
        <ele>761</ele>
        <time>2021-02-24T15:50:25Z</time>
      </trkpt>
      <trkpt lat="45.32063" lon="5.9008">
        <ele>761.2</ele>
        <time>2021-02-24T15:50:24Z</time>
      </trkpt>
      <trkpt lat="45.32063" lon="5.90083">
        <ele>761.2</ele>
        <time>2021-02-24T15:50:23Z</time>
      </trkpt>
      <trkpt lat="45.32063" lon="5.90087">
        <ele>761.2</ele>
        <time>2021-02-24T15:50:22Z</time>
      </trkpt>
      <trkpt lat="45.32063" lon="5.90091">
        <ele>761.8</ele>
        <time>2021-02-24T15:50:21Z</time>
      </trkpt>
      <trkpt lat="45.32063" lon="5.90094">
        <ele>762</ele>
        <time>2021-02-24T15:50:20Z</time>
      </trkpt>
      <trkpt lat="45.32063" lon="5.90097">
        <ele>762.2</ele>
        <time>2021-02-24T15:50:19Z</time>
      </trkpt>
      <trkpt lat="45.32062" lon="5.90101">
        <ele>762.6</ele>
        <time>2021-02-24T15:50:18Z</time>
      </trkpt>
      <trkpt lat="45.32062" lon="5.90104">
        <ele>762.8</ele>
        <time>2021-02-24T15:50:17Z</time>
      </trkpt>
      <trkpt lat="45.32062" lon="5.90106">
        <ele>763.6</ele>
        <time>2021-02-24T15:50:16Z</time>
      </trkpt>
      <trkpt lat="45.32063" lon="5.90108">
        <ele>765</ele>
        <time>2021-02-24T15:50:15Z</time>
      </trkpt>
      <trkpt lat="45.32063" lon="5.9011">
        <ele>764.6</ele>
        <time>2021-02-24T15:50:14Z</time>
      </trkpt>
      <trkpt lat="45.32063" lon="5.90112">
        <ele>765.2</ele>
        <time>2021-02-24T15:50:13Z</time>
      </trkpt>
      <trkpt lat="45.32064" lon="5.90114">
        <ele>765.6</ele>
        <time>2021-02-24T15:50:12Z</time>
      </trkpt>
      <trkpt lat="45.32064" lon="5.90116">
        <ele>766</ele>
        <time>2021-02-24T15:50:11Z</time>
      </trkpt>
      <trkpt lat="45.32064" lon="5.90118">
        <ele>766</ele>
        <time>2021-02-24T15:50:10Z</time>
      </trkpt>
      <trkpt lat="45.32067" lon="5.90119">
        <ele>766.4</ele>
        <time>2021-02-24T15:50:09Z</time>
      </trkpt>
      <trkpt lat="45.32069" lon="5.90119">
        <ele>766.8</ele>
        <time>2021-02-24T15:50:08Z</time>
      </trkpt>
      <trkpt lat="45.32071" lon="5.9012">
        <ele>768.2</ele>
        <time>2021-02-24T15:50:07Z</time>
      </trkpt>
      <trkpt lat="45.32073" lon="5.9012">
        <ele>768.8</ele>
        <time>2021-02-24T15:50:06Z</time>
      </trkpt>
      <trkpt lat="45.32075" lon="5.90121">
        <ele>769.2</ele>
        <time>2021-02-24T15:50:05Z</time>
      </trkpt>
      <trkpt lat="45.32077" lon="5.90123">
        <ele>770</ele>
        <time>2021-02-24T15:50:04Z</time>
      </trkpt>
      <trkpt lat="45.32079" lon="5.90125">
        <ele>769.8</ele>
        <time>2021-02-24T15:50:03Z</time>
      </trkpt>
      <trkpt lat="45.32081" lon="5.90127">
        <ele>770.4</ele>
        <time>2021-02-24T15:50:02Z</time>
      </trkpt>
      <trkpt lat="45.32083" lon="5.90128">
        <ele>771</ele>
        <time>2021-02-24T15:50:01Z</time>
      </trkpt>
      <trkpt lat="45.32083" lon="5.90128">
        <ele>772.8</ele>
        <time>2021-02-24T15:49:59Z</time>
      </trkpt>
      <trkpt lat="45.32092" lon="5.90132">
        <ele>773.6</ele>
        <time>2021-02-24T15:49:58Z</time>
      </trkpt>
      <trkpt lat="45.32092" lon="5.90132">
        <ele>774.4</ele>
        <time>2021-02-24T15:49:57Z</time>
      </trkpt>
      <trkpt lat="45.32092" lon="5.90132">
        <ele>775.2</ele>
        <time>2021-02-24T15:49:56Z</time>
      </trkpt>
      <trkpt lat="45.32092" lon="5.90132">
        <ele>776</ele>
        <time>2021-02-24T15:49:55Z</time>
      </trkpt>
      <trkpt lat="45.32097" lon="5.90134">
        <ele>776.8</ele>
        <time>2021-02-24T15:49:54Z</time>
      </trkpt>
      <trkpt lat="45.32099" lon="5.90135">
        <ele>778</ele>
        <time>2021-02-24T15:49:53Z</time>
      </trkpt>
      <trkpt lat="45.32101" lon="5.90136">
        <ele>778</ele>
        <time>2021-02-24T15:49:52Z</time>
      </trkpt>
      <trkpt lat="45.32114" lon="5.90142">
        <ele>778.8</ele>
        <time>2021-02-24T15:49:51Z</time>
      </trkpt>
      <trkpt lat="45.32116" lon="5.90144">
        <ele>779.8</ele>
        <time>2021-02-24T15:49:50Z</time>
      </trkpt>
      <trkpt lat="45.32118" lon="5.90146">
        <ele>780.6</ele>
        <time>2021-02-24T15:49:49Z</time>
      </trkpt>
      <trkpt lat="45.3212" lon="5.90147">
        <ele>781.8</ele>
        <time>2021-02-24T15:49:48Z</time>
      </trkpt>
      <trkpt lat="45.32122" lon="5.90149">
        <ele>782.6</ele>
        <time>2021-02-24T15:49:47Z</time>
      </trkpt>
      <trkpt lat="45.32124" lon="5.90149">
        <ele>783.4</ele>
        <time>2021-02-24T15:49:46Z</time>
      </trkpt>
      <trkpt lat="45.32126" lon="5.90149">
        <ele>784.6</ele>
        <time>2021-02-24T15:49:45Z</time>
      </trkpt>
      <trkpt lat="45.32128" lon="5.90149">
        <ele>785.4</ele>
        <time>2021-02-24T15:49:44Z</time>
      </trkpt>
      <trkpt lat="45.3213" lon="5.90149">
        <ele>786.8</ele>
        <time>2021-02-24T15:49:43Z</time>
      </trkpt>
      <trkpt lat="45.32132" lon="5.9015">
        <ele>788.2</ele>
        <time>2021-02-24T15:49:42Z</time>
      </trkpt>
      <trkpt lat="45.32132" lon="5.9015">
        <ele>788.8</ele>
        <time>2021-02-24T15:49:41Z</time>
      </trkpt>
      <trkpt lat="45.32132" lon="5.9015">
        <ele>789.6</ele>
        <time>2021-02-24T15:49:40Z</time>
      </trkpt>
      <trkpt lat="45.32125" lon="5.90141">
        <ele>789.8</ele>
        <time>2021-02-24T15:49:39Z</time>
      </trkpt>
      <trkpt lat="45.32125" lon="5.90138">
        <ele>790.4</ele>
        <time>2021-02-24T15:49:38Z</time>
      </trkpt>
      <trkpt lat="45.32126" lon="5.90136">
        <ele>790.6</ele>
        <time>2021-02-24T15:49:37Z</time>
      </trkpt>
      <trkpt lat="45.32126" lon="5.90134">
        <ele>790.2</ele>
        <time>2021-02-24T15:49:36Z</time>
      </trkpt>
      <trkpt lat="45.32126" lon="5.90132">
        <ele>789.8</ele>
        <time>2021-02-24T15:49:35Z</time>
      </trkpt>
      <trkpt lat="45.32127" lon="5.9013">
        <ele>789.6</ele>
        <time>2021-02-24T15:49:34Z</time>
      </trkpt>
      <trkpt lat="45.32127" lon="5.90127">
        <ele>789.8</ele>
        <time>2021-02-24T15:49:33Z</time>
      </trkpt>
      <trkpt lat="45.32127" lon="5.90127">
        <ele>791</ele>
        <time>2021-02-24T15:49:32Z</time>
      </trkpt>
      <trkpt lat="45.32127" lon="5.90127">
        <ele>791.6</ele>
        <time>2021-02-24T15:49:31Z</time>
      </trkpt>
      <trkpt lat="45.32133" lon="5.90128">
        <ele>792.4</ele>
        <time>2021-02-24T15:49:30Z</time>
      </trkpt>
      <trkpt lat="45.32134" lon="5.90128">
        <ele>792.6</ele>
        <time>2021-02-24T15:49:29Z</time>
      </trkpt>
      <trkpt lat="45.32136" lon="5.90129">
        <ele>794</ele>
        <time>2021-02-24T15:49:28Z</time>
      </trkpt>
      <trkpt lat="45.32144" lon="5.9013">
        <ele>794.4</ele>
        <time>2021-02-24T15:49:27Z</time>
      </trkpt>
      <trkpt lat="45.32147" lon="5.9013">
        <ele>795.8</ele>
        <time>2021-02-24T15:49:26Z</time>
      </trkpt>
      <trkpt lat="45.32156" lon="5.90131">
        <ele>797.2</ele>
        <time>2021-02-24T15:49:25Z</time>
      </trkpt>
      <trkpt lat="45.32157" lon="5.90132">
        <ele>798.4</ele>
        <time>2021-02-24T15:49:24Z</time>
      </trkpt>
      <trkpt lat="45.32159" lon="5.90132">
        <ele>799.6</ele>
        <time>2021-02-24T15:49:23Z</time>
      </trkpt>
      <trkpt lat="45.32167" lon="5.90132">
        <ele>799.4</ele>
        <time>2021-02-24T15:49:22Z</time>
      </trkpt>
      <trkpt lat="45.32169" lon="5.90133">
        <ele>799.8</ele>
        <time>2021-02-24T15:49:21Z</time>
      </trkpt>
      <trkpt lat="45.32171" lon="5.90133">
        <ele>800.4</ele>
        <time>2021-02-24T15:49:20Z</time>
      </trkpt>
      <trkpt lat="45.32184" lon="5.90135">
        <ele>801.6</ele>
        <time>2021-02-24T15:49:19Z</time>
      </trkpt>
      <trkpt lat="45.32184" lon="5.90135">
        <ele>802.2</ele>
        <time>2021-02-24T15:49:18Z</time>
      </trkpt>
      <trkpt lat="45.32188" lon="5.90135">
        <ele>803.2</ele>
        <time>2021-02-24T15:49:17Z</time>
      </trkpt>
      <trkpt lat="45.32192" lon="5.90137">
        <ele>803.2</ele>
        <time>2021-02-24T15:49:16Z</time>
      </trkpt>
      <trkpt lat="45.32196" lon="5.90138">
        <ele>804</ele>
        <time>2021-02-24T15:49:15Z</time>
      </trkpt>
      <trkpt lat="45.322" lon="5.9014">
        <ele>803.2</ele>
        <time>2021-02-24T15:49:14Z</time>
      </trkpt>
      <trkpt lat="45.32204" lon="5.90141">
        <ele>804.2</ele>
        <time>2021-02-24T15:49:13Z</time>
      </trkpt>
      <trkpt lat="45.32205" lon="5.90141">
        <ele>805.2</ele>
        <time>2021-02-24T15:49:12Z</time>
      </trkpt>
      <trkpt lat="45.32206" lon="5.9014">
        <ele>805.6</ele>
        <time>2021-02-24T15:49:11Z</time>
      </trkpt>
      <trkpt lat="45.32207" lon="5.90139">
        <ele>805.8</ele>
        <time>2021-02-24T15:49:10Z</time>
      </trkpt>
      <trkpt lat="45.32208" lon="5.90138">
        <ele>807</ele>
        <time>2021-02-24T15:49:09Z</time>
      </trkpt>
      <trkpt lat="45.3221" lon="5.90137">
        <ele>807.8</ele>
        <time>2021-02-24T15:49:08Z</time>
      </trkpt>
      <trkpt lat="45.32211" lon="5.90137">
        <ele>808.6</ele>
        <time>2021-02-24T15:49:07Z</time>
      </trkpt>
      <trkpt lat="45.32212" lon="5.90136">
        <ele>810</ele>
        <time>2021-02-24T15:49:06Z</time>
      </trkpt>
      <trkpt lat="45.32212" lon="5.90136">
        <ele>809.6</ele>
        <time>2021-02-24T15:49:05Z</time>
      </trkpt>
      <trkpt lat="45.32212" lon="5.90136">
        <ele>810.2</ele>
        <time>2021-02-24T15:49:04Z</time>
      </trkpt>
      <trkpt lat="45.32207" lon="5.9013">
        <ele>811.2</ele>
        <time>2021-02-24T15:49:03Z</time>
      </trkpt>
      <trkpt lat="45.32205" lon="5.90128">
        <ele>812.4</ele>
        <time>2021-02-24T15:49:02Z</time>
      </trkpt>
      <trkpt lat="45.32203" lon="5.90126">
        <ele>813.2</ele>
        <time>2021-02-24T15:49:01Z</time>
      </trkpt>
      <trkpt lat="45.32198" lon="5.90119">
        <ele>814</ele>
        <time>2021-02-24T15:49:00Z</time>
      </trkpt>
      <trkpt lat="45.32195" lon="5.90114">
        <ele>814</ele>
        <time>2021-02-24T15:48:59Z</time>
      </trkpt>
      <trkpt lat="45.32192" lon="5.9011">
        <ele>815.8</ele>
        <time>2021-02-24T15:48:58Z</time>
      </trkpt>
      <trkpt lat="45.32189" lon="5.90105">
        <ele>816.8</ele>
        <time>2021-02-24T15:48:57Z</time>
      </trkpt>
      <trkpt lat="45.32186" lon="5.90101">
        <ele>818</ele>
        <time>2021-02-24T15:48:56Z</time>
      </trkpt>
      <trkpt lat="45.32186" lon="5.90101">
        <ele>819</ele>
        <time>2021-02-24T15:48:55Z</time>
      </trkpt>
      <trkpt lat="45.32186" lon="5.90101">
        <ele>818.4</ele>
        <time>2021-02-24T15:48:54Z</time>
      </trkpt>
      <trkpt lat="45.32182" lon="5.90095">
        <ele>819</ele>
        <time>2021-02-24T15:48:53Z</time>
      </trkpt>
      <trkpt lat="45.32181" lon="5.90093">
        <ele>819.2</ele>
        <time>2021-02-24T15:48:52Z</time>
      </trkpt>
      <trkpt lat="45.32179" lon="5.90091">
        <ele>819.4</ele>
        <time>2021-02-24T15:48:51Z</time>
      </trkpt>
      <trkpt lat="45.32172" lon="5.90076">
        <ele>820.4</ele>
        <time>2021-02-24T15:48:50Z</time>
      </trkpt>
      <trkpt lat="45.32172" lon="5.90076">
        <ele>820.8</ele>
        <time>2021-02-24T15:48:49Z</time>
      </trkpt>
      <trkpt lat="45.32172" lon="5.90076">
        <ele>821.6</ele>
        <time>2021-02-24T15:48:48Z</time>
      </trkpt>
      <trkpt lat="45.32166" lon="5.90064">
        <ele>822</ele>
        <time>2021-02-24T15:48:47Z</time>
      </trkpt>
      <trkpt lat="45.32166" lon="5.90064">
        <ele>822.4</ele>
        <time>2021-02-24T15:48:46Z</time>
      </trkpt>
      <trkpt lat="45.32166" lon="5.90062">
        <ele>823.2</ele>
        <time>2021-02-24T15:48:45Z</time>
      </trkpt>
      <trkpt lat="45.32165" lon="5.90061">
        <ele>823.8</ele>
        <time>2021-02-24T15:48:44Z</time>
      </trkpt>
      <trkpt lat="45.3216" lon="5.90044">
        <ele>824.6</ele>
        <time>2021-02-24T15:48:43Z</time>
      </trkpt>
      <trkpt lat="45.3216" lon="5.90044">
        <ele>825.4</ele>
        <time>2021-02-24T15:48:42Z</time>
      </trkpt>
      <trkpt lat="45.3216" lon="5.90044">
        <ele>826</ele>
        <time>2021-02-24T15:48:41Z</time>
      </trkpt>
      <trkpt lat="45.32159" lon="5.9004">
        <ele>826.8</ele>
        <time>2021-02-24T15:48:40Z</time>
      </trkpt>
      <trkpt lat="45.32157" lon="5.90035">
        <ele>828</ele>
        <time>2021-02-24T15:48:39Z</time>
      </trkpt>
      <trkpt lat="45.32156" lon="5.90031">
        <ele>828.6</ele>
        <time>2021-02-24T15:48:38Z</time>
      </trkpt>
      <trkpt lat="45.32154" lon="5.90026">
        <ele>829.6</ele>
        <time>2021-02-24T15:48:37Z</time>
      </trkpt>
      <trkpt lat="45.32152" lon="5.90021">
        <ele>830</ele>
        <time>2021-02-24T15:48:36Z</time>
      </trkpt>
      <trkpt lat="45.32151" lon="5.90016">
        <ele>830.8</ele>
        <time>2021-02-24T15:48:35Z</time>
      </trkpt>
      <trkpt lat="45.3215" lon="5.90011">
        <ele>831.2</ele>
        <time>2021-02-24T15:48:34Z</time>
      </trkpt>
      <trkpt lat="45.32149" lon="5.90006">
        <ele>831.8</ele>
        <time>2021-02-24T15:48:33Z</time>
      </trkpt>
      <trkpt lat="45.32149" lon="5.9">
        <ele>832.4</ele>
        <time>2021-02-24T15:48:32Z</time>
      </trkpt>
      <trkpt lat="45.32149" lon="5.89994">
        <ele>833</ele>
        <time>2021-02-24T15:48:31Z</time>
      </trkpt>
      <trkpt lat="45.3215" lon="5.89989">
        <ele>833.8</ele>
        <time>2021-02-24T15:48:30Z</time>
      </trkpt>
      <trkpt lat="45.32152" lon="5.89984">
        <ele>834.4</ele>
        <time>2021-02-24T15:48:29Z</time>
      </trkpt>
      <trkpt lat="45.32156" lon="5.89981">
        <ele>836</ele>
        <time>2021-02-24T15:48:28Z</time>
      </trkpt>
      <trkpt lat="45.32157" lon="5.89982">
        <ele>837</ele>
        <time>2021-02-24T15:48:27Z</time>
      </trkpt>
      <trkpt lat="45.32164" lon="5.89985">
        <ele>837.8</ele>
        <time>2021-02-24T15:48:26Z</time>
      </trkpt>
      <trkpt lat="45.32165" lon="5.89986">
        <ele>839.2</ele>
        <time>2021-02-24T15:48:25Z</time>
      </trkpt>
      <trkpt lat="45.32167" lon="5.89987">
        <ele>839.8</ele>
        <time>2021-02-24T15:48:24Z</time>
      </trkpt>
      <trkpt lat="45.32174" lon="5.89991">
        <ele>840</ele>
        <time>2021-02-24T15:48:23Z</time>
      </trkpt>
      <trkpt lat="45.32176" lon="5.89992">
        <ele>840.4</ele>
        <time>2021-02-24T15:48:22Z</time>
      </trkpt>
      <trkpt lat="45.32177" lon="5.89992">
        <ele>840.8</ele>
        <time>2021-02-24T15:48:21Z</time>
      </trkpt>
      <trkpt lat="45.3219" lon="5.89996">
        <ele>840.8</ele>
        <time>2021-02-24T15:48:20Z</time>
      </trkpt>
      <trkpt lat="45.3219" lon="5.89996">
        <ele>841</ele>
        <time>2021-02-24T15:48:19Z</time>
      </trkpt>
      <trkpt lat="45.32192" lon="5.89996">
        <ele>841</ele>
        <time>2021-02-24T15:48:18Z</time>
      </trkpt>
      <trkpt lat="45.32193" lon="5.89997">
        <ele>841.6</ele>
        <time>2021-02-24T15:48:17Z</time>
      </trkpt>
      <trkpt lat="45.32199" lon="5.90001">
        <ele>841.6</ele>
        <time>2021-02-24T15:48:16Z</time>
      </trkpt>
      <trkpt lat="45.32201" lon="5.90002">
        <ele>842</ele>
        <time>2021-02-24T15:48:15Z</time>
      </trkpt>
      <trkpt lat="45.32202" lon="5.90003">
        <ele>842.4</ele>
        <time>2021-02-24T15:48:14Z</time>
      </trkpt>
      <trkpt lat="45.32208" lon="5.9001">
        <ele>843.4</ele>
        <time>2021-02-24T15:48:13Z</time>
      </trkpt>
      <trkpt lat="45.32209" lon="5.90012">
        <ele>843.8</ele>
        <time>2021-02-24T15:48:12Z</time>
      </trkpt>
      <trkpt lat="45.32211" lon="5.90014">
        <ele>844.4</ele>
        <time>2021-02-24T15:48:11Z</time>
      </trkpt>
      <trkpt lat="45.32217" lon="5.90021">
        <ele>845.4</ele>
        <time>2021-02-24T15:48:10Z</time>
      </trkpt>
      <trkpt lat="45.32219" lon="5.90023">
        <ele>846.2</ele>
        <time>2021-02-24T15:48:09Z</time>
      </trkpt>
      <trkpt lat="45.32221" lon="5.90025">
        <ele>846.6</ele>
        <time>2021-02-24T15:48:08Z</time>
      </trkpt>
      <trkpt lat="45.32228" lon="5.9003">
        <ele>846.6</ele>
        <time>2021-02-24T15:48:07Z</time>
      </trkpt>
      <trkpt lat="45.3223" lon="5.90032">
        <ele>846.8</ele>
        <time>2021-02-24T15:48:06Z</time>
      </trkpt>
      <trkpt lat="45.32231" lon="5.90033">
        <ele>845</ele>
        <time>2021-02-24T15:48:05Z</time>
      </trkpt>
      <trkpt lat="45.32238" lon="5.90038">
        <ele>844.4</ele>
        <time>2021-02-24T15:48:04Z</time>
      </trkpt>
      <trkpt lat="45.3224" lon="5.9004">
        <ele>843.8</ele>
        <time>2021-02-24T15:48:03Z</time>
      </trkpt>
      <trkpt lat="45.32242" lon="5.90041">
        <ele>843.8</ele>
        <time>2021-02-24T15:48:02Z</time>
      </trkpt>
      <trkpt lat="45.32249" lon="5.90046">
        <ele>844.8</ele>
        <time>2021-02-24T15:48:01Z</time>
      </trkpt>
      <trkpt lat="45.3225" lon="5.90047">
        <ele>845.4</ele>
        <time>2021-02-24T15:48:00Z</time>
      </trkpt>
      <trkpt lat="45.32252" lon="5.90048">
        <ele>846</ele>
        <time>2021-02-24T15:47:59Z</time>
      </trkpt>
      <trkpt lat="45.32266" lon="5.90054">
        <ele>846.6</ele>
        <time>2021-02-24T15:47:58Z</time>
      </trkpt>
      <trkpt lat="45.32266" lon="5.90054">
        <ele>847.6</ele>
        <time>2021-02-24T15:47:57Z</time>
      </trkpt>
      <trkpt lat="45.3227" lon="5.90057">
        <ele>847.2</ele>
        <time>2021-02-24T15:47:56Z</time>
      </trkpt>
      <trkpt lat="45.32272" lon="5.90058">
        <ele>845.4</ele>
        <time>2021-02-24T15:47:55Z</time>
      </trkpt>
      <trkpt lat="45.32273" lon="5.90059">
        <ele>845.4</ele>
        <time>2021-02-24T15:47:54Z</time>
      </trkpt>
      <trkpt lat="45.3228" lon="5.90066">
        <ele>845.8</ele>
        <time>2021-02-24T15:47:53Z</time>
      </trkpt>
      <trkpt lat="45.32281" lon="5.90068">
        <ele>846</ele>
        <time>2021-02-24T15:47:52Z</time>
      </trkpt>
      <trkpt lat="45.32283" lon="5.9007">
        <ele>846.4</ele>
        <time>2021-02-24T15:47:51Z</time>
      </trkpt>
      <trkpt lat="45.3229" lon="5.90076">
        <ele>846.4</ele>
        <time>2021-02-24T15:47:50Z</time>
      </trkpt>
      <trkpt lat="45.32291" lon="5.90078">
        <ele>846.6</ele>
        <time>2021-02-24T15:47:49Z</time>
      </trkpt>
      <trkpt lat="45.32293" lon="5.90079">
        <ele>846.6</ele>
        <time>2021-02-24T15:47:48Z</time>
      </trkpt>
      <trkpt lat="45.32299" lon="5.90085">
        <ele>846.8</ele>
        <time>2021-02-24T15:47:47Z</time>
      </trkpt>
      <trkpt lat="45.32301" lon="5.90087">
        <ele>846.6</ele>
        <time>2021-02-24T15:47:46Z</time>
      </trkpt>
      <trkpt lat="45.32302" lon="5.90088">
        <ele>847.2</ele>
        <time>2021-02-24T15:47:45Z</time>
      </trkpt>
      <trkpt lat="45.3231" lon="5.90093">
        <ele>847.6</ele>
        <time>2021-02-24T15:47:44Z</time>
      </trkpt>
      <trkpt lat="45.32312" lon="5.90094">
        <ele>848.2</ele>
        <time>2021-02-24T15:47:43Z</time>
      </trkpt>
      <trkpt lat="45.32313" lon="5.90095">
        <ele>849</ele>
        <time>2021-02-24T15:47:42Z</time>
      </trkpt>
      <trkpt lat="45.32321" lon="5.90098">
        <ele>849.4</ele>
        <time>2021-02-24T15:47:41Z</time>
      </trkpt>
      <trkpt lat="45.32323" lon="5.90099">
        <ele>850</ele>
        <time>2021-02-24T15:47:40Z</time>
      </trkpt>
      <trkpt lat="45.32325" lon="5.901">
        <ele>850.6</ele>
        <time>2021-02-24T15:47:39Z</time>
      </trkpt>
      <trkpt lat="45.32333" lon="5.90101">
        <ele>851.4</ele>
        <time>2021-02-24T15:47:38Z</time>
      </trkpt>
      <trkpt lat="45.32335" lon="5.90102">
        <ele>852.4</ele>
        <time>2021-02-24T15:47:37Z</time>
      </trkpt>
      <trkpt lat="45.32337" lon="5.90102">
        <ele>852.4</ele>
        <time>2021-02-24T15:47:36Z</time>
      </trkpt>
      <trkpt lat="45.32345" lon="5.90103">
        <ele>852.4</ele>
        <time>2021-02-24T15:47:35Z</time>
      </trkpt>
      <trkpt lat="45.32347" lon="5.90103">
        <ele>853.2</ele>
        <time>2021-02-24T15:47:34Z</time>
      </trkpt>
      <trkpt lat="45.32349" lon="5.90103">
        <ele>853.6</ele>
        <time>2021-02-24T15:47:33Z</time>
      </trkpt>
      <trkpt lat="45.32358" lon="5.90104">
        <ele>854.4</ele>
        <time>2021-02-24T15:47:32Z</time>
      </trkpt>
      <trkpt lat="45.32363" lon="5.90106">
        <ele>854</ele>
        <time>2021-02-24T15:47:31Z</time>
      </trkpt>
      <trkpt lat="45.32367" lon="5.90108">
        <ele>853.4</ele>
        <time>2021-02-24T15:47:30Z</time>
      </trkpt>
      <trkpt lat="45.32371" lon="5.9011">
        <ele>853.4</ele>
        <time>2021-02-24T15:47:29Z</time>
      </trkpt>
      <trkpt lat="45.32375" lon="5.90111">
        <ele>853.8</ele>
        <time>2021-02-24T15:47:28Z</time>
      </trkpt>
      <trkpt lat="45.32375" lon="5.90114">
        <ele>854</ele>
        <time>2021-02-24T15:47:27Z</time>
      </trkpt>
      <trkpt lat="45.32375" lon="5.90117">
        <ele>853.4</ele>
        <time>2021-02-24T15:47:26Z</time>
      </trkpt>
      <trkpt lat="45.32375" lon="5.9012">
        <ele>852.2</ele>
        <time>2021-02-24T15:47:25Z</time>
      </trkpt>
      <trkpt lat="45.32375" lon="5.90123">
        <ele>851.6</ele>
        <time>2021-02-24T15:47:24Z</time>
      </trkpt>
      <trkpt lat="45.32375" lon="5.90125">
        <ele>851.2</ele>
        <time>2021-02-24T15:47:23Z</time>
      </trkpt>
      <trkpt lat="45.32375" lon="5.90129">
        <ele>851.2</ele>
        <time>2021-02-24T15:47:22Z</time>
      </trkpt>
      <trkpt lat="45.32375" lon="5.90133">
        <ele>851.2</ele>
        <time>2021-02-24T15:47:21Z</time>
      </trkpt>
      <trkpt lat="45.32374" lon="5.90137">
        <ele>851.2</ele>
        <time>2021-02-24T15:47:20Z</time>
      </trkpt>
      <trkpt lat="45.32374" lon="5.9014">
        <ele>851.2</ele>
        <time>2021-02-24T15:47:19Z</time>
      </trkpt>
      <trkpt lat="45.32374" lon="5.90143">
        <ele>851.4</ele>
        <time>2021-02-24T15:47:18Z</time>
      </trkpt>
      <trkpt lat="45.32375" lon="5.90146">
        <ele>850.8</ele>
        <time>2021-02-24T15:47:17Z</time>
      </trkpt>
      <trkpt lat="45.32375" lon="5.90149">
        <ele>850</ele>
        <time>2021-02-24T15:47:16Z</time>
      </trkpt>
      <trkpt lat="45.32375" lon="5.90152">
        <ele>849.4</ele>
        <time>2021-02-24T15:47:15Z</time>
      </trkpt>
      <trkpt lat="45.32376" lon="5.90155">
        <ele>849.4</ele>
        <time>2021-02-24T15:47:14Z</time>
      </trkpt>
      <trkpt lat="45.32376" lon="5.90155">
        <ele>849.2</ele>
        <time>2021-02-24T15:47:13Z</time>
      </trkpt>
      <trkpt lat="45.32376" lon="5.90155">
        <ele>849.4</ele>
        <time>2021-02-24T15:47:12Z</time>
      </trkpt>
      <trkpt lat="45.32379" lon="5.90161">
        <ele>849.6</ele>
        <time>2021-02-24T15:47:11Z</time>
      </trkpt>
      <trkpt lat="45.32381" lon="5.90163">
        <ele>849.8</ele>
        <time>2021-02-24T15:47:10Z</time>
      </trkpt>
      <trkpt lat="45.32382" lon="5.90165">
        <ele>850.2</ele>
        <time>2021-02-24T15:47:09Z</time>
      </trkpt>
      <trkpt lat="45.32387" lon="5.90174">
        <ele>850.4</ele>
        <time>2021-02-24T15:47:08Z</time>
      </trkpt>
      <trkpt lat="45.32389" lon="5.90179">
        <ele>849.6</ele>
        <time>2021-02-24T15:47:07Z</time>
      </trkpt>
      <trkpt lat="45.32392" lon="5.90184">
        <ele>849.2</ele>
        <time>2021-02-24T15:47:06Z</time>
      </trkpt>
      <trkpt lat="45.32394" lon="5.90189">
        <ele>848.8</ele>
        <time>2021-02-24T15:47:05Z</time>
      </trkpt>
      <trkpt lat="45.32397" lon="5.90194">
        <ele>848.6</ele>
        <time>2021-02-24T15:47:04Z</time>
      </trkpt>
      <trkpt lat="45.32398" lon="5.90197">
        <ele>848.6</ele>
        <time>2021-02-24T15:47:03Z</time>
      </trkpt>
      <trkpt lat="45.32399" lon="5.902">
        <ele>848.4</ele>
        <time>2021-02-24T15:47:02Z</time>
      </trkpt>
      <trkpt lat="45.32399" lon="5.90203">
        <ele>848.6</ele>
        <time>2021-02-24T15:47:01Z</time>
      </trkpt>
      <trkpt lat="45.324" lon="5.90206">
        <ele>848.8</ele>
        <time>2021-02-24T15:47:00Z</time>
      </trkpt>
      <trkpt lat="45.32402" lon="5.90209">
        <ele>848.8</ele>
        <time>2021-02-24T15:46:59Z</time>
      </trkpt>
      <trkpt lat="45.32403" lon="5.90211">
        <ele>849</ele>
        <time>2021-02-24T15:46:58Z</time>
      </trkpt>
      <trkpt lat="45.32405" lon="5.90214">
        <ele>849.4</ele>
        <time>2021-02-24T15:46:57Z</time>
      </trkpt>
      <trkpt lat="45.32406" lon="5.90216">
        <ele>849.8</ele>
        <time>2021-02-24T15:46:56Z</time>
      </trkpt>
      <trkpt lat="45.32408" lon="5.90219">
        <ele>849.8</ele>
        <time>2021-02-24T15:46:55Z</time>
      </trkpt>
      <trkpt lat="45.32408" lon="5.90219">
        <ele>849.4</ele>
        <time>2021-02-24T15:46:54Z</time>
      </trkpt>
      <trkpt lat="45.32408" lon="5.90219">
        <ele>849.4</ele>
        <time>2021-02-24T15:46:53Z</time>
      </trkpt>
      <trkpt lat="45.32407" lon="5.90225">
        <ele>849.4</ele>
        <time>2021-02-24T15:46:52Z</time>
      </trkpt>
      <trkpt lat="45.32408" lon="5.9023">
        <ele>849.4</ele>
        <time>2021-02-24T15:46:51Z</time>
      </trkpt>
      <trkpt lat="45.32409" lon="5.90234">
        <ele>849.6</ele>
        <time>2021-02-24T15:46:50Z</time>
      </trkpt>
      <trkpt lat="45.32409" lon="5.90238">
        <ele>849.6</ele>
        <time>2021-02-24T15:46:49Z</time>
      </trkpt>
      <trkpt lat="45.3241" lon="5.90242">
        <ele>849.8</ele>
        <time>2021-02-24T15:46:48Z</time>
      </trkpt>
      <trkpt lat="45.32411" lon="5.90246">
        <ele>850.4</ele>
        <time>2021-02-24T15:46:47Z</time>
      </trkpt>
      <trkpt lat="45.32412" lon="5.90248">
        <ele>850.2</ele>
        <time>2021-02-24T15:46:46Z</time>
      </trkpt>
      <trkpt lat="45.32414" lon="5.90249">
        <ele>849.4</ele>
        <time>2021-02-24T15:46:45Z</time>
      </trkpt>
      <trkpt lat="45.32416" lon="5.9025">
        <ele>849.2</ele>
        <time>2021-02-24T15:46:44Z</time>
      </trkpt>
      <trkpt lat="45.32418" lon="5.90252">
        <ele>849.2</ele>
        <time>2021-02-24T15:46:43Z</time>
      </trkpt>
      <trkpt lat="45.32419" lon="5.90253">
        <ele>849.2</ele>
        <time>2021-02-24T15:46:42Z</time>
      </trkpt>
      <trkpt lat="45.32419" lon="5.90253">
        <ele>848.6</ele>
        <time>2021-02-24T15:46:41Z</time>
      </trkpt>
      <trkpt lat="45.32419" lon="5.90253">
        <ele>848.2</ele>
        <time>2021-02-24T15:46:40Z</time>
      </trkpt>
      <trkpt lat="45.3243" lon="5.90256">
        <ele>848</ele>
        <time>2021-02-24T15:46:39Z</time>
      </trkpt>
      <trkpt lat="45.3243" lon="5.90259">
        <ele>848</ele>
        <time>2021-02-24T15:46:38Z</time>
      </trkpt>
      <trkpt lat="45.32429" lon="5.90262">
        <ele>848.2</ele>
        <time>2021-02-24T15:46:37Z</time>
      </trkpt>
      <trkpt lat="45.32429" lon="5.90264">
        <ele>848.4</ele>
        <time>2021-02-24T15:46:36Z</time>
      </trkpt>
      <trkpt lat="45.32429" lon="5.90267">
        <ele>849</ele>
        <time>2021-02-24T15:46:35Z</time>
      </trkpt>
      <trkpt lat="45.32429" lon="5.90269">
        <ele>849</ele>
        <time>2021-02-24T15:46:34Z</time>
      </trkpt>
      <trkpt lat="45.32429" lon="5.90271">
        <ele>848.4</ele>
        <time>2021-02-24T15:46:33Z</time>
      </trkpt>
      <trkpt lat="45.32429" lon="5.90273">
        <ele>848.2</ele>
        <time>2021-02-24T15:46:32Z</time>
      </trkpt>
      <trkpt lat="45.32429" lon="5.90275">
        <ele>848</ele>
        <time>2021-02-24T15:46:31Z</time>
      </trkpt>
      <trkpt lat="45.3243" lon="5.90277">
        <ele>847.6</ele>
        <time>2021-02-24T15:46:30Z</time>
      </trkpt>
      <trkpt lat="45.3243" lon="5.90279">
        <ele>847.2</ele>
        <time>2021-02-24T15:46:29Z</time>
      </trkpt>
      <trkpt lat="45.3243" lon="5.90281">
        <ele>846.8</ele>
        <time>2021-02-24T15:46:28Z</time>
      </trkpt>
      <trkpt lat="45.3243" lon="5.90282">
        <ele>846.4</ele>
        <time>2021-02-24T15:46:27Z</time>
      </trkpt>
      <trkpt lat="45.3243" lon="5.90284">
        <ele>846</ele>
        <time>2021-02-24T15:46:26Z</time>
      </trkpt>
      <trkpt lat="45.3243" lon="5.90286">
        <ele>845.8</ele>
        <time>2021-02-24T15:46:25Z</time>
      </trkpt>
      <trkpt lat="45.32431" lon="5.90287">
        <ele>845.6</ele>
        <time>2021-02-24T15:46:24Z</time>
      </trkpt>
      <trkpt lat="45.32431" lon="5.90289">
        <ele>845</ele>
        <time>2021-02-24T15:46:23Z</time>
      </trkpt>
      <trkpt lat="45.32431" lon="5.9029">
        <ele>844.8</ele>
        <time>2021-02-24T15:46:22Z</time>
      </trkpt>
      <trkpt lat="45.32431" lon="5.90291">
        <ele>844.4</ele>
        <time>2021-02-24T15:46:21Z</time>
      </trkpt>
      <trkpt lat="45.32431" lon="5.90293">
        <ele>844.2</ele>
        <time>2021-02-24T15:46:20Z</time>
      </trkpt>
      <trkpt lat="45.32431" lon="5.90294">
        <ele>844</ele>
        <time>2021-02-24T15:46:19Z</time>
      </trkpt>
      <trkpt lat="45.32431" lon="5.90296">
        <ele>843.4</ele>
        <time>2021-02-24T15:46:18Z</time>
      </trkpt>
      <trkpt lat="45.32431" lon="5.90297">
        <ele>843</ele>
        <time>2021-02-24T15:46:17Z</time>
      </trkpt>
      <trkpt lat="45.32431" lon="5.90298">
        <ele>842.6</ele>
        <time>2021-02-24T15:46:16Z</time>
      </trkpt>
      <trkpt lat="45.32431" lon="5.903">
        <ele>842.2</ele>
        <time>2021-02-24T15:46:15Z</time>
      </trkpt>
      <trkpt lat="45.32431" lon="5.90301">
        <ele>842</ele>
        <time>2021-02-24T15:46:14Z</time>
      </trkpt>
      <trkpt lat="45.32431" lon="5.90302">
        <ele>841.6</ele>
        <time>2021-02-24T15:46:13Z</time>
      </trkpt>
      <trkpt lat="45.32431" lon="5.90303">
        <ele>841.2</ele>
        <time>2021-02-24T15:46:12Z</time>
      </trkpt>
      <trkpt lat="45.32431" lon="5.90304">
        <ele>840.8</ele>
        <time>2021-02-24T15:46:11Z</time>
      </trkpt>
      <trkpt lat="45.32431" lon="5.90305">
        <ele>840.4</ele>
        <time>2021-02-24T15:46:10Z</time>
      </trkpt>
      <trkpt lat="45.3243" lon="5.90307">
        <ele>840.2</ele>
        <time>2021-02-24T15:46:09Z</time>
      </trkpt>
      <trkpt lat="45.3243" lon="5.90308">
        <ele>839.8</ele>
        <time>2021-02-24T15:46:08Z</time>
      </trkpt>
      <trkpt lat="45.3243" lon="5.90309">
        <ele>839.4</ele>
        <time>2021-02-24T15:46:07Z</time>
      </trkpt>
      <trkpt lat="45.3243" lon="5.9031">
        <ele>839</ele>
        <time>2021-02-24T15:46:06Z</time>
      </trkpt>
      <trkpt lat="45.3243" lon="5.90311">
        <ele>838.6</ele>
        <time>2021-02-24T15:46:05Z</time>
      </trkpt>
      <trkpt lat="45.3243" lon="5.90312">
        <ele>838.2</ele>
        <time>2021-02-24T15:46:04Z</time>
      </trkpt>
      <trkpt lat="45.3243" lon="5.90313">
        <ele>838</ele>
        <time>2021-02-24T15:46:03Z</time>
      </trkpt>
      <trkpt lat="45.32429" lon="5.90315">
        <ele>837.4</ele>
        <time>2021-02-24T15:46:02Z</time>
      </trkpt>
      <trkpt lat="45.32429" lon="5.90316">
        <ele>837.2</ele>
        <time>2021-02-24T15:46:01Z</time>
      </trkpt>
      <trkpt lat="45.32429" lon="5.90317">
        <ele>836.8</ele>
        <time>2021-02-24T15:46:00Z</time>
      </trkpt>
      <trkpt lat="45.32429" lon="5.90318">
        <ele>836.4</ele>
        <time>2021-02-24T15:45:59Z</time>
      </trkpt>
      <trkpt lat="45.32429" lon="5.90319">
        <ele>836.2</ele>
        <time>2021-02-24T15:45:58Z</time>
      </trkpt>
      <trkpt lat="45.32429" lon="5.9032">
        <ele>835.8</ele>
        <time>2021-02-24T15:45:57Z</time>
      </trkpt>
      <trkpt lat="45.32429" lon="5.90321">
        <ele>835.6</ele>
        <time>2021-02-24T15:45:56Z</time>
      </trkpt>
      <trkpt lat="45.32429" lon="5.90322">
        <ele>834.8</ele>
        <time>2021-02-24T15:45:55Z</time>
      </trkpt>
      <trkpt lat="45.32429" lon="5.90324">
        <ele>834.6</ele>
        <time>2021-02-24T15:45:54Z</time>
      </trkpt>
      <trkpt lat="45.32429" lon="5.90325">
        <ele>834.2</ele>
        <time>2021-02-24T15:45:53Z</time>
      </trkpt>
      <trkpt lat="45.32429" lon="5.90326">
        <ele>833.8</ele>
        <time>2021-02-24T15:45:52Z</time>
      </trkpt>
      <trkpt lat="45.32428" lon="5.90327">
        <ele>833.4</ele>
        <time>2021-02-24T15:45:51Z</time>
      </trkpt>
      <trkpt lat="45.32429" lon="5.90328">
        <ele>832.8</ele>
        <time>2021-02-24T15:45:50Z</time>
      </trkpt>
      <trkpt lat="45.32429" lon="5.90329">
        <ele>832.4</ele>
        <time>2021-02-24T15:45:49Z</time>
      </trkpt>
      <trkpt lat="45.3243" lon="5.90331">
        <ele>832.2</ele>
        <time>2021-02-24T15:45:48Z</time>
      </trkpt>
      <trkpt lat="45.3243" lon="5.90332">
        <ele>831.8</ele>
        <time>2021-02-24T15:45:47Z</time>
      </trkpt>
      <trkpt lat="45.3243" lon="5.90333">
        <ele>831.4</ele>
        <time>2021-02-24T15:45:46Z</time>
      </trkpt>
      <trkpt lat="45.32431" lon="5.90335">
        <ele>831.2</ele>
        <time>2021-02-24T15:45:45Z</time>
      </trkpt>
      <trkpt lat="45.32431" lon="5.90336">
        <ele>830.8</ele>
        <time>2021-02-24T15:45:44Z</time>
      </trkpt>
      <trkpt lat="45.32431" lon="5.90337">
        <ele>830.4</ele>
        <time>2021-02-24T15:45:43Z</time>
      </trkpt>
      <trkpt lat="45.32432" lon="5.90338">
        <ele>830.2</ele>
        <time>2021-02-24T15:45:42Z</time>
      </trkpt>
      <trkpt lat="45.32432" lon="5.9034">
        <ele>830</ele>
        <time>2021-02-24T15:45:41Z</time>
      </trkpt>
      <trkpt lat="45.32432" lon="5.90341">
        <ele>829.6</ele>
        <time>2021-02-24T15:45:40Z</time>
      </trkpt>
      <trkpt lat="45.32433" lon="5.90342">
        <ele>829.4</ele>
        <time>2021-02-24T15:45:39Z</time>
      </trkpt>
      <trkpt lat="45.32433" lon="5.90343">
        <ele>829.2</ele>
        <time>2021-02-24T15:45:38Z</time>
      </trkpt>
      <trkpt lat="45.32433" lon="5.90344">
        <ele>828.8</ele>
        <time>2021-02-24T15:45:37Z</time>
      </trkpt>
      <trkpt lat="45.32433" lon="5.90346">
        <ele>828.4</ele>
        <time>2021-02-24T15:45:36Z</time>
      </trkpt>
      <trkpt lat="45.32433" lon="5.90347">
        <ele>828</ele>
        <time>2021-02-24T15:45:35Z</time>
      </trkpt>
      <trkpt lat="45.32434" lon="5.90348">
        <ele>827.6</ele>
        <time>2021-02-24T15:45:34Z</time>
      </trkpt>
      <trkpt lat="45.32434" lon="5.90349">
        <ele>827.2</ele>
        <time>2021-02-24T15:45:33Z</time>
      </trkpt>
      <trkpt lat="45.32434" lon="5.90351">
        <ele>827.2</ele>
        <time>2021-02-24T15:45:32Z</time>
      </trkpt>
      <trkpt lat="45.32434" lon="5.90352">
        <ele>826.8</ele>
        <time>2021-02-24T15:45:31Z</time>
      </trkpt>
      <trkpt lat="45.32435" lon="5.90353">
        <ele>826.2</ele>
        <time>2021-02-24T15:45:30Z</time>
      </trkpt>
      <trkpt lat="45.32435" lon="5.90355">
        <ele>826</ele>
        <time>2021-02-24T15:45:29Z</time>
      </trkpt>
      <trkpt lat="45.32435" lon="5.90357">
        <ele>825.8</ele>
        <time>2021-02-24T15:45:28Z</time>
      </trkpt>
      <trkpt lat="45.32436" lon="5.90358">
        <ele>825.2</ele>
        <time>2021-02-24T15:45:27Z</time>
      </trkpt>
      <trkpt lat="45.32436" lon="5.9036">
        <ele>824.8</ele>
        <time>2021-02-24T15:45:26Z</time>
      </trkpt>
      <trkpt lat="45.32436" lon="5.90362">
        <ele>824.4</ele>
        <time>2021-02-24T15:45:25Z</time>
      </trkpt>
      <trkpt lat="45.32437" lon="5.90364">
        <ele>824.2</ele>
        <time>2021-02-24T15:45:24Z</time>
      </trkpt>
      <trkpt lat="45.32437" lon="5.90365">
        <ele>823.8</ele>
        <time>2021-02-24T15:45:23Z</time>
      </trkpt>
      <trkpt lat="45.32437" lon="5.90367">
        <ele>823.6</ele>
        <time>2021-02-24T15:45:22Z</time>
      </trkpt>
      <trkpt lat="45.32436" lon="5.90369">
        <ele>823.4</ele>
        <time>2021-02-24T15:45:21Z</time>
      </trkpt>
      <trkpt lat="45.32436" lon="5.90371">
        <ele>823.4</ele>
        <time>2021-02-24T15:45:20Z</time>
      </trkpt>
      <trkpt lat="45.32436" lon="5.90373">
        <ele>823.2</ele>
        <time>2021-02-24T15:45:19Z</time>
      </trkpt>
      <trkpt lat="45.32435" lon="5.90375">
        <ele>822.6</ele>
        <time>2021-02-24T15:45:18Z</time>
      </trkpt>
      <trkpt lat="45.32435" lon="5.90377">
        <ele>822.4</ele>
        <time>2021-02-24T15:45:17Z</time>
      </trkpt>
      <trkpt lat="45.32435" lon="5.90379">
        <ele>822</ele>
        <time>2021-02-24T15:45:16Z</time>
      </trkpt>
      <trkpt lat="45.32434" lon="5.9038">
        <ele>821.8</ele>
        <time>2021-02-24T15:45:15Z</time>
      </trkpt>
      <trkpt lat="45.32433" lon="5.90381">
        <ele>821.4</ele>
        <time>2021-02-24T15:45:14Z</time>
      </trkpt>
      <trkpt lat="45.32432" lon="5.90381">
        <ele>821</ele>
        <time>2021-02-24T15:45:13Z</time>
      </trkpt>
      <trkpt lat="45.32431" lon="5.90382">
        <ele>820.6</ele>
        <time>2021-02-24T15:45:12Z</time>
      </trkpt>
      <trkpt lat="45.3243" lon="5.90382">
        <ele>820.4</ele>
        <time>2021-02-24T15:45:11Z</time>
      </trkpt>
      <trkpt lat="45.32429" lon="5.90383">
        <ele>820</ele>
        <time>2021-02-24T15:45:10Z</time>
      </trkpt>
      <trkpt lat="45.32428" lon="5.90384">
        <ele>819.4</ele>
        <time>2021-02-24T15:45:09Z</time>
      </trkpt>
      <trkpt lat="45.32427" lon="5.90384">
        <ele>819</ele>
        <time>2021-02-24T15:45:08Z</time>
      </trkpt>
      <trkpt lat="45.32427" lon="5.90385">
        <ele>818.8</ele>
        <time>2021-02-24T15:45:07Z</time>
      </trkpt>
      <trkpt lat="45.32426" lon="5.90386">
        <ele>818.6</ele>
        <time>2021-02-24T15:45:06Z</time>
      </trkpt>
      <trkpt lat="45.32425" lon="5.90385">
        <ele>818.2</ele>
        <time>2021-02-24T15:45:05Z</time>
      </trkpt>
      <trkpt lat="45.32425" lon="5.90384">
        <ele>818</ele>
        <time>2021-02-24T15:45:04Z</time>
      </trkpt>
      <trkpt lat="45.32424" lon="5.90384">
        <ele>817.6</ele>
        <time>2021-02-24T15:45:03Z</time>
      </trkpt>
      <trkpt lat="45.32424" lon="5.90383">
        <ele>817.2</ele>
        <time>2021-02-24T15:45:02Z</time>
      </trkpt>
      <trkpt lat="45.32424" lon="5.90382">
        <ele>817</ele>
        <time>2021-02-24T15:45:01Z</time>
      </trkpt>
      <trkpt lat="45.32423" lon="5.90382">
        <ele>816.6</ele>
        <time>2021-02-24T15:45:00Z</time>
      </trkpt>
      <trkpt lat="45.32423" lon="5.90381">
        <ele>816.2</ele>
        <time>2021-02-24T15:44:59Z</time>
      </trkpt>
      <trkpt lat="45.32422" lon="5.90381">
        <ele>816</ele>
        <time>2021-02-24T15:44:58Z</time>
      </trkpt>
      <trkpt lat="45.32422" lon="5.9038">
        <ele>815.6</ele>
        <time>2021-02-24T15:44:57Z</time>
      </trkpt>
      <trkpt lat="45.32422" lon="5.90379">
        <ele>815.4</ele>
        <time>2021-02-24T15:44:56Z</time>
      </trkpt>
      <trkpt lat="45.32421" lon="5.90379">
        <ele>815</ele>
        <time>2021-02-24T15:44:55Z</time>
      </trkpt>
      <trkpt lat="45.32421" lon="5.90378">
        <ele>814.8</ele>
        <time>2021-02-24T15:44:54Z</time>
      </trkpt>
      <trkpt lat="45.3242" lon="5.90377">
        <ele>814.4</ele>
        <time>2021-02-24T15:44:53Z</time>
      </trkpt>
      <trkpt lat="45.3242" lon="5.90377">
        <ele>814.2</ele>
        <time>2021-02-24T15:44:52Z</time>
      </trkpt>
      <trkpt lat="45.3242" lon="5.90376">
        <ele>813.8</ele>
        <time>2021-02-24T15:44:51Z</time>
      </trkpt>
      <trkpt lat="45.32419" lon="5.90376">
        <ele>813.8</ele>
        <time>2021-02-24T15:44:50Z</time>
      </trkpt>
      <trkpt lat="45.3242" lon="5.90378">
        <ele>813.6</ele>
        <time>2021-02-24T15:44:49Z</time>
      </trkpt>
      <trkpt lat="45.32421" lon="5.90381">
        <ele>813.4</ele>
        <time>2021-02-24T15:44:48Z</time>
      </trkpt>
      <trkpt lat="45.32421" lon="5.90383">
        <ele>813.2</ele>
        <time>2021-02-24T15:44:47Z</time>
      </trkpt>
      <trkpt lat="45.32422" lon="5.90386">
        <ele>813.2</ele>
        <time>2021-02-24T15:44:46Z</time>
      </trkpt>
      <trkpt lat="45.32423" lon="5.90388">
        <ele>812.2</ele>
        <time>2021-02-24T15:44:45Z</time>
      </trkpt>
      <trkpt lat="45.32424" lon="5.90391">
        <ele>811.6</ele>
        <time>2021-02-24T15:44:44Z</time>
      </trkpt>
      <trkpt lat="45.32424" lon="5.90393">
        <ele>811.8</ele>
        <time>2021-02-24T15:44:43Z</time>
      </trkpt>
      <trkpt lat="45.32425" lon="5.90395">
        <ele>811.8</ele>
        <time>2021-02-24T15:44:42Z</time>
      </trkpt>
      <trkpt lat="45.32425" lon="5.90397">
        <ele>811</ele>
        <time>2021-02-24T15:44:41Z</time>
      </trkpt>
      <trkpt lat="45.32426" lon="5.90399">
        <ele>810.8</ele>
        <time>2021-02-24T15:44:40Z</time>
      </trkpt>
      <trkpt lat="45.32427" lon="5.90401">
        <ele>810.8</ele>
        <time>2021-02-24T15:44:39Z</time>
      </trkpt>
      <trkpt lat="45.32427" lon="5.90404">
        <ele>810.6</ele>
        <time>2021-02-24T15:44:38Z</time>
      </trkpt>
      <trkpt lat="45.32427" lon="5.90405">
        <ele>810.4</ele>
        <time>2021-02-24T15:44:37Z</time>
      </trkpt>
      <trkpt lat="45.32428" lon="5.90405">
        <ele>810.2</ele>
        <time>2021-02-24T15:44:36Z</time>
      </trkpt>
      <trkpt lat="45.32428" lon="5.90406">
        <ele>810</ele>
        <time>2021-02-24T15:44:35Z</time>
      </trkpt>
      <trkpt lat="45.32428" lon="5.90407">
        <ele>809.8</ele>
        <time>2021-02-24T15:44:34Z</time>
      </trkpt>
      <trkpt lat="45.32428" lon="5.90408">
        <ele>809.6</ele>
        <time>2021-02-24T15:44:33Z</time>
      </trkpt>
      <trkpt lat="45.32428" lon="5.90409">
        <ele>809.4</ele>
        <time>2021-02-24T15:44:32Z</time>
      </trkpt>
      <trkpt lat="45.32428" lon="5.9041">
        <ele>809.2</ele>
        <time>2021-02-24T15:44:31Z</time>
      </trkpt>
      <trkpt lat="45.32428" lon="5.90411">
        <ele>808.8</ele>
        <time>2021-02-24T15:44:30Z</time>
      </trkpt>
      <trkpt lat="45.32428" lon="5.90412">
        <ele>808.4</ele>
        <time>2021-02-24T15:44:29Z</time>
      </trkpt>
      <trkpt lat="45.32428" lon="5.90413">
        <ele>808.2</ele>
        <time>2021-02-24T15:44:28Z</time>
      </trkpt>
      <trkpt lat="45.32429" lon="5.90414">
        <ele>808</ele>
        <time>2021-02-24T15:44:27Z</time>
      </trkpt>
      <trkpt lat="45.32429" lon="5.90415">
        <ele>807.6</ele>
        <time>2021-02-24T15:44:26Z</time>
      </trkpt>
      <trkpt lat="45.32429" lon="5.90416">
        <ele>807.4</ele>
        <time>2021-02-24T15:44:25Z</time>
      </trkpt>
      <trkpt lat="45.32429" lon="5.90417">
        <ele>807</ele>
        <time>2021-02-24T15:44:24Z</time>
      </trkpt>
      <trkpt lat="45.3243" lon="5.90418">
        <ele>806.4</ele>
        <time>2021-02-24T15:44:23Z</time>
      </trkpt>
      <trkpt lat="45.3243" lon="5.90419">
        <ele>806</ele>
        <time>2021-02-24T15:44:22Z</time>
      </trkpt>
      <trkpt lat="45.32431" lon="5.9042">
        <ele>805.8</ele>
        <time>2021-02-24T15:44:21Z</time>
      </trkpt>
      <trkpt lat="45.32432" lon="5.90421">
        <ele>805.6</ele>
        <time>2021-02-24T15:44:20Z</time>
      </trkpt>
      <trkpt lat="45.32432" lon="5.90422">
        <ele>805.2</ele>
        <time>2021-02-24T15:44:19Z</time>
      </trkpt>
      <trkpt lat="45.32433" lon="5.90423">
        <ele>805</ele>
        <time>2021-02-24T15:44:18Z</time>
      </trkpt>
      <trkpt lat="45.32434" lon="5.90424">
        <ele>804.6</ele>
        <time>2021-02-24T15:44:17Z</time>
      </trkpt>
      <trkpt lat="45.32435" lon="5.90426">
        <ele>804.4</ele>
        <time>2021-02-24T15:44:16Z</time>
      </trkpt>
      <trkpt lat="45.32435" lon="5.90427">
        <ele>804.2</ele>
        <time>2021-02-24T15:44:15Z</time>
      </trkpt>
      <trkpt lat="45.32437" lon="5.90428">
        <ele>804</ele>
        <time>2021-02-24T15:44:14Z</time>
      </trkpt>
      <trkpt lat="45.32438" lon="5.90429">
        <ele>803.6</ele>
        <time>2021-02-24T15:44:13Z</time>
      </trkpt>
      <trkpt lat="45.32439" lon="5.90431">
        <ele>803.2</ele>
        <time>2021-02-24T15:44:12Z</time>
      </trkpt>
      <trkpt lat="45.3244" lon="5.90432">
        <ele>803</ele>
        <time>2021-02-24T15:44:11Z</time>
      </trkpt>
      <trkpt lat="45.32442" lon="5.90433">
        <ele>802.6</ele>
        <time>2021-02-24T15:44:10Z</time>
      </trkpt>
      <trkpt lat="45.32443" lon="5.90435">
        <ele>802.2</ele>
        <time>2021-02-24T15:44:09Z</time>
      </trkpt>
      <trkpt lat="45.32443" lon="5.90435">
        <ele>802</ele>
        <time>2021-02-24T15:44:08Z</time>
      </trkpt>
      <trkpt lat="45.32443" lon="5.90435">
        <ele>801.6</ele>
        <time>2021-02-24T15:44:07Z</time>
      </trkpt>
      <trkpt lat="45.32447" lon="5.90437">
        <ele>801.2</ele>
        <time>2021-02-24T15:44:06Z</time>
      </trkpt>
      <trkpt lat="45.32451" lon="5.90437">
        <ele>801.2</ele>
        <time>2021-02-24T15:44:05Z</time>
      </trkpt>
      <trkpt lat="45.32454" lon="5.90438">
        <ele>801.6</ele>
        <time>2021-02-24T15:44:04Z</time>
      </trkpt>
      <trkpt lat="45.32457" lon="5.90439">
        <ele>801.6</ele>
        <time>2021-02-24T15:44:03Z</time>
      </trkpt>
      <trkpt lat="45.3246" lon="5.90439">
        <ele>801.4</ele>
        <time>2021-02-24T15:44:02Z</time>
      </trkpt>
      <trkpt lat="45.32463" lon="5.9044">
        <ele>801.6</ele>
        <time>2021-02-24T15:44:01Z</time>
      </trkpt>
      <trkpt lat="45.32466" lon="5.9044">
        <ele>801.8</ele>
        <time>2021-02-24T15:44:00Z</time>
      </trkpt>
      <trkpt lat="45.32466" lon="5.90442">
        <ele>801.6</ele>
        <time>2021-02-24T15:43:59Z</time>
      </trkpt>
      <trkpt lat="45.32465" lon="5.90444">
        <ele>801.4</ele>
        <time>2021-02-24T15:43:58Z</time>
      </trkpt>
      <trkpt lat="45.32465" lon="5.90446">
        <ele>801.2</ele>
        <time>2021-02-24T15:43:57Z</time>
      </trkpt>
      <trkpt lat="45.32464" lon="5.90448">
        <ele>801</ele>
        <time>2021-02-24T15:43:56Z</time>
      </trkpt>
      <trkpt lat="45.32463" lon="5.9045">
        <ele>800.8</ele>
        <time>2021-02-24T15:43:55Z</time>
      </trkpt>
      <trkpt lat="45.32463" lon="5.90452">
        <ele>800.8</ele>
        <time>2021-02-24T15:43:54Z</time>
      </trkpt>
      <trkpt lat="45.32462" lon="5.90454">
        <ele>800.6</ele>
        <time>2021-02-24T15:43:53Z</time>
      </trkpt>
      <trkpt lat="45.32463" lon="5.90457">
        <ele>800.2</ele>
        <time>2021-02-24T15:43:52Z</time>
      </trkpt>
      <trkpt lat="45.32463" lon="5.90459">
        <ele>800</ele>
        <time>2021-02-24T15:43:51Z</time>
      </trkpt>
      <trkpt lat="45.32464" lon="5.90462">
        <ele>800</ele>
        <time>2021-02-24T15:43:50Z</time>
      </trkpt>
      <trkpt lat="45.32464" lon="5.90465">
        <ele>800</ele>
        <time>2021-02-24T15:43:49Z</time>
      </trkpt>
      <trkpt lat="45.32465" lon="5.90468">
        <ele>799.6</ele>
        <time>2021-02-24T15:43:48Z</time>
      </trkpt>
      <trkpt lat="45.32464" lon="5.90472">
        <ele>798.8</ele>
        <time>2021-02-24T15:43:47Z</time>
      </trkpt>
      <trkpt lat="45.32464" lon="5.90477">
        <ele>798.8</ele>
        <time>2021-02-24T15:43:46Z</time>
      </trkpt>
      <trkpt lat="45.32464" lon="5.90481">
        <ele>798.8</ele>
        <time>2021-02-24T15:43:45Z</time>
      </trkpt>
      <trkpt lat="45.32463" lon="5.90485">
        <ele>799</ele>
        <time>2021-02-24T15:43:44Z</time>
      </trkpt>
      <trkpt lat="45.32463" lon="5.90485">
        <ele>798.6</ele>
        <time>2021-02-24T15:43:43Z</time>
      </trkpt>
      <trkpt lat="45.32463" lon="5.90485">
        <ele>798.6</ele>
        <time>2021-02-24T15:43:42Z</time>
      </trkpt>
      <trkpt lat="45.32463" lon="5.90492">
        <ele>798.6</ele>
        <time>2021-02-24T15:43:41Z</time>
      </trkpt>
      <trkpt lat="45.32463" lon="5.90496">
        <ele>798</ele>
        <time>2021-02-24T15:43:40Z</time>
      </trkpt>
      <trkpt lat="45.32463" lon="5.90501">
        <ele>798</ele>
        <time>2021-02-24T15:43:39Z</time>
      </trkpt>
      <trkpt lat="45.32464" lon="5.90505">
        <ele>797.6</ele>
        <time>2021-02-24T15:43:38Z</time>
      </trkpt>
      <trkpt lat="45.32464" lon="5.9051">
        <ele>797.6</ele>
        <time>2021-02-24T15:43:37Z</time>
      </trkpt>
      <trkpt lat="45.32464" lon="5.90514">
        <ele>797.2</ele>
        <time>2021-02-24T15:43:36Z</time>
      </trkpt>
      <trkpt lat="45.32464" lon="5.90517">
        <ele>797.6</ele>
        <time>2021-02-24T15:43:35Z</time>
      </trkpt>
      <trkpt lat="45.32464" lon="5.9052">
        <ele>797.6</ele>
        <time>2021-02-24T15:43:34Z</time>
      </trkpt>
      <trkpt lat="45.32464" lon="5.90523">
        <ele>798</ele>
        <time>2021-02-24T15:43:33Z</time>
      </trkpt>
      <trkpt lat="45.32463" lon="5.90526">
        <ele>797.4</ele>
        <time>2021-02-24T15:43:32Z</time>
      </trkpt>
      <trkpt lat="45.32463" lon="5.90529">
        <ele>797.8</ele>
        <time>2021-02-24T15:43:31Z</time>
      </trkpt>
      <trkpt lat="45.32463" lon="5.90529">
        <ele>798</ele>
        <time>2021-02-24T15:43:30Z</time>
      </trkpt>
      <trkpt lat="45.32463" lon="5.90529">
        <ele>798.6</ele>
        <time>2021-02-24T15:43:29Z</time>
      </trkpt>
      <trkpt lat="45.32463" lon="5.90537">
        <ele>799.8</ele>
        <time>2021-02-24T15:43:28Z</time>
      </trkpt>
      <trkpt lat="45.32463" lon="5.90539">
        <ele>801</ele>
        <time>2021-02-24T15:43:27Z</time>
      </trkpt>
      <trkpt lat="45.32463" lon="5.90541">
        <ele>801.8</ele>
        <time>2021-02-24T15:43:26Z</time>
      </trkpt>
      <trkpt lat="45.32462" lon="5.90558">
        <ele>803</ele>
        <time>2021-02-24T15:43:25Z</time>
      </trkpt>
      <trkpt lat="45.32462" lon="5.90558">
        <ele>804</ele>
        <time>2021-02-24T15:43:24Z</time>
      </trkpt>
      <trkpt lat="45.32462" lon="5.90558">
        <ele>805.8</ele>
        <time>2021-02-24T15:43:23Z</time>
      </trkpt>
      <trkpt lat="45.32459" lon="5.90565">
        <ele>806.2</ele>
        <time>2021-02-24T15:43:22Z</time>
      </trkpt>
      <trkpt lat="45.32459" lon="5.9057">
        <ele>806.6</ele>
        <time>2021-02-24T15:43:21Z</time>
      </trkpt>
      <trkpt lat="45.32459" lon="5.90575">
        <ele>806.6</ele>
        <time>2021-02-24T15:43:20Z</time>
      </trkpt>
      <trkpt lat="45.32459" lon="5.90579">
        <ele>807.2</ele>
        <time>2021-02-24T15:43:19Z</time>
      </trkpt>
      <trkpt lat="45.32458" lon="5.90584">
        <ele>807</ele>
        <time>2021-02-24T15:43:18Z</time>
      </trkpt>
      <trkpt lat="45.32458" lon="5.90589">
        <ele>808.8</ele>
        <time>2021-02-24T15:43:17Z</time>
      </trkpt>
      <trkpt lat="45.32458" lon="5.90589">
        <ele>810.2</ele>
        <time>2021-02-24T15:43:16Z</time>
      </trkpt>
      <trkpt lat="45.32458" lon="5.90589">
        <ele>812.4</ele>
        <time>2021-02-24T15:43:15Z</time>
      </trkpt>
      <trkpt lat="45.32457" lon="5.90595">
        <ele>813</ele>
        <time>2021-02-24T15:43:14Z</time>
      </trkpt>
      <trkpt lat="45.32457" lon="5.906">
        <ele>814.6</ele>
        <time>2021-02-24T15:43:13Z</time>
      </trkpt>
      <trkpt lat="45.32458" lon="5.90606">
        <ele>815.2</ele>
        <time>2021-02-24T15:43:12Z</time>
      </trkpt>
      <trkpt lat="45.32458" lon="5.90611">
        <ele>816</ele>
        <time>2021-02-24T15:43:11Z</time>
      </trkpt>
      <trkpt lat="45.32458" lon="5.90616">
        <ele>815.6</ele>
        <time>2021-02-24T15:43:10Z</time>
      </trkpt>
      <trkpt lat="45.32458" lon="5.90616">
        <ele>817.2</ele>
        <time>2021-02-24T15:43:09Z</time>
      </trkpt>
      <trkpt lat="45.32458" lon="5.90616">
        <ele>817.8</ele>
        <time>2021-02-24T15:43:08Z</time>
      </trkpt>
      <trkpt lat="45.3246" lon="5.90623">
        <ele>819.6</ele>
        <time>2021-02-24T15:43:07Z</time>
      </trkpt>
      <trkpt lat="45.32461" lon="5.90626">
        <ele>818</ele>
        <time>2021-02-24T15:43:06Z</time>
      </trkpt>
      <trkpt lat="45.32462" lon="5.90628">
        <ele>819</ele>
        <time>2021-02-24T15:43:05Z</time>
      </trkpt>
      <trkpt lat="45.32464" lon="5.90637">
        <ele>819.8</ele>
        <time>2021-02-24T15:43:04Z</time>
      </trkpt>
      <trkpt lat="45.32465" lon="5.90644">
        <ele>820.4</ele>
        <time>2021-02-24T15:43:03Z</time>
      </trkpt>
      <trkpt lat="45.32467" lon="5.9065">
        <ele>820.8</ele>
        <time>2021-02-24T15:43:02Z</time>
      </trkpt>
      <trkpt lat="45.32468" lon="5.90656">
        <ele>821.6</ele>
        <time>2021-02-24T15:43:01Z</time>
      </trkpt>
      <trkpt lat="45.32469" lon="5.90663">
        <ele>822.6</ele>
        <time>2021-02-24T15:43:00Z</time>
      </trkpt>
      <trkpt lat="45.32469" lon="5.90663">
        <ele>823.6</ele>
        <time>2021-02-24T15:42:59Z</time>
      </trkpt>
      <trkpt lat="45.32469" lon="5.90663">
        <ele>824.2</ele>
        <time>2021-02-24T15:42:58Z</time>
      </trkpt>
      <trkpt lat="45.32471" lon="5.90669">
        <ele>823.8</ele>
        <time>2021-02-24T15:42:57Z</time>
      </trkpt>
      <trkpt lat="45.32473" lon="5.90674">
        <ele>823.8</ele>
        <time>2021-02-24T15:42:56Z</time>
      </trkpt>
      <trkpt lat="45.32474" lon="5.90679">
        <ele>824</ele>
        <time>2021-02-24T15:42:55Z</time>
      </trkpt>
      <trkpt lat="45.32476" lon="5.90684">
        <ele>825.4</ele>
        <time>2021-02-24T15:42:54Z</time>
      </trkpt>
      <trkpt lat="45.32477" lon="5.90689">
        <ele>826.6</ele>
        <time>2021-02-24T15:42:53Z</time>
      </trkpt>
      <trkpt lat="45.32478" lon="5.90693">
        <ele>827.6</ele>
        <time>2021-02-24T15:42:52Z</time>
      </trkpt>
      <trkpt lat="45.32479" lon="5.90697">
        <ele>828.4</ele>
        <time>2021-02-24T15:42:51Z</time>
      </trkpt>
      <trkpt lat="45.3248" lon="5.90701">
        <ele>829.4</ele>
        <time>2021-02-24T15:42:50Z</time>
      </trkpt>
      <trkpt lat="45.32481" lon="5.90705">
        <ele>830.2</ele>
        <time>2021-02-24T15:42:49Z</time>
      </trkpt>
      <trkpt lat="45.32481" lon="5.90705">
        <ele>830.4</ele>
        <time>2021-02-24T15:42:48Z</time>
      </trkpt>
      <trkpt lat="45.32481" lon="5.90705">
        <ele>830.2</ele>
        <time>2021-02-24T15:42:47Z</time>
      </trkpt>
      <trkpt lat="45.32483" lon="5.90711">
        <ele>830.2</ele>
        <time>2021-02-24T15:42:46Z</time>
      </trkpt>
      <trkpt lat="45.32483" lon="5.90713">
        <ele>830.8</ele>
        <time>2021-02-24T15:42:45Z</time>
      </trkpt>
      <trkpt lat="45.32483" lon="5.90715">
        <ele>832</ele>
        <time>2021-02-24T15:42:44Z</time>
      </trkpt>
      <trkpt lat="45.32486" lon="5.90727">
        <ele>832.8</ele>
        <time>2021-02-24T15:42:43Z</time>
      </trkpt>
      <trkpt lat="45.32487" lon="5.9073">
        <ele>834</ele>
        <time>2021-02-24T15:42:42Z</time>
      </trkpt>
      <trkpt lat="45.32487" lon="5.90732">
        <ele>834.4</ele>
        <time>2021-02-24T15:42:41Z</time>
      </trkpt>
      <trkpt lat="45.32489" lon="5.90744">
        <ele>835.8</ele>
        <time>2021-02-24T15:42:40Z</time>
      </trkpt>
      <trkpt lat="45.32489" lon="5.90747">
        <ele>836.6</ele>
        <time>2021-02-24T15:42:39Z</time>
      </trkpt>
      <trkpt lat="45.3249" lon="5.9075">
        <ele>836.8</ele>
        <time>2021-02-24T15:42:38Z</time>
      </trkpt>
      <trkpt lat="45.3249" lon="5.90769">
        <ele>837.4</ele>
        <time>2021-02-24T15:42:37Z</time>
      </trkpt>
      <trkpt lat="45.3249" lon="5.90769">
        <ele>838.4</ele>
        <time>2021-02-24T15:42:36Z</time>
      </trkpt>
      <trkpt lat="45.3249" lon="5.90769">
        <ele>838.2</ele>
        <time>2021-02-24T15:42:35Z</time>
      </trkpt>
      <trkpt lat="45.32489" lon="5.90776">
        <ele>839.6</ele>
        <time>2021-02-24T15:42:34Z</time>
      </trkpt>
      <trkpt lat="45.32489" lon="5.90778">
        <ele>840.8</ele>
        <time>2021-02-24T15:42:33Z</time>
      </trkpt>
      <trkpt lat="45.32488" lon="5.9078">
        <ele>840.8</ele>
        <time>2021-02-24T15:42:32Z</time>
      </trkpt>
      <trkpt lat="45.32487" lon="5.9079">
        <ele>842</ele>
        <time>2021-02-24T15:42:31Z</time>
      </trkpt>
      <trkpt lat="45.32486" lon="5.90792">
        <ele>843.2</ele>
        <time>2021-02-24T15:42:30Z</time>
      </trkpt>
      <trkpt lat="45.32486" lon="5.90794">
        <ele>844.2</ele>
        <time>2021-02-24T15:42:29Z</time>
      </trkpt>
      <trkpt lat="45.32481" lon="5.9081">
        <ele>844.8</ele>
        <time>2021-02-24T15:42:28Z</time>
      </trkpt>
      <trkpt lat="45.3248" lon="5.90811">
        <ele>845.4</ele>
        <time>2021-02-24T15:42:27Z</time>
      </trkpt>
      <trkpt lat="45.32479" lon="5.90813">
        <ele>845.6</ele>
        <time>2021-02-24T15:42:26Z</time>
      </trkpt>
      <trkpt lat="45.32478" lon="5.90814">
        <ele>845.6</ele>
        <time>2021-02-24T15:42:25Z</time>
      </trkpt>
      <trkpt lat="45.32477" lon="5.90815">
        <ele>847.4</ele>
        <time>2021-02-24T15:42:24Z</time>
      </trkpt>
      <trkpt lat="45.32476" lon="5.90816">
        <ele>847.8</ele>
        <time>2021-02-24T15:42:23Z</time>
      </trkpt>
      <trkpt lat="45.32475" lon="5.90818">
        <ele>847.6</ele>
        <time>2021-02-24T15:42:22Z</time>
      </trkpt>
      <trkpt lat="45.32474" lon="5.90819">
        <ele>847.8</ele>
        <time>2021-02-24T15:42:21Z</time>
      </trkpt>
      <trkpt lat="45.32474" lon="5.90819">
        <ele>847</ele>
        <time>2021-02-24T15:42:20Z</time>
      </trkpt>
      <trkpt lat="45.32474" lon="5.90819">
        <ele>847.4</ele>
        <time>2021-02-24T15:42:19Z</time>
      </trkpt>
      <trkpt lat="45.32484" lon="5.90815">
        <ele>848.2</ele>
        <time>2021-02-24T15:42:18Z</time>
      </trkpt>
      <trkpt lat="45.32484" lon="5.90815">
        <ele>849</ele>
        <time>2021-02-24T15:42:17Z</time>
      </trkpt>
      <trkpt lat="45.32484" lon="5.90815">
        <ele>850</ele>
        <time>2021-02-24T15:42:16Z</time>
      </trkpt>
      <trkpt lat="45.32486" lon="5.90821">
        <ele>850.6</ele>
        <time>2021-02-24T15:42:15Z</time>
      </trkpt>
      <trkpt lat="45.32486" lon="5.90826">
        <ele>851.8</ele>
        <time>2021-02-24T15:42:14Z</time>
      </trkpt>
      <trkpt lat="45.32485" lon="5.90832">
        <ele>852.6</ele>
        <time>2021-02-24T15:42:13Z</time>
      </trkpt>
      <trkpt lat="45.32485" lon="5.90837">
        <ele>853.2</ele>
        <time>2021-02-24T15:42:12Z</time>
      </trkpt>
      <trkpt lat="45.32484" lon="5.90843">
        <ele>854.4</ele>
        <time>2021-02-24T15:42:11Z</time>
      </trkpt>
      <trkpt lat="45.32484" lon="5.90845">
        <ele>855</ele>
        <time>2021-02-24T15:42:10Z</time>
      </trkpt>
      <trkpt lat="45.32484" lon="5.90848">
        <ele>855.8</ele>
        <time>2021-02-24T15:42:09Z</time>
      </trkpt>
      <trkpt lat="45.32483" lon="5.90851">
        <ele>856.8</ele>
        <time>2021-02-24T15:42:08Z</time>
      </trkpt>
      <trkpt lat="45.32483" lon="5.90853">
        <ele>857.8</ele>
        <time>2021-02-24T15:42:07Z</time>
      </trkpt>
      <trkpt lat="45.32483" lon="5.90856">
        <ele>859</ele>
        <time>2021-02-24T15:42:06Z</time>
      </trkpt>
      <trkpt lat="45.32482" lon="5.90859">
        <ele>860</ele>
        <time>2021-02-24T15:42:05Z</time>
      </trkpt>
      <trkpt lat="45.32482" lon="5.90859">
        <ele>860.4</ele>
        <time>2021-02-24T15:42:04Z</time>
      </trkpt>
      <trkpt lat="45.32482" lon="5.90859">
        <ele>861.2</ele>
        <time>2021-02-24T15:42:03Z</time>
      </trkpt>
      <trkpt lat="45.32487" lon="5.90859">
        <ele>861.8</ele>
        <time>2021-02-24T15:42:02Z</time>
      </trkpt>
      <trkpt lat="45.3249" lon="5.90863">
        <ele>863.4</ele>
        <time>2021-02-24T15:42:01Z</time>
      </trkpt>
      <trkpt lat="45.32492" lon="5.90867">
        <ele>864</ele>
        <time>2021-02-24T15:42:00Z</time>
      </trkpt>
      <trkpt lat="45.32495" lon="5.90871">
        <ele>864.8</ele>
        <time>2021-02-24T15:41:59Z</time>
      </trkpt>
      <trkpt lat="45.32497" lon="5.90875">
        <ele>866.2</ele>
        <time>2021-02-24T15:41:58Z</time>
      </trkpt>
      <trkpt lat="45.32497" lon="5.90875">
        <ele>867.2</ele>
        <time>2021-02-24T15:41:57Z</time>
      </trkpt>
      <trkpt lat="45.32497" lon="5.90875">
        <ele>868.2</ele>
        <time>2021-02-24T15:41:56Z</time>
      </trkpt>
      <trkpt lat="45.32497" lon="5.9089">
        <ele>868.2</ele>
        <time>2021-02-24T15:41:55Z</time>
      </trkpt>
      <trkpt lat="45.32497" lon="5.9089">
        <ele>869.6</ele>
        <time>2021-02-24T15:41:54Z</time>
      </trkpt>
      <trkpt lat="45.32497" lon="5.9089">
        <ele>870.6</ele>
        <time>2021-02-24T15:41:53Z</time>
      </trkpt>
      <trkpt lat="45.32496" lon="5.90897">
        <ele>871</ele>
        <time>2021-02-24T15:41:52Z</time>
      </trkpt>
      <trkpt lat="45.32496" lon="5.90899">
        <ele>872</ele>
        <time>2021-02-24T15:41:51Z</time>
      </trkpt>
      <trkpt lat="45.32496" lon="5.90902">
        <ele>872.8</ele>
        <time>2021-02-24T15:41:50Z</time>
      </trkpt>
      <trkpt lat="45.32494" lon="5.90919">
        <ele>873.6</ele>
        <time>2021-02-24T15:41:49Z</time>
      </trkpt>
      <trkpt lat="45.32494" lon="5.90919">
        <ele>874.4</ele>
        <time>2021-02-24T15:41:48Z</time>
      </trkpt>
      <trkpt lat="45.32494" lon="5.90919">
        <ele>875.8</ele>
        <time>2021-02-24T15:41:47Z</time>
      </trkpt>
      <trkpt lat="45.32493" lon="5.90925">
        <ele>875.6</ele>
        <time>2021-02-24T15:41:46Z</time>
      </trkpt>
      <trkpt lat="45.32493" lon="5.90927">
        <ele>876.4</ele>
        <time>2021-02-24T15:41:45Z</time>
      </trkpt>
      <trkpt lat="45.32493" lon="5.90929">
        <ele>877.2</ele>
        <time>2021-02-24T15:41:44Z</time>
      </trkpt>
      <trkpt lat="45.32496" lon="5.90937">
        <ele>878.4</ele>
        <time>2021-02-24T15:41:43Z</time>
      </trkpt>
      <trkpt lat="45.32497" lon="5.90939">
        <ele>879.4</ele>
        <time>2021-02-24T15:41:42Z</time>
      </trkpt>
      <trkpt lat="45.32498" lon="5.90941">
        <ele>880.4</ele>
        <time>2021-02-24T15:41:41Z</time>
      </trkpt>
      <trkpt lat="45.3251" lon="5.9095">
        <ele>882</ele>
        <time>2021-02-24T15:41:40Z</time>
      </trkpt>
      <trkpt lat="45.32512" lon="5.90952">
        <ele>883.4</ele>
        <time>2021-02-24T15:41:39Z</time>
      </trkpt>
      <trkpt lat="45.32514" lon="5.90955">
        <ele>883.2</ele>
        <time>2021-02-24T15:41:38Z</time>
      </trkpt>
      <trkpt lat="45.32516" lon="5.90957">
        <ele>884.4</ele>
        <time>2021-02-24T15:41:37Z</time>
      </trkpt>
      <trkpt lat="45.32517" lon="5.9096">
        <ele>885.2</ele>
        <time>2021-02-24T15:41:36Z</time>
      </trkpt>
      <trkpt lat="45.32519" lon="5.90963">
        <ele>886</ele>
        <time>2021-02-24T15:41:35Z</time>
      </trkpt>
      <trkpt lat="45.32521" lon="5.90966">
        <ele>887.8</ele>
        <time>2021-02-24T15:41:34Z</time>
      </trkpt>
      <trkpt lat="45.32523" lon="5.90969">
        <ele>888.4</ele>
        <time>2021-02-24T15:41:33Z</time>
      </trkpt>
      <trkpt lat="45.32525" lon="5.90972">
        <ele>889.2</ele>
        <time>2021-02-24T15:41:32Z</time>
      </trkpt>
      <trkpt lat="45.32526" lon="5.90975">
        <ele>890.8</ele>
        <time>2021-02-24T15:41:31Z</time>
      </trkpt>
      <trkpt lat="45.32526" lon="5.90978">
        <ele>892</ele>
        <time>2021-02-24T15:41:30Z</time>
      </trkpt>
      <trkpt lat="45.32527" lon="5.90981">
        <ele>893.6</ele>
        <time>2021-02-24T15:41:29Z</time>
      </trkpt>
      <trkpt lat="45.32528" lon="5.90984">
        <ele>894.4</ele>
        <time>2021-02-24T15:41:28Z</time>
      </trkpt>
      <trkpt lat="45.32528" lon="5.90987">
        <ele>894.4</ele>
        <time>2021-02-24T15:41:27Z</time>
      </trkpt>
      <trkpt lat="45.3253" lon="5.90989">
        <ele>895.6</ele>
        <time>2021-02-24T15:41:26Z</time>
      </trkpt>
      <trkpt lat="45.32531" lon="5.90991">
        <ele>895.8</ele>
        <time>2021-02-24T15:41:25Z</time>
      </trkpt>
      <trkpt lat="45.32533" lon="5.90994">
        <ele>897.8</ele>
        <time>2021-02-24T15:41:24Z</time>
      </trkpt>
      <trkpt lat="45.32534" lon="5.90996">
        <ele>899.8</ele>
        <time>2021-02-24T15:41:23Z</time>
      </trkpt>
      <trkpt lat="45.32536" lon="5.90998">
        <ele>900</ele>
        <time>2021-02-24T15:41:22Z</time>
      </trkpt>
      <trkpt lat="45.32536" lon="5.90998">
        <ele>900.6</ele>
        <time>2021-02-24T15:41:21Z</time>
      </trkpt>
      <trkpt lat="45.32536" lon="5.90998">
        <ele>901.8</ele>
        <time>2021-02-24T15:41:20Z</time>
      </trkpt>
      <trkpt lat="45.32539" lon="5.91002">
        <ele>903.2</ele>
        <time>2021-02-24T15:41:19Z</time>
      </trkpt>
      <trkpt lat="45.32542" lon="5.91006">
        <ele>904.6</ele>
        <time>2021-02-24T15:41:18Z</time>
      </trkpt>
      <trkpt lat="45.32545" lon="5.91011">
        <ele>903.8</ele>
        <time>2021-02-24T15:41:17Z</time>
      </trkpt>
      <trkpt lat="45.32548" lon="5.91015">
        <ele>904.2</ele>
        <time>2021-02-24T15:41:16Z</time>
      </trkpt>
      <trkpt lat="45.32551" lon="5.91019">
        <ele>904.8</ele>
        <time>2021-02-24T15:41:15Z</time>
      </trkpt>
      <trkpt lat="45.32551" lon="5.91019">
        <ele>904.8</ele>
        <time>2021-02-24T15:41:14Z</time>
      </trkpt>
      <trkpt lat="45.32551" lon="5.91019">
        <ele>905.8</ele>
        <time>2021-02-24T15:41:13Z</time>
      </trkpt>
      <trkpt lat="45.32555" lon="5.91031">
        <ele>906</ele>
        <time>2021-02-24T15:41:12Z</time>
      </trkpt>
      <trkpt lat="45.32555" lon="5.91031">
        <ele>906.6</ele>
        <time>2021-02-24T15:41:11Z</time>
      </trkpt>
      <trkpt lat="45.32555" lon="5.91031">
        <ele>907</ele>
        <time>2021-02-24T15:41:10Z</time>
      </trkpt>
      <trkpt lat="45.32555" lon="5.91046">
        <ele>906.6</ele>
        <time>2021-02-24T15:41:09Z</time>
      </trkpt>
      <trkpt lat="45.32555" lon="5.91046">
        <ele>907</ele>
        <time>2021-02-24T15:41:08Z</time>
      </trkpt>
      <trkpt lat="45.32555" lon="5.91046">
        <ele>907.4</ele>
        <time>2021-02-24T15:41:07Z</time>
      </trkpt>
      <trkpt lat="45.32556" lon="5.91052">
        <ele>907.6</ele>
        <time>2021-02-24T15:41:06Z</time>
      </trkpt>
      <trkpt lat="45.32557" lon="5.91055">
        <ele>908.2</ele>
        <time>2021-02-24T15:41:05Z</time>
      </trkpt>
      <trkpt lat="45.32557" lon="5.91057">
        <ele>908.8</ele>
        <time>2021-02-24T15:41:04Z</time>
      </trkpt>
      <trkpt lat="45.32562" lon="5.91065">
        <ele>909.6</ele>
        <time>2021-02-24T15:41:03Z</time>
      </trkpt>
      <trkpt lat="45.32563" lon="5.91068">
        <ele>910.4</ele>
        <time>2021-02-24T15:41:02Z</time>
      </trkpt>
      <trkpt lat="45.32564" lon="5.9107">
        <ele>910.8</ele>
        <time>2021-02-24T15:41:01Z</time>
      </trkpt>
      <trkpt lat="45.32576" lon="5.91083">
        <ele>911.8</ele>
        <time>2021-02-24T15:41:00Z</time>
      </trkpt>
      <trkpt lat="45.32576" lon="5.91083">
        <ele>912.6</ele>
        <time>2021-02-24T15:40:59Z</time>
      </trkpt>
      <trkpt lat="45.32579" lon="5.91087">
        <ele>913.8</ele>
        <time>2021-02-24T15:40:58Z</time>
      </trkpt>
      <trkpt lat="45.3258" lon="5.91089">
        <ele>915.2</ele>
        <time>2021-02-24T15:40:57Z</time>
      </trkpt>
      <trkpt lat="45.32581" lon="5.9109">
        <ele>916.8</ele>
        <time>2021-02-24T15:40:56Z</time>
      </trkpt>
      <trkpt lat="45.32586" lon="5.91098">
        <ele>918.2</ele>
        <time>2021-02-24T15:40:55Z</time>
      </trkpt>
      <trkpt lat="45.32589" lon="5.91103">
        <ele>920.6</ele>
        <time>2021-02-24T15:40:54Z</time>
      </trkpt>
      <trkpt lat="45.32592" lon="5.91108">
        <ele>922.2</ele>
        <time>2021-02-24T15:40:53Z</time>
      </trkpt>
      <trkpt lat="45.32595" lon="5.91113">
        <ele>923.8</ele>
        <time>2021-02-24T15:40:52Z</time>
      </trkpt>
      <trkpt lat="45.32598" lon="5.91118">
        <ele>924.2</ele>
        <time>2021-02-24T15:40:51Z</time>
      </trkpt>
      <trkpt lat="45.326" lon="5.91122">
        <ele>926</ele>
        <time>2021-02-24T15:40:50Z</time>
      </trkpt>
      <trkpt lat="45.32601" lon="5.91125">
        <ele>924.4</ele>
        <time>2021-02-24T15:40:49Z</time>
      </trkpt>
      <trkpt lat="45.32602" lon="5.91128">
        <ele>925</ele>
        <time>2021-02-24T15:40:48Z</time>
      </trkpt>
      <trkpt lat="45.32604" lon="5.91131">
        <ele>926</ele>
        <time>2021-02-24T15:40:47Z</time>
      </trkpt>
      <trkpt lat="45.32604" lon="5.91135">
        <ele>925.2</ele>
        <time>2021-02-24T15:40:46Z</time>
      </trkpt>
      <trkpt lat="45.32605" lon="5.91138">
        <ele>925</ele>
        <time>2021-02-24T15:40:45Z</time>
      </trkpt>
      <trkpt lat="45.32606" lon="5.91142">
        <ele>925.4</ele>
        <time>2021-02-24T15:40:44Z</time>
      </trkpt>
      <trkpt lat="45.32606" lon="5.91146">
        <ele>925.4</ele>
        <time>2021-02-24T15:40:43Z</time>
      </trkpt>
      <trkpt lat="45.32607" lon="5.91149">
        <ele>923.8</ele>
        <time>2021-02-24T15:40:42Z</time>
      </trkpt>
      <trkpt lat="45.32607" lon="5.91152">
        <ele>923.2</ele>
        <time>2021-02-24T15:40:41Z</time>
      </trkpt>
      <trkpt lat="45.32607" lon="5.91155">
        <ele>923.4</ele>
        <time>2021-02-24T15:40:40Z</time>
      </trkpt>
      <trkpt lat="45.32608" lon="5.91158">
        <ele>924.6</ele>
        <time>2021-02-24T15:40:39Z</time>
      </trkpt>
      <trkpt lat="45.32608" lon="5.91162">
        <ele>924.2</ele>
        <time>2021-02-24T15:40:38Z</time>
      </trkpt>
      <trkpt lat="45.32608" lon="5.91165">
        <ele>925.6</ele>
        <time>2021-02-24T15:40:37Z</time>
      </trkpt>
      <trkpt lat="45.32608" lon="5.91168">
        <ele>924</ele>
        <time>2021-02-24T15:40:36Z</time>
      </trkpt>
      <trkpt lat="45.32608" lon="5.91171">
        <ele>923</ele>
        <time>2021-02-24T15:40:35Z</time>
      </trkpt>
      <trkpt lat="45.32607" lon="5.91174">
        <ele>922.8</ele>
        <time>2021-02-24T15:40:34Z</time>
      </trkpt>
      <trkpt lat="45.32607" lon="5.91174">
        <ele>922.4</ele>
        <time>2021-02-24T15:40:33Z</time>
      </trkpt>
      <trkpt lat="45.32607" lon="5.91174">
        <ele>922.6</ele>
        <time>2021-02-24T15:40:32Z</time>
      </trkpt>
      <trkpt lat="45.32611" lon="5.91186">
        <ele>923.4</ele>
        <time>2021-02-24T15:40:31Z</time>
      </trkpt>
      <trkpt lat="45.32611" lon="5.91186">
        <ele>925.2</ele>
        <time>2021-02-24T15:40:30Z</time>
      </trkpt>
      <trkpt lat="45.32611" lon="5.91186">
        <ele>924.2</ele>
        <time>2021-02-24T15:40:29Z</time>
      </trkpt>
      <trkpt lat="45.32618" lon="5.91195">
        <ele>923</ele>
        <time>2021-02-24T15:40:28Z</time>
      </trkpt>
      <trkpt lat="45.32618" lon="5.91195">
        <ele>922</ele>
        <time>2021-02-24T15:40:27Z</time>
      </trkpt>
      <trkpt lat="45.32618" lon="5.91195">
        <ele>923</ele>
        <time>2021-02-24T15:40:26Z</time>
      </trkpt>
      <trkpt lat="45.32623" lon="5.91198">
        <ele>921.2</ele>
        <time>2021-02-24T15:40:25Z</time>
      </trkpt>
      <trkpt lat="45.32623" lon="5.91198">
        <ele>921.2</ele>
        <time>2021-02-24T15:40:24Z</time>
      </trkpt>
      <trkpt lat="45.3265" lon="5.91205">
        <ele>920.2</ele>
        <time>2021-02-24T15:40:23Z</time>
      </trkpt>
      <trkpt lat="45.3265" lon="5.91205">
        <ele>920.8</ele>
        <time>2021-02-24T15:39:57Z</time>
      </trkpt>
      <trkpt lat="45.3265" lon="5.91205">
        <ele>921.4</ele>
        <time>2021-02-24T15:39:56Z</time>
      </trkpt>
      <trkpt lat="45.32652" lon="5.91206">
        <ele>923.2</ele>
        <time>2021-02-24T15:39:55Z</time>
      </trkpt>
      <trkpt lat="45.32654" lon="5.91208">
        <ele>923.8</ele>
        <time>2021-02-24T15:39:54Z</time>
      </trkpt>
      <trkpt lat="45.32656" lon="5.9121">
        <ele>922</ele>
        <time>2021-02-24T15:39:53Z</time>
      </trkpt>
      <trkpt lat="45.32658" lon="5.91212">
        <ele>920.4</ele>
        <time>2021-02-24T15:39:52Z</time>
      </trkpt>
      <trkpt lat="45.32658" lon="5.91212">
        <ele>919</ele>
        <time>2021-02-24T15:39:51Z</time>
      </trkpt>
      <trkpt lat="45.32658" lon="5.91212">
        <ele>919.8</ele>
        <time>2021-02-24T15:39:50Z</time>
      </trkpt>
      <trkpt lat="45.32662" lon="5.91216">
        <ele>919.6</ele>
        <time>2021-02-24T15:39:49Z</time>
      </trkpt>
      <trkpt lat="45.32664" lon="5.91218">
        <ele>920.8</ele>
        <time>2021-02-24T15:39:48Z</time>
      </trkpt>
      <trkpt lat="45.32667" lon="5.9122">
        <ele>920.8</ele>
        <time>2021-02-24T15:39:47Z</time>
      </trkpt>
      <trkpt lat="45.3267" lon="5.91223">
        <ele>921.8</ele>
        <time>2021-02-24T15:39:46Z</time>
      </trkpt>
      <trkpt lat="45.32672" lon="5.91225">
        <ele>919.2</ele>
        <time>2021-02-24T15:39:45Z</time>
      </trkpt>
      <trkpt lat="45.32675" lon="5.91227">
        <ele>918</ele>
        <time>2021-02-24T15:39:44Z</time>
      </trkpt>
      <trkpt lat="45.32675" lon="5.91227">
        <ele>917.4</ele>
        <time>2021-02-24T15:39:43Z</time>
      </trkpt>
      <trkpt lat="45.32675" lon="5.91227">
        <ele>917.4</ele>
        <time>2021-02-24T15:39:42Z</time>
      </trkpt>
      <trkpt lat="45.3268" lon="5.91227">
        <ele>918.6</ele>
        <time>2021-02-24T15:39:41Z</time>
      </trkpt>
      <trkpt lat="45.32682" lon="5.91227">
        <ele>918.2</ele>
        <time>2021-02-24T15:39:40Z</time>
      </trkpt>
      <trkpt lat="45.32684" lon="5.91228">
        <ele>919.4</ele>
        <time>2021-02-24T15:39:39Z</time>
      </trkpt>
      <trkpt lat="45.32686" lon="5.91228">
        <ele>918.8</ele>
        <time>2021-02-24T15:39:38Z</time>
      </trkpt>
      <trkpt lat="45.32689" lon="5.91228">
        <ele>916.8</ele>
        <time>2021-02-24T15:39:37Z</time>
      </trkpt>
      <trkpt lat="45.32691" lon="5.91228">
        <ele>914.6</ele>
        <time>2021-02-24T15:39:36Z</time>
      </trkpt>
      <trkpt lat="45.32693" lon="5.91228">
        <ele>913.4</ele>
        <time>2021-02-24T15:39:35Z</time>
      </trkpt>
      <trkpt lat="45.32695" lon="5.91228">
        <ele>913</ele>
        <time>2021-02-24T15:39:34Z</time>
      </trkpt>
      <trkpt lat="45.32697" lon="5.91229">
        <ele>912.6</ele>
        <time>2021-02-24T15:39:33Z</time>
      </trkpt>
      <trkpt lat="45.32699" lon="5.91229">
        <ele>913.8</ele>
        <time>2021-02-24T15:39:32Z</time>
      </trkpt>
      <trkpt lat="45.32701" lon="5.9123">
        <ele>914.2</ele>
        <time>2021-02-24T15:39:31Z</time>
      </trkpt>
      <trkpt lat="45.32703" lon="5.9123">
        <ele>915.2</ele>
        <time>2021-02-24T15:39:30Z</time>
      </trkpt>
      <trkpt lat="45.32705" lon="5.9123">
        <ele>914.2</ele>
        <time>2021-02-24T15:39:29Z</time>
      </trkpt>
      <trkpt lat="45.32707" lon="5.91231">
        <ele>911</ele>
        <time>2021-02-24T15:39:28Z</time>
      </trkpt>
      <trkpt lat="45.32708" lon="5.91232">
        <ele>909.8</ele>
        <time>2021-02-24T15:39:27Z</time>
      </trkpt>
      <trkpt lat="45.3271" lon="5.91232">
        <ele>909.8</ele>
        <time>2021-02-24T15:39:26Z</time>
      </trkpt>
      <trkpt lat="45.32712" lon="5.91233">
        <ele>911</ele>
        <time>2021-02-24T15:39:25Z</time>
      </trkpt>
      <trkpt lat="45.32713" lon="5.91233">
        <ele>910.8</ele>
        <time>2021-02-24T15:39:24Z</time>
      </trkpt>
      <trkpt lat="45.32715" lon="5.91234">
        <ele>907.6</ele>
        <time>2021-02-24T15:39:23Z</time>
      </trkpt>
      <trkpt lat="45.32716" lon="5.91234">
        <ele>905.6</ele>
        <time>2021-02-24T15:39:22Z</time>
      </trkpt>
      <trkpt lat="45.32718" lon="5.91234">
        <ele>905</ele>
        <time>2021-02-24T15:39:21Z</time>
      </trkpt>
      <trkpt lat="45.32719" lon="5.91234">
        <ele>904.8</ele>
        <time>2021-02-24T15:39:20Z</time>
      </trkpt>
      <trkpt lat="45.3272" lon="5.91234">
        <ele>904.2</ele>
        <time>2021-02-24T15:39:19Z</time>
      </trkpt>
      <trkpt lat="45.32721" lon="5.91234">
        <ele>903.2</ele>
        <time>2021-02-24T15:39:18Z</time>
      </trkpt>
      <trkpt lat="45.32723" lon="5.91235">
        <ele>903.4</ele>
        <time>2021-02-24T15:39:17Z</time>
      </trkpt>
      <trkpt lat="45.32724" lon="5.91235">
        <ele>902.8</ele>
        <time>2021-02-24T15:39:16Z</time>
      </trkpt>
      <trkpt lat="45.32725" lon="5.91234">
        <ele>902.6</ele>
        <time>2021-02-24T15:39:15Z</time>
      </trkpt>
      <trkpt lat="45.32726" lon="5.91234">
        <ele>902.6</ele>
        <time>2021-02-24T15:39:14Z</time>
      </trkpt>
      <trkpt lat="45.32727" lon="5.91233">
        <ele>902.2</ele>
        <time>2021-02-24T15:39:13Z</time>
      </trkpt>
      <trkpt lat="45.32727" lon="5.91233">
        <ele>902.2</ele>
        <time>2021-02-24T15:39:12Z</time>
      </trkpt>
      <trkpt lat="45.32728" lon="5.91233">
        <ele>901.6</ele>
        <time>2021-02-24T15:39:11Z</time>
      </trkpt>
      <trkpt lat="45.32729" lon="5.91232">
        <ele>901.4</ele>
        <time>2021-02-24T15:39:10Z</time>
      </trkpt>
      <trkpt lat="45.3273" lon="5.91232">
        <ele>901.2</ele>
        <time>2021-02-24T15:39:09Z</time>
      </trkpt>
      <trkpt lat="45.32731" lon="5.91231">
        <ele>901.4</ele>
        <time>2021-02-24T15:39:08Z</time>
      </trkpt>
      <trkpt lat="45.32732" lon="5.91231">
        <ele>901.4</ele>
        <time>2021-02-24T15:39:07Z</time>
      </trkpt>
      <trkpt lat="45.32733" lon="5.9123">
        <ele>901</ele>
        <time>2021-02-24T15:39:06Z</time>
      </trkpt>
      <trkpt lat="45.32734" lon="5.9123">
        <ele>900.4</ele>
        <time>2021-02-24T15:39:05Z</time>
      </trkpt>
      <trkpt lat="45.32735" lon="5.91229">
        <ele>900</ele>
        <time>2021-02-24T15:39:04Z</time>
      </trkpt>
      <trkpt lat="45.32736" lon="5.91229">
        <ele>899.8</ele>
        <time>2021-02-24T15:39:03Z</time>
      </trkpt>
      <trkpt lat="45.32738" lon="5.91228">
        <ele>899.6</ele>
        <time>2021-02-24T15:39:02Z</time>
      </trkpt>
      <trkpt lat="45.32739" lon="5.91228">
        <ele>899.2</ele>
        <time>2021-02-24T15:39:01Z</time>
      </trkpt>
      <trkpt lat="45.3274" lon="5.91228">
        <ele>899</ele>
        <time>2021-02-24T15:39:00Z</time>
      </trkpt>
      <trkpt lat="45.32741" lon="5.91227">
        <ele>898.4</ele>
        <time>2021-02-24T15:38:59Z</time>
      </trkpt>
      <trkpt lat="45.32742" lon="5.91227">
        <ele>898.2</ele>
        <time>2021-02-24T15:38:58Z</time>
      </trkpt>
      <trkpt lat="45.32743" lon="5.91226">
        <ele>898</ele>
        <time>2021-02-24T15:38:57Z</time>
      </trkpt>
      <trkpt lat="45.32745" lon="5.91225">
        <ele>897.8</ele>
        <time>2021-02-24T15:38:56Z</time>
      </trkpt>
      <trkpt lat="45.32746" lon="5.91224">
        <ele>898</ele>
        <time>2021-02-24T15:38:55Z</time>
      </trkpt>
      <trkpt lat="45.32747" lon="5.91223">
        <ele>898.6</ele>
        <time>2021-02-24T15:38:54Z</time>
      </trkpt>
      <trkpt lat="45.32748" lon="5.91222">
        <ele>898.8</ele>
        <time>2021-02-24T15:38:53Z</time>
      </trkpt>
      <trkpt lat="45.32749" lon="5.91222">
        <ele>898.8</ele>
        <time>2021-02-24T15:38:52Z</time>
      </trkpt>
      <trkpt lat="45.3275" lon="5.91221">
        <ele>898.6</ele>
        <time>2021-02-24T15:38:51Z</time>
      </trkpt>
      <trkpt lat="45.32751" lon="5.9122">
        <ele>898.2</ele>
        <time>2021-02-24T15:38:50Z</time>
      </trkpt>
      <trkpt lat="45.32752" lon="5.91218">
        <ele>897.6</ele>
        <time>2021-02-24T15:38:49Z</time>
      </trkpt>
      <trkpt lat="45.32753" lon="5.91216">
        <ele>896.2</ele>
        <time>2021-02-24T15:38:48Z</time>
      </trkpt>
      <trkpt lat="45.32754" lon="5.91215">
        <ele>896.4</ele>
        <time>2021-02-24T15:38:47Z</time>
      </trkpt>
      <trkpt lat="45.32755" lon="5.91213">
        <ele>896.8</ele>
        <time>2021-02-24T15:38:46Z</time>
      </trkpt>
      <trkpt lat="45.32756" lon="5.91211">
        <ele>896.8</ele>
        <time>2021-02-24T15:38:45Z</time>
      </trkpt>
      <trkpt lat="45.32757" lon="5.91209">
        <ele>895.8</ele>
        <time>2021-02-24T15:38:44Z</time>
      </trkpt>
      <trkpt lat="45.32758" lon="5.91206">
        <ele>898</ele>
        <time>2021-02-24T15:38:43Z</time>
      </trkpt>
      <trkpt lat="45.32759" lon="5.91204">
        <ele>897.8</ele>
        <time>2021-02-24T15:38:42Z</time>
      </trkpt>
      <trkpt lat="45.3276" lon="5.91201">
        <ele>898.4</ele>
        <time>2021-02-24T15:38:41Z</time>
      </trkpt>
      <trkpt lat="45.32761" lon="5.91199">
        <ele>896</ele>
        <time>2021-02-24T15:38:40Z</time>
      </trkpt>
      <trkpt lat="45.32762" lon="5.91196">
        <ele>895.2</ele>
        <time>2021-02-24T15:38:39Z</time>
      </trkpt>
      <trkpt lat="45.32764" lon="5.91195">
        <ele>895.8</ele>
        <time>2021-02-24T15:38:38Z</time>
      </trkpt>
      <trkpt lat="45.32765" lon="5.91193">
        <ele>895.2</ele>
        <time>2021-02-24T15:38:37Z</time>
      </trkpt>
      <trkpt lat="45.32766" lon="5.91192">
        <ele>895</ele>
        <time>2021-02-24T15:38:36Z</time>
      </trkpt>
      <trkpt lat="45.32767" lon="5.91191">
        <ele>893.8</ele>
        <time>2021-02-24T15:38:35Z</time>
      </trkpt>
      <trkpt lat="45.32769" lon="5.91189">
        <ele>894</ele>
        <time>2021-02-24T15:38:34Z</time>
      </trkpt>
      <trkpt lat="45.3277" lon="5.91188">
        <ele>895</ele>
        <time>2021-02-24T15:38:33Z</time>
      </trkpt>
      <trkpt lat="45.32771" lon="5.91186">
        <ele>892.6</ele>
        <time>2021-02-24T15:38:32Z</time>
      </trkpt>
      <trkpt lat="45.32772" lon="5.91184">
        <ele>891.4</ele>
        <time>2021-02-24T15:38:31Z</time>
      </trkpt>
      <trkpt lat="45.32773" lon="5.91182">
        <ele>892.8</ele>
        <time>2021-02-24T15:38:30Z</time>
      </trkpt>
      <trkpt lat="45.32774" lon="5.9118">
        <ele>892.2</ele>
        <time>2021-02-24T15:38:29Z</time>
      </trkpt>
      <trkpt lat="45.32775" lon="5.91178">
        <ele>891.8</ele>
        <time>2021-02-24T15:38:28Z</time>
      </trkpt>
      <trkpt lat="45.32775" lon="5.91176">
        <ele>891.8</ele>
        <time>2021-02-24T15:38:27Z</time>
      </trkpt>
      <trkpt lat="45.32775" lon="5.91176">
        <ele>892.6</ele>
        <time>2021-02-24T15:38:26Z</time>
      </trkpt>
      <trkpt lat="45.32775" lon="5.91176">
        <ele>892.4</ele>
        <time>2021-02-24T15:38:25Z</time>
      </trkpt>
      <trkpt lat="45.32777" lon="5.91163">
        <ele>893.4</ele>
        <time>2021-02-24T15:38:24Z</time>
      </trkpt>
      <trkpt lat="45.32778" lon="5.91161">
        <ele>891</ele>
        <time>2021-02-24T15:38:23Z</time>
      </trkpt>
      <trkpt lat="45.32779" lon="5.91158">
        <ele>890.2</ele>
        <time>2021-02-24T15:38:22Z</time>
      </trkpt>
      <trkpt lat="45.3278" lon="5.91155">
        <ele>890.6</ele>
        <time>2021-02-24T15:38:21Z</time>
      </trkpt>
      <trkpt lat="45.32781" lon="5.91152">
        <ele>887.8</ele>
        <time>2021-02-24T15:38:20Z</time>
      </trkpt>
      <trkpt lat="45.32782" lon="5.9115">
        <ele>886.6</ele>
        <time>2021-02-24T15:38:19Z</time>
      </trkpt>
      <trkpt lat="45.32782" lon="5.91149">
        <ele>887</ele>
        <time>2021-02-24T15:38:18Z</time>
      </trkpt>
      <trkpt lat="45.32782" lon="5.91148">
        <ele>886.6</ele>
        <time>2021-02-24T15:38:17Z</time>
      </trkpt>
      <trkpt lat="45.32782" lon="5.91148">
        <ele>884.6</ele>
        <time>2021-02-24T15:38:16Z</time>
      </trkpt>
      <trkpt lat="45.32782" lon="5.91147">
        <ele>885</ele>
        <time>2021-02-24T15:38:15Z</time>
      </trkpt>
      <trkpt lat="45.32782" lon="5.91146">
        <ele>885.4</ele>
        <time>2021-02-24T15:38:14Z</time>
      </trkpt>
      <trkpt lat="45.32782" lon="5.91146">
        <ele>886</ele>
        <time>2021-02-24T15:38:13Z</time>
      </trkpt>
      <trkpt lat="45.32782" lon="5.91145">
        <ele>884.8</ele>
        <time>2021-02-24T15:38:12Z</time>
      </trkpt>
      <trkpt lat="45.32782" lon="5.91144">
        <ele>883.4</ele>
        <time>2021-02-24T15:38:11Z</time>
      </trkpt>
      <trkpt lat="45.32782" lon="5.91144">
        <ele>883.2</ele>
        <time>2021-02-24T15:38:10Z</time>
      </trkpt>
      <trkpt lat="45.32782" lon="5.91143">
        <ele>883.4</ele>
        <time>2021-02-24T15:38:09Z</time>
      </trkpt>
      <trkpt lat="45.32782" lon="5.91143">
        <ele>883</ele>
        <time>2021-02-24T15:38:08Z</time>
      </trkpt>
      <trkpt lat="45.32782" lon="5.91142">
        <ele>882.8</ele>
        <time>2021-02-24T15:38:07Z</time>
      </trkpt>
      <trkpt lat="45.32782" lon="5.91141">
        <ele>882.6</ele>
        <time>2021-02-24T15:38:06Z</time>
      </trkpt>
      <trkpt lat="45.32782" lon="5.91141">
        <ele>882.2</ele>
        <time>2021-02-24T15:38:05Z</time>
      </trkpt>
      <trkpt lat="45.32782" lon="5.9114">
        <ele>881.4</ele>
        <time>2021-02-24T15:38:04Z</time>
      </trkpt>
      <trkpt lat="45.32782" lon="5.91139">
        <ele>882</ele>
        <time>2021-02-24T15:38:03Z</time>
      </trkpt>
      <trkpt lat="45.32782" lon="5.91139">
        <ele>882.4</ele>
        <time>2021-02-24T15:38:02Z</time>
      </trkpt>
      <trkpt lat="45.32782" lon="5.91138">
        <ele>881.8</ele>
        <time>2021-02-24T15:38:01Z</time>
      </trkpt>
      <trkpt lat="45.32782" lon="5.91137">
        <ele>880.4</ele>
        <time>2021-02-24T15:38:00Z</time>
      </trkpt>
      <trkpt lat="45.32782" lon="5.91137">
        <ele>880.2</ele>
        <time>2021-02-24T15:37:59Z</time>
      </trkpt>
      <trkpt lat="45.32782" lon="5.91136">
        <ele>880.2</ele>
        <time>2021-02-24T15:37:58Z</time>
      </trkpt>
      <trkpt lat="45.32782" lon="5.91136">
        <ele>880.6</ele>
        <time>2021-02-24T15:37:57Z</time>
      </trkpt>
      <trkpt lat="45.32782" lon="5.91135">
        <ele>881</ele>
        <time>2021-02-24T15:37:56Z</time>
      </trkpt>
      <trkpt lat="45.32782" lon="5.91134">
        <ele>881.4</ele>
        <time>2021-02-24T15:37:55Z</time>
      </trkpt>
      <trkpt lat="45.32781" lon="5.91134">
        <ele>880.6</ele>
        <time>2021-02-24T15:37:54Z</time>
      </trkpt>
      <trkpt lat="45.3278" lon="5.91134">
        <ele>880.4</ele>
        <time>2021-02-24T15:37:53Z</time>
      </trkpt>
      <trkpt lat="45.32779" lon="5.91134">
        <ele>880</ele>
        <time>2021-02-24T15:37:52Z</time>
      </trkpt>
      <trkpt lat="45.32779" lon="5.91134">
        <ele>879.4</ele>
        <time>2021-02-24T15:37:51Z</time>
      </trkpt>
      <trkpt lat="45.32778" lon="5.91134">
        <ele>878.6</ele>
        <time>2021-02-24T15:37:50Z</time>
      </trkpt>
      <trkpt lat="45.32777" lon="5.91134">
        <ele>877.2</ele>
        <time>2021-02-24T15:37:49Z</time>
      </trkpt>
      <trkpt lat="45.32777" lon="5.91134">
        <ele>877.4</ele>
        <time>2021-02-24T15:37:48Z</time>
      </trkpt>
      <trkpt lat="45.32776" lon="5.91134">
        <ele>877.2</ele>
        <time>2021-02-24T15:37:47Z</time>
      </trkpt>
      <trkpt lat="45.32775" lon="5.91134">
        <ele>877</ele>
        <time>2021-02-24T15:37:46Z</time>
      </trkpt>
      <trkpt lat="45.32774" lon="5.91134">
        <ele>876.6</ele>
        <time>2021-02-24T15:37:45Z</time>
      </trkpt>
      <trkpt lat="45.32774" lon="5.91134">
        <ele>876</ele>
        <time>2021-02-24T15:37:44Z</time>
      </trkpt>
      <trkpt lat="45.32773" lon="5.91134">
        <ele>875.6</ele>
        <time>2021-02-24T15:37:43Z</time>
      </trkpt>
      <trkpt lat="45.32772" lon="5.91134">
        <ele>875</ele>
        <time>2021-02-24T15:37:42Z</time>
      </trkpt>
      <trkpt lat="45.32775" lon="5.91135">
        <ele>874.4</ele>
        <time>2021-02-24T15:37:41Z</time>
      </trkpt>
      <trkpt lat="45.32777" lon="5.91135">
        <ele>874.2</ele>
        <time>2021-02-24T15:37:40Z</time>
      </trkpt>
      <trkpt lat="45.32779" lon="5.91136">
        <ele>873.6</ele>
        <time>2021-02-24T15:37:39Z</time>
      </trkpt>
      <trkpt lat="45.32781" lon="5.91136">
        <ele>873</ele>
        <time>2021-02-24T15:37:38Z</time>
      </trkpt>
      <trkpt lat="45.32783" lon="5.91135">
        <ele>872.6</ele>
        <time>2021-02-24T15:37:37Z</time>
      </trkpt>
      <trkpt lat="45.32784" lon="5.91135">
        <ele>871.8</ele>
        <time>2021-02-24T15:37:36Z</time>
      </trkpt>
      <trkpt lat="45.32786" lon="5.91134">
        <ele>872.6</ele>
        <time>2021-02-24T15:37:35Z</time>
      </trkpt>
      <trkpt lat="45.32787" lon="5.91134">
        <ele>872.2</ele>
        <time>2021-02-24T15:37:34Z</time>
      </trkpt>
      <trkpt lat="45.32789" lon="5.91133">
        <ele>872.2</ele>
        <time>2021-02-24T15:37:33Z</time>
      </trkpt>
      <trkpt lat="45.3279" lon="5.91132">
        <ele>872.2</ele>
        <time>2021-02-24T15:37:32Z</time>
      </trkpt>
      <trkpt lat="45.3279" lon="5.91132">
        <ele>872.6</ele>
        <time>2021-02-24T15:37:31Z</time>
      </trkpt>
      <trkpt lat="45.3279" lon="5.91132">
        <ele>872.6</ele>
        <time>2021-02-24T15:37:30Z</time>
      </trkpt>
      <trkpt lat="45.32799" lon="5.91132">
        <ele>872.4</ele>
        <time>2021-02-24T15:37:29Z</time>
      </trkpt>
      <trkpt lat="45.328" lon="5.91131">
        <ele>872.2</ele>
        <time>2021-02-24T15:37:28Z</time>
      </trkpt>
      <trkpt lat="45.328" lon="5.91131">
        <ele>872</ele>
        <time>2021-02-24T15:37:27Z</time>
      </trkpt>
      <trkpt lat="45.32801" lon="5.9113">
        <ele>872.2</ele>
        <time>2021-02-24T15:37:26Z</time>
      </trkpt>
      <trkpt lat="45.32801" lon="5.91129">
        <ele>872.8</ele>
        <time>2021-02-24T15:37:25Z</time>
      </trkpt>
      <trkpt lat="45.32802" lon="5.91129">
        <ele>872.6</ele>
        <time>2021-02-24T15:37:24Z</time>
      </trkpt>
      <trkpt lat="45.32802" lon="5.91128">
        <ele>872.2</ele>
        <time>2021-02-24T15:37:23Z</time>
      </trkpt>
      <trkpt lat="45.32803" lon="5.91127">
        <ele>872.8</ele>
        <time>2021-02-24T15:37:22Z</time>
      </trkpt>
      <trkpt lat="45.32803" lon="5.91127">
        <ele>873.8</ele>
        <time>2021-02-24T15:37:21Z</time>
      </trkpt>
      <trkpt lat="45.32804" lon="5.91126">
        <ele>873.4</ele>
        <time>2021-02-24T15:37:20Z</time>
      </trkpt>
      <trkpt lat="45.32805" lon="5.91125">
        <ele>873</ele>
        <time>2021-02-24T15:37:19Z</time>
      </trkpt>
      <trkpt lat="45.32805" lon="5.91125">
        <ele>872.2</ele>
        <time>2021-02-24T15:37:18Z</time>
      </trkpt>
      <trkpt lat="45.32806" lon="5.91124">
        <ele>871.4</ele>
        <time>2021-02-24T15:37:17Z</time>
      </trkpt>
      <trkpt lat="45.32806" lon="5.91124">
        <ele>870.6</ele>
        <time>2021-02-24T15:37:16Z</time>
      </trkpt>
      <trkpt lat="45.32807" lon="5.91123">
        <ele>870.2</ele>
        <time>2021-02-24T15:37:15Z</time>
      </trkpt>
      <trkpt lat="45.32808" lon="5.91122">
        <ele>869.6</ele>
        <time>2021-02-24T15:37:14Z</time>
      </trkpt>
      <trkpt lat="45.32809" lon="5.91121">
        <ele>868.6</ele>
        <time>2021-02-24T15:37:13Z</time>
      </trkpt>
      <trkpt lat="45.3281" lon="5.9112">
        <ele>867</ele>
        <time>2021-02-24T15:37:12Z</time>
      </trkpt>
      <trkpt lat="45.32811" lon="5.91118">
        <ele>865.2</ele>
        <time>2021-02-24T15:37:11Z</time>
      </trkpt>
      <trkpt lat="45.32812" lon="5.91117">
        <ele>864.4</ele>
        <time>2021-02-24T15:37:10Z</time>
      </trkpt>
      <trkpt lat="45.32813" lon="5.91116">
        <ele>863.4</ele>
        <time>2021-02-24T15:37:09Z</time>
      </trkpt>
      <trkpt lat="45.32814" lon="5.91115">
        <ele>862.8</ele>
        <time>2021-02-24T15:37:08Z</time>
      </trkpt>
      <trkpt lat="45.32816" lon="5.91114">
        <ele>863</ele>
        <time>2021-02-24T15:37:07Z</time>
      </trkpt>
      <trkpt lat="45.32818" lon="5.91113">
        <ele>862.8</ele>
        <time>2021-02-24T15:37:06Z</time>
      </trkpt>
      <trkpt lat="45.3282" lon="5.91113">
        <ele>862.4</ele>
        <time>2021-02-24T15:37:05Z</time>
      </trkpt>
      <trkpt lat="45.32822" lon="5.91112">
        <ele>861.6</ele>
        <time>2021-02-24T15:37:04Z</time>
      </trkpt>
      <trkpt lat="45.32824" lon="5.91111">
        <ele>861</ele>
        <time>2021-02-24T15:37:03Z</time>
      </trkpt>
      <trkpt lat="45.32826" lon="5.9111">
        <ele>860.8</ele>
        <time>2021-02-24T15:37:02Z</time>
      </trkpt>
      <trkpt lat="45.32829" lon="5.91109">
        <ele>860.4</ele>
        <time>2021-02-24T15:37:01Z</time>
      </trkpt>
      <trkpt lat="45.32831" lon="5.91109">
        <ele>860.6</ele>
        <time>2021-02-24T15:37:00Z</time>
      </trkpt>
      <trkpt lat="45.32834" lon="5.91108">
        <ele>860.6</ele>
        <time>2021-02-24T15:36:59Z</time>
      </trkpt>
      <trkpt lat="45.32836" lon="5.91108">
        <ele>860.2</ele>
        <time>2021-02-24T15:36:58Z</time>
      </trkpt>
      <trkpt lat="45.32837" lon="5.91108">
        <ele>859.8</ele>
        <time>2021-02-24T15:36:57Z</time>
      </trkpt>
      <trkpt lat="45.32839" lon="5.91108">
        <ele>859.4</ele>
        <time>2021-02-24T15:36:56Z</time>
      </trkpt>
      <trkpt lat="45.3284" lon="5.91108">
        <ele>859</ele>
        <time>2021-02-24T15:36:55Z</time>
      </trkpt>
      <trkpt lat="45.32841" lon="5.91109">
        <ele>858.4</ele>
        <time>2021-02-24T15:36:54Z</time>
      </trkpt>
      <trkpt lat="45.32843" lon="5.91109">
        <ele>858</ele>
        <time>2021-02-24T15:36:53Z</time>
      </trkpt>
      <trkpt lat="45.32844" lon="5.91109">
        <ele>857.6</ele>
        <time>2021-02-24T15:36:52Z</time>
      </trkpt>
      <trkpt lat="45.32846" lon="5.9111">
        <ele>857.2</ele>
        <time>2021-02-24T15:36:51Z</time>
      </trkpt>
      <trkpt lat="45.32847" lon="5.9111">
        <ele>857</ele>
        <time>2021-02-24T15:36:50Z</time>
      </trkpt>
      <trkpt lat="45.32848" lon="5.91111">
        <ele>856.6</ele>
        <time>2021-02-24T15:36:49Z</time>
      </trkpt>
      <trkpt lat="45.32849" lon="5.91112">
        <ele>856.2</ele>
        <time>2021-02-24T15:36:48Z</time>
      </trkpt>
      <trkpt lat="45.3285" lon="5.91113">
        <ele>855.6</ele>
        <time>2021-02-24T15:36:47Z</time>
      </trkpt>
      <trkpt lat="45.32851" lon="5.91113">
        <ele>855.4</ele>
        <time>2021-02-24T15:36:46Z</time>
      </trkpt>
      <trkpt lat="45.32852" lon="5.91114">
        <ele>855.4</ele>
        <time>2021-02-24T15:36:45Z</time>
      </trkpt>
      <trkpt lat="45.32853" lon="5.91115">
        <ele>855.4</ele>
        <time>2021-02-24T15:36:44Z</time>
      </trkpt>
      <trkpt lat="45.32854" lon="5.91115">
        <ele>855.2</ele>
        <time>2021-02-24T15:36:43Z</time>
      </trkpt>
      <trkpt lat="45.32855" lon="5.91116">
        <ele>854.8</ele>
        <time>2021-02-24T15:36:42Z</time>
      </trkpt>
      <trkpt lat="45.32857" lon="5.91116">
        <ele>854.2</ele>
        <time>2021-02-24T15:36:41Z</time>
      </trkpt>
      <trkpt lat="45.32858" lon="5.91117">
        <ele>853.8</ele>
        <time>2021-02-24T15:36:40Z</time>
      </trkpt>
      <trkpt lat="45.32859" lon="5.91117">
        <ele>853.8</ele>
        <time>2021-02-24T15:36:39Z</time>
      </trkpt>
      <trkpt lat="45.32861" lon="5.91118">
        <ele>853.8</ele>
        <time>2021-02-24T15:36:38Z</time>
      </trkpt>
      <trkpt lat="45.32862" lon="5.91118">
        <ele>853.4</ele>
        <time>2021-02-24T15:36:37Z</time>
      </trkpt>
      <trkpt lat="45.32863" lon="5.91119">
        <ele>852.6</ele>
        <time>2021-02-24T15:36:36Z</time>
      </trkpt>
      <trkpt lat="45.32864" lon="5.91117">
        <ele>852.6</ele>
        <time>2021-02-24T15:36:35Z</time>
      </trkpt>
      <trkpt lat="45.32866" lon="5.91116">
        <ele>852.4</ele>
        <time>2021-02-24T15:36:34Z</time>
      </trkpt>
      <trkpt lat="45.32867" lon="5.91114">
        <ele>852</ele>
        <time>2021-02-24T15:36:33Z</time>
      </trkpt>
      <trkpt lat="45.32868" lon="5.91113">
        <ele>851.6</ele>
        <time>2021-02-24T15:36:32Z</time>
      </trkpt>
      <trkpt lat="45.3287" lon="5.91111">
        <ele>851.6</ele>
        <time>2021-02-24T15:36:31Z</time>
      </trkpt>
      <trkpt lat="45.32871" lon="5.9111">
        <ele>851.4</ele>
        <time>2021-02-24T15:36:30Z</time>
      </trkpt>
      <trkpt lat="45.32872" lon="5.91109">
        <ele>851.4</ele>
        <time>2021-02-24T15:36:29Z</time>
      </trkpt>
      <trkpt lat="45.32872" lon="5.91109">
        <ele>850.8</ele>
        <time>2021-02-24T15:36:28Z</time>
      </trkpt>
      <trkpt lat="45.32873" lon="5.91109">
        <ele>850.8</ele>
        <time>2021-02-24T15:36:27Z</time>
      </trkpt>
      <trkpt lat="45.32874" lon="5.91109">
        <ele>850.6</ele>
        <time>2021-02-24T15:36:26Z</time>
      </trkpt>
      <trkpt lat="45.32874" lon="5.91108">
        <ele>849.8</ele>
        <time>2021-02-24T15:36:25Z</time>
      </trkpt>
      <trkpt lat="45.32875" lon="5.91108">
        <ele>849.4</ele>
        <time>2021-02-24T15:36:24Z</time>
      </trkpt>
      <trkpt lat="45.32876" lon="5.91108">
        <ele>849.2</ele>
        <time>2021-02-24T15:36:23Z</time>
      </trkpt>
      <trkpt lat="45.32876" lon="5.91108">
        <ele>848.8</ele>
        <time>2021-02-24T15:36:22Z</time>
      </trkpt>
      <trkpt lat="45.32877" lon="5.91107">
        <ele>848.2</ele>
        <time>2021-02-24T15:36:21Z</time>
      </trkpt>
      <trkpt lat="45.32878" lon="5.91107">
        <ele>847.8</ele>
        <time>2021-02-24T15:36:20Z</time>
      </trkpt>
      <trkpt lat="45.32879" lon="5.91107">
        <ele>847.4</ele>
        <time>2021-02-24T15:36:19Z</time>
      </trkpt>
      <trkpt lat="45.32879" lon="5.91107">
        <ele>847</ele>
        <time>2021-02-24T15:36:18Z</time>
      </trkpt>
      <trkpt lat="45.3288" lon="5.91106">
        <ele>846.8</ele>
        <time>2021-02-24T15:36:17Z</time>
      </trkpt>
      <trkpt lat="45.32881" lon="5.91105">
        <ele>846.8</ele>
        <time>2021-02-24T15:36:16Z</time>
      </trkpt>
      <trkpt lat="45.32882" lon="5.91104">
        <ele>846.6</ele>
        <time>2021-02-24T15:36:15Z</time>
      </trkpt>
      <trkpt lat="45.32884" lon="5.91103">
        <ele>846.8</ele>
        <time>2021-02-24T15:36:14Z</time>
      </trkpt>
      <trkpt lat="45.32885" lon="5.91102">
        <ele>846.8</ele>
        <time>2021-02-24T15:36:13Z</time>
      </trkpt>
      <trkpt lat="45.32886" lon="5.911">
        <ele>847</ele>
        <time>2021-02-24T15:36:12Z</time>
      </trkpt>
      <trkpt lat="45.32888" lon="5.91099">
        <ele>846.8</ele>
        <time>2021-02-24T15:36:11Z</time>
      </trkpt>
      <trkpt lat="45.32888" lon="5.91098">
        <ele>846.4</ele>
        <time>2021-02-24T15:36:10Z</time>
      </trkpt>
      <trkpt lat="45.32889" lon="5.91097">
        <ele>846.4</ele>
        <time>2021-02-24T15:36:09Z</time>
      </trkpt>
      <trkpt lat="45.3289" lon="5.91096">
        <ele>846.2</ele>
        <time>2021-02-24T15:36:08Z</time>
      </trkpt>
      <trkpt lat="45.3289" lon="5.91095">
        <ele>846.2</ele>
        <time>2021-02-24T15:36:07Z</time>
      </trkpt>
      <trkpt lat="45.32891" lon="5.91094">
        <ele>846</ele>
        <time>2021-02-24T15:36:06Z</time>
      </trkpt>
      <trkpt lat="45.32892" lon="5.91093">
        <ele>845.8</ele>
        <time>2021-02-24T15:36:05Z</time>
      </trkpt>
      <trkpt lat="45.32893" lon="5.91091">
        <ele>845.6</ele>
        <time>2021-02-24T15:36:04Z</time>
      </trkpt>
      <trkpt lat="45.32893" lon="5.9109">
        <ele>844.2</ele>
        <time>2021-02-24T15:36:03Z</time>
      </trkpt>
      <trkpt lat="45.32894" lon="5.91089">
        <ele>844.4</ele>
        <time>2021-02-24T15:36:02Z</time>
      </trkpt>
      <trkpt lat="45.32895" lon="5.91087">
        <ele>842.6</ele>
        <time>2021-02-24T15:36:01Z</time>
      </trkpt>
      <trkpt lat="45.32897" lon="5.91086">
        <ele>841</ele>
        <time>2021-02-24T15:36:00Z</time>
      </trkpt>
      <trkpt lat="45.32898" lon="5.91084">
        <ele>841.4</ele>
        <time>2021-02-24T15:35:59Z</time>
      </trkpt>
      <trkpt lat="45.32899" lon="5.91082">
        <ele>841.2</ele>
        <time>2021-02-24T15:35:58Z</time>
      </trkpt>
      <trkpt lat="45.329" lon="5.9108">
        <ele>840.4</ele>
        <time>2021-02-24T15:35:57Z</time>
      </trkpt>
      <trkpt lat="45.32901" lon="5.91078">
        <ele>839</ele>
        <time>2021-02-24T15:35:56Z</time>
      </trkpt>
      <trkpt lat="45.32901" lon="5.91077">
        <ele>838.4</ele>
        <time>2021-02-24T15:35:55Z</time>
      </trkpt>
      <trkpt lat="45.32901" lon="5.91075">
        <ele>838</ele>
        <time>2021-02-24T15:35:54Z</time>
      </trkpt>
      <trkpt lat="45.32902" lon="5.91073">
        <ele>837.8</ele>
        <time>2021-02-24T15:35:53Z</time>
      </trkpt>
      <trkpt lat="45.32902" lon="5.91071">
        <ele>837.8</ele>
        <time>2021-02-24T15:35:52Z</time>
      </trkpt>
      <trkpt lat="45.32902" lon="5.9107">
        <ele>837.8</ele>
        <time>2021-02-24T15:35:51Z</time>
      </trkpt>
      <trkpt lat="45.32903" lon="5.91068">
        <ele>838.2</ele>
        <time>2021-02-24T15:35:50Z</time>
      </trkpt>
      <trkpt lat="45.32903" lon="5.91066">
        <ele>837.8</ele>
        <time>2021-02-24T15:35:49Z</time>
      </trkpt>
      <trkpt lat="45.32903" lon="5.91064">
        <ele>837.8</ele>
        <time>2021-02-24T15:35:48Z</time>
      </trkpt>
      <trkpt lat="45.32904" lon="5.91063">
        <ele>838</ele>
        <time>2021-02-24T15:35:47Z</time>
      </trkpt>
      <trkpt lat="45.32905" lon="5.91062">
        <ele>838</ele>
        <time>2021-02-24T15:35:46Z</time>
      </trkpt>
      <trkpt lat="45.32905" lon="5.9106">
        <ele>837.8</ele>
        <time>2021-02-24T15:35:45Z</time>
      </trkpt>
      <trkpt lat="45.32906" lon="5.91059">
        <ele>837</ele>
        <time>2021-02-24T15:35:44Z</time>
      </trkpt>
      <trkpt lat="45.32907" lon="5.91057">
        <ele>837.2</ele>
        <time>2021-02-24T15:35:43Z</time>
      </trkpt>
      <trkpt lat="45.32907" lon="5.91056">
        <ele>836.6</ele>
        <time>2021-02-24T15:35:42Z</time>
      </trkpt>
      <trkpt lat="45.32908" lon="5.91055">
        <ele>836</ele>
        <time>2021-02-24T15:35:41Z</time>
      </trkpt>
      <trkpt lat="45.32909" lon="5.91053">
        <ele>835.6</ele>
        <time>2021-02-24T15:35:40Z</time>
      </trkpt>
      <trkpt lat="45.32909" lon="5.91052">
        <ele>835.2</ele>
        <time>2021-02-24T15:35:39Z</time>
      </trkpt>
      <trkpt lat="45.3291" lon="5.91052">
        <ele>835.4</ele>
        <time>2021-02-24T15:35:38Z</time>
      </trkpt>
      <trkpt lat="45.32911" lon="5.91052">
        <ele>836</ele>
        <time>2021-02-24T15:35:37Z</time>
      </trkpt>
      <trkpt lat="45.32912" lon="5.91052">
        <ele>835.8</ele>
        <time>2021-02-24T15:35:36Z</time>
      </trkpt>
      <trkpt lat="45.32913" lon="5.91052">
        <ele>835</ele>
        <time>2021-02-24T15:35:35Z</time>
      </trkpt>
      <trkpt lat="45.32914" lon="5.91052">
        <ele>834.8</ele>
        <time>2021-02-24T15:35:34Z</time>
      </trkpt>
      <trkpt lat="45.32915" lon="5.91052">
        <ele>834</ele>
        <time>2021-02-24T15:35:33Z</time>
      </trkpt>
      <trkpt lat="45.32916" lon="5.91052">
        <ele>833.4</ele>
        <time>2021-02-24T15:35:32Z</time>
      </trkpt>
      <trkpt lat="45.32917" lon="5.91052">
        <ele>832.4</ele>
        <time>2021-02-24T15:35:31Z</time>
      </trkpt>
      <trkpt lat="45.32917" lon="5.91052">
        <ele>831.8</ele>
        <time>2021-02-24T15:35:30Z</time>
      </trkpt>
      <trkpt lat="45.32918" lon="5.91051">
        <ele>832</ele>
        <time>2021-02-24T15:35:29Z</time>
      </trkpt>
      <trkpt lat="45.32919" lon="5.9105">
        <ele>832</ele>
        <time>2021-02-24T15:35:28Z</time>
      </trkpt>
      <trkpt lat="45.3292" lon="5.91049">
        <ele>831.8</ele>
        <time>2021-02-24T15:35:27Z</time>
      </trkpt>
      <trkpt lat="45.3292" lon="5.91047">
        <ele>832.4</ele>
        <time>2021-02-24T15:35:26Z</time>
      </trkpt>
      <trkpt lat="45.32921" lon="5.91046">
        <ele>832.8</ele>
        <time>2021-02-24T15:35:25Z</time>
      </trkpt>
      <trkpt lat="45.32921" lon="5.91044">
        <ele>831.8</ele>
        <time>2021-02-24T15:35:24Z</time>
      </trkpt>
      <trkpt lat="45.32922" lon="5.91043">
        <ele>831.4</ele>
        <time>2021-02-24T15:35:23Z</time>
      </trkpt>
      <trkpt lat="45.32922" lon="5.91042">
        <ele>831</ele>
        <time>2021-02-24T15:35:22Z</time>
      </trkpt>
      <trkpt lat="45.32923" lon="5.9104">
        <ele>830.6</ele>
        <time>2021-02-24T15:35:21Z</time>
      </trkpt>
      <trkpt lat="45.32923" lon="5.91039">
        <ele>830</ele>
        <time>2021-02-24T15:35:20Z</time>
      </trkpt>
      <trkpt lat="45.32924" lon="5.91038">
        <ele>829.6</ele>
        <time>2021-02-24T15:35:19Z</time>
      </trkpt>
      <trkpt lat="45.32924" lon="5.91037">
        <ele>829.4</ele>
        <time>2021-02-24T15:35:18Z</time>
      </trkpt>
      <trkpt lat="45.32924" lon="5.91036">
        <ele>829.2</ele>
        <time>2021-02-24T15:35:17Z</time>
      </trkpt>
      <trkpt lat="45.32925" lon="5.91035">
        <ele>828.8</ele>
        <time>2021-02-24T15:35:16Z</time>
      </trkpt>
      <trkpt lat="45.32925" lon="5.91034">
        <ele>828.4</ele>
        <time>2021-02-24T15:35:15Z</time>
      </trkpt>
      <trkpt lat="45.32925" lon="5.91033">
        <ele>828</ele>
        <time>2021-02-24T15:35:14Z</time>
      </trkpt>
      <trkpt lat="45.32926" lon="5.91032">
        <ele>827.8</ele>
        <time>2021-02-24T15:35:13Z</time>
      </trkpt>
      <trkpt lat="45.32926" lon="5.91031">
        <ele>827.4</ele>
        <time>2021-02-24T15:35:12Z</time>
      </trkpt>
      <trkpt lat="45.32926" lon="5.91031">
        <ele>827.2</ele>
        <time>2021-02-24T15:35:11Z</time>
      </trkpt>
      <trkpt lat="45.32927" lon="5.9103">
        <ele>827</ele>
        <time>2021-02-24T15:35:10Z</time>
      </trkpt>
      <trkpt lat="45.32927" lon="5.91029">
        <ele>827</ele>
        <time>2021-02-24T15:35:09Z</time>
      </trkpt>
      <trkpt lat="45.32927" lon="5.91027">
        <ele>826.6</ele>
        <time>2021-02-24T15:35:08Z</time>
      </trkpt>
      <trkpt lat="45.32928" lon="5.91026">
        <ele>826.2</ele>
        <time>2021-02-24T15:35:07Z</time>
      </trkpt>
      <trkpt lat="45.32928" lon="5.91025">
        <ele>826</ele>
        <time>2021-02-24T15:35:06Z</time>
      </trkpt>
      <trkpt lat="45.32928" lon="5.91023">
        <ele>825.6</ele>
        <time>2021-02-24T15:35:05Z</time>
      </trkpt>
      <trkpt lat="45.32929" lon="5.91022">
        <ele>825.2</ele>
        <time>2021-02-24T15:35:04Z</time>
      </trkpt>
      <trkpt lat="45.32929" lon="5.91021">
        <ele>824.6</ele>
        <time>2021-02-24T15:35:03Z</time>
      </trkpt>
      <trkpt lat="45.32929" lon="5.9102">
        <ele>824.6</ele>
        <time>2021-02-24T15:35:02Z</time>
      </trkpt>
      <trkpt lat="45.32929" lon="5.91018">
        <ele>824.2</ele>
        <time>2021-02-24T15:35:01Z</time>
      </trkpt>
      <trkpt lat="45.3293" lon="5.91017">
        <ele>823.8</ele>
        <time>2021-02-24T15:35:00Z</time>
      </trkpt>
      <trkpt lat="45.3293" lon="5.91016">
        <ele>823.2</ele>
        <time>2021-02-24T15:34:59Z</time>
      </trkpt>
      <trkpt lat="45.3293" lon="5.91015">
        <ele>823</ele>
        <time>2021-02-24T15:34:58Z</time>
      </trkpt>
      <trkpt lat="45.32932" lon="5.91014">
        <ele>823.2</ele>
        <time>2021-02-24T15:34:57Z</time>
      </trkpt>
      <trkpt lat="45.32934" lon="5.91013">
        <ele>822.6</ele>
        <time>2021-02-24T15:34:56Z</time>
      </trkpt>
      <trkpt lat="45.32936" lon="5.91013">
        <ele>822</ele>
        <time>2021-02-24T15:34:55Z</time>
      </trkpt>
      <trkpt lat="45.32938" lon="5.91012">
        <ele>821.6</ele>
        <time>2021-02-24T15:34:54Z</time>
      </trkpt>
      <trkpt lat="45.3294" lon="5.91011">
        <ele>821</ele>
        <time>2021-02-24T15:34:53Z</time>
      </trkpt>
      <trkpt lat="45.3294" lon="5.91012">
        <ele>820.6</ele>
        <time>2021-02-24T15:34:52Z</time>
      </trkpt>
      <trkpt lat="45.32941" lon="5.91013">
        <ele>820.4</ele>
        <time>2021-02-24T15:34:51Z</time>
      </trkpt>
      <trkpt lat="45.32942" lon="5.91014">
        <ele>820</ele>
        <time>2021-02-24T15:34:50Z</time>
      </trkpt>
      <trkpt lat="45.32942" lon="5.91014">
        <ele>819.6</ele>
        <time>2021-02-24T15:34:49Z</time>
      </trkpt>
      <trkpt lat="45.32943" lon="5.91015">
        <ele>819.4</ele>
        <time>2021-02-24T15:34:48Z</time>
      </trkpt>
      <trkpt lat="45.32943" lon="5.91016">
        <ele>819</ele>
        <time>2021-02-24T15:34:47Z</time>
      </trkpt>
      <trkpt lat="45.32944" lon="5.91017">
        <ele>818</ele>
        <time>2021-02-24T15:34:46Z</time>
      </trkpt>
      <trkpt lat="45.32944" lon="5.91017">
        <ele>817.2</ele>
        <time>2021-02-24T15:34:45Z</time>
      </trkpt>
      <trkpt lat="45.32945" lon="5.91018">
        <ele>816.8</ele>
        <time>2021-02-24T15:34:44Z</time>
      </trkpt>
      <trkpt lat="45.32945" lon="5.91019">
        <ele>816.8</ele>
        <time>2021-02-24T15:34:43Z</time>
      </trkpt>
      <trkpt lat="45.32946" lon="5.9102">
        <ele>816.6</ele>
        <time>2021-02-24T15:34:42Z</time>
      </trkpt>
      <trkpt lat="45.32947" lon="5.91021">
        <ele>816.4</ele>
        <time>2021-02-24T15:34:41Z</time>
      </trkpt>
      <trkpt lat="45.32947" lon="5.91021">
        <ele>816.2</ele>
        <time>2021-02-24T15:34:40Z</time>
      </trkpt>
      <trkpt lat="45.32948" lon="5.91022">
        <ele>816.2</ele>
        <time>2021-02-24T15:34:39Z</time>
      </trkpt>
      <trkpt lat="45.32948" lon="5.91021">
        <ele>815.8</ele>
        <time>2021-02-24T15:34:38Z</time>
      </trkpt>
      <trkpt lat="45.32948" lon="5.91019">
        <ele>815.8</ele>
        <time>2021-02-24T15:34:37Z</time>
      </trkpt>
      <trkpt lat="45.32949" lon="5.91017">
        <ele>815.4</ele>
        <time>2021-02-24T15:34:36Z</time>
      </trkpt>
      <trkpt lat="45.32949" lon="5.91016">
        <ele>814.6</ele>
        <time>2021-02-24T15:34:35Z</time>
      </trkpt>
      <trkpt lat="45.3295" lon="5.91014">
        <ele>814.6</ele>
        <time>2021-02-24T15:34:34Z</time>
      </trkpt>
      <trkpt lat="45.3295" lon="5.91013">
        <ele>814.8</ele>
        <time>2021-02-24T15:34:33Z</time>
      </trkpt>
      <trkpt lat="45.32951" lon="5.91011">
        <ele>813.8</ele>
        <time>2021-02-24T15:34:32Z</time>
      </trkpt>
      <trkpt lat="45.32951" lon="5.9101">
        <ele>813.4</ele>
        <time>2021-02-24T15:34:31Z</time>
      </trkpt>
      <trkpt lat="45.32953" lon="5.91011">
        <ele>813.4</ele>
        <time>2021-02-24T15:34:30Z</time>
      </trkpt>
      <trkpt lat="45.32954" lon="5.91011">
        <ele>813</ele>
        <time>2021-02-24T15:34:29Z</time>
      </trkpt>
      <trkpt lat="45.32956" lon="5.91012">
        <ele>812.6</ele>
        <time>2021-02-24T15:34:28Z</time>
      </trkpt>
      <trkpt lat="45.32958" lon="5.91013">
        <ele>812.2</ele>
        <time>2021-02-24T15:34:27Z</time>
      </trkpt>
      <trkpt lat="45.3296" lon="5.91014">
        <ele>811.8</ele>
        <time>2021-02-24T15:34:26Z</time>
      </trkpt>
      <trkpt lat="45.3296" lon="5.91015">
        <ele>811.6</ele>
        <time>2021-02-24T15:34:25Z</time>
      </trkpt>
      <trkpt lat="45.32961" lon="5.91017">
        <ele>811.2</ele>
        <time>2021-02-24T15:34:24Z</time>
      </trkpt>
      <trkpt lat="45.32961" lon="5.91019">
        <ele>810.8</ele>
        <time>2021-02-24T15:34:23Z</time>
      </trkpt>
      <trkpt lat="45.32961" lon="5.91021">
        <ele>810.6</ele>
        <time>2021-02-24T15:34:22Z</time>
      </trkpt>
      <trkpt lat="45.32962" lon="5.91022">
        <ele>810.4</ele>
        <time>2021-02-24T15:34:21Z</time>
      </trkpt>
      <trkpt lat="45.32962" lon="5.91024">
        <ele>810.2</ele>
        <time>2021-02-24T15:34:20Z</time>
      </trkpt>
      <trkpt lat="45.32963" lon="5.91026">
        <ele>809.8</ele>
        <time>2021-02-24T15:34:19Z</time>
      </trkpt>
      <trkpt lat="45.32965" lon="5.91027">
        <ele>809.4</ele>
        <time>2021-02-24T15:34:18Z</time>
      </trkpt>
      <trkpt lat="45.32966" lon="5.91029">
        <ele>809</ele>
        <time>2021-02-24T15:34:17Z</time>
      </trkpt>
      <trkpt lat="45.32968" lon="5.91031">
        <ele>808.8</ele>
        <time>2021-02-24T15:34:16Z</time>
      </trkpt>
      <trkpt lat="45.32969" lon="5.91033">
        <ele>808.8</ele>
        <time>2021-02-24T15:34:15Z</time>
      </trkpt>
      <trkpt lat="45.32971" lon="5.91035">
        <ele>808.4</ele>
        <time>2021-02-24T15:34:14Z</time>
      </trkpt>
      <trkpt lat="45.32972" lon="5.91036">
        <ele>808</ele>
        <time>2021-02-24T15:34:13Z</time>
      </trkpt>
      <trkpt lat="45.32974" lon="5.91038">
        <ele>807.8</ele>
        <time>2021-02-24T15:34:12Z</time>
      </trkpt>
      <trkpt lat="45.32975" lon="5.9104">
        <ele>807.2</ele>
        <time>2021-02-24T15:34:11Z</time>
      </trkpt>
      <trkpt lat="45.32977" lon="5.91042">
        <ele>807.2</ele>
        <time>2021-02-24T15:34:10Z</time>
      </trkpt>
      <trkpt lat="45.32978" lon="5.91044">
        <ele>807</ele>
        <time>2021-02-24T15:34:09Z</time>
      </trkpt>
      <trkpt lat="45.32979" lon="5.91045">
        <ele>806.6</ele>
        <time>2021-02-24T15:34:08Z</time>
      </trkpt>
      <trkpt lat="45.32979" lon="5.91046">
        <ele>806.4</ele>
        <time>2021-02-24T15:34:07Z</time>
      </trkpt>
      <trkpt lat="45.32979" lon="5.91046">
        <ele>806</ele>
        <time>2021-02-24T15:34:06Z</time>
      </trkpt>
      <trkpt lat="45.3298" lon="5.91047">
        <ele>805.6</ele>
        <time>2021-02-24T15:34:05Z</time>
      </trkpt>
      <trkpt lat="45.3298" lon="5.91048">
        <ele>805.4</ele>
        <time>2021-02-24T15:34:04Z</time>
      </trkpt>
      <trkpt lat="45.32981" lon="5.91049">
        <ele>805.2</ele>
        <time>2021-02-24T15:34:03Z</time>
      </trkpt>
      <trkpt lat="45.32981" lon="5.9105">
        <ele>804.8</ele>
        <time>2021-02-24T15:34:02Z</time>
      </trkpt>
      <trkpt lat="45.32981" lon="5.91051">
        <ele>804.6</ele>
        <time>2021-02-24T15:34:01Z</time>
      </trkpt>
      <trkpt lat="45.32982" lon="5.91052">
        <ele>804.2</ele>
        <time>2021-02-24T15:34:00Z</time>
      </trkpt>
      <trkpt lat="45.32982" lon="5.91053">
        <ele>804</ele>
        <time>2021-02-24T15:33:59Z</time>
      </trkpt>
      <trkpt lat="45.32982" lon="5.91054">
        <ele>803.8</ele>
        <time>2021-02-24T15:33:58Z</time>
      </trkpt>
      <trkpt lat="45.32983" lon="5.91055">
        <ele>803.4</ele>
        <time>2021-02-24T15:33:57Z</time>
      </trkpt>
      <trkpt lat="45.32983" lon="5.91056">
        <ele>803</ele>
        <time>2021-02-24T15:33:56Z</time>
      </trkpt>
      <trkpt lat="45.32984" lon="5.91056">
        <ele>802.6</ele>
        <time>2021-02-24T15:33:55Z</time>
      </trkpt>
      <trkpt lat="45.32984" lon="5.91057">
        <ele>802.4</ele>
        <time>2021-02-24T15:33:54Z</time>
      </trkpt>
      <trkpt lat="45.32985" lon="5.91058">
        <ele>802</ele>
        <time>2021-02-24T15:33:53Z</time>
      </trkpt>
      <trkpt lat="45.32986" lon="5.91059">
        <ele>801.6</ele>
        <time>2021-02-24T15:33:52Z</time>
      </trkpt>
      <trkpt lat="45.32987" lon="5.91059">
        <ele>801</ele>
        <time>2021-02-24T15:33:51Z</time>
      </trkpt>
      <trkpt lat="45.32988" lon="5.9106">
        <ele>800.8</ele>
        <time>2021-02-24T15:33:50Z</time>
      </trkpt>
      <trkpt lat="45.32988" lon="5.91061">
        <ele>800.4</ele>
        <time>2021-02-24T15:33:49Z</time>
      </trkpt>
      <trkpt lat="45.32989" lon="5.91061">
        <ele>800.2</ele>
        <time>2021-02-24T15:33:48Z</time>
      </trkpt>
      <trkpt lat="45.3299" lon="5.91062">
        <ele>799.8</ele>
        <time>2021-02-24T15:33:47Z</time>
      </trkpt>
      <trkpt lat="45.32991" lon="5.91063">
        <ele>799.4</ele>
        <time>2021-02-24T15:33:46Z</time>
      </trkpt>
      <trkpt lat="45.32992" lon="5.91065">
        <ele>799.2</ele>
        <time>2021-02-24T15:33:45Z</time>
      </trkpt>
      <trkpt lat="45.32993" lon="5.91067">
        <ele>799</ele>
        <time>2021-02-24T15:33:44Z</time>
      </trkpt>
      <trkpt lat="45.32994" lon="5.91069">
        <ele>798.6</ele>
        <time>2021-02-24T15:33:43Z</time>
      </trkpt>
      <trkpt lat="45.32995" lon="5.91071">
        <ele>798.4</ele>
        <time>2021-02-24T15:33:42Z</time>
      </trkpt>
      <trkpt lat="45.32996" lon="5.91073">
        <ele>798.4</ele>
        <time>2021-02-24T15:33:41Z</time>
      </trkpt>
      <trkpt lat="45.32997" lon="5.91075">
        <ele>798.2</ele>
        <time>2021-02-24T15:33:40Z</time>
      </trkpt>
      <trkpt lat="45.32996" lon="5.91078">
        <ele>797</ele>
        <time>2021-02-24T15:33:39Z</time>
      </trkpt>
      <trkpt lat="45.32995" lon="5.9108">
        <ele>796.6</ele>
        <time>2021-02-24T15:33:38Z</time>
      </trkpt>
      <trkpt lat="45.32995" lon="5.91082">
        <ele>796.6</ele>
        <time>2021-02-24T15:33:37Z</time>
      </trkpt>
      <trkpt lat="45.32994" lon="5.91084">
        <ele>796</ele>
        <time>2021-02-24T15:33:36Z</time>
      </trkpt>
      <trkpt lat="45.32994" lon="5.91086">
        <ele>795.6</ele>
        <time>2021-02-24T15:33:35Z</time>
      </trkpt>
      <trkpt lat="45.32993" lon="5.91088">
        <ele>795.6</ele>
        <time>2021-02-24T15:33:34Z</time>
      </trkpt>
      <trkpt lat="45.32993" lon="5.91091">
        <ele>795.2</ele>
        <time>2021-02-24T15:33:33Z</time>
      </trkpt>
      <trkpt lat="45.32993" lon="5.91093">
        <ele>795</ele>
        <time>2021-02-24T15:33:32Z</time>
      </trkpt>
      <trkpt lat="45.32993" lon="5.91096">
        <ele>794.8</ele>
        <time>2021-02-24T15:33:31Z</time>
      </trkpt>
      <trkpt lat="45.32993" lon="5.91098">
        <ele>794.6</ele>
        <time>2021-02-24T15:33:30Z</time>
      </trkpt>
      <trkpt lat="45.32993" lon="5.911">
        <ele>794.2</ele>
        <time>2021-02-24T15:33:29Z</time>
      </trkpt>
      <trkpt lat="45.32993" lon="5.91103">
        <ele>793.8</ele>
        <time>2021-02-24T15:33:28Z</time>
      </trkpt>
      <trkpt lat="45.32993" lon="5.91105">
        <ele>793.4</ele>
        <time>2021-02-24T15:33:27Z</time>
      </trkpt>
      <trkpt lat="45.32993" lon="5.91107">
        <ele>793</ele>
        <time>2021-02-24T15:33:26Z</time>
      </trkpt>
      <trkpt lat="45.32994" lon="5.91109">
        <ele>792.6</ele>
        <time>2021-02-24T15:33:25Z</time>
      </trkpt>
      <trkpt lat="45.32994" lon="5.91112">
        <ele>792.2</ele>
        <time>2021-02-24T15:33:24Z</time>
      </trkpt>
      <trkpt lat="45.32994" lon="5.91114">
        <ele>792</ele>
        <time>2021-02-24T15:33:23Z</time>
      </trkpt>
      <trkpt lat="45.32994" lon="5.91116">
        <ele>791.8</ele>
        <time>2021-02-24T15:33:22Z</time>
      </trkpt>
      <trkpt lat="45.32994" lon="5.91118">
        <ele>791.6</ele>
        <time>2021-02-24T15:33:21Z</time>
      </trkpt>
      <trkpt lat="45.32994" lon="5.9112">
        <ele>791.2</ele>
        <time>2021-02-24T15:33:20Z</time>
      </trkpt>
      <trkpt lat="45.32995" lon="5.91122">
        <ele>790.8</ele>
        <time>2021-02-24T15:33:19Z</time>
      </trkpt>
      <trkpt lat="45.32995" lon="5.91124">
        <ele>790.4</ele>
        <time>2021-02-24T15:33:18Z</time>
      </trkpt>
      <trkpt lat="45.32995" lon="5.91126">
        <ele>790.2</ele>
        <time>2021-02-24T15:33:17Z</time>
      </trkpt>
      <trkpt lat="45.32995" lon="5.91128">
        <ele>789.8</ele>
        <time>2021-02-24T15:33:16Z</time>
      </trkpt>
      <trkpt lat="45.32995" lon="5.9113">
        <ele>789.6</ele>
        <time>2021-02-24T15:33:15Z</time>
      </trkpt>
      <trkpt lat="45.32995" lon="5.91132">
        <ele>789.4</ele>
        <time>2021-02-24T15:33:14Z</time>
      </trkpt>
      <trkpt lat="45.32996" lon="5.91133">
        <ele>789.2</ele>
        <time>2021-02-24T15:33:13Z</time>
      </trkpt>
      <trkpt lat="45.32996" lon="5.91134">
        <ele>789</ele>
        <time>2021-02-24T15:33:12Z</time>
      </trkpt>
      <trkpt lat="45.32996" lon="5.91136">
        <ele>788.6</ele>
        <time>2021-02-24T15:33:11Z</time>
      </trkpt>
      <trkpt lat="45.32996" lon="5.91137">
        <ele>788.4</ele>
        <time>2021-02-24T15:33:10Z</time>
      </trkpt>
      <trkpt lat="45.32996" lon="5.91138">
        <ele>787.8</ele>
        <time>2021-02-24T15:33:09Z</time>
      </trkpt>
      <trkpt lat="45.32996" lon="5.9114">
        <ele>787.6</ele>
        <time>2021-02-24T15:33:08Z</time>
      </trkpt>
      <trkpt lat="45.32997" lon="5.91141">
        <ele>787.2</ele>
        <time>2021-02-24T15:33:07Z</time>
      </trkpt>
      <trkpt lat="45.32997" lon="5.91142">
        <ele>786.8</ele>
        <time>2021-02-24T15:33:06Z</time>
      </trkpt>
      <trkpt lat="45.32997" lon="5.91144">
        <ele>786.6</ele>
        <time>2021-02-24T15:33:05Z</time>
      </trkpt>
      <trkpt lat="45.32997" lon="5.91146">
        <ele>786</ele>
        <time>2021-02-24T15:33:04Z</time>
      </trkpt>
      <trkpt lat="45.32998" lon="5.91148">
        <ele>786</ele>
        <time>2021-02-24T15:33:03Z</time>
      </trkpt>
      <trkpt lat="45.32998" lon="5.9115">
        <ele>786</ele>
        <time>2021-02-24T15:33:02Z</time>
      </trkpt>
      <trkpt lat="45.32999" lon="5.91152">
        <ele>785.6</ele>
        <time>2021-02-24T15:33:01Z</time>
      </trkpt>
      <trkpt lat="45.32999" lon="5.91154">
        <ele>785.6</ele>
        <time>2021-02-24T15:33:00Z</time>
      </trkpt>
      <trkpt lat="45.32999" lon="5.91156">
        <ele>785.6</ele>
        <time>2021-02-24T15:32:59Z</time>
      </trkpt>
      <trkpt lat="45.32999" lon="5.91158">
        <ele>785.4</ele>
        <time>2021-02-24T15:32:58Z</time>
      </trkpt>
      <trkpt lat="45.32999" lon="5.91161">
        <ele>785</ele>
        <time>2021-02-24T15:32:57Z</time>
      </trkpt>
      <trkpt lat="45.32999" lon="5.91163">
        <ele>784.8</ele>
        <time>2021-02-24T15:32:56Z</time>
      </trkpt>
      <trkpt lat="45.32998" lon="5.91165">
        <ele>784.6</ele>
        <time>2021-02-24T15:32:55Z</time>
      </trkpt>
      <trkpt lat="45.32998" lon="5.91168">
        <ele>784.2</ele>
        <time>2021-02-24T15:32:54Z</time>
      </trkpt>
      <trkpt lat="45.32998" lon="5.9117">
        <ele>784</ele>
        <time>2021-02-24T15:32:53Z</time>
      </trkpt>
      <trkpt lat="45.32999" lon="5.91172">
        <ele>783.6</ele>
        <time>2021-02-24T15:32:52Z</time>
      </trkpt>
      <trkpt lat="45.33" lon="5.91173">
        <ele>783.4</ele>
        <time>2021-02-24T15:32:51Z</time>
      </trkpt>
      <trkpt lat="45.33001" lon="5.91175">
        <ele>783</ele>
        <time>2021-02-24T15:32:50Z</time>
      </trkpt>
      <trkpt lat="45.33002" lon="5.91176">
        <ele>782.6</ele>
        <time>2021-02-24T15:32:49Z</time>
      </trkpt>
      <trkpt lat="45.33004" lon="5.91177">
        <ele>782.2</ele>
        <time>2021-02-24T15:32:48Z</time>
      </trkpt>
      <trkpt lat="45.33005" lon="5.91179">
        <ele>781.8</ele>
        <time>2021-02-24T15:32:47Z</time>
      </trkpt>
      <trkpt lat="45.33006" lon="5.9118">
        <ele>781.4</ele>
        <time>2021-02-24T15:32:46Z</time>
      </trkpt>
      <trkpt lat="45.33007" lon="5.91182">
        <ele>781.2</ele>
        <time>2021-02-24T15:32:45Z</time>
      </trkpt>
      <trkpt lat="45.33009" lon="5.91183">
        <ele>780.8</ele>
        <time>2021-02-24T15:32:44Z</time>
      </trkpt>
      <trkpt lat="45.3301" lon="5.91185">
        <ele>780.2</ele>
        <time>2021-02-24T15:32:43Z</time>
      </trkpt>
      <trkpt lat="45.33011" lon="5.91186">
        <ele>780</ele>
        <time>2021-02-24T15:32:42Z</time>
      </trkpt>
      <trkpt lat="45.33012" lon="5.91188">
        <ele>779.6</ele>
        <time>2021-02-24T15:32:41Z</time>
      </trkpt>
      <trkpt lat="45.33012" lon="5.9119">
        <ele>779.4</ele>
        <time>2021-02-24T15:32:40Z</time>
      </trkpt>
      <trkpt lat="45.33012" lon="5.91192">
        <ele>779.4</ele>
        <time>2021-02-24T15:32:39Z</time>
      </trkpt>
      <trkpt lat="45.33012" lon="5.91194">
        <ele>779.2</ele>
        <time>2021-02-24T15:32:38Z</time>
      </trkpt>
      <trkpt lat="45.33012" lon="5.91196">
        <ele>778.8</ele>
        <time>2021-02-24T15:32:37Z</time>
      </trkpt>
      <trkpt lat="45.33011" lon="5.91198">
        <ele>778.6</ele>
        <time>2021-02-24T15:32:36Z</time>
      </trkpt>
      <trkpt lat="45.33011" lon="5.91201">
        <ele>778.4</ele>
        <time>2021-02-24T15:32:35Z</time>
      </trkpt>
      <trkpt lat="45.33011" lon="5.91203">
        <ele>778</ele>
        <time>2021-02-24T15:32:34Z</time>
      </trkpt>
      <trkpt lat="45.33011" lon="5.91205">
        <ele>777.8</ele>
        <time>2021-02-24T15:32:33Z</time>
      </trkpt>
      <trkpt lat="45.33012" lon="5.91208">
        <ele>777.2</ele>
        <time>2021-02-24T15:32:32Z</time>
      </trkpt>
      <trkpt lat="45.33012" lon="5.91211">
        <ele>777</ele>
        <time>2021-02-24T15:32:31Z</time>
      </trkpt>
      <trkpt lat="45.33012" lon="5.91214">
        <ele>776.8</ele>
        <time>2021-02-24T15:32:30Z</time>
      </trkpt>
      <trkpt lat="45.33013" lon="5.91216">
        <ele>776.6</ele>
        <time>2021-02-24T15:32:29Z</time>
      </trkpt>
      <trkpt lat="45.33012" lon="5.91219">
        <ele>775.8</ele>
        <time>2021-02-24T15:32:28Z</time>
      </trkpt>
      <trkpt lat="45.33012" lon="5.91223">
        <ele>775.6</ele>
        <time>2021-02-24T15:32:27Z</time>
      </trkpt>
      <trkpt lat="45.33012" lon="5.91226">
        <ele>775.6</ele>
        <time>2021-02-24T15:32:26Z</time>
      </trkpt>
      <trkpt lat="45.33012" lon="5.91229">
        <ele>775.2</ele>
        <time>2021-02-24T15:32:25Z</time>
      </trkpt>
      <trkpt lat="45.33011" lon="5.91232">
        <ele>774.6</ele>
        <time>2021-02-24T15:32:24Z</time>
      </trkpt>
      <trkpt lat="45.3301" lon="5.91234">
        <ele>774.6</ele>
        <time>2021-02-24T15:32:23Z</time>
      </trkpt>
      <trkpt lat="45.33009" lon="5.91237">
        <ele>774.4</ele>
        <time>2021-02-24T15:32:22Z</time>
      </trkpt>
      <trkpt lat="45.33009" lon="5.9124">
        <ele>773.6</ele>
        <time>2021-02-24T15:32:21Z</time>
      </trkpt>
      <trkpt lat="45.33008" lon="5.91242">
        <ele>773.6</ele>
        <time>2021-02-24T15:32:20Z</time>
      </trkpt>
      <trkpt lat="45.33008" lon="5.91246">
        <ele>773.4</ele>
        <time>2021-02-24T15:32:19Z</time>
      </trkpt>
      <trkpt lat="45.33008" lon="5.91249">
        <ele>772.4</ele>
        <time>2021-02-24T15:32:18Z</time>
      </trkpt>
      <trkpt lat="45.33008" lon="5.91252">
        <ele>771.8</ele>
        <time>2021-02-24T15:32:17Z</time>
      </trkpt>
      <trkpt lat="45.33008" lon="5.91255">
        <ele>771.8</ele>
        <time>2021-02-24T15:32:16Z</time>
      </trkpt>
      <trkpt lat="45.33007" lon="5.91257">
        <ele>771.6</ele>
        <time>2021-02-24T15:32:15Z</time>
      </trkpt>
      <trkpt lat="45.33006" lon="5.91259">
        <ele>771</ele>
        <time>2021-02-24T15:32:14Z</time>
      </trkpt>
      <trkpt lat="45.33006" lon="5.91261">
        <ele>770.8</ele>
        <time>2021-02-24T15:32:13Z</time>
      </trkpt>
      <trkpt lat="45.33005" lon="5.91262">
        <ele>770.4</ele>
        <time>2021-02-24T15:32:12Z</time>
      </trkpt>
      <trkpt lat="45.33004" lon="5.91264">
        <ele>770</ele>
        <time>2021-02-24T15:32:11Z</time>
      </trkpt>
      <trkpt lat="45.33004" lon="5.91266">
        <ele>769.6</ele>
        <time>2021-02-24T15:32:10Z</time>
      </trkpt>
      <trkpt lat="45.33003" lon="5.91268">
        <ele>769.4</ele>
        <time>2021-02-24T15:32:09Z</time>
      </trkpt>
      <trkpt lat="45.33003" lon="5.91269">
        <ele>769.2</ele>
        <time>2021-02-24T15:32:08Z</time>
      </trkpt>
      <trkpt lat="45.33003" lon="5.91271">
        <ele>768.8</ele>
        <time>2021-02-24T15:32:07Z</time>
      </trkpt>
      <trkpt lat="45.33002" lon="5.91273">
        <ele>768.4</ele>
        <time>2021-02-24T15:32:06Z</time>
      </trkpt>
      <trkpt lat="45.33002" lon="5.91274">
        <ele>768.2</ele>
        <time>2021-02-24T15:32:05Z</time>
      </trkpt>
      <trkpt lat="45.33002" lon="5.91276">
        <ele>768.2</ele>
        <time>2021-02-24T15:32:04Z</time>
      </trkpt>
      <trkpt lat="45.33002" lon="5.91278">
        <ele>767.8</ele>
        <time>2021-02-24T15:32:03Z</time>
      </trkpt>
      <trkpt lat="45.33001" lon="5.9128">
        <ele>767.6</ele>
        <time>2021-02-24T15:32:02Z</time>
      </trkpt>
      <trkpt lat="45.33001" lon="5.91281">
        <ele>767.6</ele>
        <time>2021-02-24T15:32:01Z</time>
      </trkpt>
      <trkpt lat="45.33001" lon="5.91283">
        <ele>767.4</ele>
        <time>2021-02-24T15:32:00Z</time>
      </trkpt>
      <trkpt lat="45.33" lon="5.91285">
        <ele>767</ele>
        <time>2021-02-24T15:31:59Z</time>
      </trkpt>
      <trkpt lat="45.33" lon="5.91287">
        <ele>766.8</ele>
        <time>2021-02-24T15:31:58Z</time>
      </trkpt>
      <trkpt lat="45.32999" lon="5.91289">
        <ele>766.4</ele>
        <time>2021-02-24T15:31:57Z</time>
      </trkpt>
      <trkpt lat="45.32999" lon="5.91291">
        <ele>766</ele>
        <time>2021-02-24T15:31:56Z</time>
      </trkpt>
      <trkpt lat="45.32998" lon="5.91293">
        <ele>765.6</ele>
        <time>2021-02-24T15:31:55Z</time>
      </trkpt>
      <trkpt lat="45.32998" lon="5.91295">
        <ele>765.2</ele>
        <time>2021-02-24T15:31:54Z</time>
      </trkpt>
      <trkpt lat="45.32997" lon="5.91297">
        <ele>765</ele>
        <time>2021-02-24T15:31:53Z</time>
      </trkpt>
      <trkpt lat="45.32997" lon="5.91299">
        <ele>764.8</ele>
        <time>2021-02-24T15:31:52Z</time>
      </trkpt>
      <trkpt lat="45.32997" lon="5.91301">
        <ele>764.4</ele>
        <time>2021-02-24T15:31:51Z</time>
      </trkpt>
      <trkpt lat="45.32997" lon="5.91303">
        <ele>764.2</ele>
        <time>2021-02-24T15:31:50Z</time>
      </trkpt>
      <trkpt lat="45.32997" lon="5.91305">
        <ele>763.8</ele>
        <time>2021-02-24T15:31:49Z</time>
      </trkpt>
      <trkpt lat="45.32997" lon="5.91307">
        <ele>763.4</ele>
        <time>2021-02-24T15:31:48Z</time>
      </trkpt>
      <trkpt lat="45.32996" lon="5.91309">
        <ele>763.2</ele>
        <time>2021-02-24T15:31:47Z</time>
      </trkpt>
      <trkpt lat="45.32996" lon="5.9131">
        <ele>763</ele>
        <time>2021-02-24T15:31:46Z</time>
      </trkpt>
      <trkpt lat="45.32996" lon="5.91312">
        <ele>762.6</ele>
        <time>2021-02-24T15:31:45Z</time>
      </trkpt>
      <trkpt lat="45.32995" lon="5.91313">
        <ele>762.4</ele>
        <time>2021-02-24T15:31:44Z</time>
      </trkpt>
      <trkpt lat="45.32995" lon="5.91314">
        <ele>762.2</ele>
        <time>2021-02-24T15:31:43Z</time>
      </trkpt>
      <trkpt lat="45.32994" lon="5.91316">
        <ele>762</ele>
        <time>2021-02-24T15:31:42Z</time>
      </trkpt>
      <trkpt lat="45.32994" lon="5.91317">
        <ele>761.6</ele>
        <time>2021-02-24T15:31:41Z</time>
      </trkpt>
      <trkpt lat="45.32993" lon="5.91318">
        <ele>761.2</ele>
        <time>2021-02-24T15:31:40Z</time>
      </trkpt>
      <trkpt lat="45.32993" lon="5.9132">
        <ele>761.2</ele>
        <time>2021-02-24T15:31:39Z</time>
      </trkpt>
      <trkpt lat="45.32992" lon="5.91321">
        <ele>761.2</ele>
        <time>2021-02-24T15:31:38Z</time>
      </trkpt>
      <trkpt lat="45.32992" lon="5.91323">
        <ele>760.8</ele>
        <time>2021-02-24T15:31:37Z</time>
      </trkpt>
      <trkpt lat="45.32991" lon="5.91326">
        <ele>760.6</ele>
        <time>2021-02-24T15:31:36Z</time>
      </trkpt>
      <trkpt lat="45.32991" lon="5.91328">
        <ele>760.2</ele>
        <time>2021-02-24T15:31:35Z</time>
      </trkpt>
      <trkpt lat="45.32991" lon="5.9133">
        <ele>759.6</ele>
        <time>2021-02-24T15:31:34Z</time>
      </trkpt>
      <trkpt lat="45.3299" lon="5.91332">
        <ele>759</ele>
        <time>2021-02-24T15:31:33Z</time>
      </trkpt>
      <trkpt lat="45.3299" lon="5.91334">
        <ele>758.8</ele>
        <time>2021-02-24T15:31:32Z</time>
      </trkpt>
      <trkpt lat="45.32989" lon="5.91336">
        <ele>758.4</ele>
        <time>2021-02-24T15:31:31Z</time>
      </trkpt>
      <trkpt lat="45.32988" lon="5.91338">
        <ele>758.2</ele>
        <time>2021-02-24T15:31:30Z</time>
      </trkpt>
      <trkpt lat="45.32987" lon="5.91339">
        <ele>758</ele>
        <time>2021-02-24T15:31:29Z</time>
      </trkpt>
      <trkpt lat="45.32986" lon="5.91341">
        <ele>757.6</ele>
        <time>2021-02-24T15:31:28Z</time>
      </trkpt>
      <trkpt lat="45.32985" lon="5.91343">
        <ele>757.6</ele>
        <time>2021-02-24T15:31:27Z</time>
      </trkpt>
      <trkpt lat="45.32984" lon="5.91344">
        <ele>757.2</ele>
        <time>2021-02-24T15:31:26Z</time>
      </trkpt>
      <trkpt lat="45.32984" lon="5.91346">
        <ele>756.6</ele>
        <time>2021-02-24T15:31:25Z</time>
      </trkpt>
      <trkpt lat="45.32982" lon="5.91349">
        <ele>756</ele>
        <time>2021-02-24T15:31:24Z</time>
      </trkpt>
      <trkpt lat="45.3298" lon="5.91352">
        <ele>755.6</ele>
        <time>2021-02-24T15:31:23Z</time>
      </trkpt>
      <trkpt lat="45.32979" lon="5.91355">
        <ele>755.6</ele>
        <time>2021-02-24T15:31:22Z</time>
      </trkpt>
      <trkpt lat="45.32977" lon="5.91358">
        <ele>755.2</ele>
        <time>2021-02-24T15:31:21Z</time>
      </trkpt>
      <trkpt lat="45.32975" lon="5.9136">
        <ele>754.6</ele>
        <time>2021-02-24T15:31:20Z</time>
      </trkpt>
      <trkpt lat="45.32974" lon="5.91362">
        <ele>754.4</ele>
        <time>2021-02-24T15:31:19Z</time>
      </trkpt>
      <trkpt lat="45.32972" lon="5.91365">
        <ele>754.2</ele>
        <time>2021-02-24T15:31:18Z</time>
      </trkpt>
      <trkpt lat="45.32971" lon="5.91367">
        <ele>753.8</ele>
        <time>2021-02-24T15:31:17Z</time>
      </trkpt>
      <trkpt lat="45.3297" lon="5.91369">
        <ele>753.2</ele>
        <time>2021-02-24T15:31:16Z</time>
      </trkpt>
      <trkpt lat="45.32968" lon="5.91371">
        <ele>753.2</ele>
        <time>2021-02-24T15:31:15Z</time>
      </trkpt>
      <trkpt lat="45.32967" lon="5.91373">
        <ele>753</ele>
        <time>2021-02-24T15:31:14Z</time>
      </trkpt>
      <trkpt lat="45.32966" lon="5.91374">
        <ele>751.8</ele>
        <time>2021-02-24T15:31:13Z</time>
      </trkpt>
      <trkpt lat="45.32965" lon="5.91376">
        <ele>751.4</ele>
        <time>2021-02-24T15:31:12Z</time>
      </trkpt>
      <trkpt lat="45.32964" lon="5.91378">
        <ele>751.4</ele>
        <time>2021-02-24T15:31:11Z</time>
      </trkpt>
      <trkpt lat="45.32963" lon="5.9138">
        <ele>751</ele>
        <time>2021-02-24T15:31:10Z</time>
      </trkpt>
      <trkpt lat="45.32962" lon="5.91382">
        <ele>750.4</ele>
        <time>2021-02-24T15:31:09Z</time>
      </trkpt>
      <trkpt lat="45.32961" lon="5.91384">
        <ele>750.2</ele>
        <time>2021-02-24T15:31:08Z</time>
      </trkpt>
      <trkpt lat="45.3296" lon="5.91386">
        <ele>750</ele>
        <time>2021-02-24T15:31:07Z</time>
      </trkpt>
      <trkpt lat="45.3296" lon="5.91388">
        <ele>749.4</ele>
        <time>2021-02-24T15:31:06Z</time>
      </trkpt>
      <trkpt lat="45.32959" lon="5.91389">
        <ele>748.8</ele>
        <time>2021-02-24T15:31:05Z</time>
      </trkpt>
      <trkpt lat="45.32958" lon="5.91391">
        <ele>748.6</ele>
        <time>2021-02-24T15:31:04Z</time>
      </trkpt>
      <trkpt lat="45.32958" lon="5.91392">
        <ele>748.2</ele>
        <time>2021-02-24T15:31:03Z</time>
      </trkpt>
      <trkpt lat="45.32957" lon="5.91394">
        <ele>748</ele>
        <time>2021-02-24T15:31:02Z</time>
      </trkpt>
      <trkpt lat="45.32957" lon="5.91395">
        <ele>747.8</ele>
        <time>2021-02-24T15:31:01Z</time>
      </trkpt>
      <trkpt lat="45.32956" lon="5.91396">
        <ele>747.6</ele>
        <time>2021-02-24T15:31:00Z</time>
      </trkpt>
      <trkpt lat="45.32955" lon="5.91398">
        <ele>747.2</ele>
        <time>2021-02-24T15:30:59Z</time>
      </trkpt>
      <trkpt lat="45.32955" lon="5.91399">
        <ele>746.8</ele>
        <time>2021-02-24T15:30:58Z</time>
      </trkpt>
      <trkpt lat="45.32954" lon="5.91401">
        <ele>746.6</ele>
        <time>2021-02-24T15:30:57Z</time>
      </trkpt>
      <trkpt lat="45.32954" lon="5.91402">
        <ele>746.2</ele>
        <time>2021-02-24T15:30:56Z</time>
      </trkpt>
      <trkpt lat="45.32953" lon="5.91403">
        <ele>746</ele>
        <time>2021-02-24T15:30:55Z</time>
      </trkpt>
      <trkpt lat="45.32952" lon="5.91403">
        <ele>745.6</ele>
        <time>2021-02-24T15:30:54Z</time>
      </trkpt>
      <trkpt lat="45.32952" lon="5.91404">
        <ele>745.4</ele>
        <time>2021-02-24T15:30:53Z</time>
      </trkpt>
      <trkpt lat="45.32951" lon="5.91405">
        <ele>745.2</ele>
        <time>2021-02-24T15:30:52Z</time>
      </trkpt>
      <trkpt lat="45.3295" lon="5.91405">
        <ele>745</ele>
        <time>2021-02-24T15:30:51Z</time>
      </trkpt>
      <trkpt lat="45.3295" lon="5.91406">
        <ele>744.8</ele>
        <time>2021-02-24T15:30:50Z</time>
      </trkpt>
      <trkpt lat="45.32949" lon="5.91407">
        <ele>744.6</ele>
        <time>2021-02-24T15:30:49Z</time>
      </trkpt>
      <trkpt lat="45.32948" lon="5.91407">
        <ele>744</ele>
        <time>2021-02-24T15:30:48Z</time>
      </trkpt>
      <trkpt lat="45.32948" lon="5.91408">
        <ele>743.6</ele>
        <time>2021-02-24T15:30:47Z</time>
      </trkpt>
      <trkpt lat="45.32947" lon="5.91408">
        <ele>743.2</ele>
        <time>2021-02-24T15:30:46Z</time>
      </trkpt>
      <trkpt lat="45.32946" lon="5.91409">
        <ele>743</ele>
        <time>2021-02-24T15:30:45Z</time>
      </trkpt>
      <trkpt lat="45.32947" lon="5.9141">
        <ele>742.6</ele>
        <time>2021-02-24T15:30:44Z</time>
      </trkpt>
      <trkpt lat="45.32947" lon="5.91411">
        <ele>742.4</ele>
        <time>2021-02-24T15:30:43Z</time>
      </trkpt>
      <trkpt lat="45.32947" lon="5.91412">
        <ele>741.8</ele>
        <time>2021-02-24T15:30:42Z</time>
      </trkpt>
      <trkpt lat="45.32948" lon="5.91413">
        <ele>741.6</ele>
        <time>2021-02-24T15:30:41Z</time>
      </trkpt>
      <trkpt lat="45.32948" lon="5.91414">
        <ele>741.4</ele>
        <time>2021-02-24T15:30:40Z</time>
      </trkpt>
      <trkpt lat="45.32948" lon="5.91415">
        <ele>741</ele>
        <time>2021-02-24T15:30:39Z</time>
      </trkpt>
      <trkpt lat="45.32949" lon="5.91416">
        <ele>740.6</ele>
        <time>2021-02-24T15:30:38Z</time>
      </trkpt>
      <trkpt lat="45.32949" lon="5.91417">
        <ele>740.2</ele>
        <time>2021-02-24T15:30:37Z</time>
      </trkpt>
      <trkpt lat="45.3295" lon="5.91418">
        <ele>739.8</ele>
        <time>2021-02-24T15:30:36Z</time>
      </trkpt>
      <trkpt lat="45.3295" lon="5.91419">
        <ele>739.4</ele>
        <time>2021-02-24T15:30:35Z</time>
      </trkpt>
      <trkpt lat="45.3295" lon="5.9142">
        <ele>739</ele>
        <time>2021-02-24T15:30:34Z</time>
      </trkpt>
      <trkpt lat="45.32951" lon="5.91421">
        <ele>738.8</ele>
        <time>2021-02-24T15:30:33Z</time>
      </trkpt>
      <trkpt lat="45.32951" lon="5.91423">
        <ele>738.6</ele>
        <time>2021-02-24T15:30:32Z</time>
      </trkpt>
      <trkpt lat="45.32952" lon="5.91425">
        <ele>738.4</ele>
        <time>2021-02-24T15:30:31Z</time>
      </trkpt>
      <trkpt lat="45.32952" lon="5.91426">
        <ele>738</ele>
        <time>2021-02-24T15:30:30Z</time>
      </trkpt>
      <trkpt lat="45.32953" lon="5.91428">
        <ele>737.6</ele>
        <time>2021-02-24T15:30:29Z</time>
      </trkpt>
      <trkpt lat="45.32953" lon="5.91429">
        <ele>737</ele>
        <time>2021-02-24T15:30:28Z</time>
      </trkpt>
      <trkpt lat="45.32954" lon="5.91431">
        <ele>736.6</ele>
        <time>2021-02-24T15:30:27Z</time>
      </trkpt>
      <trkpt lat="45.32954" lon="5.91433">
        <ele>736.6</ele>
        <time>2021-02-24T15:30:26Z</time>
      </trkpt>
      <trkpt lat="45.32955" lon="5.91434">
        <ele>736.4</ele>
        <time>2021-02-24T15:30:25Z</time>
      </trkpt>
      <trkpt lat="45.32955" lon="5.91436">
        <ele>736.2</ele>
        <time>2021-02-24T15:30:24Z</time>
      </trkpt>
      <trkpt lat="45.32954" lon="5.91437">
        <ele>735.8</ele>
        <time>2021-02-24T15:30:23Z</time>
      </trkpt>
      <trkpt lat="45.32954" lon="5.91439">
        <ele>735.4</ele>
        <time>2021-02-24T15:30:22Z</time>
      </trkpt>
      <trkpt lat="45.32954" lon="5.9144">
        <ele>735.2</ele>
        <time>2021-02-24T15:30:21Z</time>
      </trkpt>
      <trkpt lat="45.32954" lon="5.91442">
        <ele>735</ele>
        <time>2021-02-24T15:30:20Z</time>
      </trkpt>
      <trkpt lat="45.32954" lon="5.91443">
        <ele>734.4</ele>
        <time>2021-02-24T15:30:19Z</time>
      </trkpt>
      <trkpt lat="45.32954" lon="5.91445">
        <ele>734.2</ele>
        <time>2021-02-24T15:30:18Z</time>
      </trkpt>
      <trkpt lat="45.32954" lon="5.91446">
        <ele>733.6</ele>
        <time>2021-02-24T15:30:17Z</time>
      </trkpt>
      <trkpt lat="45.32953" lon="5.91448">
        <ele>733.4</ele>
        <time>2021-02-24T15:30:16Z</time>
      </trkpt>
      <trkpt lat="45.32953" lon="5.91449">
        <ele>733.2</ele>
        <time>2021-02-24T15:30:15Z</time>
      </trkpt>
      <trkpt lat="45.32953" lon="5.91451">
        <ele>732.8</ele>
        <time>2021-02-24T15:30:14Z</time>
      </trkpt>
      <trkpt lat="45.32952" lon="5.91452">
        <ele>732.6</ele>
        <time>2021-02-24T15:30:13Z</time>
      </trkpt>
      <trkpt lat="45.32952" lon="5.91454">
        <ele>732.2</ele>
        <time>2021-02-24T15:30:12Z</time>
      </trkpt>
      <trkpt lat="45.32952" lon="5.91455">
        <ele>731.8</ele>
        <time>2021-02-24T15:30:11Z</time>
      </trkpt>
      <trkpt lat="45.32951" lon="5.91457">
        <ele>731.6</ele>
        <time>2021-02-24T15:30:10Z</time>
      </trkpt>
      <trkpt lat="45.32951" lon="5.91458">
        <ele>731.4</ele>
        <time>2021-02-24T15:30:09Z</time>
      </trkpt>
      <trkpt lat="45.3295" lon="5.9146">
        <ele>731.2</ele>
        <time>2021-02-24T15:30:08Z</time>
      </trkpt>
      <trkpt lat="45.3295" lon="5.91462">
        <ele>730.8</ele>
        <time>2021-02-24T15:30:07Z</time>
      </trkpt>
      <trkpt lat="45.3295" lon="5.91462">
        <ele>730.6</ele>
        <time>2021-02-24T15:30:06Z</time>
      </trkpt>
      <trkpt lat="45.3295" lon="5.91463">
        <ele>730</ele>
        <time>2021-02-24T15:30:05Z</time>
      </trkpt>
      <trkpt lat="45.3295" lon="5.91464">
        <ele>729.6</ele>
        <time>2021-02-24T15:30:04Z</time>
      </trkpt>
      <trkpt lat="45.3295" lon="5.91465">
        <ele>729.2</ele>
        <time>2021-02-24T15:30:03Z</time>
      </trkpt>
      <trkpt lat="45.3295" lon="5.91465">
        <ele>729</ele>
        <time>2021-02-24T15:30:02Z</time>
      </trkpt>
      <trkpt lat="45.3295" lon="5.91466">
        <ele>728.6</ele>
        <time>2021-02-24T15:30:01Z</time>
      </trkpt>
      <trkpt lat="45.3295" lon="5.91467">
        <ele>728</ele>
        <time>2021-02-24T15:29:59Z</time>
      </trkpt>
      <trkpt lat="45.3295" lon="5.91468">
        <ele>727.6</ele>
        <time>2021-02-24T15:29:58Z</time>
      </trkpt>
      <trkpt lat="45.32949" lon="5.91469">
        <ele>727.4</ele>
        <time>2021-02-24T15:29:57Z</time>
      </trkpt>
      <trkpt lat="45.32949" lon="5.91469">
        <ele>727</ele>
        <time>2021-02-24T15:29:56Z</time>
      </trkpt>
      <trkpt lat="45.32949" lon="5.9147">
        <ele>726.6</ele>
        <time>2021-02-24T15:29:55Z</time>
      </trkpt>
      <trkpt lat="45.32949" lon="5.91471">
        <ele>726.2</ele>
        <time>2021-02-24T15:29:54Z</time>
      </trkpt>
      <trkpt lat="45.32949" lon="5.91472">
        <ele>726.2</ele>
        <time>2021-02-24T15:29:53Z</time>
      </trkpt>
      <trkpt lat="45.32949" lon="5.91473">
        <ele>725.8</ele>
        <time>2021-02-24T15:29:52Z</time>
      </trkpt>
      <trkpt lat="45.32949" lon="5.91473">
        <ele>725.6</ele>
        <time>2021-02-24T15:29:51Z</time>
      </trkpt>
      <trkpt lat="45.32949" lon="5.91474">
        <ele>725.2</ele>
        <time>2021-02-24T15:29:50Z</time>
      </trkpt>
      <trkpt lat="45.32949" lon="5.91475">
        <ele>725.2</ele>
        <time>2021-02-24T15:29:49Z</time>
      </trkpt>
      <trkpt lat="45.3295" lon="5.91475">
        <ele>724.8</ele>
        <time>2021-02-24T15:29:48Z</time>
      </trkpt>
      <trkpt lat="45.32952" lon="5.91475">
        <ele>724.4</ele>
        <time>2021-02-24T15:29:47Z</time>
      </trkpt>
      <trkpt lat="45.32953" lon="5.91475">
        <ele>724</ele>
        <time>2021-02-24T15:29:46Z</time>
      </trkpt>
      <trkpt lat="45.32955" lon="5.91474">
        <ele>723.8</ele>
        <time>2021-02-24T15:29:45Z</time>
      </trkpt>
      <trkpt lat="45.32956" lon="5.91474">
        <ele>723.4</ele>
        <time>2021-02-24T15:29:44Z</time>
      </trkpt>
      <trkpt lat="45.32958" lon="5.91474">
        <ele>723.2</ele>
        <time>2021-02-24T15:29:43Z</time>
      </trkpt>
      <trkpt lat="45.32959" lon="5.91474">
        <ele>722.8</ele>
        <time>2021-02-24T15:29:42Z</time>
      </trkpt>
      <trkpt lat="45.32961" lon="5.91476">
        <ele>723</ele>
        <time>2021-02-24T15:29:41Z</time>
      </trkpt>
      <trkpt lat="45.32962" lon="5.91479">
        <ele>722.8</ele>
        <time>2021-02-24T15:29:40Z</time>
      </trkpt>
      <trkpt lat="45.32963" lon="5.91481">
        <ele>722.8</ele>
        <time>2021-02-24T15:29:39Z</time>
      </trkpt>
      <trkpt lat="45.32965" lon="5.91483">
        <ele>722.2</ele>
        <time>2021-02-24T15:29:38Z</time>
      </trkpt>
      <trkpt lat="45.32966" lon="5.91485">
        <ele>721.4</ele>
        <time>2021-02-24T15:29:37Z</time>
      </trkpt>
      <trkpt lat="45.32966" lon="5.91487">
        <ele>721</ele>
        <time>2021-02-24T15:29:36Z</time>
      </trkpt>
      <trkpt lat="45.32966" lon="5.91488">
        <ele>721</ele>
        <time>2021-02-24T15:29:35Z</time>
      </trkpt>
      <trkpt lat="45.32966" lon="5.9149">
        <ele>720.8</ele>
        <time>2021-02-24T15:29:34Z</time>
      </trkpt>
      <trkpt lat="45.32966" lon="5.91491">
        <ele>720.6</ele>
        <time>2021-02-24T15:29:33Z</time>
      </trkpt>
      <trkpt lat="45.32967" lon="5.91493">
        <ele>720.4</ele>
        <time>2021-02-24T15:29:32Z</time>
      </trkpt>
      <trkpt lat="45.32967" lon="5.91494">
        <ele>719.8</ele>
        <time>2021-02-24T15:29:31Z</time>
      </trkpt>
      <trkpt lat="45.32967" lon="5.91495">
        <ele>719.4</ele>
        <time>2021-02-24T15:29:30Z</time>
      </trkpt>
      <trkpt lat="45.32967" lon="5.91497">
        <ele>718.8</ele>
        <time>2021-02-24T15:29:29Z</time>
      </trkpt>
      <trkpt lat="45.32967" lon="5.91498">
        <ele>718.6</ele>
        <time>2021-02-24T15:29:28Z</time>
      </trkpt>
      <trkpt lat="45.32967" lon="5.915">
        <ele>718.2</ele>
        <time>2021-02-24T15:29:27Z</time>
      </trkpt>
      <trkpt lat="45.32967" lon="5.91502">
        <ele>718</ele>
        <time>2021-02-24T15:29:26Z</time>
      </trkpt>
      <trkpt lat="45.32968" lon="5.91504">
        <ele>717.8</ele>
        <time>2021-02-24T15:29:25Z</time>
      </trkpt>
      <trkpt lat="45.32968" lon="5.91506">
        <ele>717.6</ele>
        <time>2021-02-24T15:29:24Z</time>
      </trkpt>
      <trkpt lat="45.32968" lon="5.91508">
        <ele>717.2</ele>
        <time>2021-02-24T15:29:23Z</time>
      </trkpt>
      <trkpt lat="45.32968" lon="5.9151">
        <ele>717</ele>
        <time>2021-02-24T15:29:22Z</time>
      </trkpt>
      <trkpt lat="45.32968" lon="5.91512">
        <ele>716.6</ele>
        <time>2021-02-24T15:29:21Z</time>
      </trkpt>
      <trkpt lat="45.32967" lon="5.91515">
        <ele>716</ele>
        <time>2021-02-24T15:29:20Z</time>
      </trkpt>
      <trkpt lat="45.32966" lon="5.91518">
        <ele>715.6</ele>
        <time>2021-02-24T15:29:19Z</time>
      </trkpt>
      <trkpt lat="45.32965" lon="5.9152">
        <ele>715.2</ele>
        <time>2021-02-24T15:29:18Z</time>
      </trkpt>
      <trkpt lat="45.32964" lon="5.91523">
        <ele>715.2</ele>
        <time>2021-02-24T15:29:17Z</time>
      </trkpt>
      <trkpt lat="45.32963" lon="5.91526">
        <ele>715</ele>
        <time>2021-02-24T15:29:16Z</time>
      </trkpt>
      <trkpt lat="45.32962" lon="5.91526">
        <ele>714.8</ele>
        <time>2021-02-24T15:29:15Z</time>
      </trkpt>
      <trkpt lat="45.32962" lon="5.91527">
        <ele>714.4</ele>
        <time>2021-02-24T15:29:14Z</time>
      </trkpt>
      <trkpt lat="45.32961" lon="5.91528">
        <ele>714</ele>
        <time>2021-02-24T15:29:13Z</time>
      </trkpt>
      <trkpt lat="45.3296" lon="5.91528">
        <ele>713.6</ele>
        <time>2021-02-24T15:29:12Z</time>
      </trkpt>
      <trkpt lat="45.32959" lon="5.91529">
        <ele>713.2</ele>
        <time>2021-02-24T15:29:11Z</time>
      </trkpt>
      <trkpt lat="45.32958" lon="5.91529">
        <ele>713</ele>
        <time>2021-02-24T15:29:10Z</time>
      </trkpt>
      <trkpt lat="45.32957" lon="5.9153">
        <ele>712.8</ele>
        <time>2021-02-24T15:29:09Z</time>
      </trkpt>
      <trkpt lat="45.32956" lon="5.91531">
        <ele>712.8</ele>
        <time>2021-02-24T15:29:08Z</time>
      </trkpt>
      <trkpt lat="45.32956" lon="5.91531">
        <ele>712.4</ele>
        <time>2021-02-24T15:29:07Z</time>
      </trkpt>
      <trkpt lat="45.32955" lon="5.91532">
        <ele>712</ele>
        <time>2021-02-24T15:29:06Z</time>
      </trkpt>
      <trkpt lat="45.32954" lon="5.91532">
        <ele>711.8</ele>
        <time>2021-02-24T15:29:05Z</time>
      </trkpt>
      <trkpt lat="45.32953" lon="5.91534">
        <ele>711.4</ele>
        <time>2021-02-24T15:29:04Z</time>
      </trkpt>
      <trkpt lat="45.32952" lon="5.91535">
        <ele>711</ele>
        <time>2021-02-24T15:29:03Z</time>
      </trkpt>
      <trkpt lat="45.32952" lon="5.91537">
        <ele>711</ele>
        <time>2021-02-24T15:29:02Z</time>
      </trkpt>
      <trkpt lat="45.32951" lon="5.91538">
        <ele>710.8</ele>
        <time>2021-02-24T15:29:01Z</time>
      </trkpt>
      <trkpt lat="45.3295" lon="5.9154">
        <ele>710.6</ele>
        <time>2021-02-24T15:29:00Z</time>
      </trkpt>
      <trkpt lat="45.32949" lon="5.91541">
        <ele>710</ele>
        <time>2021-02-24T15:28:59Z</time>
      </trkpt>
      <trkpt lat="45.32948" lon="5.91542">
        <ele>709.4</ele>
        <time>2021-02-24T15:28:58Z</time>
      </trkpt>
      <trkpt lat="45.32948" lon="5.91543">
        <ele>709.2</ele>
        <time>2021-02-24T15:28:57Z</time>
      </trkpt>
      <trkpt lat="45.32947" lon="5.91544">
        <ele>708.8</ele>
        <time>2021-02-24T15:28:56Z</time>
      </trkpt>
      <trkpt lat="45.32947" lon="5.91545">
        <ele>708.4</ele>
        <time>2021-02-24T15:28:55Z</time>
      </trkpt>
      <trkpt lat="45.32946" lon="5.91546">
        <ele>708.2</ele>
        <time>2021-02-24T15:28:54Z</time>
      </trkpt>
      <trkpt lat="45.32946" lon="5.91546">
        <ele>708</ele>
        <time>2021-02-24T15:28:53Z</time>
      </trkpt>
      <trkpt lat="45.32946" lon="5.91547">
        <ele>707.8</ele>
        <time>2021-02-24T15:28:52Z</time>
      </trkpt>
      <trkpt lat="45.32945" lon="5.91548">
        <ele>707.4</ele>
        <time>2021-02-24T15:28:51Z</time>
      </trkpt>
      <trkpt lat="45.32945" lon="5.91549">
        <ele>707.2</ele>
        <time>2021-02-24T15:28:50Z</time>
      </trkpt>
      <trkpt lat="45.32944" lon="5.9155">
        <ele>706.6</ele>
        <time>2021-02-24T15:28:49Z</time>
      </trkpt>
      <trkpt lat="45.32944" lon="5.91551">
        <ele>706.4</ele>
        <time>2021-02-24T15:28:48Z</time>
      </trkpt>
      <trkpt lat="45.32943" lon="5.91551">
        <ele>705.8</ele>
        <time>2021-02-24T15:28:47Z</time>
      </trkpt>
      <trkpt lat="45.32943" lon="5.91552">
        <ele>705.6</ele>
        <time>2021-02-24T15:28:46Z</time>
      </trkpt>
      <trkpt lat="45.32942" lon="5.91553">
        <ele>705.2</ele>
        <time>2021-02-24T15:28:45Z</time>
      </trkpt>
      <trkpt lat="45.32942" lon="5.91555">
        <ele>705</ele>
        <time>2021-02-24T15:28:44Z</time>
      </trkpt>
      <trkpt lat="45.32942" lon="5.91557">
        <ele>704.2</ele>
        <time>2021-02-24T15:28:43Z</time>
      </trkpt>
      <trkpt lat="45.32942" lon="5.91559">
        <ele>704</ele>
        <time>2021-02-24T15:28:42Z</time>
      </trkpt>
      <trkpt lat="45.32942" lon="5.91561">
        <ele>704</ele>
        <time>2021-02-24T15:28:41Z</time>
      </trkpt>
      <trkpt lat="45.32942" lon="5.91563">
        <ele>704</ele>
        <time>2021-02-24T15:28:40Z</time>
      </trkpt>
      <trkpt lat="45.32942" lon="5.91566">
        <ele>704</ele>
        <time>2021-02-24T15:28:39Z</time>
      </trkpt>
      <trkpt lat="45.32942" lon="5.91568">
        <ele>703.6</ele>
        <time>2021-02-24T15:28:38Z</time>
      </trkpt>
      <trkpt lat="45.32941" lon="5.91569">
        <ele>703</ele>
        <time>2021-02-24T15:28:37Z</time>
      </trkpt>
      <trkpt lat="45.3294" lon="5.91571">
        <ele>702.4</ele>
        <time>2021-02-24T15:28:36Z</time>
      </trkpt>
      <trkpt lat="45.3294" lon="5.91573">
        <ele>701.8</ele>
        <time>2021-02-24T15:28:35Z</time>
      </trkpt>
      <trkpt lat="45.32939" lon="5.91574">
        <ele>701.6</ele>
        <time>2021-02-24T15:28:34Z</time>
      </trkpt>
      <trkpt lat="45.32938" lon="5.91576">
        <ele>701.4</ele>
        <time>2021-02-24T15:28:33Z</time>
      </trkpt>
      <trkpt lat="45.32938" lon="5.91578">
        <ele>700.8</ele>
        <time>2021-02-24T15:28:32Z</time>
      </trkpt>
      <trkpt lat="45.32937" lon="5.9158">
        <ele>700.8</ele>
        <time>2021-02-24T15:28:31Z</time>
      </trkpt>
      <trkpt lat="45.32936" lon="5.91582">
        <ele>700.4</ele>
        <time>2021-02-24T15:28:30Z</time>
      </trkpt>
      <trkpt lat="45.32936" lon="5.91584">
        <ele>700</ele>
        <time>2021-02-24T15:28:29Z</time>
      </trkpt>
      <trkpt lat="45.32936" lon="5.91586">
        <ele>699.8</ele>
        <time>2021-02-24T15:28:28Z</time>
      </trkpt>
      <trkpt lat="45.32935" lon="5.91588">
        <ele>699.4</ele>
        <time>2021-02-24T15:28:27Z</time>
      </trkpt>
      <trkpt lat="45.32935" lon="5.9159">
        <ele>699</ele>
        <time>2021-02-24T15:28:26Z</time>
      </trkpt>
      <trkpt lat="45.32935" lon="5.91592">
        <ele>698.8</ele>
        <time>2021-02-24T15:28:25Z</time>
      </trkpt>
      <trkpt lat="45.32934" lon="5.91594">
        <ele>698.6</ele>
        <time>2021-02-24T15:28:24Z</time>
      </trkpt>
      <trkpt lat="45.32934" lon="5.91596">
        <ele>698.2</ele>
        <time>2021-02-24T15:28:23Z</time>
      </trkpt>
      <trkpt lat="45.32934" lon="5.91597">
        <ele>697.8</ele>
        <time>2021-02-24T15:28:22Z</time>
      </trkpt>
      <trkpt lat="45.32933" lon="5.91599">
        <ele>697.4</ele>
        <time>2021-02-24T15:28:21Z</time>
      </trkpt>
      <trkpt lat="45.32933" lon="5.916">
        <ele>697.2</ele>
        <time>2021-02-24T15:28:20Z</time>
      </trkpt>
      <trkpt lat="45.32933" lon="5.91602">
        <ele>697</ele>
        <time>2021-02-24T15:28:19Z</time>
      </trkpt>
      <trkpt lat="45.32933" lon="5.91604">
        <ele>696.8</ele>
        <time>2021-02-24T15:28:18Z</time>
      </trkpt>
      <trkpt lat="45.32933" lon="5.91605">
        <ele>696.6</ele>
        <time>2021-02-24T15:28:17Z</time>
      </trkpt>
      <trkpt lat="45.32932" lon="5.91607">
        <ele>696.2</ele>
        <time>2021-02-24T15:28:16Z</time>
      </trkpt>
      <trkpt lat="45.32932" lon="5.91609">
        <ele>695.8</ele>
        <time>2021-02-24T15:28:15Z</time>
      </trkpt>
      <trkpt lat="45.32932" lon="5.91609">
        <ele>695.4</ele>
        <time>2021-02-24T15:28:14Z</time>
      </trkpt>
      <trkpt lat="45.32932" lon="5.9161">
        <ele>695.2</ele>
        <time>2021-02-24T15:28:13Z</time>
      </trkpt>
      <trkpt lat="45.32932" lon="5.9161">
        <ele>694.8</ele>
        <time>2021-02-24T15:28:12Z</time>
      </trkpt>
      <trkpt lat="45.32932" lon="5.91611">
        <ele>694.4</ele>
        <time>2021-02-24T15:28:11Z</time>
      </trkpt>
      <trkpt lat="45.32932" lon="5.91611">
        <ele>694.2</ele>
        <time>2021-02-24T15:28:10Z</time>
      </trkpt>
      <trkpt lat="45.32932" lon="5.91612">
        <ele>694</ele>
        <time>2021-02-24T15:28:09Z</time>
      </trkpt>
      <trkpt lat="45.32932" lon="5.91612">
        <ele>693.8</ele>
        <time>2021-02-24T15:28:08Z</time>
      </trkpt>
      <trkpt lat="45.32932" lon="5.91613">
        <ele>693.6</ele>
        <time>2021-02-24T15:28:07Z</time>
      </trkpt>
      <trkpt lat="45.32932" lon="5.91613">
        <ele>693</ele>
        <time>2021-02-24T15:28:06Z</time>
      </trkpt>
      <trkpt lat="45.32932" lon="5.91614">
        <ele>692.8</ele>
        <time>2021-02-24T15:28:05Z</time>
      </trkpt>
      <trkpt lat="45.32932" lon="5.91614">
        <ele>692.4</ele>
        <time>2021-02-24T15:28:04Z</time>
      </trkpt>
      <trkpt lat="45.32932" lon="5.91615">
        <ele>692.2</ele>
        <time>2021-02-24T15:28:03Z</time>
      </trkpt>
      <trkpt lat="45.32932" lon="5.91615">
        <ele>691.8</ele>
        <time>2021-02-24T15:28:02Z</time>
      </trkpt>
      <trkpt lat="45.32931" lon="5.91616">
        <ele>691.4</ele>
        <time>2021-02-24T15:28:01Z</time>
      </trkpt>
      <trkpt lat="45.32931" lon="5.91616">
        <ele>691.2</ele>
        <time>2021-02-24T15:28:00Z</time>
      </trkpt>
      <trkpt lat="45.32931" lon="5.91617">
        <ele>690.8</ele>
        <time>2021-02-24T15:27:59Z</time>
      </trkpt>
      <trkpt lat="45.32931" lon="5.91617">
        <ele>690.8</ele>
        <time>2021-02-24T15:27:58Z</time>
      </trkpt>
      <trkpt lat="45.32931" lon="5.91618">
        <ele>690.4</ele>
        <time>2021-02-24T15:27:57Z</time>
      </trkpt>
      <trkpt lat="45.32931" lon="5.91618">
        <ele>690</ele>
        <time>2021-02-24T15:27:56Z</time>
      </trkpt>
      <trkpt lat="45.32931" lon="5.91619">
        <ele>689.6</ele>
        <time>2021-02-24T15:27:55Z</time>
      </trkpt>
      <trkpt lat="45.32931" lon="5.91619">
        <ele>689.4</ele>
        <time>2021-02-24T15:27:54Z</time>
      </trkpt>
      <trkpt lat="45.32931" lon="5.9162">
        <ele>689.4</ele>
        <time>2021-02-24T15:27:53Z</time>
      </trkpt>
      <trkpt lat="45.32931" lon="5.9162">
        <ele>689.4</ele>
        <time>2021-02-24T15:27:52Z</time>
      </trkpt>
      <trkpt lat="45.32931" lon="5.91621">
        <ele>689.2</ele>
        <time>2021-02-24T15:27:51Z</time>
      </trkpt>
      <trkpt lat="45.32931" lon="5.91621">
        <ele>689</ele>
        <time>2021-02-24T15:27:50Z</time>
      </trkpt>
      <trkpt lat="45.32931" lon="5.91622">
        <ele>688.4</ele>
        <time>2021-02-24T15:27:49Z</time>
      </trkpt>
      <trkpt lat="45.32931" lon="5.91622">
        <ele>688.2</ele>
        <time>2021-02-24T15:27:48Z</time>
      </trkpt>
      <trkpt lat="45.32931" lon="5.91623">
        <ele>688</ele>
        <time>2021-02-24T15:27:47Z</time>
      </trkpt>
      <trkpt lat="45.32932" lon="5.91622">
        <ele>687.4</ele>
        <time>2021-02-24T15:27:46Z</time>
      </trkpt>
      <trkpt lat="45.32933" lon="5.91621">
        <ele>687</ele>
        <time>2021-02-24T15:27:45Z</time>
      </trkpt>
      <trkpt lat="45.32934" lon="5.91619">
        <ele>686.8</ele>
        <time>2021-02-24T15:27:44Z</time>
      </trkpt>
      <trkpt lat="45.32936" lon="5.91618">
        <ele>686.4</ele>
        <time>2021-02-24T15:27:43Z</time>
      </trkpt>
      <trkpt lat="45.32937" lon="5.91617">
        <ele>686.4</ele>
        <time>2021-02-24T15:27:42Z</time>
      </trkpt>
      <trkpt lat="45.32938" lon="5.91616">
        <ele>686</ele>
        <time>2021-02-24T15:27:41Z</time>
      </trkpt>
      <trkpt lat="45.32939" lon="5.91614">
        <ele>685.6</ele>
        <time>2021-02-24T15:27:40Z</time>
      </trkpt>
      <trkpt lat="45.3294" lon="5.91613">
        <ele>685.2</ele>
        <time>2021-02-24T15:27:39Z</time>
      </trkpt>
      <trkpt lat="45.3294" lon="5.91612">
        <ele>684.8</ele>
        <time>2021-02-24T15:27:38Z</time>
      </trkpt>
      <trkpt lat="45.32941" lon="5.91611">
        <ele>684.4</ele>
        <time>2021-02-24T15:27:37Z</time>
      </trkpt>
      <trkpt lat="45.32942" lon="5.9161">
        <ele>684</ele>
        <time>2021-02-24T15:27:36Z</time>
      </trkpt>
      <trkpt lat="45.32942" lon="5.91609">
        <ele>683.8</ele>
        <time>2021-02-24T15:27:35Z</time>
      </trkpt>
      <trkpt lat="45.32943" lon="5.91608">
        <ele>683.8</ele>
        <time>2021-02-24T15:27:34Z</time>
      </trkpt>
      <trkpt lat="45.32944" lon="5.91607">
        <ele>683.6</ele>
        <time>2021-02-24T15:27:33Z</time>
      </trkpt>
      <trkpt lat="45.32944" lon="5.91606">
        <ele>683.2</ele>
        <time>2021-02-24T15:27:32Z</time>
      </trkpt>
      <trkpt lat="45.32945" lon="5.91605">
        <ele>683</ele>
        <time>2021-02-24T15:27:31Z</time>
      </trkpt>
      <trkpt lat="45.32945" lon="5.91604">
        <ele>682.6</ele>
        <time>2021-02-24T15:27:30Z</time>
      </trkpt>
      <trkpt lat="45.32947" lon="5.91604">
        <ele>682.2</ele>
        <time>2021-02-24T15:27:29Z</time>
      </trkpt>
      <trkpt lat="45.32949" lon="5.91604">
        <ele>681.8</ele>
        <time>2021-02-24T15:27:28Z</time>
      </trkpt>
      <trkpt lat="45.32951" lon="5.91604">
        <ele>681.6</ele>
        <time>2021-02-24T15:27:27Z</time>
      </trkpt>
      <trkpt lat="45.32953" lon="5.91604">
        <ele>681.2</ele>
        <time>2021-02-24T15:27:26Z</time>
      </trkpt>
      <trkpt lat="45.32955" lon="5.91604">
        <ele>681</ele>
        <time>2021-02-24T15:27:25Z</time>
      </trkpt>
      <trkpt lat="45.32956" lon="5.91605">
        <ele>680.6</ele>
        <time>2021-02-24T15:27:24Z</time>
      </trkpt>
      <trkpt lat="45.32956" lon="5.91605">
        <ele>680.4</ele>
        <time>2021-02-24T15:27:23Z</time>
      </trkpt>
      <trkpt lat="45.32957" lon="5.91605">
        <ele>680.2</ele>
        <time>2021-02-24T15:27:22Z</time>
      </trkpt>
      <trkpt lat="45.32958" lon="5.91605">
        <ele>680</ele>
        <time>2021-02-24T15:27:21Z</time>
      </trkpt>
      <trkpt lat="45.32959" lon="5.91605">
        <ele>679.6</ele>
        <time>2021-02-24T15:27:20Z</time>
      </trkpt>
      <trkpt lat="45.3296" lon="5.91605">
        <ele>679.2</ele>
        <time>2021-02-24T15:27:19Z</time>
      </trkpt>
      <trkpt lat="45.3296" lon="5.91606">
        <ele>679</ele>
        <time>2021-02-24T15:27:18Z</time>
      </trkpt>
      <trkpt lat="45.32961" lon="5.91606">
        <ele>678.4</ele>
        <time>2021-02-24T15:27:17Z</time>
      </trkpt>
      <trkpt lat="45.32962" lon="5.91606">
        <ele>678.2</ele>
        <time>2021-02-24T15:27:16Z</time>
      </trkpt>
      <trkpt lat="45.32963" lon="5.91606">
        <ele>677.8</ele>
        <time>2021-02-24T15:27:15Z</time>
      </trkpt>
      <trkpt lat="45.32963" lon="5.91606">
        <ele>677.6</ele>
        <time>2021-02-24T15:27:14Z</time>
      </trkpt>
      <trkpt lat="45.32964" lon="5.91607">
        <ele>677.2</ele>
        <time>2021-02-24T15:27:13Z</time>
      </trkpt>
      <trkpt lat="45.32965" lon="5.91607">
        <ele>676.6</ele>
        <time>2021-02-24T15:27:12Z</time>
      </trkpt>
      <trkpt lat="45.32966" lon="5.91608">
        <ele>676.4</ele>
        <time>2021-02-24T15:27:11Z</time>
      </trkpt>
      <trkpt lat="45.32967" lon="5.91609">
        <ele>676.2</ele>
        <time>2021-02-24T15:27:10Z</time>
      </trkpt>
      <trkpt lat="45.32967" lon="5.91609">
        <ele>675.8</ele>
        <time>2021-02-24T15:27:09Z</time>
      </trkpt>
      <trkpt lat="45.32968" lon="5.9161">
        <ele>675.6</ele>
        <time>2021-02-24T15:27:08Z</time>
      </trkpt>
      <trkpt lat="45.32969" lon="5.91611">
        <ele>675.2</ele>
        <time>2021-02-24T15:27:07Z</time>
      </trkpt>
      <trkpt lat="45.3297" lon="5.91612">
        <ele>675</ele>
        <time>2021-02-24T15:27:06Z</time>
      </trkpt>
      <trkpt lat="45.32971" lon="5.91613">
        <ele>674.4</ele>
        <time>2021-02-24T15:27:05Z</time>
      </trkpt>
      <trkpt lat="45.32972" lon="5.91614">
        <ele>674.2</ele>
        <time>2021-02-24T15:27:04Z</time>
      </trkpt>
      <trkpt lat="45.32973" lon="5.91615">
        <ele>674.2</ele>
        <time>2021-02-24T15:27:03Z</time>
      </trkpt>
      <trkpt lat="45.32974" lon="5.91615">
        <ele>673.6</ele>
        <time>2021-02-24T15:27:02Z</time>
      </trkpt>
      <trkpt lat="45.32975" lon="5.91616">
        <ele>673.2</ele>
        <time>2021-02-24T15:27:01Z</time>
      </trkpt>
      <trkpt lat="45.32975" lon="5.91617">
        <ele>672.8</ele>
        <time>2021-02-24T15:27:00Z</time>
      </trkpt>
      <trkpt lat="45.32976" lon="5.91617">
        <ele>672.4</ele>
        <time>2021-02-24T15:26:59Z</time>
      </trkpt>
      <trkpt lat="45.32977" lon="5.91618">
        <ele>672</ele>
        <time>2021-02-24T15:26:58Z</time>
      </trkpt>
      <trkpt lat="45.32978" lon="5.91619">
        <ele>671.6</ele>
        <time>2021-02-24T15:26:57Z</time>
      </trkpt>
      <trkpt lat="45.32979" lon="5.91619">
        <ele>671.2</ele>
        <time>2021-02-24T15:26:56Z</time>
      </trkpt>
      <trkpt lat="45.3298" lon="5.9162">
        <ele>671</ele>
        <time>2021-02-24T15:26:55Z</time>
      </trkpt>
      <trkpt lat="45.32981" lon="5.91621">
        <ele>670.6</ele>
        <time>2021-02-24T15:26:54Z</time>
      </trkpt>
      <trkpt lat="45.32982" lon="5.91621">
        <ele>670.2</ele>
        <time>2021-02-24T15:26:53Z</time>
      </trkpt>
      <trkpt lat="45.32983" lon="5.91622">
        <ele>670</ele>
        <time>2021-02-24T15:26:52Z</time>
      </trkpt>
      <trkpt lat="45.32984" lon="5.91623">
        <ele>669.8</ele>
        <time>2021-02-24T15:26:51Z</time>
      </trkpt>
      <trkpt lat="45.32985" lon="5.91624">
        <ele>669.6</ele>
        <time>2021-02-24T15:26:50Z</time>
      </trkpt>
      <trkpt lat="45.32985" lon="5.91625">
        <ele>669.2</ele>
        <time>2021-02-24T15:26:49Z</time>
      </trkpt>
      <trkpt lat="45.32986" lon="5.91626">
        <ele>668.8</ele>
        <time>2021-02-24T15:26:48Z</time>
      </trkpt>
      <trkpt lat="45.32986" lon="5.91627">
        <ele>668.4</ele>
        <time>2021-02-24T15:26:47Z</time>
      </trkpt>
      <trkpt lat="45.32987" lon="5.91628">
        <ele>668</ele>
        <time>2021-02-24T15:26:46Z</time>
      </trkpt>
      <trkpt lat="45.32987" lon="5.91629">
        <ele>667.8</ele>
        <time>2021-02-24T15:26:45Z</time>
      </trkpt>
      <trkpt lat="45.32988" lon="5.9163">
        <ele>667.4</ele>
        <time>2021-02-24T15:26:44Z</time>
      </trkpt>
      <trkpt lat="45.32989" lon="5.91631">
        <ele>667</ele>
        <time>2021-02-24T15:26:43Z</time>
      </trkpt>
      <trkpt lat="45.32989" lon="5.91632">
        <ele>666.4</ele>
        <time>2021-02-24T15:26:42Z</time>
      </trkpt>
      <trkpt lat="45.32991" lon="5.91633">
        <ele>666.2</ele>
        <time>2021-02-24T15:26:41Z</time>
      </trkpt>
      <trkpt lat="45.32992" lon="5.91634">
        <ele>666</ele>
        <time>2021-02-24T15:26:40Z</time>
      </trkpt>
      <trkpt lat="45.32994" lon="5.91635">
        <ele>665.8</ele>
        <time>2021-02-24T15:26:39Z</time>
      </trkpt>
      <trkpt lat="45.32995" lon="5.91636">
        <ele>665.6</ele>
        <time>2021-02-24T15:26:38Z</time>
      </trkpt>
      <trkpt lat="45.32997" lon="5.91637">
        <ele>665.2</ele>
        <time>2021-02-24T15:26:37Z</time>
      </trkpt>
      <trkpt lat="45.32998" lon="5.91638">
        <ele>664.8</ele>
        <time>2021-02-24T15:26:36Z</time>
      </trkpt>
      <trkpt lat="45.32999" lon="5.91639">
        <ele>664.4</ele>
        <time>2021-02-24T15:26:35Z</time>
      </trkpt>
      <trkpt lat="45.32999" lon="5.91641">
        <ele>663.8</ele>
        <time>2021-02-24T15:26:34Z</time>
      </trkpt>
      <trkpt lat="45.33" lon="5.91642">
        <ele>663.8</ele>
        <time>2021-02-24T15:26:33Z</time>
      </trkpt>
      <trkpt lat="45.33001" lon="5.91644">
        <ele>663.4</ele>
        <time>2021-02-24T15:26:32Z</time>
      </trkpt>
      <trkpt lat="45.33001" lon="5.91645">
        <ele>663.4</ele>
        <time>2021-02-24T15:26:31Z</time>
      </trkpt>
      <trkpt lat="45.33002" lon="5.91646">
        <ele>663</ele>
        <time>2021-02-24T15:26:30Z</time>
      </trkpt>
      <trkpt lat="45.33002" lon="5.91648">
        <ele>662.6</ele>
        <time>2021-02-24T15:26:29Z</time>
      </trkpt>
      <trkpt lat="45.33003" lon="5.91649">
        <ele>662.2</ele>
        <time>2021-02-24T15:26:28Z</time>
      </trkpt>
      <trkpt lat="45.33002" lon="5.91652">
        <ele>661.8</ele>
        <time>2021-02-24T15:26:27Z</time>
      </trkpt>
      <trkpt lat="45.33002" lon="5.91655">
        <ele>661.6</ele>
        <time>2021-02-24T15:26:26Z</time>
      </trkpt>
      <trkpt lat="45.33001" lon="5.91658">
        <ele>661.2</ele>
        <time>2021-02-24T15:26:25Z</time>
      </trkpt>
      <trkpt lat="45.33001" lon="5.9166">
        <ele>661.2</ele>
        <time>2021-02-24T15:26:24Z</time>
      </trkpt>
      <trkpt lat="45.33" lon="5.91663">
        <ele>661</ele>
        <time>2021-02-24T15:26:23Z</time>
      </trkpt>
      <trkpt lat="45.32999" lon="5.91665">
        <ele>660.8</ele>
        <time>2021-02-24T15:26:22Z</time>
      </trkpt>
      <trkpt lat="45.32998" lon="5.91667">
        <ele>660.4</ele>
        <time>2021-02-24T15:26:21Z</time>
      </trkpt>
      <trkpt lat="45.32997" lon="5.91669">
        <ele>660.2</ele>
        <time>2021-02-24T15:26:20Z</time>
      </trkpt>
      <trkpt lat="45.32996" lon="5.9167">
        <ele>659.8</ele>
        <time>2021-02-24T15:26:19Z</time>
      </trkpt>
      <trkpt lat="45.32995" lon="5.91672">
        <ele>659.8</ele>
        <time>2021-02-24T15:26:18Z</time>
      </trkpt>
      <trkpt lat="45.32994" lon="5.91674">
        <ele>659</ele>
        <time>2021-02-24T15:26:17Z</time>
      </trkpt>
      <trkpt lat="45.32993" lon="5.91676">
        <ele>659</ele>
        <time>2021-02-24T15:26:16Z</time>
      </trkpt>
      <trkpt lat="45.32993" lon="5.91677">
        <ele>658.8</ele>
        <time>2021-02-24T15:26:15Z</time>
      </trkpt>
      <trkpt lat="45.32992" lon="5.91679">
        <ele>658.2</ele>
        <time>2021-02-24T15:26:14Z</time>
      </trkpt>
      <trkpt lat="45.32991" lon="5.9168">
        <ele>658</ele>
        <time>2021-02-24T15:26:13Z</time>
      </trkpt>
      <trkpt lat="45.3299" lon="5.91681">
        <ele>658</ele>
        <time>2021-02-24T15:26:12Z</time>
      </trkpt>
      <trkpt lat="45.32989" lon="5.91683">
        <ele>657.4</ele>
        <time>2021-02-24T15:26:11Z</time>
      </trkpt>
      <trkpt lat="45.32988" lon="5.91684">
        <ele>657.2</ele>
        <time>2021-02-24T15:26:10Z</time>
      </trkpt>
      <trkpt lat="45.32987" lon="5.91685">
        <ele>657</ele>
        <time>2021-02-24T15:26:09Z</time>
      </trkpt>
      <trkpt lat="45.32985" lon="5.91686">
        <ele>656.2</ele>
        <time>2021-02-24T15:26:08Z</time>
      </trkpt>
      <trkpt lat="45.32983" lon="5.91687">
        <ele>656.2</ele>
        <time>2021-02-24T15:26:07Z</time>
      </trkpt>
      <trkpt lat="45.32982" lon="5.91688">
        <ele>656.2</ele>
        <time>2021-02-24T15:26:06Z</time>
      </trkpt>
      <trkpt lat="45.3298" lon="5.91689">
        <ele>655.6</ele>
        <time>2021-02-24T15:26:05Z</time>
      </trkpt>
      <trkpt lat="45.32978" lon="5.91691">
        <ele>655.2</ele>
        <time>2021-02-24T15:26:04Z</time>
      </trkpt>
      <trkpt lat="45.32977" lon="5.91692">
        <ele>654.8</ele>
        <time>2021-02-24T15:26:03Z</time>
      </trkpt>
      <trkpt lat="45.32975" lon="5.91694">
        <ele>654.4</ele>
        <time>2021-02-24T15:26:02Z</time>
      </trkpt>
      <trkpt lat="45.32974" lon="5.91695">
        <ele>654.2</ele>
        <time>2021-02-24T15:26:01Z</time>
      </trkpt>
      <trkpt lat="45.32972" lon="5.91697">
        <ele>654</ele>
        <time>2021-02-24T15:26:00Z</time>
      </trkpt>
      <trkpt lat="45.32971" lon="5.91698">
        <ele>653.4</ele>
        <time>2021-02-24T15:25:59Z</time>
      </trkpt>
      <trkpt lat="45.32969" lon="5.917">
        <ele>653.4</ele>
        <time>2021-02-24T15:25:58Z</time>
      </trkpt>
      <trkpt lat="45.32968" lon="5.91702">
        <ele>653</ele>
        <time>2021-02-24T15:25:57Z</time>
      </trkpt>
      <trkpt lat="45.32967" lon="5.91704">
        <ele>652.6</ele>
        <time>2021-02-24T15:25:56Z</time>
      </trkpt>
      <trkpt lat="45.32965" lon="5.91706">
        <ele>652.4</ele>
        <time>2021-02-24T15:25:55Z</time>
      </trkpt>
      <trkpt lat="45.32964" lon="5.91707">
        <ele>652</ele>
        <time>2021-02-24T15:25:54Z</time>
      </trkpt>
      <trkpt lat="45.32963" lon="5.9171">
        <ele>651.8</ele>
        <time>2021-02-24T15:25:53Z</time>
      </trkpt>
      <trkpt lat="45.32962" lon="5.91712">
        <ele>651.8</ele>
        <time>2021-02-24T15:25:52Z</time>
      </trkpt>
      <trkpt lat="45.32962" lon="5.91714">
        <ele>650.8</ele>
        <time>2021-02-24T15:25:51Z</time>
      </trkpt>
      <trkpt lat="45.32961" lon="5.91716">
        <ele>650.6</ele>
        <time>2021-02-24T15:25:50Z</time>
      </trkpt>
      <trkpt lat="45.3296" lon="5.91718">
        <ele>650.4</ele>
        <time>2021-02-24T15:25:49Z</time>
      </trkpt>
      <trkpt lat="45.32959" lon="5.9172">
        <ele>649.8</ele>
        <time>2021-02-24T15:25:48Z</time>
      </trkpt>
      <trkpt lat="45.32958" lon="5.91722">
        <ele>649.8</ele>
        <time>2021-02-24T15:25:47Z</time>
      </trkpt>
      <trkpt lat="45.32957" lon="5.91723">
        <ele>649.2</ele>
        <time>2021-02-24T15:25:46Z</time>
      </trkpt>
      <trkpt lat="45.32956" lon="5.91725">
        <ele>648.6</ele>
        <time>2021-02-24T15:25:45Z</time>
      </trkpt>
      <trkpt lat="45.32955" lon="5.91726">
        <ele>648.6</ele>
        <time>2021-02-24T15:25:44Z</time>
      </trkpt>
      <trkpt lat="45.32954" lon="5.91728">
        <ele>648.2</ele>
        <time>2021-02-24T15:25:43Z</time>
      </trkpt>
      <trkpt lat="45.32953" lon="5.91729">
        <ele>648</ele>
        <time>2021-02-24T15:25:42Z</time>
      </trkpt>
      <trkpt lat="45.32952" lon="5.91731">
        <ele>647.6</ele>
        <time>2021-02-24T15:25:41Z</time>
      </trkpt>
      <trkpt lat="45.32951" lon="5.91732">
        <ele>647.4</ele>
        <time>2021-02-24T15:25:40Z</time>
      </trkpt>
      <trkpt lat="45.3295" lon="5.91732">
        <ele>647.2</ele>
        <time>2021-02-24T15:25:39Z</time>
      </trkpt>
      <trkpt lat="45.32948" lon="5.91733">
        <ele>646.8</ele>
        <time>2021-02-24T15:25:38Z</time>
      </trkpt>
      <trkpt lat="45.32947" lon="5.91734">
        <ele>646.4</ele>
        <time>2021-02-24T15:25:37Z</time>
      </trkpt>
      <trkpt lat="45.32946" lon="5.91735">
        <ele>646.2</ele>
        <time>2021-02-24T15:25:36Z</time>
      </trkpt>
      <trkpt lat="45.32944" lon="5.91735">
        <ele>646</ele>
        <time>2021-02-24T15:25:35Z</time>
      </trkpt>
      <trkpt lat="45.32943" lon="5.91736">
        <ele>645.6</ele>
        <time>2021-02-24T15:25:34Z</time>
      </trkpt>
      <trkpt lat="45.32942" lon="5.91737">
        <ele>645.2</ele>
        <time>2021-02-24T15:25:33Z</time>
      </trkpt>
      <trkpt lat="45.32941" lon="5.91738">
        <ele>645.2</ele>
        <time>2021-02-24T15:25:32Z</time>
      </trkpt>
      <trkpt lat="45.32941" lon="5.91739">
        <ele>645</ele>
        <time>2021-02-24T15:25:31Z</time>
      </trkpt>
      <trkpt lat="45.3294" lon="5.9174">
        <ele>644.8</ele>
        <time>2021-02-24T15:25:30Z</time>
      </trkpt>
      <trkpt lat="45.32939" lon="5.91741">
        <ele>644.4</ele>
        <time>2021-02-24T15:25:29Z</time>
      </trkpt>
      <trkpt lat="45.32938" lon="5.91742">
        <ele>644</ele>
        <time>2021-02-24T15:25:28Z</time>
      </trkpt>
      <trkpt lat="45.32938" lon="5.91743">
        <ele>643.4</ele>
        <time>2021-02-24T15:25:27Z</time>
      </trkpt>
      <trkpt lat="45.32937" lon="5.91745">
        <ele>643</ele>
        <time>2021-02-24T15:25:26Z</time>
      </trkpt>
      <trkpt lat="45.32936" lon="5.91746">
        <ele>642.8</ele>
        <time>2021-02-24T15:25:25Z</time>
      </trkpt>
      <trkpt lat="45.32935" lon="5.91745">
        <ele>642.4</ele>
        <time>2021-02-24T15:25:24Z</time>
      </trkpt>
      <trkpt lat="45.32934" lon="5.91745">
        <ele>642.2</ele>
        <time>2021-02-24T15:25:23Z</time>
      </trkpt>
      <trkpt lat="45.32933" lon="5.91745">
        <ele>641.6</ele>
        <time>2021-02-24T15:25:22Z</time>
      </trkpt>
      <trkpt lat="45.32932" lon="5.91745">
        <ele>641.2</ele>
        <time>2021-02-24T15:25:21Z</time>
      </trkpt>
      <trkpt lat="45.32931" lon="5.91745">
        <ele>640.8</ele>
        <time>2021-02-24T15:25:20Z</time>
      </trkpt>
      <trkpt lat="45.3293" lon="5.91745">
        <ele>640.4</ele>
        <time>2021-02-24T15:25:19Z</time>
      </trkpt>
      <trkpt lat="45.32929" lon="5.91744">
        <ele>640.2</ele>
        <time>2021-02-24T15:25:18Z</time>
      </trkpt>
      <trkpt lat="45.32928" lon="5.91744">
        <ele>640</ele>
        <time>2021-02-24T15:25:17Z</time>
      </trkpt>
      <trkpt lat="45.32927" lon="5.91744">
        <ele>639.8</ele>
        <time>2021-02-24T15:25:16Z</time>
      </trkpt>
      <trkpt lat="45.32925" lon="5.91745">
        <ele>639.6</ele>
        <time>2021-02-24T15:25:15Z</time>
      </trkpt>
      <trkpt lat="45.32923" lon="5.91746">
        <ele>639.4</ele>
        <time>2021-02-24T15:25:14Z</time>
      </trkpt>
      <trkpt lat="45.32921" lon="5.91747">
        <ele>639</ele>
        <time>2021-02-24T15:25:13Z</time>
      </trkpt>
      <trkpt lat="45.32919" lon="5.91748">
        <ele>638.4</ele>
        <time>2021-02-24T15:25:12Z</time>
      </trkpt>
      <trkpt lat="45.32918" lon="5.91749">
        <ele>638.4</ele>
        <time>2021-02-24T15:25:11Z</time>
      </trkpt>
      <trkpt lat="45.32917" lon="5.9175">
        <ele>638.6</ele>
        <time>2021-02-24T15:25:10Z</time>
      </trkpt>
      <trkpt lat="45.32917" lon="5.91751">
        <ele>638.6</ele>
        <time>2021-02-24T15:25:09Z</time>
      </trkpt>
      <trkpt lat="45.32917" lon="5.91752">
        <ele>637.2</ele>
        <time>2021-02-24T15:25:08Z</time>
      </trkpt>
      <trkpt lat="45.32917" lon="5.91752">
        <ele>636.8</ele>
        <time>2021-02-24T15:25:07Z</time>
      </trkpt>
      <trkpt lat="45.32917" lon="5.91753">
        <ele>636.8</ele>
        <time>2021-02-24T15:25:06Z</time>
      </trkpt>
      <trkpt lat="45.32916" lon="5.91754">
        <ele>636.4</ele>
        <time>2021-02-24T15:25:05Z</time>
      </trkpt>
      <trkpt lat="45.32916" lon="5.91755">
        <ele>636</ele>
        <time>2021-02-24T15:25:04Z</time>
      </trkpt>
      <trkpt lat="45.32916" lon="5.91756">
        <ele>635.6</ele>
        <time>2021-02-24T15:25:03Z</time>
      </trkpt>
      <trkpt lat="45.32916" lon="5.91757">
        <ele>635.2</ele>
        <time>2021-02-24T15:25:02Z</time>
      </trkpt>
      <trkpt lat="45.32916" lon="5.91758">
        <ele>634.8</ele>
        <time>2021-02-24T15:25:01Z</time>
      </trkpt>
      <trkpt lat="45.32916" lon="5.91759">
        <ele>634.4</ele>
        <time>2021-02-24T15:25:00Z</time>
      </trkpt>
      <trkpt lat="45.32915" lon="5.9176">
        <ele>634.2</ele>
        <time>2021-02-24T15:24:59Z</time>
      </trkpt>
      <trkpt lat="45.32915" lon="5.91761">
        <ele>633.8</ele>
        <time>2021-02-24T15:24:58Z</time>
      </trkpt>
      <trkpt lat="45.32915" lon="5.91762">
        <ele>633.4</ele>
        <time>2021-02-24T15:24:57Z</time>
      </trkpt>
      <trkpt lat="45.32917" lon="5.91763">
        <ele>633.2</ele>
        <time>2021-02-24T15:24:56Z</time>
      </trkpt>
      <trkpt lat="45.32919" lon="5.91764">
        <ele>633.2</ele>
        <time>2021-02-24T15:24:55Z</time>
      </trkpt>
      <trkpt lat="45.32921" lon="5.91765">
        <ele>632.8</ele>
        <time>2021-02-24T15:24:54Z</time>
      </trkpt>
      <trkpt lat="45.32923" lon="5.91766">
        <ele>632.6</ele>
        <time>2021-02-24T15:24:53Z</time>
      </trkpt>
      <trkpt lat="45.32924" lon="5.91767">
        <ele>632.2</ele>
        <time>2021-02-24T15:24:52Z</time>
      </trkpt>
      <trkpt lat="45.32927" lon="5.91768">
        <ele>631.6</ele>
        <time>2021-02-24T15:24:51Z</time>
      </trkpt>
      <trkpt lat="45.32929" lon="5.91769">
        <ele>631.6</ele>
        <time>2021-02-24T15:24:50Z</time>
      </trkpt>
      <trkpt lat="45.32931" lon="5.9177">
        <ele>631.6</ele>
        <time>2021-02-24T15:24:49Z</time>
      </trkpt>
      <trkpt lat="45.32933" lon="5.91771">
        <ele>631</ele>
        <time>2021-02-24T15:24:48Z</time>
      </trkpt>
      <trkpt lat="45.32934" lon="5.91773">
        <ele>630.8</ele>
        <time>2021-02-24T15:24:47Z</time>
      </trkpt>
      <trkpt lat="45.32934" lon="5.91775">
        <ele>630.6</ele>
        <time>2021-02-24T15:24:46Z</time>
      </trkpt>
      <trkpt lat="45.32935" lon="5.91777">
        <ele>630.4</ele>
        <time>2021-02-24T15:24:45Z</time>
      </trkpt>
      <trkpt lat="45.32936" lon="5.91778">
        <ele>629.8</ele>
        <time>2021-02-24T15:24:44Z</time>
      </trkpt>
      <trkpt lat="45.32936" lon="5.9178">
        <ele>629.4</ele>
        <time>2021-02-24T15:24:43Z</time>
      </trkpt>
      <trkpt lat="45.32937" lon="5.91782">
        <ele>629.2</ele>
        <time>2021-02-24T15:24:42Z</time>
      </trkpt>
      <trkpt lat="45.32937" lon="5.91784">
        <ele>628.8</ele>
        <time>2021-02-24T15:24:41Z</time>
      </trkpt>
      <trkpt lat="45.32937" lon="5.91785">
        <ele>628.4</ele>
        <time>2021-02-24T15:24:40Z</time>
      </trkpt>
      <trkpt lat="45.32936" lon="5.91786">
        <ele>628</ele>
        <time>2021-02-24T15:24:39Z</time>
      </trkpt>
      <trkpt lat="45.32935" lon="5.91787">
        <ele>627.6</ele>
        <time>2021-02-24T15:24:38Z</time>
      </trkpt>
      <trkpt lat="45.32935" lon="5.91788">
        <ele>627.4</ele>
        <time>2021-02-24T15:24:37Z</time>
      </trkpt>
      <trkpt lat="45.32934" lon="5.91789">
        <ele>627</ele>
        <time>2021-02-24T15:24:36Z</time>
      </trkpt>
      <trkpt lat="45.32933" lon="5.9179">
        <ele>626.6</ele>
        <time>2021-02-24T15:24:35Z</time>
      </trkpt>
      <trkpt lat="45.32933" lon="5.91791">
        <ele>626.2</ele>
        <time>2021-02-24T15:24:34Z</time>
      </trkpt>
      <trkpt lat="45.32932" lon="5.91792">
        <ele>625.8</ele>
        <time>2021-02-24T15:24:33Z</time>
      </trkpt>
      <trkpt lat="45.32931" lon="5.91793">
        <ele>625.4</ele>
        <time>2021-02-24T15:24:32Z</time>
      </trkpt>
      <trkpt lat="45.32931" lon="5.91794">
        <ele>625</ele>
        <time>2021-02-24T15:24:31Z</time>
      </trkpt>
      <trkpt lat="45.32929" lon="5.91795">
        <ele>624.8</ele>
        <time>2021-02-24T15:24:30Z</time>
      </trkpt>
      <trkpt lat="45.32928" lon="5.91795">
        <ele>624.6</ele>
        <time>2021-02-24T15:24:29Z</time>
      </trkpt>
      <trkpt lat="45.32927" lon="5.91796">
        <ele>624.4</ele>
        <time>2021-02-24T15:24:28Z</time>
      </trkpt>
      <trkpt lat="45.32926" lon="5.91797">
        <ele>624</ele>
        <time>2021-02-24T15:24:27Z</time>
      </trkpt>
      <trkpt lat="45.32925" lon="5.91798">
        <ele>623.8</ele>
        <time>2021-02-24T15:24:26Z</time>
      </trkpt>
      <trkpt lat="45.32924" lon="5.91798">
        <ele>623.8</ele>
        <time>2021-02-24T15:24:25Z</time>
      </trkpt>
      <trkpt lat="45.32923" lon="5.91799">
        <ele>623.8</ele>
        <time>2021-02-24T15:24:24Z</time>
      </trkpt>
      <trkpt lat="45.32921" lon="5.918">
        <ele>623.6</ele>
        <time>2021-02-24T15:24:23Z</time>
      </trkpt>
      <trkpt lat="45.3292" lon="5.91799">
        <ele>623.8</ele>
        <time>2021-02-24T15:24:22Z</time>
      </trkpt>
      <trkpt lat="45.32919" lon="5.91799">
        <ele>624.2</ele>
        <time>2021-02-24T15:24:21Z</time>
      </trkpt>
      <trkpt lat="45.32918" lon="5.91799">
        <ele>624.6</ele>
        <time>2021-02-24T15:24:20Z</time>
      </trkpt>
      <trkpt lat="45.32917" lon="5.91798">
        <ele>624</ele>
        <time>2021-02-24T15:24:19Z</time>
      </trkpt>
      <trkpt lat="45.32916" lon="5.91798">
        <ele>623.8</ele>
        <time>2021-02-24T15:24:18Z</time>
      </trkpt>
      <trkpt lat="45.32915" lon="5.91797">
        <ele>623.6</ele>
        <time>2021-02-24T15:24:17Z</time>
      </trkpt>
      <trkpt lat="45.32914" lon="5.91797">
        <ele>623</ele>
        <time>2021-02-24T15:24:16Z</time>
      </trkpt>
      <trkpt lat="45.32913" lon="5.91796">
        <ele>622.8</ele>
        <time>2021-02-24T15:24:15Z</time>
      </trkpt>
      <trkpt lat="45.32912" lon="5.91796">
        <ele>622.4</ele>
        <time>2021-02-24T15:24:14Z</time>
      </trkpt>
      <trkpt lat="45.32912" lon="5.91797">
        <ele>622</ele>
        <time>2021-02-24T15:24:13Z</time>
      </trkpt>
      <trkpt lat="45.32912" lon="5.91798">
        <ele>621.6</ele>
        <time>2021-02-24T15:24:12Z</time>
      </trkpt>
      <trkpt lat="45.32912" lon="5.91799">
        <ele>621.2</ele>
        <time>2021-02-24T15:24:11Z</time>
      </trkpt>
      <trkpt lat="45.32912" lon="5.918">
        <ele>620.8</ele>
        <time>2021-02-24T15:24:10Z</time>
      </trkpt>
      <trkpt lat="45.32912" lon="5.91801">
        <ele>620.4</ele>
        <time>2021-02-24T15:24:09Z</time>
      </trkpt>
      <trkpt lat="45.32912" lon="5.91802">
        <ele>620</ele>
        <time>2021-02-24T15:24:08Z</time>
      </trkpt>
      <trkpt lat="45.32912" lon="5.91803">
        <ele>619.8</ele>
        <time>2021-02-24T15:24:07Z</time>
      </trkpt>
      <trkpt lat="45.32912" lon="5.91804">
        <ele>619.6</ele>
        <time>2021-02-24T15:24:06Z</time>
      </trkpt>
      <trkpt lat="45.32912" lon="5.91806">
        <ele>619.2</ele>
        <time>2021-02-24T15:24:05Z</time>
      </trkpt>
      <trkpt lat="45.32912" lon="5.91807">
        <ele>618.6</ele>
        <time>2021-02-24T15:24:04Z</time>
      </trkpt>
      <trkpt lat="45.32912" lon="5.91808">
        <ele>618.4</ele>
        <time>2021-02-24T15:24:03Z</time>
      </trkpt>
      <trkpt lat="45.32912" lon="5.91809">
        <ele>617.8</ele>
        <time>2021-02-24T15:24:02Z</time>
      </trkpt>
      <trkpt lat="45.32911" lon="5.91809">
        <ele>617.4</ele>
        <time>2021-02-24T15:24:01Z</time>
      </trkpt>
      <trkpt lat="45.3291" lon="5.9181">
        <ele>617.2</ele>
        <time>2021-02-24T15:24:00Z</time>
      </trkpt>
      <trkpt lat="45.32909" lon="5.91811">
        <ele>616.8</ele>
        <time>2021-02-24T15:23:59Z</time>
      </trkpt>
      <trkpt lat="45.32908" lon="5.91811">
        <ele>616.4</ele>
        <time>2021-02-24T15:23:58Z</time>
      </trkpt>
      <trkpt lat="45.32907" lon="5.91812">
        <ele>616</ele>
        <time>2021-02-24T15:23:57Z</time>
      </trkpt>
      <trkpt lat="45.32906" lon="5.91812">
        <ele>615.6</ele>
        <time>2021-02-24T15:23:56Z</time>
      </trkpt>
      <trkpt lat="45.32906" lon="5.91813">
        <ele>615.2</ele>
        <time>2021-02-24T15:23:55Z</time>
      </trkpt>
      <trkpt lat="45.32905" lon="5.91814">
        <ele>614.8</ele>
        <time>2021-02-24T15:23:54Z</time>
      </trkpt>
      <trkpt lat="45.32904" lon="5.91814">
        <ele>614.6</ele>
        <time>2021-02-24T15:23:53Z</time>
      </trkpt>
      <trkpt lat="45.32903" lon="5.91815">
        <ele>614.4</ele>
        <time>2021-02-24T15:23:52Z</time>
      </trkpt>
      <trkpt lat="45.32902" lon="5.91815">
        <ele>614</ele>
        <time>2021-02-24T15:23:51Z</time>
      </trkpt>
      <trkpt lat="45.329" lon="5.91814">
        <ele>613.6</ele>
        <time>2021-02-24T15:23:50Z</time>
      </trkpt>
      <trkpt lat="45.32899" lon="5.91814">
        <ele>613.2</ele>
        <time>2021-02-24T15:23:49Z</time>
      </trkpt>
      <trkpt lat="45.32898" lon="5.91814">
        <ele>612.8</ele>
        <time>2021-02-24T15:23:48Z</time>
      </trkpt>
      <trkpt lat="45.32897" lon="5.91813">
        <ele>612.6</ele>
        <time>2021-02-24T15:23:47Z</time>
      </trkpt>
      <trkpt lat="45.32895" lon="5.91813">
        <ele>612.2</ele>
        <time>2021-02-24T15:23:46Z</time>
      </trkpt>
      <trkpt lat="45.32894" lon="5.91813">
        <ele>611.6</ele>
        <time>2021-02-24T15:23:45Z</time>
      </trkpt>
      <trkpt lat="45.32893" lon="5.91812">
        <ele>611.2</ele>
        <time>2021-02-24T15:23:44Z</time>
      </trkpt>
      <trkpt lat="45.32893" lon="5.91811">
        <ele>611.2</ele>
        <time>2021-02-24T15:23:43Z</time>
      </trkpt>
      <trkpt lat="45.32892" lon="5.9181">
        <ele>610.6</ele>
        <time>2021-02-24T15:23:42Z</time>
      </trkpt>
      <trkpt lat="45.32892" lon="5.91809">
        <ele>610.2</ele>
        <time>2021-02-24T15:23:41Z</time>
      </trkpt>
      <trkpt lat="45.32891" lon="5.91809">
        <ele>609.4</ele>
        <time>2021-02-24T15:23:40Z</time>
      </trkpt>
      <trkpt lat="45.3289" lon="5.91808">
        <ele>609.2</ele>
        <time>2021-02-24T15:23:39Z</time>
      </trkpt>
      <trkpt lat="45.3289" lon="5.91807">
        <ele>608.6</ele>
        <time>2021-02-24T15:23:38Z</time>
      </trkpt>
      <trkpt lat="45.32889" lon="5.91806">
        <ele>608.4</ele>
        <time>2021-02-24T15:23:37Z</time>
      </trkpt>
      <trkpt lat="45.32889" lon="5.91805">
        <ele>608</ele>
        <time>2021-02-24T15:23:36Z</time>
      </trkpt>
      <trkpt lat="45.32888" lon="5.91804">
        <ele>607.6</ele>
        <time>2021-02-24T15:23:35Z</time>
      </trkpt>
      <trkpt lat="45.32887" lon="5.91803">
        <ele>607.4</ele>
        <time>2021-02-24T15:23:34Z</time>
      </trkpt>
      <trkpt lat="45.32887" lon="5.91802">
        <ele>607.2</ele>
        <time>2021-02-24T15:23:33Z</time>
      </trkpt>
      <trkpt lat="45.32887" lon="5.91801">
        <ele>607.2</ele>
        <time>2021-02-24T15:23:32Z</time>
      </trkpt>
      <trkpt lat="45.32886" lon="5.91801">
        <ele>607.2</ele>
        <time>2021-02-24T15:23:31Z</time>
      </trkpt>
      <trkpt lat="45.32886" lon="5.918">
        <ele>607.6</ele>
        <time>2021-02-24T15:23:30Z</time>
      </trkpt>
      <trkpt lat="45.32886" lon="5.91799">
        <ele>607.4</ele>
        <time>2021-02-24T15:23:29Z</time>
      </trkpt>
      <trkpt lat="45.32885" lon="5.91798">
        <ele>607</ele>
        <time>2021-02-24T15:23:28Z</time>
      </trkpt>
      <trkpt lat="45.32885" lon="5.91797">
        <ele>606.6</ele>
        <time>2021-02-24T15:23:27Z</time>
      </trkpt>
      <trkpt lat="45.32885" lon="5.91796">
        <ele>606.4</ele>
        <time>2021-02-24T15:23:26Z</time>
      </trkpt>
      <trkpt lat="45.32884" lon="5.91795">
        <ele>606.2</ele>
        <time>2021-02-24T15:23:25Z</time>
      </trkpt>
      <trkpt lat="45.32884" lon="5.91794">
        <ele>606</ele>
        <time>2021-02-24T15:23:24Z</time>
      </trkpt>
      <trkpt lat="45.32884" lon="5.91793">
        <ele>605.8</ele>
        <time>2021-02-24T15:23:23Z</time>
      </trkpt>
      <trkpt lat="45.32883" lon="5.91792">
        <ele>605.4</ele>
        <time>2021-02-24T15:23:22Z</time>
      </trkpt>
      <trkpt lat="45.32883" lon="5.91791">
        <ele>605</ele>
        <time>2021-02-24T15:23:21Z</time>
      </trkpt>
      <trkpt lat="45.32883" lon="5.9179">
        <ele>604.8</ele>
        <time>2021-02-24T15:23:20Z</time>
      </trkpt>
      <trkpt lat="45.32882" lon="5.91788">
        <ele>604.4</ele>
        <time>2021-02-24T15:23:19Z</time>
      </trkpt>
      <trkpt lat="45.32881" lon="5.91787">
        <ele>604.2</ele>
        <time>2021-02-24T15:23:18Z</time>
      </trkpt>
      <trkpt lat="45.32881" lon="5.91786">
        <ele>603.8</ele>
        <time>2021-02-24T15:23:17Z</time>
      </trkpt>
      <trkpt lat="45.3288" lon="5.91784">
        <ele>603.8</ele>
        <time>2021-02-24T15:23:16Z</time>
      </trkpt>
      <trkpt lat="45.3288" lon="5.91783">
        <ele>603.4</ele>
        <time>2021-02-24T15:23:15Z</time>
      </trkpt>
      <trkpt lat="45.32879" lon="5.91781">
        <ele>603</ele>
        <time>2021-02-24T15:23:14Z</time>
      </trkpt>
      <trkpt lat="45.32878" lon="5.9178">
        <ele>602.8</ele>
        <time>2021-02-24T15:23:13Z</time>
      </trkpt>
      <trkpt lat="45.32878" lon="5.91779">
        <ele>602.4</ele>
        <time>2021-02-24T15:23:12Z</time>
      </trkpt>
      <trkpt lat="45.32877" lon="5.9178">
        <ele>602</ele>
        <time>2021-02-24T15:23:11Z</time>
      </trkpt>
      <trkpt lat="45.32877" lon="5.91782">
        <ele>601.4</ele>
        <time>2021-02-24T15:23:10Z</time>
      </trkpt>
      <trkpt lat="45.32876" lon="5.91783">
        <ele>601.2</ele>
        <time>2021-02-24T15:23:09Z</time>
      </trkpt>
      <trkpt lat="45.32876" lon="5.91784">
        <ele>600.8</ele>
        <time>2021-02-24T15:23:08Z</time>
      </trkpt>
      <trkpt lat="45.32875" lon="5.91786">
        <ele>600.6</ele>
        <time>2021-02-24T15:23:07Z</time>
      </trkpt>
      <trkpt lat="45.32875" lon="5.91787">
        <ele>600.2</ele>
        <time>2021-02-24T15:23:06Z</time>
      </trkpt>
      <trkpt lat="45.32874" lon="5.91789">
        <ele>599.8</ele>
        <time>2021-02-24T15:23:05Z</time>
      </trkpt>
      <trkpt lat="45.32874" lon="5.9179">
        <ele>599.6</ele>
        <time>2021-02-24T15:23:04Z</time>
      </trkpt>
      <trkpt lat="45.32872" lon="5.91792">
        <ele>599.2</ele>
        <time>2021-02-24T15:23:03Z</time>
      </trkpt>
      <trkpt lat="45.32871" lon="5.91793">
        <ele>599</ele>
        <time>2021-02-24T15:23:02Z</time>
      </trkpt>
      <trkpt lat="45.3287" lon="5.91795">
        <ele>598.6</ele>
        <time>2021-02-24T15:23:01Z</time>
      </trkpt>
      <trkpt lat="45.32869" lon="5.91796">
        <ele>598.2</ele>
        <time>2021-02-24T15:23:00Z</time>
      </trkpt>
      <trkpt lat="45.32867" lon="5.91798">
        <ele>597.8</ele>
        <time>2021-02-24T15:22:59Z</time>
      </trkpt>
      <trkpt lat="45.32866" lon="5.91799">
        <ele>597.4</ele>
        <time>2021-02-24T15:22:58Z</time>
      </trkpt>
      <trkpt lat="45.32865" lon="5.91799">
        <ele>597.4</ele>
        <time>2021-02-24T15:22:57Z</time>
      </trkpt>
      <trkpt lat="45.32863" lon="5.91799">
        <ele>597</ele>
        <time>2021-02-24T15:22:56Z</time>
      </trkpt>
      <trkpt lat="45.32862" lon="5.91798">
        <ele>596.8</ele>
        <time>2021-02-24T15:22:55Z</time>
      </trkpt>
      <trkpt lat="45.32861" lon="5.91798">
        <ele>596.4</ele>
        <time>2021-02-24T15:22:54Z</time>
      </trkpt>
      <trkpt lat="45.32859" lon="5.91798">
        <ele>595.8</ele>
        <time>2021-02-24T15:22:53Z</time>
      </trkpt>
      <trkpt lat="45.32858" lon="5.91797">
        <ele>595.6</ele>
        <time>2021-02-24T15:22:52Z</time>
      </trkpt>
      <trkpt lat="45.32857" lon="5.91797">
        <ele>595.6</ele>
        <time>2021-02-24T15:22:51Z</time>
      </trkpt>
      <trkpt lat="45.32856" lon="5.91797">
        <ele>595.4</ele>
        <time>2021-02-24T15:22:50Z</time>
      </trkpt>
      <trkpt lat="45.32855" lon="5.91797">
        <ele>595</ele>
        <time>2021-02-24T15:22:49Z</time>
      </trkpt>
      <trkpt lat="45.32853" lon="5.91796">
        <ele>594.6</ele>
        <time>2021-02-24T15:22:48Z</time>
      </trkpt>
      <trkpt lat="45.32852" lon="5.91796">
        <ele>594.2</ele>
        <time>2021-02-24T15:22:47Z</time>
      </trkpt>
      <trkpt lat="45.32851" lon="5.91796">
        <ele>594</ele>
        <time>2021-02-24T15:22:46Z</time>
      </trkpt>
      <trkpt lat="45.3285" lon="5.91796">
        <ele>593.8</ele>
        <time>2021-02-24T15:22:45Z</time>
      </trkpt>
      <trkpt lat="45.32849" lon="5.91795">
        <ele>593.4</ele>
        <time>2021-02-24T15:22:44Z</time>
      </trkpt>
      <trkpt lat="45.32848" lon="5.91795">
        <ele>593</ele>
        <time>2021-02-24T15:22:43Z</time>
      </trkpt>
      <trkpt lat="45.32847" lon="5.91795">
        <ele>592.6</ele>
        <time>2021-02-24T15:22:42Z</time>
      </trkpt>
      <trkpt lat="45.32846" lon="5.91794">
        <ele>592.4</ele>
        <time>2021-02-24T15:22:41Z</time>
      </trkpt>
      <trkpt lat="45.32845" lon="5.91794">
        <ele>592.2</ele>
        <time>2021-02-24T15:22:40Z</time>
      </trkpt>
      <trkpt lat="45.32843" lon="5.91793">
        <ele>592</ele>
        <time>2021-02-24T15:22:39Z</time>
      </trkpt>
      <trkpt lat="45.32842" lon="5.91793">
        <ele>591.6</ele>
        <time>2021-02-24T15:22:38Z</time>
      </trkpt>
      <trkpt lat="45.32841" lon="5.91792">
        <ele>591.2</ele>
        <time>2021-02-24T15:22:37Z</time>
      </trkpt>
      <trkpt lat="45.32839" lon="5.91791">
        <ele>591</ele>
        <time>2021-02-24T15:22:36Z</time>
      </trkpt>
      <trkpt lat="45.32838" lon="5.91791">
        <ele>590.6</ele>
        <time>2021-02-24T15:22:35Z</time>
      </trkpt>
      <trkpt lat="45.32837" lon="5.9179">
        <ele>590.2</ele>
        <time>2021-02-24T15:22:34Z</time>
      </trkpt>
      <trkpt lat="45.32836" lon="5.91789">
        <ele>590</ele>
        <time>2021-02-24T15:22:33Z</time>
      </trkpt>
      <trkpt lat="45.32836" lon="5.91789">
        <ele>589.6</ele>
        <time>2021-02-24T15:22:32Z</time>
      </trkpt>
      <trkpt lat="45.32835" lon="5.91788">
        <ele>589</ele>
        <time>2021-02-24T15:22:31Z</time>
      </trkpt>
      <trkpt lat="45.32834" lon="5.91787">
        <ele>589</ele>
        <time>2021-02-24T15:22:30Z</time>
      </trkpt>
      <trkpt lat="45.32833" lon="5.91786">
        <ele>588.6</ele>
        <time>2021-02-24T15:22:29Z</time>
      </trkpt>
      <trkpt lat="45.32832" lon="5.91786">
        <ele>588.4</ele>
        <time>2021-02-24T15:22:28Z</time>
      </trkpt>
      <trkpt lat="45.32831" lon="5.91785">
        <ele>588</ele>
        <time>2021-02-24T15:22:27Z</time>
      </trkpt>
      <trkpt lat="45.3283" lon="5.91784">
        <ele>587.6</ele>
        <time>2021-02-24T15:22:26Z</time>
      </trkpt>
      <trkpt lat="45.3283" lon="5.91783">
        <ele>587.4</ele>
        <time>2021-02-24T15:22:25Z</time>
      </trkpt>
      <trkpt lat="45.32829" lon="5.91783">
        <ele>587.2</ele>
        <time>2021-02-24T15:22:24Z</time>
      </trkpt>
      <trkpt lat="45.32828" lon="5.91783">
        <ele>587</ele>
        <time>2021-02-24T15:22:23Z</time>
      </trkpt>
      <trkpt lat="45.32827" lon="5.91783">
        <ele>586.6</ele>
        <time>2021-02-24T15:22:22Z</time>
      </trkpt>
      <trkpt lat="45.32826" lon="5.91782">
        <ele>586.2</ele>
        <time>2021-02-24T15:22:21Z</time>
      </trkpt>
      <trkpt lat="45.32825" lon="5.91782">
        <ele>585.8</ele>
        <time>2021-02-24T15:22:20Z</time>
      </trkpt>
      <trkpt lat="45.32824" lon="5.91782">
        <ele>585.2</ele>
        <time>2021-02-24T15:22:19Z</time>
      </trkpt>
      <trkpt lat="45.32823" lon="5.91782">
        <ele>584.8</ele>
        <time>2021-02-24T15:22:18Z</time>
      </trkpt>
      <trkpt lat="45.32822" lon="5.91782">
        <ele>584.6</ele>
        <time>2021-02-24T15:22:17Z</time>
      </trkpt>
      <trkpt lat="45.32821" lon="5.91781">
        <ele>584.4</ele>
        <time>2021-02-24T15:22:16Z</time>
      </trkpt>
      <trkpt lat="45.32821" lon="5.91781">
        <ele>583.8</ele>
        <time>2021-02-24T15:22:15Z</time>
      </trkpt>
      <trkpt lat="45.32819" lon="5.91781">
        <ele>583.6</ele>
        <time>2021-02-24T15:22:14Z</time>
      </trkpt>
      <trkpt lat="45.32818" lon="5.9178">
        <ele>583.4</ele>
        <time>2021-02-24T15:22:13Z</time>
      </trkpt>
      <trkpt lat="45.32817" lon="5.9178">
        <ele>583.2</ele>
        <time>2021-02-24T15:22:12Z</time>
      </trkpt>
      <trkpt lat="45.32815" lon="5.9178">
        <ele>582.8</ele>
        <time>2021-02-24T15:22:11Z</time>
      </trkpt>
      <trkpt lat="45.32814" lon="5.91779">
        <ele>582.2</ele>
        <time>2021-02-24T15:22:10Z</time>
      </trkpt>
      <trkpt lat="45.32813" lon="5.91779">
        <ele>582.2</ele>
        <time>2021-02-24T15:22:09Z</time>
      </trkpt>
      <trkpt lat="45.32811" lon="5.91779">
        <ele>582</ele>
        <time>2021-02-24T15:22:08Z</time>
      </trkpt>
      <trkpt lat="45.3281" lon="5.91778">
        <ele>581.6</ele>
        <time>2021-02-24T15:22:07Z</time>
      </trkpt>
      <trkpt lat="45.32809" lon="5.91777">
        <ele>581.2</ele>
        <time>2021-02-24T15:22:06Z</time>
      </trkpt>
      <trkpt lat="45.32808" lon="5.91776">
        <ele>580.8</ele>
        <time>2021-02-24T15:22:05Z</time>
      </trkpt>
      <trkpt lat="45.32807" lon="5.91775">
        <ele>580.4</ele>
        <time>2021-02-24T15:22:04Z</time>
      </trkpt>
      <trkpt lat="45.32806" lon="5.91774">
        <ele>580.2</ele>
        <time>2021-02-24T15:22:03Z</time>
      </trkpt>
      <trkpt lat="45.32805" lon="5.91773">
        <ele>579.8</ele>
        <time>2021-02-24T15:22:02Z</time>
      </trkpt>
      <trkpt lat="45.32803" lon="5.91772">
        <ele>579.4</ele>
        <time>2021-02-24T15:22:01Z</time>
      </trkpt>
      <trkpt lat="45.32803" lon="5.91771">
        <ele>579.2</ele>
        <time>2021-02-24T15:22:00Z</time>
      </trkpt>
      <trkpt lat="45.32802" lon="5.91771">
        <ele>579</ele>
        <time>2021-02-24T15:21:59Z</time>
      </trkpt>
      <trkpt lat="45.32801" lon="5.9177">
        <ele>578.8</ele>
        <time>2021-02-24T15:21:58Z</time>
      </trkpt>
      <trkpt lat="45.328" lon="5.91769">
        <ele>578.6</ele>
        <time>2021-02-24T15:21:57Z</time>
      </trkpt>
      <trkpt lat="45.32799" lon="5.91769">
        <ele>578.2</ele>
        <time>2021-02-24T15:21:56Z</time>
      </trkpt>
      <trkpt lat="45.32798" lon="5.91768">
        <ele>577.8</ele>
        <time>2021-02-24T15:21:55Z</time>
      </trkpt>
      <trkpt lat="45.32797" lon="5.91767">
        <ele>577.4</ele>
        <time>2021-02-24T15:21:54Z</time>
      </trkpt>
      <trkpt lat="45.32796" lon="5.91767">
        <ele>577.2</ele>
        <time>2021-02-24T15:21:53Z</time>
      </trkpt>
      <trkpt lat="45.32795" lon="5.91766">
        <ele>576.8</ele>
        <time>2021-02-24T15:21:52Z</time>
      </trkpt>
      <trkpt lat="45.32795" lon="5.91765">
        <ele>576.6</ele>
        <time>2021-02-24T15:21:51Z</time>
      </trkpt>
      <trkpt lat="45.32794" lon="5.91765">
        <ele>576.2</ele>
        <time>2021-02-24T15:21:50Z</time>
      </trkpt>
      <trkpt lat="45.32793" lon="5.91765">
        <ele>575.8</ele>
        <time>2021-02-24T15:21:49Z</time>
      </trkpt>
      <trkpt lat="45.32792" lon="5.91765">
        <ele>575.6</ele>
        <time>2021-02-24T15:21:48Z</time>
      </trkpt>
      <trkpt lat="45.32792" lon="5.91764">
        <ele>575.4</ele>
        <time>2021-02-24T15:21:47Z</time>
      </trkpt>
      <trkpt lat="45.32791" lon="5.91764">
        <ele>575.2</ele>
        <time>2021-02-24T15:21:46Z</time>
      </trkpt>
      <trkpt lat="45.3279" lon="5.91764">
        <ele>574.6</ele>
        <time>2021-02-24T15:21:45Z</time>
      </trkpt>
      <trkpt lat="45.32789" lon="5.91764">
        <ele>574.2</ele>
        <time>2021-02-24T15:21:44Z</time>
      </trkpt>
      <trkpt lat="45.32789" lon="5.91764">
        <ele>574</ele>
        <time>2021-02-24T15:21:43Z</time>
      </trkpt>
      <trkpt lat="45.32788" lon="5.91763">
        <ele>573.6</ele>
        <time>2021-02-24T15:21:42Z</time>
      </trkpt>
      <trkpt lat="45.32787" lon="5.91763">
        <ele>573.4</ele>
        <time>2021-02-24T15:21:41Z</time>
      </trkpt>
      <trkpt lat="45.32787" lon="5.91763">
        <ele>573.2</ele>
        <time>2021-02-24T15:21:40Z</time>
      </trkpt>
      <trkpt lat="45.32786" lon="5.91763">
        <ele>572.8</ele>
        <time>2021-02-24T15:21:39Z</time>
      </trkpt>
      <trkpt lat="45.32785" lon="5.91763">
        <ele>572.4</ele>
        <time>2021-02-24T15:21:38Z</time>
      </trkpt>
      <trkpt lat="45.32784" lon="5.91763">
        <ele>572</ele>
        <time>2021-02-24T15:21:37Z</time>
      </trkpt>
      <trkpt lat="45.32784" lon="5.91763">
        <ele>572</ele>
        <time>2021-02-24T15:21:36Z</time>
      </trkpt>
      <trkpt lat="45.32783" lon="5.91762">
        <ele>571.8</ele>
        <time>2021-02-24T15:21:35Z</time>
      </trkpt>
      <trkpt lat="45.32783" lon="5.91762">
        <ele>571.6</ele>
        <time>2021-02-24T15:21:34Z</time>
      </trkpt>
      <trkpt lat="45.32782" lon="5.91762">
        <ele>571.4</ele>
        <time>2021-02-24T15:21:33Z</time>
      </trkpt>
      <trkpt lat="45.32781" lon="5.91762">
        <ele>571</ele>
        <time>2021-02-24T15:21:32Z</time>
      </trkpt>
      <trkpt lat="45.32781" lon="5.91762">
        <ele>570.6</ele>
        <time>2021-02-24T15:21:31Z</time>
      </trkpt>
      <trkpt lat="45.3278" lon="5.91762">
        <ele>570.4</ele>
        <time>2021-02-24T15:21:30Z</time>
      </trkpt>
      <trkpt lat="45.3278" lon="5.91762">
        <ele>570.2</ele>
        <time>2021-02-24T15:21:29Z</time>
      </trkpt>
      <trkpt lat="45.32779" lon="5.91762">
        <ele>570</ele>
        <time>2021-02-24T15:21:28Z</time>
      </trkpt>
      <trkpt lat="45.32778" lon="5.91762">
        <ele>569.6</ele>
        <time>2021-02-24T15:21:27Z</time>
      </trkpt>
      <trkpt lat="45.32778" lon="5.91762">
        <ele>569.6</ele>
        <time>2021-02-24T15:21:26Z</time>
      </trkpt>
      <trkpt lat="45.32777" lon="5.91761">
        <ele>569.2</ele>
        <time>2021-02-24T15:21:25Z</time>
      </trkpt>
      <trkpt lat="45.32777" lon="5.91761">
        <ele>569</ele>
        <time>2021-02-24T15:21:24Z</time>
      </trkpt>
      <trkpt lat="45.32776" lon="5.91761">
        <ele>568.4</ele>
        <time>2021-02-24T15:21:23Z</time>
      </trkpt>
      <trkpt lat="45.32775" lon="5.91762">
        <ele>568.2</ele>
        <time>2021-02-24T15:21:22Z</time>
      </trkpt>
      <trkpt lat="45.32775" lon="5.91762">
        <ele>567.8</ele>
        <time>2021-02-24T15:21:21Z</time>
      </trkpt>
      <trkpt lat="45.32774" lon="5.91763">
        <ele>567.6</ele>
        <time>2021-02-24T15:21:20Z</time>
      </trkpt>
      <trkpt lat="45.32774" lon="5.91763">
        <ele>567.2</ele>
        <time>2021-02-24T15:21:19Z</time>
      </trkpt>
      <trkpt lat="45.32773" lon="5.91764">
        <ele>567</ele>
        <time>2021-02-24T15:21:18Z</time>
      </trkpt>
      <trkpt lat="45.32772" lon="5.91764">
        <ele>566.6</ele>
        <time>2021-02-24T15:21:17Z</time>
      </trkpt>
      <trkpt lat="45.32772" lon="5.91764">
        <ele>566</ele>
        <time>2021-02-24T15:21:16Z</time>
      </trkpt>
      <trkpt lat="45.32771" lon="5.91765">
        <ele>566</ele>
        <time>2021-02-24T15:21:15Z</time>
      </trkpt>
      <trkpt lat="45.32771" lon="5.91765">
        <ele>565.8</ele>
        <time>2021-02-24T15:21:14Z</time>
      </trkpt>
      <trkpt lat="45.3277" lon="5.91766">
        <ele>565.2</ele>
        <time>2021-02-24T15:21:13Z</time>
      </trkpt>
      <trkpt lat="45.3277" lon="5.91766">
        <ele>564.8</ele>
        <time>2021-02-24T15:21:12Z</time>
      </trkpt>
      <trkpt lat="45.32769" lon="5.91767">
        <ele>564.6</ele>
        <time>2021-02-24T15:21:11Z</time>
      </trkpt>
      <trkpt lat="45.32768" lon="5.91767">
        <ele>564.2</ele>
        <time>2021-02-24T15:21:10Z</time>
      </trkpt>
      <trkpt lat="45.32768" lon="5.91768">
        <ele>563.8</ele>
        <time>2021-02-24T15:21:09Z</time>
      </trkpt>
      <trkpt lat="45.32767" lon="5.91768">
        <ele>563.4</ele>
        <time>2021-02-24T15:21:08Z</time>
      </trkpt>
      <trkpt lat="45.32767" lon="5.91768">
        <ele>563</ele>
        <time>2021-02-24T15:21:07Z</time>
      </trkpt>
      <trkpt lat="45.32766" lon="5.91769">
        <ele>562.8</ele>
        <time>2021-02-24T15:21:06Z</time>
      </trkpt>
      <trkpt lat="45.32765" lon="5.91769">
        <ele>562.4</ele>
        <time>2021-02-24T15:21:05Z</time>
      </trkpt>
      <trkpt lat="45.32765" lon="5.91769">
        <ele>562.2</ele>
        <time>2021-02-24T15:21:04Z</time>
      </trkpt>
      <trkpt lat="45.32764" lon="5.9177">
        <ele>561.6</ele>
        <time>2021-02-24T15:21:03Z</time>
      </trkpt>
      <trkpt lat="45.32763" lon="5.9177">
        <ele>561</ele>
        <time>2021-02-24T15:21:02Z</time>
      </trkpt>
      <trkpt lat="45.32762" lon="5.9177">
        <ele>560.8</ele>
        <time>2021-02-24T15:21:01Z</time>
      </trkpt>
      <trkpt lat="45.32762" lon="5.91771">
        <ele>560.2</ele>
        <time>2021-02-24T15:21:00Z</time>
      </trkpt>
      <trkpt lat="45.32761" lon="5.91771">
        <ele>560</ele>
        <time>2021-02-24T15:20:59Z</time>
      </trkpt>
      <trkpt lat="45.3276" lon="5.91771">
        <ele>559.8</ele>
        <time>2021-02-24T15:20:58Z</time>
      </trkpt>
      <trkpt lat="45.3276" lon="5.91772">
        <ele>559.2</ele>
        <time>2021-02-24T15:20:57Z</time>
      </trkpt>
      <trkpt lat="45.32759" lon="5.91772">
        <ele>558.8</ele>
        <time>2021-02-24T15:20:56Z</time>
      </trkpt>
      <trkpt lat="45.32759" lon="5.91772">
        <ele>558.6</ele>
        <time>2021-02-24T15:20:55Z</time>
      </trkpt>
      <trkpt lat="45.32759" lon="5.91772">
        <ele>558.4</ele>
        <time>2021-02-24T15:20:54Z</time>
      </trkpt>
      <trkpt lat="45.32756" lon="5.91775">
        <ele>558</ele>
        <time>2021-02-24T15:20:53Z</time>
      </trkpt>
      <trkpt lat="45.32755" lon="5.91776">
        <ele>557.8</ele>
        <time>2021-02-24T15:20:52Z</time>
      </trkpt>
      <trkpt lat="45.32754" lon="5.91777">
        <ele>557.6</ele>
        <time>2021-02-24T15:20:51Z</time>
      </trkpt>
      <trkpt lat="45.32754" lon="5.91779">
        <ele>557.2</ele>
        <time>2021-02-24T15:20:50Z</time>
      </trkpt>
      <trkpt lat="45.32753" lon="5.9178">
        <ele>556.8</ele>
        <time>2021-02-24T15:20:49Z</time>
      </trkpt>
      <trkpt lat="45.32752" lon="5.91781">
        <ele>556.2</ele>
        <time>2021-02-24T15:20:48Z</time>
      </trkpt>
      <trkpt lat="45.32751" lon="5.91783">
        <ele>556</ele>
        <time>2021-02-24T15:20:47Z</time>
      </trkpt>
      <trkpt lat="45.3275" lon="5.91784">
        <ele>555.8</ele>
        <time>2021-02-24T15:20:46Z</time>
      </trkpt>
      <trkpt lat="45.32749" lon="5.91785">
        <ele>555.8</ele>
        <time>2021-02-24T15:20:45Z</time>
      </trkpt>
      <trkpt lat="45.32749" lon="5.91786">
        <ele>555.4</ele>
        <time>2021-02-24T15:20:44Z</time>
      </trkpt>
      <trkpt lat="45.32748" lon="5.91787">
        <ele>555</ele>
        <time>2021-02-24T15:20:43Z</time>
      </trkpt>
      <trkpt lat="45.32747" lon="5.91788">
        <ele>554.6</ele>
        <time>2021-02-24T15:20:42Z</time>
      </trkpt>
      <trkpt lat="45.32746" lon="5.91789">
        <ele>554.2</ele>
        <time>2021-02-24T15:20:41Z</time>
      </trkpt>
      <trkpt lat="45.32746" lon="5.9179">
        <ele>553.6</ele>
        <time>2021-02-24T15:20:40Z</time>
      </trkpt>
      <trkpt lat="45.32745" lon="5.91791">
        <ele>553.2</ele>
        <time>2021-02-24T15:20:39Z</time>
      </trkpt>
      <trkpt lat="45.32744" lon="5.91792">
        <ele>552.8</ele>
        <time>2021-02-24T15:20:38Z</time>
      </trkpt>
      <trkpt lat="45.32744" lon="5.91794">
        <ele>552.6</ele>
        <time>2021-02-24T15:20:37Z</time>
      </trkpt>
      <trkpt lat="45.32743" lon="5.91795">
        <ele>552.2</ele>
        <time>2021-02-24T15:20:36Z</time>
      </trkpt>
      <trkpt lat="45.32742" lon="5.91796">
        <ele>552</ele>
        <time>2021-02-24T15:20:35Z</time>
      </trkpt>
      <trkpt lat="45.32741" lon="5.91795">
        <ele>551.6</ele>
        <time>2021-02-24T15:20:34Z</time>
      </trkpt>
      <trkpt lat="45.3274" lon="5.91795">
        <ele>551.4</ele>
        <time>2021-02-24T15:20:33Z</time>
      </trkpt>
      <trkpt lat="45.3274" lon="5.91795">
        <ele>551</ele>
        <time>2021-02-24T15:20:32Z</time>
      </trkpt>
      <trkpt lat="45.32739" lon="5.91795">
        <ele>550.6</ele>
        <time>2021-02-24T15:20:31Z</time>
      </trkpt>
      <trkpt lat="45.32738" lon="5.91794">
        <ele>550</ele>
        <time>2021-02-24T15:20:30Z</time>
      </trkpt>
      <trkpt lat="45.32737" lon="5.91794">
        <ele>549.8</ele>
        <time>2021-02-24T15:20:29Z</time>
      </trkpt>
      <trkpt lat="45.32736" lon="5.91794">
        <ele>549.6</ele>
        <time>2021-02-24T15:20:28Z</time>
      </trkpt>
      <trkpt lat="45.32735" lon="5.91794">
        <ele>549.4</ele>
        <time>2021-02-24T15:20:27Z</time>
      </trkpt>
      <trkpt lat="45.32735" lon="5.91793">
        <ele>549.2</ele>
        <time>2021-02-24T15:20:26Z</time>
      </trkpt>
      <trkpt lat="45.32734" lon="5.91793">
        <ele>548.6</ele>
        <time>2021-02-24T15:20:25Z</time>
      </trkpt>
      <trkpt lat="45.32733" lon="5.91793">
        <ele>548.4</ele>
        <time>2021-02-24T15:20:24Z</time>
      </trkpt>
      <trkpt lat="45.32732" lon="5.91793">
        <ele>548</ele>
        <time>2021-02-24T15:20:23Z</time>
      </trkpt>
      <trkpt lat="45.32731" lon="5.91794">
        <ele>547.6</ele>
        <time>2021-02-24T15:20:22Z</time>
      </trkpt>
      <trkpt lat="45.3273" lon="5.91794">
        <ele>547.4</ele>
        <time>2021-02-24T15:20:21Z</time>
      </trkpt>
      <trkpt lat="45.32729" lon="5.91794">
        <ele>547</ele>
        <time>2021-02-24T15:20:20Z</time>
      </trkpt>
      <trkpt lat="45.32728" lon="5.91795">
        <ele>546.8</ele>
        <time>2021-02-24T15:20:19Z</time>
      </trkpt>
      <trkpt lat="45.32727" lon="5.91795">
        <ele>546.6</ele>
        <time>2021-02-24T15:20:18Z</time>
      </trkpt>
      <trkpt lat="45.32726" lon="5.91795">
        <ele>546.2</ele>
        <time>2021-02-24T15:20:17Z</time>
      </trkpt>
      <trkpt lat="45.32725" lon="5.91796">
        <ele>545.8</ele>
        <time>2021-02-24T15:20:16Z</time>
      </trkpt>
      <trkpt lat="45.32724" lon="5.91796">
        <ele>545.6</ele>
        <time>2021-02-24T15:20:15Z</time>
      </trkpt>
      <trkpt lat="45.32723" lon="5.91797">
        <ele>545.4</ele>
        <time>2021-02-24T15:20:14Z</time>
      </trkpt>
      <trkpt lat="45.32723" lon="5.91797">
        <ele>545</ele>
        <time>2021-02-24T15:20:13Z</time>
      </trkpt>
      <trkpt lat="45.32722" lon="5.91798">
        <ele>544.6</ele>
        <time>2021-02-24T15:20:12Z</time>
      </trkpt>
      <trkpt lat="45.32721" lon="5.91798">
        <ele>544.4</ele>
        <time>2021-02-24T15:20:11Z</time>
      </trkpt>
      <trkpt lat="45.32721" lon="5.91798">
        <ele>544.2</ele>
        <time>2021-02-24T15:20:10Z</time>
      </trkpt>
      <trkpt lat="45.3272" lon="5.91799">
        <ele>543.8</ele>
        <time>2021-02-24T15:20:09Z</time>
      </trkpt>
      <trkpt lat="45.32719" lon="5.91799">
        <ele>543.2</ele>
        <time>2021-02-24T15:20:08Z</time>
      </trkpt>
      <trkpt lat="45.32718" lon="5.918">
        <ele>543</ele>
        <time>2021-02-24T15:20:07Z</time>
      </trkpt>
      <trkpt lat="45.32718" lon="5.918">
        <ele>542.8</ele>
        <time>2021-02-24T15:20:06Z</time>
      </trkpt>
      <trkpt lat="45.32717" lon="5.91801">
        <ele>542.4</ele>
        <time>2021-02-24T15:20:05Z</time>
      </trkpt>
      <trkpt lat="45.32716" lon="5.91801">
        <ele>542</ele>
        <time>2021-02-24T15:20:04Z</time>
      </trkpt>
      <trkpt lat="45.32716" lon="5.91802">
        <ele>541.8</ele>
        <time>2021-02-24T15:20:03Z</time>
      </trkpt>
      <trkpt lat="45.32715" lon="5.91802">
        <ele>541.4</ele>
        <time>2021-02-24T15:20:02Z</time>
      </trkpt>
      <trkpt lat="45.32714" lon="5.91802">
        <ele>541.2</ele>
        <time>2021-02-24T15:20:01Z</time>
      </trkpt>
      <trkpt lat="45.32713" lon="5.91802">
        <ele>540.8</ele>
        <time>2021-02-24T15:20:00Z</time>
      </trkpt>
      <trkpt lat="45.32712" lon="5.91802">
        <ele>540.4</ele>
        <time>2021-02-24T15:19:59Z</time>
      </trkpt>
      <trkpt lat="45.32711" lon="5.91802">
        <ele>540</ele>
        <time>2021-02-24T15:19:58Z</time>
      </trkpt>
      <trkpt lat="45.3271" lon="5.91802">
        <ele>539.4</ele>
        <time>2021-02-24T15:19:57Z</time>
      </trkpt>
      <trkpt lat="45.32709" lon="5.91802">
        <ele>539.2</ele>
        <time>2021-02-24T15:19:56Z</time>
      </trkpt>
      <trkpt lat="45.32708" lon="5.91802">
        <ele>538.8</ele>
        <time>2021-02-24T15:19:55Z</time>
      </trkpt>
      <trkpt lat="45.32707" lon="5.91802">
        <ele>538.4</ele>
        <time>2021-02-24T15:19:54Z</time>
      </trkpt>
      <trkpt lat="45.32706" lon="5.91803">
        <ele>538.2</ele>
        <time>2021-02-24T15:19:53Z</time>
      </trkpt>
      <trkpt lat="45.32706" lon="5.91803">
        <ele>537.6</ele>
        <time>2021-02-24T15:19:52Z</time>
      </trkpt>
      <trkpt lat="45.32705" lon="5.91803">
        <ele>537.2</ele>
        <time>2021-02-24T15:19:51Z</time>
      </trkpt>
      <trkpt lat="45.32704" lon="5.91803">
        <ele>536.8</ele>
        <time>2021-02-24T15:19:50Z</time>
      </trkpt>
      <trkpt lat="45.32703" lon="5.91803">
        <ele>536.4</ele>
        <time>2021-02-24T15:19:49Z</time>
      </trkpt>
      <trkpt lat="45.32702" lon="5.91803">
        <ele>535.8</ele>
        <time>2021-02-24T15:19:48Z</time>
      </trkpt>
      <trkpt lat="45.32701" lon="5.91803">
        <ele>535.6</ele>
        <time>2021-02-24T15:19:47Z</time>
      </trkpt>
      <trkpt lat="45.32701" lon="5.91803">
        <ele>535.4</ele>
        <time>2021-02-24T15:19:46Z</time>
      </trkpt>
      <trkpt lat="45.327" lon="5.91803">
        <ele>535</ele>
        <time>2021-02-24T15:19:45Z</time>
      </trkpt>
      <trkpt lat="45.32699" lon="5.91803">
        <ele>534.6</ele>
        <time>2021-02-24T15:19:44Z</time>
      </trkpt>
      <trkpt lat="45.32698" lon="5.91803">
        <ele>534.4</ele>
        <time>2021-02-24T15:19:43Z</time>
      </trkpt>
      <trkpt lat="45.32697" lon="5.91803">
        <ele>534</ele>
        <time>2021-02-24T15:19:42Z</time>
      </trkpt>
      <trkpt lat="45.32696" lon="5.91803">
        <ele>533.8</ele>
        <time>2021-02-24T15:19:41Z</time>
      </trkpt>
      <trkpt lat="45.32695" lon="5.91803">
        <ele>533.6</ele>
        <time>2021-02-24T15:19:40Z</time>
      </trkpt>
      <trkpt lat="45.32694" lon="5.91803">
        <ele>533.4</ele>
        <time>2021-02-24T15:19:39Z</time>
      </trkpt>
      <trkpt lat="45.32693" lon="5.91803">
        <ele>533.2</ele>
        <time>2021-02-24T15:19:38Z</time>
      </trkpt>
      <trkpt lat="45.32692" lon="5.91803">
        <ele>532.8</ele>
        <time>2021-02-24T15:19:37Z</time>
      </trkpt>
      <trkpt lat="45.32691" lon="5.91803">
        <ele>532.4</ele>
        <time>2021-02-24T15:19:36Z</time>
      </trkpt>
      <trkpt lat="45.3269" lon="5.91803">
        <ele>532.2</ele>
        <time>2021-02-24T15:19:35Z</time>
      </trkpt>
      <trkpt lat="45.32689" lon="5.91803">
        <ele>532</ele>
        <time>2021-02-24T15:19:34Z</time>
      </trkpt>
      <trkpt lat="45.32688" lon="5.91803">
        <ele>531.6</ele>
        <time>2021-02-24T15:19:33Z</time>
      </trkpt>
      <trkpt lat="45.32687" lon="5.91803">
        <ele>531.2</ele>
        <time>2021-02-24T15:19:32Z</time>
      </trkpt>
      <trkpt lat="45.32686" lon="5.91803">
        <ele>531</ele>
        <time>2021-02-24T15:19:31Z</time>
      </trkpt>
      <trkpt lat="45.32684" lon="5.91802">
        <ele>530.8</ele>
        <time>2021-02-24T15:19:30Z</time>
      </trkpt>
      <trkpt lat="45.32683" lon="5.91802">
        <ele>530.4</ele>
        <time>2021-02-24T15:19:29Z</time>
      </trkpt>
      <trkpt lat="45.32682" lon="5.91802">
        <ele>530</ele>
        <time>2021-02-24T15:19:28Z</time>
      </trkpt>
      <trkpt lat="45.3268" lon="5.91802">
        <ele>529.6</ele>
        <time>2021-02-24T15:19:27Z</time>
      </trkpt>
      <trkpt lat="45.32679" lon="5.91801">
        <ele>529.4</ele>
        <time>2021-02-24T15:19:26Z</time>
      </trkpt>
      <trkpt lat="45.32678" lon="5.91801">
        <ele>529.2</ele>
        <time>2021-02-24T15:19:25Z</time>
      </trkpt>
      <trkpt lat="45.32676" lon="5.91801">
        <ele>528.8</ele>
        <time>2021-02-24T15:19:24Z</time>
      </trkpt>
      <trkpt lat="45.32675" lon="5.91801">
        <ele>528.4</ele>
        <time>2021-02-24T15:19:23Z</time>
      </trkpt>
      <trkpt lat="45.32674" lon="5.91802">
        <ele>528</ele>
        <time>2021-02-24T15:19:22Z</time>
      </trkpt>
      <trkpt lat="45.32672" lon="5.91802">
        <ele>527.8</ele>
        <time>2021-02-24T15:19:21Z</time>
      </trkpt>
      <trkpt lat="45.32671" lon="5.91802">
        <ele>527.6</ele>
        <time>2021-02-24T15:19:20Z</time>
      </trkpt>
      <trkpt lat="45.32669" lon="5.91802">
        <ele>527.2</ele>
        <time>2021-02-24T15:19:19Z</time>
      </trkpt>
      <trkpt lat="45.32668" lon="5.91802">
        <ele>527</ele>
        <time>2021-02-24T15:19:18Z</time>
      </trkpt>
      <trkpt lat="45.32667" lon="5.91802">
        <ele>526.8</ele>
        <time>2021-02-24T15:19:17Z</time>
      </trkpt>
      <trkpt lat="45.32666" lon="5.91802">
        <ele>526.2</ele>
        <time>2021-02-24T15:19:16Z</time>
      </trkpt>
      <trkpt lat="45.32665" lon="5.91801">
        <ele>525.8</ele>
        <time>2021-02-24T15:19:15Z</time>
      </trkpt>
      <trkpt lat="45.32664" lon="5.91801">
        <ele>525.6</ele>
        <time>2021-02-24T15:19:14Z</time>
      </trkpt>
      <trkpt lat="45.32663" lon="5.91801">
        <ele>525.4</ele>
        <time>2021-02-24T15:19:13Z</time>
      </trkpt>
      <trkpt lat="45.32662" lon="5.91801">
        <ele>525</ele>
        <time>2021-02-24T15:19:12Z</time>
      </trkpt>
      <trkpt lat="45.32661" lon="5.918">
        <ele>524.6</ele>
        <time>2021-02-24T15:19:11Z</time>
      </trkpt>
      <trkpt lat="45.3266" lon="5.918">
        <ele>524.4</ele>
        <time>2021-02-24T15:19:10Z</time>
      </trkpt>
      <trkpt lat="45.32659" lon="5.918">
        <ele>524.2</ele>
        <time>2021-02-24T15:19:09Z</time>
      </trkpt>
      <trkpt lat="45.32658" lon="5.91801">
        <ele>524</ele>
        <time>2021-02-24T15:19:08Z</time>
      </trkpt>
      <trkpt lat="45.32657" lon="5.91801">
        <ele>523.6</ele>
        <time>2021-02-24T15:19:07Z</time>
      </trkpt>
      <trkpt lat="45.32657" lon="5.91802">
        <ele>523.2</ele>
        <time>2021-02-24T15:19:06Z</time>
      </trkpt>
      <trkpt lat="45.32656" lon="5.91803">
        <ele>523</ele>
        <time>2021-02-24T15:19:05Z</time>
      </trkpt>
      <trkpt lat="45.32655" lon="5.91804">
        <ele>522.6</ele>
        <time>2021-02-24T15:19:04Z</time>
      </trkpt>
      <trkpt lat="45.32655" lon="5.91805">
        <ele>522.2</ele>
        <time>2021-02-24T15:19:03Z</time>
      </trkpt>
      <trkpt lat="45.32654" lon="5.91806">
        <ele>521.8</ele>
        <time>2021-02-24T15:19:02Z</time>
      </trkpt>
      <trkpt lat="45.32653" lon="5.91806">
        <ele>521.6</ele>
        <time>2021-02-24T15:19:01Z</time>
      </trkpt>
      <trkpt lat="45.32653" lon="5.91807">
        <ele>521</ele>
        <time>2021-02-24T15:19:00Z</time>
      </trkpt>
      <trkpt lat="45.32652" lon="5.91808">
        <ele>520.6</ele>
        <time>2021-02-24T15:18:59Z</time>
      </trkpt>
      <trkpt lat="45.32651" lon="5.91809">
        <ele>520.4</ele>
        <time>2021-02-24T15:18:58Z</time>
      </trkpt>
      <trkpt lat="45.32651" lon="5.91809">
        <ele>520</ele>
        <time>2021-02-24T15:18:57Z</time>
      </trkpt>
      <trkpt lat="45.3265" lon="5.9181">
        <ele>519.6</ele>
        <time>2021-02-24T15:18:56Z</time>
      </trkpt>
      <trkpt lat="45.32649" lon="5.9181">
        <ele>519.2</ele>
        <time>2021-02-24T15:18:55Z</time>
      </trkpt>
      <trkpt lat="45.32649" lon="5.91811">
        <ele>518.8</ele>
        <time>2021-02-24T15:18:54Z</time>
      </trkpt>
      <trkpt lat="45.32648" lon="5.91812">
        <ele>518.6</ele>
        <time>2021-02-24T15:18:53Z</time>
      </trkpt>
      <trkpt lat="45.32647" lon="5.91812">
        <ele>518.4</ele>
        <time>2021-02-24T15:18:52Z</time>
      </trkpt>
      <trkpt lat="45.32647" lon="5.91813">
        <ele>518</ele>
        <time>2021-02-24T15:18:51Z</time>
      </trkpt>
      <trkpt lat="45.32646" lon="5.91813">
        <ele>517.8</ele>
        <time>2021-02-24T15:18:50Z</time>
      </trkpt>
      <trkpt lat="45.32645" lon="5.91814">
        <ele>517.4</ele>
        <time>2021-02-24T15:18:49Z</time>
      </trkpt>
      <trkpt lat="45.32645" lon="5.91815">
        <ele>517.2</ele>
        <time>2021-02-24T15:18:48Z</time>
      </trkpt>
      <trkpt lat="45.32644" lon="5.91815">
        <ele>516.6</ele>
        <time>2021-02-24T15:18:47Z</time>
      </trkpt>
      <trkpt lat="45.32643" lon="5.91816">
        <ele>516.2</ele>
        <time>2021-02-24T15:18:46Z</time>
      </trkpt>
      <trkpt lat="45.32642" lon="5.91816">
        <ele>516</ele>
        <time>2021-02-24T15:18:45Z</time>
      </trkpt>
      <trkpt lat="45.3264" lon="5.91816">
        <ele>515.6</ele>
        <time>2021-02-24T15:18:44Z</time>
      </trkpt>
      <trkpt lat="45.32639" lon="5.91817">
        <ele>515.2</ele>
        <time>2021-02-24T15:18:43Z</time>
      </trkpt>
      <trkpt lat="45.32638" lon="5.91817">
        <ele>515</ele>
        <time>2021-02-24T15:18:42Z</time>
      </trkpt>
      <trkpt lat="45.32637" lon="5.91818">
        <ele>514.6</ele>
        <time>2021-02-24T15:18:41Z</time>
      </trkpt>
      <trkpt lat="45.32635" lon="5.91818">
        <ele>514.4</ele>
        <time>2021-02-24T15:18:40Z</time>
      </trkpt>
      <trkpt lat="45.32634" lon="5.91818">
        <ele>514.2</ele>
        <time>2021-02-24T15:18:39Z</time>
      </trkpt>
      <trkpt lat="45.32633" lon="5.91819">
        <ele>513.6</ele>
        <time>2021-02-24T15:18:38Z</time>
      </trkpt>
      <trkpt lat="45.32632" lon="5.91819">
        <ele>513.4</ele>
        <time>2021-02-24T15:18:37Z</time>
      </trkpt>
      <trkpt lat="45.32631" lon="5.91819">
        <ele>513.2</ele>
        <time>2021-02-24T15:18:36Z</time>
      </trkpt>
      <trkpt lat="45.3263" lon="5.9182">
        <ele>512.8</ele>
        <time>2021-02-24T15:18:35Z</time>
      </trkpt>
      <trkpt lat="45.32629" lon="5.9182">
        <ele>512.4</ele>
        <time>2021-02-24T15:18:34Z</time>
      </trkpt>
      <trkpt lat="45.32628" lon="5.9182">
        <ele>512</ele>
        <time>2021-02-24T15:18:33Z</time>
      </trkpt>
      <trkpt lat="45.32627" lon="5.91821">
        <ele>511.6</ele>
        <time>2021-02-24T15:18:32Z</time>
      </trkpt>
      <trkpt lat="45.32626" lon="5.91821">
        <ele>511.4</ele>
        <time>2021-02-24T15:18:31Z</time>
      </trkpt>
      <trkpt lat="45.32625" lon="5.91821">
        <ele>510.8</ele>
        <time>2021-02-24T15:18:30Z</time>
      </trkpt>
      <trkpt lat="45.32623" lon="5.91821">
        <ele>510.6</ele>
        <time>2021-02-24T15:18:29Z</time>
      </trkpt>
      <trkpt lat="45.32622" lon="5.91821">
        <ele>510.4</ele>
        <time>2021-02-24T15:18:28Z</time>
      </trkpt>
      <trkpt lat="45.32621" lon="5.91821">
        <ele>510</ele>
        <time>2021-02-24T15:18:27Z</time>
      </trkpt>
      <trkpt lat="45.3262" lon="5.91821">
        <ele>509.8</ele>
        <time>2021-02-24T15:18:26Z</time>
      </trkpt>
      <trkpt lat="45.32618" lon="5.91821">
        <ele>509.4</ele>
        <time>2021-02-24T15:18:25Z</time>
      </trkpt>
      <trkpt lat="45.32617" lon="5.91821">
        <ele>509</ele>
        <time>2021-02-24T15:18:24Z</time>
      </trkpt>
      <trkpt lat="45.32616" lon="5.91821">
        <ele>508.8</ele>
        <time>2021-02-24T15:18:23Z</time>
      </trkpt>
      <trkpt lat="45.32614" lon="5.91821">
        <ele>508.4</ele>
        <time>2021-02-24T15:18:22Z</time>
      </trkpt>
      <trkpt lat="45.32613" lon="5.91821">
        <ele>508</ele>
        <time>2021-02-24T15:18:21Z</time>
      </trkpt>
      <trkpt lat="45.32612" lon="5.91821">
        <ele>507.6</ele>
        <time>2021-02-24T15:18:20Z</time>
      </trkpt>
      <trkpt lat="45.32611" lon="5.91821">
        <ele>507.2</ele>
        <time>2021-02-24T15:18:19Z</time>
      </trkpt>
      <trkpt lat="45.3261" lon="5.91821">
        <ele>507.2</ele>
        <time>2021-02-24T15:18:18Z</time>
      </trkpt>
      <trkpt lat="45.32609" lon="5.91822">
        <ele>507</ele>
        <time>2021-02-24T15:18:17Z</time>
      </trkpt>
      <trkpt lat="45.32607" lon="5.91822">
        <ele>506.6</ele>
        <time>2021-02-24T15:18:16Z</time>
      </trkpt>
      <trkpt lat="45.32606" lon="5.91822">
        <ele>506.2</ele>
        <time>2021-02-24T15:18:15Z</time>
      </trkpt>
      <trkpt lat="45.32605" lon="5.91822">
        <ele>505.8</ele>
        <time>2021-02-24T15:18:14Z</time>
      </trkpt>
      <trkpt lat="45.32604" lon="5.91822">
        <ele>505.4</ele>
        <time>2021-02-24T15:18:13Z</time>
      </trkpt>
      <trkpt lat="45.32602" lon="5.91823">
        <ele>505.4</ele>
        <time>2021-02-24T15:18:12Z</time>
      </trkpt>
      <trkpt lat="45.32601" lon="5.91823">
        <ele>505</ele>
        <time>2021-02-24T15:18:11Z</time>
      </trkpt>
      <trkpt lat="45.326" lon="5.91824">
        <ele>504.6</ele>
        <time>2021-02-24T15:18:10Z</time>
      </trkpt>
      <trkpt lat="45.32598" lon="5.91824">
        <ele>504.2</ele>
        <time>2021-02-24T15:18:09Z</time>
      </trkpt>
      <trkpt lat="45.32597" lon="5.91824">
        <ele>504</ele>
        <time>2021-02-24T15:18:08Z</time>
      </trkpt>
      <trkpt lat="45.32595" lon="5.91825">
        <ele>503.6</ele>
        <time>2021-02-24T15:18:07Z</time>
      </trkpt>
      <trkpt lat="45.32593" lon="5.91825">
        <ele>503.4</ele>
        <time>2021-02-24T15:18:06Z</time>
      </trkpt>
      <trkpt lat="45.32591" lon="5.91825">
        <ele>503.2</ele>
        <time>2021-02-24T15:18:05Z</time>
      </trkpt>
      <trkpt lat="45.32589" lon="5.91825">
        <ele>503</ele>
        <time>2021-02-24T15:18:04Z</time>
      </trkpt>
      <trkpt lat="45.32587" lon="5.91825">
        <ele>502.8</ele>
        <time>2021-02-24T15:18:03Z</time>
      </trkpt>
      <trkpt lat="45.32585" lon="5.91825">
        <ele>502.6</ele>
        <time>2021-02-24T15:18:02Z</time>
      </trkpt>
      <trkpt lat="45.32583" lon="5.91825">
        <ele>502.4</ele>
        <time>2021-02-24T15:18:01Z</time>
      </trkpt>
      <trkpt lat="45.32581" lon="5.91825">
        <ele>502.4</ele>
        <time>2021-02-24T15:18:00Z</time>
      </trkpt>
      <trkpt lat="45.32579" lon="5.91824">
        <ele>502.4</ele>
        <time>2021-02-24T15:17:59Z</time>
      </trkpt>
      <trkpt lat="45.32577" lon="5.91824">
        <ele>502.4</ele>
        <time>2021-02-24T15:17:58Z</time>
      </trkpt>
      <trkpt lat="45.32575" lon="5.91824">
        <ele>502</ele>
        <time>2021-02-24T15:17:57Z</time>
      </trkpt>
      <trkpt lat="45.32573" lon="5.91824">
        <ele>501.4</ele>
        <time>2021-02-24T15:17:56Z</time>
      </trkpt>
      <trkpt lat="45.32572" lon="5.91823">
        <ele>501.4</ele>
        <time>2021-02-24T15:17:55Z</time>
      </trkpt>
      <trkpt lat="45.3257" lon="5.91823">
        <ele>501.2</ele>
        <time>2021-02-24T15:17:54Z</time>
      </trkpt>
      <trkpt lat="45.32569" lon="5.91823">
        <ele>500.6</ele>
        <time>2021-02-24T15:17:53Z</time>
      </trkpt>
      <trkpt lat="45.32567" lon="5.91822">
        <ele>500.4</ele>
        <time>2021-02-24T15:17:52Z</time>
      </trkpt>
      <trkpt lat="45.32566" lon="5.91822">
        <ele>500.4</ele>
        <time>2021-02-24T15:17:51Z</time>
      </trkpt>
      <trkpt lat="45.32564" lon="5.91821">
        <ele>500.8</ele>
        <time>2021-02-24T15:17:50Z</time>
      </trkpt>
      <trkpt lat="45.32563" lon="5.9182">
        <ele>500.6</ele>
        <time>2021-02-24T15:17:49Z</time>
      </trkpt>
      <trkpt lat="45.32561" lon="5.91819">
        <ele>500.6</ele>
        <time>2021-02-24T15:17:48Z</time>
      </trkpt>
      <trkpt lat="45.3256" lon="5.91818">
        <ele>499.6</ele>
        <time>2021-02-24T15:17:47Z</time>
      </trkpt>
      <trkpt lat="45.32558" lon="5.91817">
        <ele>500.4</ele>
        <time>2021-02-24T15:17:46Z</time>
      </trkpt>
      <trkpt lat="45.32557" lon="5.91816">
        <ele>499.6</ele>
        <time>2021-02-24T15:17:45Z</time>
      </trkpt>
      <trkpt lat="45.32556" lon="5.91817">
        <ele>499.2</ele>
        <time>2021-02-24T15:17:44Z</time>
      </trkpt>
      <trkpt lat="45.32555" lon="5.91818">
        <ele>498.8</ele>
        <time>2021-02-24T15:17:43Z</time>
      </trkpt>
      <trkpt lat="45.32554" lon="5.91819">
        <ele>498.4</ele>
        <time>2021-02-24T15:17:42Z</time>
      </trkpt>
      <trkpt lat="45.32553" lon="5.9182">
        <ele>498</ele>
        <time>2021-02-24T15:17:41Z</time>
      </trkpt>
      <trkpt lat="45.32552" lon="5.91821">
        <ele>497.4</ele>
        <time>2021-02-24T15:17:40Z</time>
      </trkpt>
      <trkpt lat="45.32551" lon="5.91822">
        <ele>497.2</ele>
        <time>2021-02-24T15:17:39Z</time>
      </trkpt>
      <trkpt lat="45.3255" lon="5.91823">
        <ele>496.8</ele>
        <time>2021-02-24T15:17:38Z</time>
      </trkpt>
      <trkpt lat="45.32549" lon="5.91824">
        <ele>496.4</ele>
        <time>2021-02-24T15:17:37Z</time>
      </trkpt>
      <trkpt lat="45.32548" lon="5.91824">
        <ele>496</ele>
        <time>2021-02-24T15:17:36Z</time>
      </trkpt>
      <trkpt lat="45.32548" lon="5.91824">
        <ele>495.8</ele>
        <time>2021-02-24T15:17:35Z</time>
      </trkpt>
      <trkpt lat="45.32547" lon="5.91825">
        <ele>495.4</ele>
        <time>2021-02-24T15:17:34Z</time>
      </trkpt>
      <trkpt lat="45.32546" lon="5.91825">
        <ele>495</ele>
        <time>2021-02-24T15:17:33Z</time>
      </trkpt>
      <trkpt lat="45.32545" lon="5.91826">
        <ele>494.8</ele>
        <time>2021-02-24T15:17:32Z</time>
      </trkpt>
      <trkpt lat="45.32544" lon="5.91826">
        <ele>494.6</ele>
        <time>2021-02-24T15:17:31Z</time>
      </trkpt>
      <trkpt lat="45.32544" lon="5.91826">
        <ele>494.2</ele>
        <time>2021-02-24T15:17:30Z</time>
      </trkpt>
      <trkpt lat="45.32543" lon="5.91827">
        <ele>493.6</ele>
        <time>2021-02-24T15:17:29Z</time>
      </trkpt>
      <trkpt lat="45.32542" lon="5.91827">
        <ele>493.4</ele>
        <time>2021-02-24T15:17:28Z</time>
      </trkpt>
      <trkpt lat="45.32541" lon="5.91827">
        <ele>493</ele>
        <time>2021-02-24T15:17:27Z</time>
      </trkpt>
      <trkpt lat="45.32541" lon="5.91828">
        <ele>492.6</ele>
        <time>2021-02-24T15:17:26Z</time>
      </trkpt>
      <trkpt lat="45.3254" lon="5.91828">
        <ele>492.2</ele>
        <time>2021-02-24T15:17:25Z</time>
      </trkpt>
      <trkpt lat="45.32539" lon="5.91829">
        <ele>492</ele>
        <time>2021-02-24T15:17:24Z</time>
      </trkpt>
      <trkpt lat="45.32538" lon="5.91829">
        <ele>491.6</ele>
        <time>2021-02-24T15:17:23Z</time>
      </trkpt>
      <trkpt lat="45.32537" lon="5.91829">
        <ele>491.4</ele>
        <time>2021-02-24T15:17:22Z</time>
      </trkpt>
      <trkpt lat="45.32535" lon="5.91829">
        <ele>491.4</ele>
        <time>2021-02-24T15:17:21Z</time>
      </trkpt>
      <trkpt lat="45.32534" lon="5.91829">
        <ele>491</ele>
        <time>2021-02-24T15:17:20Z</time>
      </trkpt>
      <trkpt lat="45.32533" lon="5.9183">
        <ele>490.8</ele>
        <time>2021-02-24T15:17:19Z</time>
      </trkpt>
      <trkpt lat="45.32531" lon="5.9183">
        <ele>490.6</ele>
        <time>2021-02-24T15:17:18Z</time>
      </trkpt>
      <trkpt lat="45.3253" lon="5.9183">
        <ele>490</ele>
        <time>2021-02-24T15:17:17Z</time>
      </trkpt>
      <trkpt lat="45.32529" lon="5.9183">
        <ele>489.8</ele>
        <time>2021-02-24T15:17:16Z</time>
      </trkpt>
      <trkpt lat="45.32527" lon="5.9183">
        <ele>489.4</ele>
        <time>2021-02-24T15:17:15Z</time>
      </trkpt>
      <trkpt lat="45.32526" lon="5.9183">
        <ele>488.8</ele>
        <time>2021-02-24T15:17:14Z</time>
      </trkpt>
      <trkpt lat="45.32525" lon="5.9183">
        <ele>488.4</ele>
        <time>2021-02-24T15:17:13Z</time>
      </trkpt>
      <trkpt lat="45.32523" lon="5.9183">
        <ele>488</ele>
        <time>2021-02-24T15:17:12Z</time>
      </trkpt>
      <trkpt lat="45.32522" lon="5.9183">
        <ele>487.8</ele>
        <time>2021-02-24T15:17:11Z</time>
      </trkpt>
      <trkpt lat="45.3252" lon="5.9183">
        <ele>487.6</ele>
        <time>2021-02-24T15:17:10Z</time>
      </trkpt>
      <trkpt lat="45.32519" lon="5.9183">
        <ele>487.2</ele>
        <time>2021-02-24T15:17:09Z</time>
      </trkpt>
      <trkpt lat="45.32518" lon="5.91829">
        <ele>486.6</ele>
        <time>2021-02-24T15:17:08Z</time>
      </trkpt>
      <trkpt lat="45.32517" lon="5.91829">
        <ele>486.4</ele>
        <time>2021-02-24T15:17:07Z</time>
      </trkpt>
      <trkpt lat="45.32515" lon="5.91828">
        <ele>486.2</ele>
        <time>2021-02-24T15:17:06Z</time>
      </trkpt>
      <trkpt lat="45.32514" lon="5.91828">
        <ele>485.6</ele>
        <time>2021-02-24T15:17:05Z</time>
      </trkpt>
      <trkpt lat="45.32513" lon="5.91828">
        <ele>485.6</ele>
        <time>2021-02-24T15:17:04Z</time>
      </trkpt>
      <trkpt lat="45.32512" lon="5.91827">
        <ele>485.4</ele>
        <time>2021-02-24T15:17:03Z</time>
      </trkpt>
      <trkpt lat="45.32511" lon="5.91827">
        <ele>485.2</ele>
        <time>2021-02-24T15:17:02Z</time>
      </trkpt>
      <trkpt lat="45.3251" lon="5.91826">
        <ele>485</ele>
        <time>2021-02-24T15:17:01Z</time>
      </trkpt>
      <trkpt lat="45.32507" lon="5.91826">
        <ele>484.6</ele>
        <time>2021-02-24T15:17:00Z</time>
      </trkpt>
      <trkpt lat="45.32505" lon="5.91826">
        <ele>484.2</ele>
        <time>2021-02-24T15:16:59Z</time>
      </trkpt>
      <trkpt lat="45.32503" lon="5.91826">
        <ele>483.6</ele>
        <time>2021-02-24T15:16:58Z</time>
      </trkpt>
      <trkpt lat="45.32501" lon="5.91826">
        <ele>483.4</ele>
        <time>2021-02-24T15:16:57Z</time>
      </trkpt>
      <trkpt lat="45.32499" lon="5.91826">
        <ele>483</ele>
        <time>2021-02-24T15:16:56Z</time>
      </trkpt>
      <trkpt lat="45.32498" lon="5.91825">
        <ele>482.8</ele>
        <time>2021-02-24T15:16:55Z</time>
      </trkpt>
      <trkpt lat="45.32497" lon="5.91825">
        <ele>482.8</ele>
        <time>2021-02-24T15:16:54Z</time>
      </trkpt>
      <trkpt lat="45.32495" lon="5.91824">
        <ele>482.8</ele>
        <time>2021-02-24T15:16:53Z</time>
      </trkpt>
      <trkpt lat="45.32494" lon="5.91824">
        <ele>482.4</ele>
        <time>2021-02-24T15:16:52Z</time>
      </trkpt>
      <trkpt lat="45.32493" lon="5.91823">
        <ele>482.2</ele>
        <time>2021-02-24T15:16:51Z</time>
      </trkpt>
      <trkpt lat="45.32492" lon="5.91822">
        <ele>482</ele>
        <time>2021-02-24T15:16:50Z</time>
      </trkpt>
      <trkpt lat="45.3249" lon="5.91822">
        <ele>481.6</ele>
        <time>2021-02-24T15:16:49Z</time>
      </trkpt>
      <trkpt lat="45.32489" lon="5.91822">
        <ele>481.2</ele>
        <time>2021-02-24T15:16:48Z</time>
      </trkpt>
      <trkpt lat="45.32488" lon="5.91822">
        <ele>481</ele>
        <time>2021-02-24T15:16:47Z</time>
      </trkpt>
      <trkpt lat="45.32487" lon="5.91822">
        <ele>480.6</ele>
        <time>2021-02-24T15:16:46Z</time>
      </trkpt>
      <trkpt lat="45.32486" lon="5.91822">
        <ele>480.6</ele>
        <time>2021-02-24T15:16:45Z</time>
      </trkpt>
      <trkpt lat="45.32485" lon="5.91822">
        <ele>480.2</ele>
        <time>2021-02-24T15:16:44Z</time>
      </trkpt>
      <trkpt lat="45.32483" lon="5.91822">
        <ele>479.8</ele>
        <time>2021-02-24T15:16:43Z</time>
      </trkpt>
      <trkpt lat="45.32482" lon="5.91822">
        <ele>479.4</ele>
        <time>2021-02-24T15:16:42Z</time>
      </trkpt>
      <trkpt lat="45.32481" lon="5.91823">
        <ele>479</ele>
        <time>2021-02-24T15:16:41Z</time>
      </trkpt>
      <trkpt lat="45.3248" lon="5.91822">
        <ele>479</ele>
        <time>2021-02-24T15:16:40Z</time>
      </trkpt>
      <trkpt lat="45.32479" lon="5.91822">
        <ele>478.8</ele>
        <time>2021-02-24T15:16:39Z</time>
      </trkpt>
      <trkpt lat="45.32478" lon="5.91822">
        <ele>478.6</ele>
        <time>2021-02-24T15:16:38Z</time>
      </trkpt>
      <trkpt lat="45.32478" lon="5.91822">
        <ele>478.4</ele>
        <time>2021-02-24T15:16:37Z</time>
      </trkpt>
      <trkpt lat="45.32477" lon="5.91822">
        <ele>478.2</ele>
        <time>2021-02-24T15:16:36Z</time>
      </trkpt>
      <trkpt lat="45.32476" lon="5.91822">
        <ele>477.8</ele>
        <time>2021-02-24T15:16:35Z</time>
      </trkpt>
      <trkpt lat="45.32475" lon="5.91822">
        <ele>477.2</ele>
        <time>2021-02-24T15:16:34Z</time>
      </trkpt>
      <trkpt lat="45.32474" lon="5.91822">
        <ele>477</ele>
        <time>2021-02-24T15:16:33Z</time>
      </trkpt>
      <trkpt lat="45.32473" lon="5.91822">
        <ele>476.8</ele>
        <time>2021-02-24T15:16:32Z</time>
      </trkpt>
      <trkpt lat="45.32472" lon="5.91822">
        <ele>476.6</ele>
        <time>2021-02-24T15:16:31Z</time>
      </trkpt>
      <trkpt lat="45.32472" lon="5.91822">
        <ele>476.2</ele>
        <time>2021-02-24T15:16:30Z</time>
      </trkpt>
      <trkpt lat="45.32471" lon="5.91822">
        <ele>475.8</ele>
        <time>2021-02-24T15:16:29Z</time>
      </trkpt>
      <trkpt lat="45.3247" lon="5.91822">
        <ele>475.4</ele>
        <time>2021-02-24T15:16:28Z</time>
      </trkpt>
      <trkpt lat="45.32469" lon="5.91823">
        <ele>475</ele>
        <time>2021-02-24T15:16:27Z</time>
      </trkpt>
      <trkpt lat="45.32469" lon="5.91823">
        <ele>474.4</ele>
        <time>2021-02-24T15:16:26Z</time>
      </trkpt>
      <trkpt lat="45.32468" lon="5.91823">
        <ele>474</ele>
        <time>2021-02-24T15:16:25Z</time>
      </trkpt>
      <trkpt lat="45.32467" lon="5.91824">
        <ele>473.6</ele>
        <time>2021-02-24T15:16:24Z</time>
      </trkpt>
      <trkpt lat="45.32466" lon="5.91824">
        <ele>473.6</ele>
        <time>2021-02-24T15:16:23Z</time>
      </trkpt>
      <trkpt lat="45.32466" lon="5.91824">
        <ele>473.4</ele>
        <time>2021-02-24T15:16:22Z</time>
      </trkpt>
      <trkpt lat="45.32465" lon="5.91825">
        <ele>473</ele>
        <time>2021-02-24T15:16:21Z</time>
      </trkpt>
      <trkpt lat="45.32464" lon="5.91825">
        <ele>472.6</ele>
        <time>2021-02-24T15:16:20Z</time>
      </trkpt>
      <trkpt lat="45.32463" lon="5.91825">
        <ele>472.4</ele>
        <time>2021-02-24T15:16:19Z</time>
      </trkpt>
      <trkpt lat="45.32463" lon="5.91826">
        <ele>472.2</ele>
        <time>2021-02-24T15:16:18Z</time>
      </trkpt>
      <trkpt lat="45.32462" lon="5.91826">
        <ele>471.8</ele>
        <time>2021-02-24T15:16:17Z</time>
      </trkpt>
      <trkpt lat="45.32461" lon="5.91826">
        <ele>471.4</ele>
        <time>2021-02-24T15:16:16Z</time>
      </trkpt>
      <trkpt lat="45.3246" lon="5.91827">
        <ele>471.2</ele>
        <time>2021-02-24T15:16:15Z</time>
      </trkpt>
      <trkpt lat="45.32459" lon="5.91827">
        <ele>471</ele>
        <time>2021-02-24T15:16:14Z</time>
      </trkpt>
      <trkpt lat="45.32458" lon="5.91827">
        <ele>470.8</ele>
        <time>2021-02-24T15:16:13Z</time>
      </trkpt>
      <trkpt lat="45.32456" lon="5.91827">
        <ele>470.4</ele>
        <time>2021-02-24T15:16:12Z</time>
      </trkpt>
      <trkpt lat="45.32455" lon="5.91827">
        <ele>469.8</ele>
        <time>2021-02-24T15:16:11Z</time>
      </trkpt>
      <trkpt lat="45.32454" lon="5.91827">
        <ele>469.4</ele>
        <time>2021-02-24T15:16:10Z</time>
      </trkpt>
      <trkpt lat="45.32453" lon="5.91828">
        <ele>468.8</ele>
        <time>2021-02-24T15:16:09Z</time>
      </trkpt>
      <trkpt lat="45.32452" lon="5.91828">
        <ele>468.6</ele>
        <time>2021-02-24T15:16:08Z</time>
      </trkpt>
      <trkpt lat="45.32451" lon="5.91828">
        <ele>468.6</ele>
        <time>2021-02-24T15:16:07Z</time>
      </trkpt>
      <trkpt lat="45.32449" lon="5.91828">
        <ele>468.2</ele>
        <time>2021-02-24T15:16:06Z</time>
      </trkpt>
      <trkpt lat="45.32448" lon="5.91829">
        <ele>468.2</ele>
        <time>2021-02-24T15:16:05Z</time>
      </trkpt>
      <trkpt lat="45.32446" lon="5.91829">
        <ele>467.8</ele>
        <time>2021-02-24T15:16:04Z</time>
      </trkpt>
      <trkpt lat="45.32445" lon="5.91829">
        <ele>467.4</ele>
        <time>2021-02-24T15:16:03Z</time>
      </trkpt>
      <trkpt lat="45.32444" lon="5.91829">
        <ele>467</ele>
        <time>2021-02-24T15:16:02Z</time>
      </trkpt>
      <trkpt lat="45.32442" lon="5.9183">
        <ele>466.8</ele>
        <time>2021-02-24T15:16:01Z</time>
      </trkpt>
      <trkpt lat="45.3244" lon="5.91829">
        <ele>466.6</ele>
        <time>2021-02-24T15:16:00Z</time>
      </trkpt>
      <trkpt lat="45.32439" lon="5.91829">
        <ele>466.4</ele>
        <time>2021-02-24T15:15:59Z</time>
      </trkpt>
      <trkpt lat="45.32437" lon="5.91829">
        <ele>466.2</ele>
        <time>2021-02-24T15:15:58Z</time>
      </trkpt>
      <trkpt lat="45.32435" lon="5.91828">
        <ele>465.2</ele>
        <time>2021-02-24T15:15:57Z</time>
      </trkpt>
      <trkpt lat="45.32434" lon="5.91828">
        <ele>465</ele>
        <time>2021-02-24T15:15:56Z</time>
      </trkpt>
      <trkpt lat="45.32432" lon="5.91828">
        <ele>465</ele>
        <time>2021-02-24T15:15:55Z</time>
      </trkpt>
      <trkpt lat="45.32431" lon="5.91828">
        <ele>465.4</ele>
        <time>2021-02-24T15:15:54Z</time>
      </trkpt>
      <trkpt lat="45.32431" lon="5.91828">
        <ele>465.2</ele>
        <time>2021-02-24T15:15:53Z</time>
      </trkpt>
      <trkpt lat="45.3243" lon="5.91829">
        <ele>464.6</ele>
        <time>2021-02-24T15:15:52Z</time>
      </trkpt>
      <trkpt lat="45.3243" lon="5.91829">
        <ele>464.6</ele>
        <time>2021-02-24T15:15:51Z</time>
      </trkpt>
      <trkpt lat="45.32429" lon="5.91829">
        <ele>464.2</ele>
        <time>2021-02-24T15:15:50Z</time>
      </trkpt>
      <trkpt lat="45.32428" lon="5.9183">
        <ele>463.6</ele>
        <time>2021-02-24T15:15:49Z</time>
      </trkpt>
      <trkpt lat="45.32428" lon="5.9183">
        <ele>463.2</ele>
        <time>2021-02-24T15:15:48Z</time>
      </trkpt>
      <trkpt lat="45.32427" lon="5.9183">
        <ele>462.8</ele>
        <time>2021-02-24T15:15:47Z</time>
      </trkpt>
      <trkpt lat="45.32427" lon="5.91831">
        <ele>462.4</ele>
        <time>2021-02-24T15:15:46Z</time>
      </trkpt>
      <trkpt lat="45.32426" lon="5.91831">
        <ele>462.2</ele>
        <time>2021-02-24T15:15:45Z</time>
      </trkpt>
      <trkpt lat="45.32425" lon="5.91831">
        <ele>461.8</ele>
        <time>2021-02-24T15:15:44Z</time>
      </trkpt>
      <trkpt lat="45.32425" lon="5.91832">
        <ele>461.4</ele>
        <time>2021-02-24T15:15:43Z</time>
      </trkpt>
      <trkpt lat="45.32424" lon="5.91832">
        <ele>461</ele>
        <time>2021-02-24T15:15:42Z</time>
      </trkpt>
      <trkpt lat="45.32424" lon="5.91832">
        <ele>460.6</ele>
        <time>2021-02-24T15:15:41Z</time>
      </trkpt>
      <trkpt lat="45.32423" lon="5.91833">
        <ele>460.4</ele>
        <time>2021-02-24T15:15:40Z</time>
      </trkpt>
      <trkpt lat="45.32422" lon="5.91833">
        <ele>460.2</ele>
        <time>2021-02-24T15:15:39Z</time>
      </trkpt>
      <trkpt lat="45.32421" lon="5.91834">
        <ele>459.8</ele>
        <time>2021-02-24T15:15:38Z</time>
      </trkpt>
      <trkpt lat="45.3242" lon="5.91834">
        <ele>459.4</ele>
        <time>2021-02-24T15:15:37Z</time>
      </trkpt>
      <trkpt lat="45.32419" lon="5.91835">
        <ele>459</ele>
        <time>2021-02-24T15:15:36Z</time>
      </trkpt>
      <trkpt lat="45.32418" lon="5.91835">
        <ele>458.6</ele>
        <time>2021-02-24T15:15:35Z</time>
      </trkpt>
      <trkpt lat="45.32417" lon="5.91836">
        <ele>458.2</ele>
        <time>2021-02-24T15:15:34Z</time>
      </trkpt>
      <trkpt lat="45.32416" lon="5.91836">
        <ele>457.8</ele>
        <time>2021-02-24T15:15:33Z</time>
      </trkpt>
      <trkpt lat="45.32415" lon="5.91837">
        <ele>457.4</ele>
        <time>2021-02-24T15:15:32Z</time>
      </trkpt>
      <trkpt lat="45.32414" lon="5.91838">
        <ele>457.2</ele>
        <time>2021-02-24T15:15:31Z</time>
      </trkpt>
      <trkpt lat="45.32413" lon="5.91838">
        <ele>456.8</ele>
        <time>2021-02-24T15:15:30Z</time>
      </trkpt>
      <trkpt lat="45.32412" lon="5.91839">
        <ele>456.4</ele>
        <time>2021-02-24T15:15:29Z</time>
      </trkpt>
      <trkpt lat="45.32411" lon="5.9184">
        <ele>455.8</ele>
        <time>2021-02-24T15:15:28Z</time>
      </trkpt>
      <trkpt lat="45.3241" lon="5.91841">
        <ele>455.4</ele>
        <time>2021-02-24T15:15:27Z</time>
      </trkpt>
      <trkpt lat="45.32409" lon="5.91842">
        <ele>455</ele>
        <time>2021-02-24T15:15:26Z</time>
      </trkpt>
      <trkpt lat="45.32408" lon="5.91842">
        <ele>455</ele>
        <time>2021-02-24T15:15:25Z</time>
      </trkpt>
      <trkpt lat="45.32407" lon="5.91843">
        <ele>454.4</ele>
        <time>2021-02-24T15:15:24Z</time>
      </trkpt>
      <trkpt lat="45.32406" lon="5.91844">
        <ele>454</ele>
        <time>2021-02-24T15:15:23Z</time>
      </trkpt>
      <trkpt lat="45.32405" lon="5.91844">
        <ele>453.6</ele>
        <time>2021-02-24T15:15:22Z</time>
      </trkpt>
      <trkpt lat="45.32405" lon="5.91845">
        <ele>453.2</ele>
        <time>2021-02-24T15:15:21Z</time>
      </trkpt>
      <trkpt lat="45.32404" lon="5.91845">
        <ele>452.8</ele>
        <time>2021-02-24T15:15:20Z</time>
      </trkpt>
      <trkpt lat="45.32404" lon="5.91846">
        <ele>452.6</ele>
        <time>2021-02-24T15:15:19Z</time>
      </trkpt>
      <trkpt lat="45.32403" lon="5.91846">
        <ele>452.4</ele>
        <time>2021-02-24T15:15:18Z</time>
      </trkpt>
      <trkpt lat="45.32403" lon="5.91846">
        <ele>452</ele>
        <time>2021-02-24T15:15:17Z</time>
      </trkpt>
      <trkpt lat="45.32402" lon="5.91847">
        <ele>451.8</ele>
        <time>2021-02-24T15:15:16Z</time>
      </trkpt>
      <trkpt lat="45.32401" lon="5.91847">
        <ele>451.4</ele>
        <time>2021-02-24T15:15:15Z</time>
      </trkpt>
      <trkpt lat="45.32401" lon="5.91847">
        <ele>451</ele>
        <time>2021-02-24T15:15:14Z</time>
      </trkpt>
      <trkpt lat="45.324" lon="5.91848">
        <ele>450.6</ele>
        <time>2021-02-24T15:15:13Z</time>
      </trkpt>
      <trkpt lat="45.324" lon="5.91848">
        <ele>450.2</ele>
        <time>2021-02-24T15:15:12Z</time>
      </trkpt>
      <trkpt lat="45.32399" lon="5.91849">
        <ele>450</ele>
        <time>2021-02-24T15:15:11Z</time>
      </trkpt>
      <trkpt lat="45.32399" lon="5.91849">
        <ele>449.6</ele>
        <time>2021-02-24T15:15:10Z</time>
      </trkpt>
      <trkpt lat="45.32398" lon="5.91849">
        <ele>449.6</ele>
        <time>2021-02-24T15:15:09Z</time>
      </trkpt>
      <trkpt lat="45.32397" lon="5.9185">
        <ele>449</ele>
        <time>2021-02-24T15:15:08Z</time>
      </trkpt>
      <trkpt lat="45.32397" lon="5.9185">
        <ele>448.6</ele>
        <time>2021-02-24T15:15:07Z</time>
      </trkpt>
      <trkpt lat="45.32396" lon="5.9185">
        <ele>448.2</ele>
        <time>2021-02-24T15:15:06Z</time>
      </trkpt>
      <trkpt lat="45.32394" lon="5.9185">
        <ele>448</ele>
        <time>2021-02-24T15:15:05Z</time>
      </trkpt>
      <trkpt lat="45.32393" lon="5.9185">
        <ele>447.4</ele>
        <time>2021-02-24T15:15:04Z</time>
      </trkpt>
      <trkpt lat="45.32392" lon="5.9185">
        <ele>447.2</ele>
        <time>2021-02-24T15:15:03Z</time>
      </trkpt>
      <trkpt lat="45.3239" lon="5.91851">
        <ele>446.6</ele>
        <time>2021-02-24T15:15:02Z</time>
      </trkpt>
      <trkpt lat="45.32389" lon="5.91851">
        <ele>446.6</ele>
        <time>2021-02-24T15:15:01Z</time>
      </trkpt>
      <trkpt lat="45.32388" lon="5.91851">
        <ele>446.2</ele>
        <time>2021-02-24T15:15:00Z</time>
      </trkpt>
      <trkpt lat="45.32386" lon="5.91851">
        <ele>445.8</ele>
        <time>2021-02-24T15:14:59Z</time>
      </trkpt>
      <trkpt lat="45.32386" lon="5.9185">
        <ele>445.6</ele>
        <time>2021-02-24T15:14:58Z</time>
      </trkpt>
      <trkpt lat="45.32385" lon="5.9185">
        <ele>445.2</ele>
        <time>2021-02-24T15:14:57Z</time>
      </trkpt>
      <trkpt lat="45.32384" lon="5.9185">
        <ele>445</ele>
        <time>2021-02-24T15:14:56Z</time>
      </trkpt>
      <trkpt lat="45.32383" lon="5.91849">
        <ele>444.8</ele>
        <time>2021-02-24T15:14:55Z</time>
      </trkpt>
      <trkpt lat="45.32382" lon="5.91849">
        <ele>444.4</ele>
        <time>2021-02-24T15:14:54Z</time>
      </trkpt>
      <trkpt lat="45.32381" lon="5.91849">
        <ele>444</ele>
        <time>2021-02-24T15:14:53Z</time>
      </trkpt>
      <trkpt lat="45.3238" lon="5.91848">
        <ele>443.6</ele>
        <time>2021-02-24T15:14:52Z</time>
      </trkpt>
      <trkpt lat="45.3238" lon="5.91848">
        <ele>443.4</ele>
        <time>2021-02-24T15:14:51Z</time>
      </trkpt>
      <trkpt lat="45.32379" lon="5.91848">
        <ele>443</ele>
        <time>2021-02-24T15:14:50Z</time>
      </trkpt>
      <trkpt lat="45.32378" lon="5.91847">
        <ele>442.6</ele>
        <time>2021-02-24T15:14:49Z</time>
      </trkpt>
      <trkpt lat="45.32377" lon="5.91847">
        <ele>442.2</ele>
        <time>2021-02-24T15:14:48Z</time>
      </trkpt>
      <trkpt lat="45.32377" lon="5.91848">
        <ele>442</ele>
        <time>2021-02-24T15:14:47Z</time>
      </trkpt>
      <trkpt lat="45.32376" lon="5.91849">
        <ele>441.6</ele>
        <time>2021-02-24T15:14:46Z</time>
      </trkpt>
      <trkpt lat="45.32376" lon="5.91849">
        <ele>441.4</ele>
        <time>2021-02-24T15:14:45Z</time>
      </trkpt>
      <trkpt lat="45.32375" lon="5.9185">
        <ele>440.8</ele>
        <time>2021-02-24T15:14:44Z</time>
      </trkpt>
      <trkpt lat="45.32375" lon="5.91851">
        <ele>440.4</ele>
        <time>2021-02-24T15:14:43Z</time>
      </trkpt>
      <trkpt lat="45.32374" lon="5.91852">
        <ele>439.8</ele>
        <time>2021-02-24T15:14:42Z</time>
      </trkpt>
      <trkpt lat="45.32374" lon="5.91852">
        <ele>439.6</ele>
        <time>2021-02-24T15:14:41Z</time>
      </trkpt>
      <trkpt lat="45.32373" lon="5.91853">
        <ele>439.4</ele>
        <time>2021-02-24T15:14:40Z</time>
      </trkpt>
      <trkpt lat="45.32373" lon="5.91854">
        <ele>439</ele>
        <time>2021-02-24T15:14:39Z</time>
      </trkpt>
      <trkpt lat="45.32373" lon="5.91855">
        <ele>438.8</ele>
        <time>2021-02-24T15:14:38Z</time>
      </trkpt>
      <trkpt lat="45.32372" lon="5.91855">
        <ele>438.4</ele>
        <time>2021-02-24T15:14:37Z</time>
      </trkpt>
      <trkpt lat="45.32372" lon="5.91856">
        <ele>438</ele>
        <time>2021-02-24T15:14:36Z</time>
      </trkpt>
      <trkpt lat="45.32371" lon="5.91857">
        <ele>437.4</ele>
        <time>2021-02-24T15:14:35Z</time>
      </trkpt>
      <trkpt lat="45.32371" lon="5.91858">
        <ele>437.2</ele>
        <time>2021-02-24T15:14:34Z</time>
      </trkpt>
      <trkpt lat="45.3237" lon="5.91859">
        <ele>436.8</ele>
        <time>2021-02-24T15:14:33Z</time>
      </trkpt>
      <trkpt lat="45.3237" lon="5.9186">
        <ele>436.4</ele>
        <time>2021-02-24T15:14:32Z</time>
      </trkpt>
      <trkpt lat="45.3237" lon="5.91861">
        <ele>436</ele>
        <time>2021-02-24T15:14:31Z</time>
      </trkpt>
      <trkpt lat="45.32369" lon="5.91863">
        <ele>435.6</ele>
        <time>2021-02-24T15:14:30Z</time>
      </trkpt>
      <trkpt lat="45.32369" lon="5.91864">
        <ele>435.2</ele>
        <time>2021-02-24T15:14:29Z</time>
      </trkpt>
      <trkpt lat="45.32369" lon="5.91865">
        <ele>435</ele>
        <time>2021-02-24T15:14:28Z</time>
      </trkpt>
      <trkpt lat="45.32368" lon="5.91867">
        <ele>434.4</ele>
        <time>2021-02-24T15:14:27Z</time>
      </trkpt>
      <trkpt lat="45.32368" lon="5.91868">
        <ele>434.2</ele>
        <time>2021-02-24T15:14:26Z</time>
      </trkpt>
      <trkpt lat="45.32368" lon="5.91869">
        <ele>434</ele>
        <time>2021-02-24T15:14:25Z</time>
      </trkpt>
      <trkpt lat="45.32367" lon="5.9187">
        <ele>433.8</ele>
        <time>2021-02-24T15:14:24Z</time>
      </trkpt>
      <trkpt lat="45.32367" lon="5.91871">
        <ele>433.6</ele>
        <time>2021-02-24T15:14:23Z</time>
      </trkpt>
      <trkpt lat="45.32367" lon="5.91871">
        <ele>433.4</ele>
        <time>2021-02-24T15:14:22Z</time>
      </trkpt>
      <trkpt lat="45.32366" lon="5.91872">
        <ele>433</ele>
        <time>2021-02-24T15:14:21Z</time>
      </trkpt>
      <trkpt lat="45.32366" lon="5.91873">
        <ele>432.6</ele>
        <time>2021-02-24T15:14:20Z</time>
      </trkpt>
      <trkpt lat="45.32365" lon="5.91873">
        <ele>432.2</ele>
        <time>2021-02-24T15:14:19Z</time>
      </trkpt>
      <trkpt lat="45.32365" lon="5.91874">
        <ele>432</ele>
        <time>2021-02-24T15:14:18Z</time>
      </trkpt>
      <trkpt lat="45.32365" lon="5.91874">
        <ele>431.6</ele>
        <time>2021-02-24T15:14:17Z</time>
      </trkpt>
      <trkpt lat="45.32364" lon="5.91875">
        <ele>431.4</ele>
        <time>2021-02-24T15:14:16Z</time>
      </trkpt>
      <trkpt lat="45.32364" lon="5.91875">
        <ele>431</ele>
        <time>2021-02-24T15:14:15Z</time>
      </trkpt>
      <trkpt lat="45.32363" lon="5.91876">
        <ele>430.6</ele>
        <time>2021-02-24T15:14:14Z</time>
      </trkpt>
      <trkpt lat="45.32363" lon="5.91876">
        <ele>430.4</ele>
        <time>2021-02-24T15:14:13Z</time>
      </trkpt>
      <trkpt lat="45.32363" lon="5.91877">
        <ele>430.2</ele>
        <time>2021-02-24T15:14:12Z</time>
      </trkpt>
      <trkpt lat="45.32362" lon="5.91877">
        <ele>430</ele>
        <time>2021-02-24T15:14:11Z</time>
      </trkpt>
      <trkpt lat="45.32362" lon="5.91878">
        <ele>430</ele>
        <time>2021-02-24T15:14:10Z</time>
      </trkpt>
      <trkpt lat="45.32361" lon="5.91878">
        <ele>429.8</ele>
        <time>2021-02-24T15:14:09Z</time>
      </trkpt>
      <trkpt lat="45.32361" lon="5.91879">
        <ele>429.4</ele>
        <time>2021-02-24T15:14:08Z</time>
      </trkpt>
      <trkpt lat="45.3236" lon="5.91879">
        <ele>429</ele>
        <time>2021-02-24T15:14:07Z</time>
      </trkpt>
      <trkpt lat="45.3236" lon="5.9188">
        <ele>428.4</ele>
        <time>2021-02-24T15:14:06Z</time>
      </trkpt>
      <trkpt lat="45.32359" lon="5.9188">
        <ele>428</ele>
        <time>2021-02-24T15:14:05Z</time>
      </trkpt>
      <trkpt lat="45.32358" lon="5.9188">
        <ele>427.6</ele>
        <time>2021-02-24T15:14:04Z</time>
      </trkpt>
      <trkpt lat="45.32357" lon="5.9188">
        <ele>427.2</ele>
        <time>2021-02-24T15:14:03Z</time>
      </trkpt>
      <trkpt lat="45.32356" lon="5.91879">
        <ele>427</ele>
        <time>2021-02-24T15:14:02Z</time>
      </trkpt>
      <trkpt lat="45.32355" lon="5.91879">
        <ele>426.8</ele>
        <time>2021-02-24T15:14:01Z</time>
      </trkpt>
      <trkpt lat="45.32354" lon="5.91879">
        <ele>426.6</ele>
        <time>2021-02-24T15:14:00Z</time>
      </trkpt>
      <trkpt lat="45.32353" lon="5.91879">
        <ele>426.2</ele>
        <time>2021-02-24T15:13:59Z</time>
      </trkpt>
      <trkpt lat="45.32352" lon="5.91879">
        <ele>426</ele>
        <time>2021-02-24T15:13:58Z</time>
      </trkpt>
      <trkpt lat="45.32351" lon="5.91879">
        <ele>425.6</ele>
        <time>2021-02-24T15:13:57Z</time>
      </trkpt>
      <trkpt lat="45.3235" lon="5.91879">
        <ele>425.4</ele>
        <time>2021-02-24T15:13:56Z</time>
      </trkpt>
      <trkpt lat="45.32349" lon="5.9188">
        <ele>425</ele>
        <time>2021-02-24T15:13:55Z</time>
      </trkpt>
      <trkpt lat="45.32348" lon="5.9188">
        <ele>424.6</ele>
        <time>2021-02-24T15:13:54Z</time>
      </trkpt>
      <trkpt lat="45.32347" lon="5.9188">
        <ele>424.2</ele>
        <time>2021-02-24T15:13:53Z</time>
      </trkpt>
      <trkpt lat="45.32346" lon="5.91881">
        <ele>423.8</ele>
        <time>2021-02-24T15:13:52Z</time>
      </trkpt>
      <trkpt lat="45.32345" lon="5.91881">
        <ele>423.4</ele>
        <time>2021-02-24T15:13:51Z</time>
      </trkpt>
      <trkpt lat="45.32345" lon="5.91881">
        <ele>423.2</ele>
        <time>2021-02-24T15:13:50Z</time>
      </trkpt>
      <trkpt lat="45.32344" lon="5.91881">
        <ele>422.8</ele>
        <time>2021-02-24T15:13:49Z</time>
      </trkpt>
      <trkpt lat="45.32343" lon="5.91882">
        <ele>422.4</ele>
        <time>2021-02-24T15:13:48Z</time>
      </trkpt>
      <trkpt lat="45.32342" lon="5.91882">
        <ele>422</ele>
        <time>2021-02-24T15:13:47Z</time>
      </trkpt>
      <trkpt lat="45.32341" lon="5.91883">
        <ele>421.6</ele>
        <time>2021-02-24T15:13:46Z</time>
      </trkpt>
      <trkpt lat="45.3234" lon="5.91884">
        <ele>421</ele>
        <time>2021-02-24T15:13:45Z</time>
      </trkpt>
      <trkpt lat="45.3234" lon="5.91885">
        <ele>420.4</ele>
        <time>2021-02-24T15:13:44Z</time>
      </trkpt>
      <trkpt lat="45.32339" lon="5.91886">
        <ele>420.2</ele>
        <time>2021-02-24T15:13:43Z</time>
      </trkpt>
      <trkpt lat="45.32338" lon="5.91887">
        <ele>419.8</ele>
        <time>2021-02-24T15:13:42Z</time>
      </trkpt>
      <trkpt lat="45.32337" lon="5.91888">
        <ele>419.4</ele>
        <time>2021-02-24T15:13:41Z</time>
      </trkpt>
      <trkpt lat="45.32337" lon="5.9189">
        <ele>419.2</ele>
        <time>2021-02-24T15:13:40Z</time>
      </trkpt>
      <trkpt lat="45.32336" lon="5.91891">
        <ele>418.8</ele>
        <time>2021-02-24T15:13:39Z</time>
      </trkpt>
      <trkpt lat="45.32335" lon="5.91892">
        <ele>418.6</ele>
        <time>2021-02-24T15:13:38Z</time>
      </trkpt>
      <trkpt lat="45.32334" lon="5.91893">
        <ele>418.4</ele>
        <time>2021-02-24T15:13:37Z</time>
      </trkpt>
      <trkpt lat="45.32334" lon="5.91895">
        <ele>418</ele>
        <time>2021-02-24T15:13:36Z</time>
      </trkpt>
      <trkpt lat="45.32333" lon="5.91896">
        <ele>417.8</ele>
        <time>2021-02-24T15:13:35Z</time>
      </trkpt>
      <trkpt lat="45.32332" lon="5.91897">
        <ele>417.4</ele>
        <time>2021-02-24T15:13:34Z</time>
      </trkpt>
      <trkpt lat="45.32331" lon="5.91899">
        <ele>417</ele>
        <time>2021-02-24T15:13:33Z</time>
      </trkpt>
      <trkpt lat="45.3233" lon="5.919">
        <ele>416.4</ele>
        <time>2021-02-24T15:13:32Z</time>
      </trkpt>
      <trkpt lat="45.32329" lon="5.91902">
        <ele>416</ele>
        <time>2021-02-24T15:13:31Z</time>
      </trkpt>
      <trkpt lat="45.32329" lon="5.91903">
        <ele>415.8</ele>
        <time>2021-02-24T15:13:30Z</time>
      </trkpt>
      <trkpt lat="45.32328" lon="5.91904">
        <ele>415.6</ele>
        <time>2021-02-24T15:13:29Z</time>
      </trkpt>
      <trkpt lat="45.32327" lon="5.91905">
        <ele>415.4</ele>
        <time>2021-02-24T15:13:28Z</time>
      </trkpt>
      <trkpt lat="45.32326" lon="5.91906">
        <ele>415.2</ele>
        <time>2021-02-24T15:13:27Z</time>
      </trkpt>
      <trkpt lat="45.32325" lon="5.91907">
        <ele>414.8</ele>
        <time>2021-02-24T15:13:26Z</time>
      </trkpt>
      <trkpt lat="45.32324" lon="5.91908">
        <ele>414.6</ele>
        <time>2021-02-24T15:13:25Z</time>
      </trkpt>
      <trkpt lat="45.32323" lon="5.9191">
        <ele>414</ele>
        <time>2021-02-24T15:13:24Z</time>
      </trkpt>
      <trkpt lat="45.32322" lon="5.91911">
        <ele>413.4</ele>
        <time>2021-02-24T15:13:23Z</time>
      </trkpt>
      <trkpt lat="45.32321" lon="5.91911">
        <ele>413.2</ele>
        <time>2021-02-24T15:13:22Z</time>
      </trkpt>
      <trkpt lat="45.32319" lon="5.91912">
        <ele>412.8</ele>
        <time>2021-02-24T15:13:21Z</time>
      </trkpt>
      <trkpt lat="45.32318" lon="5.91913">
        <ele>412.6</ele>
        <time>2021-02-24T15:13:20Z</time>
      </trkpt>
      <trkpt lat="45.32316" lon="5.91913">
        <ele>412.2</ele>
        <time>2021-02-24T15:13:19Z</time>
      </trkpt>
      <trkpt lat="45.32315" lon="5.91914">
        <ele>411.8</ele>
        <time>2021-02-24T15:13:18Z</time>
      </trkpt>
      <trkpt lat="45.32313" lon="5.91915">
        <ele>411.6</ele>
        <time>2021-02-24T15:13:17Z</time>
      </trkpt>
      <trkpt lat="45.32312" lon="5.91916">
        <ele>411.2</ele>
        <time>2021-02-24T15:13:16Z</time>
      </trkpt>
      <trkpt lat="45.32311" lon="5.91916">
        <ele>410.8</ele>
        <time>2021-02-24T15:13:15Z</time>
      </trkpt>
      <trkpt lat="45.32309" lon="5.91916">
        <ele>410.4</ele>
        <time>2021-02-24T15:13:14Z</time>
      </trkpt>
      <trkpt lat="45.32308" lon="5.91917">
        <ele>410</ele>
        <time>2021-02-24T15:13:13Z</time>
      </trkpt>
      <trkpt lat="45.32307" lon="5.91917">
        <ele>409.8</ele>
        <time>2021-02-24T15:13:12Z</time>
      </trkpt>
      <trkpt lat="45.32306" lon="5.91917">
        <ele>409.4</ele>
        <time>2021-02-24T15:13:11Z</time>
      </trkpt>
      <trkpt lat="45.32304" lon="5.91918">
        <ele>409.2</ele>
        <time>2021-02-24T15:13:10Z</time>
      </trkpt>
      <trkpt lat="45.32303" lon="5.91918">
        <ele>409</ele>
        <time>2021-02-24T15:13:09Z</time>
      </trkpt>
      <trkpt lat="45.32302" lon="5.91919">
        <ele>408.6</ele>
        <time>2021-02-24T15:13:08Z</time>
      </trkpt>
      <trkpt lat="45.32301" lon="5.91919">
        <ele>408.2</ele>
        <time>2021-02-24T15:13:07Z</time>
      </trkpt>
      <trkpt lat="45.323" lon="5.9192">
        <ele>408</ele>
        <time>2021-02-24T15:13:06Z</time>
      </trkpt>
      <trkpt lat="45.32299" lon="5.91921">
        <ele>407.8</ele>
        <time>2021-02-24T15:13:05Z</time>
      </trkpt>
      <trkpt lat="45.32298" lon="5.91922">
        <ele>407.4</ele>
        <time>2021-02-24T15:13:04Z</time>
      </trkpt>
      <trkpt lat="45.32297" lon="5.91923">
        <ele>407</ele>
        <time>2021-02-24T15:13:03Z</time>
      </trkpt>
      <trkpt lat="45.32296" lon="5.91923">
        <ele>406.8</ele>
        <time>2021-02-24T15:13:02Z</time>
      </trkpt>
      <trkpt lat="45.32295" lon="5.91924">
        <ele>406.4</ele>
        <time>2021-02-24T15:13:01Z</time>
      </trkpt>
      <trkpt lat="45.32294" lon="5.91925">
        <ele>406</ele>
        <time>2021-02-24T15:13:00Z</time>
      </trkpt>
      <trkpt lat="45.32293" lon="5.91925">
        <ele>405.4</ele>
        <time>2021-02-24T15:12:59Z</time>
      </trkpt>
      <trkpt lat="45.32292" lon="5.91925">
        <ele>405</ele>
        <time>2021-02-24T15:12:58Z</time>
      </trkpt>
      <trkpt lat="45.32291" lon="5.91926">
        <ele>404.6</ele>
        <time>2021-02-24T15:12:57Z</time>
      </trkpt>
      <trkpt lat="45.3229" lon="5.91926">
        <ele>404.2</ele>
        <time>2021-02-24T15:12:56Z</time>
      </trkpt>
      <trkpt lat="45.32289" lon="5.91927">
        <ele>403.6</ele>
        <time>2021-02-24T15:12:55Z</time>
      </trkpt>
      <trkpt lat="45.32288" lon="5.91927">
        <ele>403.2</ele>
        <time>2021-02-24T15:12:54Z</time>
      </trkpt>
      <trkpt lat="45.32287" lon="5.91927">
        <ele>403</ele>
        <time>2021-02-24T15:12:53Z</time>
      </trkpt>
      <trkpt lat="45.32286" lon="5.91928">
        <ele>402.6</ele>
        <time>2021-02-24T15:12:52Z</time>
      </trkpt>
      <trkpt lat="45.32285" lon="5.91928">
        <ele>402.4</ele>
        <time>2021-02-24T15:12:51Z</time>
      </trkpt>
      <trkpt lat="45.32284" lon="5.91928">
        <ele>402.2</ele>
        <time>2021-02-24T15:12:50Z</time>
      </trkpt>
      <trkpt lat="45.32283" lon="5.91928">
        <ele>402</ele>
        <time>2021-02-24T15:12:49Z</time>
      </trkpt>
      <trkpt lat="45.32281" lon="5.91928">
        <ele>401.6</ele>
        <time>2021-02-24T15:12:48Z</time>
      </trkpt>
      <trkpt lat="45.3228" lon="5.91928">
        <ele>401.2</ele>
        <time>2021-02-24T15:12:47Z</time>
      </trkpt>
      <trkpt lat="45.32279" lon="5.91928">
        <ele>400.8</ele>
        <time>2021-02-24T15:12:46Z</time>
      </trkpt>
      <trkpt lat="45.32277" lon="5.91928">
        <ele>400.6</ele>
        <time>2021-02-24T15:12:45Z</time>
      </trkpt>
      <trkpt lat="45.32276" lon="5.91928">
        <ele>400.2</ele>
        <time>2021-02-24T15:12:44Z</time>
      </trkpt>
      <trkpt lat="45.32275" lon="5.91928">
        <ele>399.8</ele>
        <time>2021-02-24T15:12:43Z</time>
      </trkpt>
      <trkpt lat="45.32273" lon="5.91928">
        <ele>399.4</ele>
        <time>2021-02-24T15:12:42Z</time>
      </trkpt>
      <trkpt lat="45.32272" lon="5.91929">
        <ele>399</ele>
        <time>2021-02-24T15:12:41Z</time>
      </trkpt>
      <trkpt lat="45.3227" lon="5.91929">
        <ele>398.4</ele>
        <time>2021-02-24T15:12:40Z</time>
      </trkpt>
      <trkpt lat="45.32269" lon="5.91929">
        <ele>398</ele>
        <time>2021-02-24T15:12:39Z</time>
      </trkpt>
      <trkpt lat="45.32268" lon="5.91929">
        <ele>397.8</ele>
        <time>2021-02-24T15:12:38Z</time>
      </trkpt>
      <trkpt lat="45.32266" lon="5.91929">
        <ele>397.4</ele>
        <time>2021-02-24T15:12:37Z</time>
      </trkpt>
      <trkpt lat="45.32265" lon="5.91929">
        <ele>397</ele>
        <time>2021-02-24T15:12:36Z</time>
      </trkpt>
      <trkpt lat="45.32264" lon="5.91929">
        <ele>397</ele>
        <time>2021-02-24T15:12:35Z</time>
      </trkpt>
      <trkpt lat="45.32263" lon="5.91929">
        <ele>396.8</ele>
        <time>2021-02-24T15:12:34Z</time>
      </trkpt>
      <trkpt lat="45.32261" lon="5.91929">
        <ele>396.6</ele>
        <time>2021-02-24T15:12:33Z</time>
      </trkpt>
      <trkpt lat="45.3226" lon="5.91929">
        <ele>396.4</ele>
        <time>2021-02-24T15:12:32Z</time>
      </trkpt>
      <trkpt lat="45.32259" lon="5.91929">
        <ele>396.2</ele>
        <time>2021-02-24T15:12:31Z</time>
      </trkpt>
      <trkpt lat="45.32258" lon="5.91929">
        <ele>395.8</ele>
        <time>2021-02-24T15:12:30Z</time>
      </trkpt>
      <trkpt lat="45.32257" lon="5.91929">
        <ele>395.6</ele>
        <time>2021-02-24T15:12:29Z</time>
      </trkpt>
      <trkpt lat="45.32256" lon="5.91929">
        <ele>395</ele>
        <time>2021-02-24T15:12:28Z</time>
      </trkpt>
      <trkpt lat="45.32255" lon="5.91929">
        <ele>394.6</ele>
        <time>2021-02-24T15:12:27Z</time>
      </trkpt>
      <trkpt lat="45.32254" lon="5.91929">
        <ele>394.2</ele>
        <time>2021-02-24T15:12:26Z</time>
      </trkpt>
      <trkpt lat="45.32253" lon="5.9193">
        <ele>394</ele>
        <time>2021-02-24T15:12:25Z</time>
      </trkpt>
      <trkpt lat="45.32252" lon="5.9193">
        <ele>393.6</ele>
        <time>2021-02-24T15:12:24Z</time>
      </trkpt>
      <trkpt lat="45.32251" lon="5.9193">
        <ele>393.4</ele>
        <time>2021-02-24T15:12:23Z</time>
      </trkpt>
      <trkpt lat="45.3225" lon="5.9193">
        <ele>393</ele>
        <time>2021-02-24T15:12:22Z</time>
      </trkpt>
      <trkpt lat="45.32249" lon="5.9193">
        <ele>392.8</ele>
        <time>2021-02-24T15:12:21Z</time>
      </trkpt>
      <trkpt lat="45.32248" lon="5.91931">
        <ele>392.4</ele>
        <time>2021-02-24T15:12:20Z</time>
      </trkpt>
      <trkpt lat="45.32247" lon="5.91931">
        <ele>392</ele>
        <time>2021-02-24T15:12:19Z</time>
      </trkpt>
      <trkpt lat="45.32247" lon="5.91931">
        <ele>391.8</ele>
        <time>2021-02-24T15:12:18Z</time>
      </trkpt>
      <trkpt lat="45.32247" lon="5.91931">
        <ele>391.6</ele>
        <time>2021-02-24T15:12:17Z</time>
      </trkpt>
      <trkpt lat="45.32245" lon="5.91932">
        <ele>391.4</ele>
        <time>2021-02-24T15:12:16Z</time>
      </trkpt>
      <trkpt lat="45.32245" lon="5.91932">
        <ele>391.2</ele>
        <time>2021-02-24T15:12:15Z</time>
      </trkpt>
      <trkpt lat="45.32243" lon="5.91934">
        <ele>391</ele>
        <time>2021-02-24T15:12:14Z</time>
      </trkpt>
      <trkpt lat="45.32243" lon="5.91934">
        <ele>390.6</ele>
        <time>2021-02-24T15:12:13Z</time>
      </trkpt>
      <trkpt lat="45.32241" lon="5.91934">
        <ele>390.2</ele>
        <time>2021-02-24T15:12:12Z</time>
      </trkpt>
      <trkpt lat="45.32241" lon="5.91934">
        <ele>389.8</ele>
        <time>2021-02-24T15:12:11Z</time>
      </trkpt>
      <trkpt lat="45.32238" lon="5.91935">
        <ele>389.6</ele>
        <time>2021-02-24T15:12:10Z</time>
      </trkpt>
      <trkpt lat="45.32238" lon="5.91935">
        <ele>389</ele>
        <time>2021-02-24T15:12:09Z</time>
      </trkpt>
      <trkpt lat="45.32235" lon="5.91936">
        <ele>388.8</ele>
        <time>2021-02-24T15:12:08Z</time>
      </trkpt>
      <trkpt lat="45.32235" lon="5.91936">
        <ele>388.6</ele>
        <time>2021-02-24T15:12:07Z</time>
      </trkpt>
      <trkpt lat="45.32235" lon="5.91936">
        <ele>388.2</ele>
        <time>2021-02-24T15:12:06Z</time>
      </trkpt>
      <trkpt lat="45.32233" lon="5.91936">
        <ele>388</ele>
        <time>2021-02-24T15:12:05Z</time>
      </trkpt>
      <trkpt lat="45.32231" lon="5.91937">
        <ele>387.6</ele>
        <time>2021-02-24T15:12:04Z</time>
      </trkpt>
      <trkpt lat="45.3223" lon="5.91937">
        <ele>387.6</ele>
        <time>2021-02-24T15:12:03Z</time>
      </trkpt>
      <trkpt lat="45.32228" lon="5.91938">
        <ele>387.4</ele>
        <time>2021-02-24T15:12:02Z</time>
      </trkpt>
      <trkpt lat="45.32226" lon="5.91939">
        <ele>387.2</ele>
        <time>2021-02-24T15:12:01Z</time>
      </trkpt>
      <trkpt lat="45.32226" lon="5.91939">
        <ele>386.8</ele>
        <time>2021-02-24T15:12:00Z</time>
      </trkpt>
      <trkpt lat="45.32226" lon="5.91939">
        <ele>386.4</ele>
        <time>2021-02-24T15:11:59Z</time>
      </trkpt>
      <trkpt lat="45.32223" lon="5.9194">
        <ele>386.2</ele>
        <time>2021-02-24T15:11:58Z</time>
      </trkpt>
      <trkpt lat="45.32223" lon="5.9194">
        <ele>386</ele>
        <time>2021-02-24T15:11:57Z</time>
      </trkpt>
      <trkpt lat="45.32221" lon="5.91941">
        <ele>385.8</ele>
        <time>2021-02-24T15:11:56Z</time>
      </trkpt>
      <trkpt lat="45.32221" lon="5.91941">
        <ele>385.4</ele>
        <time>2021-02-24T15:11:55Z</time>
      </trkpt>
      <trkpt lat="45.32218" lon="5.91942">
        <ele>384.8</ele>
        <time>2021-02-24T15:11:54Z</time>
      </trkpt>
      <trkpt lat="45.32218" lon="5.91942">
        <ele>384.6</ele>
        <time>2021-02-24T15:11:53Z</time>
      </trkpt>
      <trkpt lat="45.32216" lon="5.91944">
        <ele>384.4</ele>
        <time>2021-02-24T15:11:52Z</time>
      </trkpt>
      <trkpt lat="45.32216" lon="5.91944">
        <ele>384.2</ele>
        <time>2021-02-24T15:11:51Z</time>
      </trkpt>
      <trkpt lat="45.32214" lon="5.91946">
        <ele>383.8</ele>
        <time>2021-02-24T15:11:50Z</time>
      </trkpt>
      <trkpt lat="45.32214" lon="5.91946">
        <ele>383.6</ele>
        <time>2021-02-24T15:11:49Z</time>
      </trkpt>
      <trkpt lat="45.32212" lon="5.91948">
        <ele>383.2</ele>
        <time>2021-02-24T15:11:48Z</time>
      </trkpt>
      <trkpt lat="45.32212" lon="5.91948">
        <ele>383</ele>
        <time>2021-02-24T15:11:47Z</time>
      </trkpt>
      <trkpt lat="45.3221" lon="5.91951">
        <ele>382.8</ele>
        <time>2021-02-24T15:11:46Z</time>
      </trkpt>
      <trkpt lat="45.3221" lon="5.91951">
        <ele>382.4</ele>
        <time>2021-02-24T15:11:45Z</time>
      </trkpt>
      <trkpt lat="45.32207" lon="5.91954">
        <ele>382.2</ele>
        <time>2021-02-24T15:11:44Z</time>
      </trkpt>
      <trkpt lat="45.32207" lon="5.91954">
        <ele>381.8</ele>
        <time>2021-02-24T15:11:43Z</time>
      </trkpt>
      <trkpt lat="45.32206" lon="5.91956">
        <ele>381.6</ele>
        <time>2021-02-24T15:11:42Z</time>
      </trkpt>
      <trkpt lat="45.32206" lon="5.91956">
        <ele>381.2</ele>
        <time>2021-02-24T15:11:41Z</time>
      </trkpt>
      <trkpt lat="45.32204" lon="5.91959">
        <ele>381</ele>
        <time>2021-02-24T15:11:40Z</time>
      </trkpt>
      <trkpt lat="45.32204" lon="5.91959">
        <ele>380.4</ele>
        <time>2021-02-24T15:11:39Z</time>
      </trkpt>
      <trkpt lat="45.32202" lon="5.91964">
        <ele>380.2</ele>
        <time>2021-02-24T15:11:38Z</time>
      </trkpt>
      <trkpt lat="45.32202" lon="5.91964">
        <ele>379.8</ele>
        <time>2021-02-24T15:11:37Z</time>
      </trkpt>
      <trkpt lat="45.322" lon="5.91967">
        <ele>379.4</ele>
        <time>2021-02-24T15:11:36Z</time>
      </trkpt>
      <trkpt lat="45.322" lon="5.91967">
        <ele>379.2</ele>
        <time>2021-02-24T15:11:35Z</time>
      </trkpt>
      <trkpt lat="45.32198" lon="5.91969">
        <ele>378.8</ele>
        <time>2021-02-24T15:11:34Z</time>
      </trkpt>
      <trkpt lat="45.32198" lon="5.91969">
        <ele>378.6</ele>
        <time>2021-02-24T15:11:33Z</time>
      </trkpt>
      <trkpt lat="45.32195" lon="5.91972">
        <ele>378.4</ele>
        <time>2021-02-24T15:11:32Z</time>
      </trkpt>
      <trkpt lat="45.32195" lon="5.91972">
        <ele>378.2</ele>
        <time>2021-02-24T15:11:31Z</time>
      </trkpt>
      <trkpt lat="45.32193" lon="5.91975">
        <ele>378</ele>
        <time>2021-02-24T15:11:30Z</time>
      </trkpt>
      <trkpt lat="45.32193" lon="5.91975">
        <ele>377.8</ele>
        <time>2021-02-24T15:11:29Z</time>
      </trkpt>
      <trkpt lat="45.32192" lon="5.91977">
        <ele>377.6</ele>
        <time>2021-02-24T15:11:28Z</time>
      </trkpt>
      <trkpt lat="45.32191" lon="5.91979">
        <ele>377.4</ele>
        <time>2021-02-24T15:11:27Z</time>
      </trkpt>
      <trkpt lat="45.32188" lon="5.91982">
        <ele>377</ele>
        <time>2021-02-24T15:11:26Z</time>
      </trkpt>
      <trkpt lat="45.32188" lon="5.91982">
        <ele>377</ele>
        <time>2021-02-24T15:11:25Z</time>
      </trkpt>
      <trkpt lat="45.32186" lon="5.91986">
        <ele>376.8</ele>
        <time>2021-02-24T15:11:24Z</time>
      </trkpt>
      <trkpt lat="45.32186" lon="5.91986">
        <ele>376.4</ele>
        <time>2021-02-24T15:11:23Z</time>
      </trkpt>
      <trkpt lat="45.32185" lon="5.9199">
        <ele>376.2</ele>
        <time>2021-02-24T15:11:22Z</time>
      </trkpt>
      <trkpt lat="45.32185" lon="5.9199">
        <ele>376</ele>
        <time>2021-02-24T15:11:21Z</time>
      </trkpt>
      <trkpt lat="45.32183" lon="5.91992">
        <ele>375.4</ele>
        <time>2021-02-24T15:11:20Z</time>
      </trkpt>
      <trkpt lat="45.32183" lon="5.91992">
        <ele>375.2</ele>
        <time>2021-02-24T15:11:19Z</time>
      </trkpt>
      <trkpt lat="45.32181" lon="5.91992">
        <ele>375</ele>
        <time>2021-02-24T15:11:18Z</time>
      </trkpt>
      <trkpt lat="45.32179" lon="5.91993">
        <ele>374.8</ele>
        <time>2021-02-24T15:11:17Z</time>
      </trkpt>
      <trkpt lat="45.32178" lon="5.91994">
        <ele>374.6</ele>
        <time>2021-02-24T15:11:16Z</time>
      </trkpt>
      <trkpt lat="45.32176" lon="5.91995">
        <ele>374.2</ele>
        <time>2021-02-24T15:11:15Z</time>
      </trkpt>
      <trkpt lat="45.32174" lon="5.91996">
        <ele>373.6</ele>
        <time>2021-02-24T15:11:14Z</time>
      </trkpt>
      <trkpt lat="45.32172" lon="5.91996">
        <ele>373</ele>
        <time>2021-02-24T15:11:13Z</time>
      </trkpt>
      <trkpt lat="45.32172" lon="5.91996">
        <ele>372.6</ele>
        <time>2021-02-24T15:11:12Z</time>
      </trkpt>
      <trkpt lat="45.32172" lon="5.91996">
        <ele>372.2</ele>
        <time>2021-02-24T15:11:11Z</time>
      </trkpt>
      <trkpt lat="45.32172" lon="5.91997">
        <ele>372</ele>
        <time>2021-02-24T15:11:10Z</time>
      </trkpt>
      <trkpt lat="45.32171" lon="5.91998">
        <ele>371.6</ele>
        <time>2021-02-24T15:11:09Z</time>
      </trkpt>
      <trkpt lat="45.32167" lon="5.92001">
        <ele>371.4</ele>
        <time>2021-02-24T15:11:08Z</time>
      </trkpt>
      <trkpt lat="45.32165" lon="5.92002">
        <ele>371.2</ele>
        <time>2021-02-24T15:11:07Z</time>
      </trkpt>
      <trkpt lat="45.32164" lon="5.92003">
        <ele>370.8</ele>
        <time>2021-02-24T15:11:06Z</time>
      </trkpt>
      <trkpt lat="45.32163" lon="5.92004">
        <ele>370.4</ele>
        <time>2021-02-24T15:11:05Z</time>
      </trkpt>
      <trkpt lat="45.32162" lon="5.92005">
        <ele>370.2</ele>
        <time>2021-02-24T15:11:04Z</time>
      </trkpt>
      <trkpt lat="45.3216" lon="5.92006">
        <ele>369.8</ele>
        <time>2021-02-24T15:11:03Z</time>
      </trkpt>
      <trkpt lat="45.32159" lon="5.92007">
        <ele>369.4</ele>
        <time>2021-02-24T15:11:02Z</time>
      </trkpt>
      <trkpt lat="45.32158" lon="5.92008">
        <ele>369.2</ele>
        <time>2021-02-24T15:11:01Z</time>
      </trkpt>
      <trkpt lat="45.32156" lon="5.92008">
        <ele>369</ele>
        <time>2021-02-24T15:11:00Z</time>
      </trkpt>
      <trkpt lat="45.32154" lon="5.92008">
        <ele>368.8</ele>
        <time>2021-02-24T15:10:59Z</time>
      </trkpt>
      <trkpt lat="45.32152" lon="5.92008">
        <ele>368.6</ele>
        <time>2021-02-24T15:10:58Z</time>
      </trkpt>
      <trkpt lat="45.3215" lon="5.92008">
        <ele>368</ele>
        <time>2021-02-24T15:10:57Z</time>
      </trkpt>
      <trkpt lat="45.32148" lon="5.92009">
        <ele>367.6</ele>
        <time>2021-02-24T15:10:56Z</time>
      </trkpt>
      <trkpt lat="45.32147" lon="5.92007">
        <ele>367.6</ele>
        <time>2021-02-24T15:10:55Z</time>
      </trkpt>
      <trkpt lat="45.32145" lon="5.92005">
        <ele>367.4</ele>
        <time>2021-02-24T15:10:54Z</time>
      </trkpt>
      <trkpt lat="45.32144" lon="5.92003">
        <ele>367</ele>
        <time>2021-02-24T15:10:53Z</time>
      </trkpt>
      <trkpt lat="45.32143" lon="5.92001">
        <ele>366.2</ele>
        <time>2021-02-24T15:10:52Z</time>
      </trkpt>
      <trkpt lat="45.32141" lon="5.92">
        <ele>366.2</ele>
        <time>2021-02-24T15:10:51Z</time>
      </trkpt>
      <trkpt lat="45.3214" lon="5.91999">
        <ele>366</ele>
        <time>2021-02-24T15:10:50Z</time>
      </trkpt>
      <trkpt lat="45.32138" lon="5.91998">
        <ele>365.6</ele>
        <time>2021-02-24T15:10:49Z</time>
      </trkpt>
      <trkpt lat="45.32136" lon="5.91997">
        <ele>364.8</ele>
        <time>2021-02-24T15:10:48Z</time>
      </trkpt>
      <trkpt lat="45.32135" lon="5.91996">
        <ele>364.4</ele>
        <time>2021-02-24T15:10:47Z</time>
      </trkpt>
      <trkpt lat="45.32133" lon="5.91995">
        <ele>364.6</ele>
        <time>2021-02-24T15:10:46Z</time>
      </trkpt>
      <trkpt lat="45.32131" lon="5.91994">
        <ele>364.2</ele>
        <time>2021-02-24T15:10:45Z</time>
      </trkpt>
      <trkpt lat="45.3213" lon="5.91992">
        <ele>363.4</ele>
        <time>2021-02-24T15:10:44Z</time>
      </trkpt>
      <trkpt lat="45.32128" lon="5.91991">
        <ele>363</ele>
        <time>2021-02-24T15:10:43Z</time>
      </trkpt>
      <trkpt lat="45.32126" lon="5.9199">
        <ele>362.8</ele>
        <time>2021-02-24T15:10:42Z</time>
      </trkpt>
      <trkpt lat="45.32124" lon="5.91988">
        <ele>362.8</ele>
        <time>2021-02-24T15:10:41Z</time>
      </trkpt>
      <trkpt lat="45.32122" lon="5.91987">
        <ele>361.8</ele>
        <time>2021-02-24T15:10:40Z</time>
      </trkpt>
      <trkpt lat="45.3212" lon="5.91986">
        <ele>361.2</ele>
        <time>2021-02-24T15:10:39Z</time>
      </trkpt>
      <trkpt lat="45.32118" lon="5.91985">
        <ele>361</ele>
        <time>2021-02-24T15:10:38Z</time>
      </trkpt>
      <trkpt lat="45.32117" lon="5.91984">
        <ele>361</ele>
        <time>2021-02-24T15:10:37Z</time>
      </trkpt>
      <trkpt lat="45.32115" lon="5.91983">
        <ele>361</ele>
        <time>2021-02-24T15:10:36Z</time>
      </trkpt>
      <trkpt lat="45.32113" lon="5.91982">
        <ele>360.2</ele>
        <time>2021-02-24T15:10:35Z</time>
      </trkpt>
      <trkpt lat="45.32112" lon="5.91981">
        <ele>360</ele>
        <time>2021-02-24T15:10:34Z</time>
      </trkpt>
      <trkpt lat="45.3211" lon="5.91981">
        <ele>360</ele>
        <time>2021-02-24T15:10:33Z</time>
      </trkpt>
      <trkpt lat="45.32109" lon="5.9198">
        <ele>359.6</ele>
        <time>2021-02-24T15:10:32Z</time>
      </trkpt>
      <trkpt lat="45.32108" lon="5.9198">
        <ele>359.2</ele>
        <time>2021-02-24T15:10:31Z</time>
      </trkpt>
      <trkpt lat="45.32106" lon="5.91979">
        <ele>358.8</ele>
        <time>2021-02-24T15:10:30Z</time>
      </trkpt>
      <trkpt lat="45.32105" lon="5.91979">
        <ele>358.6</ele>
        <time>2021-02-24T15:10:29Z</time>
      </trkpt>
      <trkpt lat="45.32104" lon="5.91978">
        <ele>358.4</ele>
        <time>2021-02-24T15:10:28Z</time>
      </trkpt>
      <trkpt lat="45.32102" lon="5.91978">
        <ele>358</ele>
        <time>2021-02-24T15:10:27Z</time>
      </trkpt>
      <trkpt lat="45.321" lon="5.91977">
        <ele>357.2</ele>
        <time>2021-02-24T15:10:26Z</time>
      </trkpt>
      <trkpt lat="45.32098" lon="5.91977">
        <ele>357.2</ele>
        <time>2021-02-24T15:10:25Z</time>
      </trkpt>
      <trkpt lat="45.32096" lon="5.91976">
        <ele>357</ele>
        <time>2021-02-24T15:10:24Z</time>
      </trkpt>
      <trkpt lat="45.32094" lon="5.91975">
        <ele>356.4</ele>
        <time>2021-02-24T15:10:23Z</time>
      </trkpt>
      <trkpt lat="45.32093" lon="5.91975">
        <ele>356</ele>
        <time>2021-02-24T15:10:22Z</time>
      </trkpt>
      <trkpt lat="45.32091" lon="5.91975">
        <ele>355.8</ele>
        <time>2021-02-24T15:10:21Z</time>
      </trkpt>
      <trkpt lat="45.32089" lon="5.91975">
        <ele>355.8</ele>
        <time>2021-02-24T15:10:20Z</time>
      </trkpt>
      <trkpt lat="45.32088" lon="5.91975">
        <ele>355.2</ele>
        <time>2021-02-24T15:10:19Z</time>
      </trkpt>
      <trkpt lat="45.32086" lon="5.91974">
        <ele>354.6</ele>
        <time>2021-02-24T15:10:18Z</time>
      </trkpt>
      <trkpt lat="45.32084" lon="5.91974">
        <ele>354.4</ele>
        <time>2021-02-24T15:10:17Z</time>
      </trkpt>
      <trkpt lat="45.32083" lon="5.91972">
        <ele>354.2</ele>
        <time>2021-02-24T15:10:16Z</time>
      </trkpt>
      <trkpt lat="45.32081" lon="5.9197">
        <ele>353.2</ele>
        <time>2021-02-24T15:10:15Z</time>
      </trkpt>
      <trkpt lat="45.3208" lon="5.91969">
        <ele>353</ele>
        <time>2021-02-24T15:10:14Z</time>
      </trkpt>
      <trkpt lat="45.32078" lon="5.91967">
        <ele>352.8</ele>
        <time>2021-02-24T15:10:13Z</time>
      </trkpt>
      <trkpt lat="45.32077" lon="5.91965">
        <ele>352.4</ele>
        <time>2021-02-24T15:10:12Z</time>
      </trkpt>
      <trkpt lat="45.32076" lon="5.91962">
        <ele>351.8</ele>
        <time>2021-02-24T15:10:11Z</time>
      </trkpt>
      <trkpt lat="45.32075" lon="5.9196">
        <ele>351.8</ele>
        <time>2021-02-24T15:10:10Z</time>
      </trkpt>
      <trkpt lat="45.32073" lon="5.91957">
        <ele>351.6</ele>
        <time>2021-02-24T15:10:09Z</time>
      </trkpt>
      <trkpt lat="45.32072" lon="5.91954">
        <ele>350.6</ele>
        <time>2021-02-24T15:10:08Z</time>
      </trkpt>
      <trkpt lat="45.32071" lon="5.91951">
        <ele>350</ele>
        <time>2021-02-24T15:10:07Z</time>
      </trkpt>
      <trkpt lat="45.32069" lon="5.91949">
        <ele>350.2</ele>
        <time>2021-02-24T15:10:06Z</time>
      </trkpt>
      <trkpt lat="45.32068" lon="5.91946">
        <ele>350</ele>
        <time>2021-02-24T15:10:05Z</time>
      </trkpt>
      <trkpt lat="45.32066" lon="5.91943">
        <ele>349</ele>
        <time>2021-02-24T15:10:04Z</time>
      </trkpt>
      <trkpt lat="45.32065" lon="5.91941">
        <ele>348.8</ele>
        <time>2021-02-24T15:10:03Z</time>
      </trkpt>
      <trkpt lat="45.32064" lon="5.91938">
        <ele>348.4</ele>
        <time>2021-02-24T15:10:02Z</time>
      </trkpt>
      <trkpt lat="45.32063" lon="5.91936">
        <ele>348.6</ele>
        <time>2021-02-24T15:10:01Z</time>
      </trkpt>
      <trkpt lat="45.32061" lon="5.91933">
        <ele>347.6</ele>
        <time>2021-02-24T15:10:00Z</time>
      </trkpt>
      <trkpt lat="45.3206" lon="5.91931">
        <ele>347.4</ele>
        <time>2021-02-24T15:09:59Z</time>
      </trkpt>
      <trkpt lat="45.32059" lon="5.91928">
        <ele>347.4</ele>
        <time>2021-02-24T15:09:58Z</time>
      </trkpt>
      <trkpt lat="45.32057" lon="5.91925">
        <ele>346.8</ele>
        <time>2021-02-24T15:09:57Z</time>
      </trkpt>
      <trkpt lat="45.32056" lon="5.91922">
        <ele>346.2</ele>
        <time>2021-02-24T15:09:56Z</time>
      </trkpt>
      <trkpt lat="45.32054" lon="5.91919">
        <ele>346.4</ele>
        <time>2021-02-24T15:09:55Z</time>
      </trkpt>
      <trkpt lat="45.32053" lon="5.91917">
        <ele>346</ele>
        <time>2021-02-24T15:09:54Z</time>
      </trkpt>
      <trkpt lat="45.32052" lon="5.91914">
        <ele>345.2</ele>
        <time>2021-02-24T15:09:53Z</time>
      </trkpt>
      <trkpt lat="45.32051" lon="5.91912">
        <ele>344.8</ele>
        <time>2021-02-24T15:09:52Z</time>
      </trkpt>
      <trkpt lat="45.3205" lon="5.91909">
        <ele>344.4</ele>
        <time>2021-02-24T15:09:51Z</time>
      </trkpt>
      <trkpt lat="45.32049" lon="5.91906">
        <ele>343.8</ele>
        <time>2021-02-24T15:09:50Z</time>
      </trkpt>
      <trkpt lat="45.32048" lon="5.91904">
        <ele>343.4</ele>
        <time>2021-02-24T15:09:49Z</time>
      </trkpt>
      <trkpt lat="45.32047" lon="5.91901">
        <ele>343</ele>
        <time>2021-02-24T15:09:48Z</time>
      </trkpt>
      <trkpt lat="45.32045" lon="5.91898">
        <ele>343</ele>
        <time>2021-02-24T15:09:47Z</time>
      </trkpt>
      <trkpt lat="45.32044" lon="5.91895">
        <ele>342.2</ele>
        <time>2021-02-24T15:09:46Z</time>
      </trkpt>
      <trkpt lat="45.32043" lon="5.91893">
        <ele>341.6</ele>
        <time>2021-02-24T15:09:45Z</time>
      </trkpt>
      <trkpt lat="45.32041" lon="5.91891">
        <ele>341.6</ele>
        <time>2021-02-24T15:09:44Z</time>
      </trkpt>
      <trkpt lat="45.3204" lon="5.91889">
        <ele>341.4</ele>
        <time>2021-02-24T15:09:43Z</time>
      </trkpt>
      <trkpt lat="45.32038" lon="5.91888">
        <ele>340.8</ele>
        <time>2021-02-24T15:09:42Z</time>
      </trkpt>
      <trkpt lat="45.32037" lon="5.91886">
        <ele>340.2</ele>
        <time>2021-02-24T15:09:41Z</time>
      </trkpt>
      <trkpt lat="45.32035" lon="5.91884">
        <ele>340.2</ele>
        <time>2021-02-24T15:09:40Z</time>
      </trkpt>
      <trkpt lat="45.32033" lon="5.91881">
        <ele>340.2</ele>
        <time>2021-02-24T15:09:39Z</time>
      </trkpt>
      <trkpt lat="45.32031" lon="5.91879">
        <ele>339.2</ele>
        <time>2021-02-24T15:09:38Z</time>
      </trkpt>
      <trkpt lat="45.32029" lon="5.91877">
        <ele>338.8</ele>
        <time>2021-02-24T15:09:37Z</time>
      </trkpt>
      <trkpt lat="45.32028" lon="5.91875">
        <ele>338.8</ele>
        <time>2021-02-24T15:09:36Z</time>
      </trkpt>
      <trkpt lat="45.32026" lon="5.91873">
        <ele>338.6</ele>
        <time>2021-02-24T15:09:35Z</time>
      </trkpt>
      <trkpt lat="45.32025" lon="5.91871">
        <ele>337.6</ele>
        <time>2021-02-24T15:09:34Z</time>
      </trkpt>
      <trkpt lat="45.32023" lon="5.91868">
        <ele>337</ele>
        <time>2021-02-24T15:09:33Z</time>
      </trkpt>
      <trkpt lat="45.32021" lon="5.91866">
        <ele>336.8</ele>
        <time>2021-02-24T15:09:32Z</time>
      </trkpt>
      <trkpt lat="45.3202" lon="5.91865">
        <ele>336.8</ele>
        <time>2021-02-24T15:09:31Z</time>
      </trkpt>
      <trkpt lat="45.32018" lon="5.91863">
        <ele>336</ele>
        <time>2021-02-24T15:09:30Z</time>
      </trkpt>
      <trkpt lat="45.32016" lon="5.91861">
        <ele>335.6</ele>
        <time>2021-02-24T15:09:29Z</time>
      </trkpt>
      <trkpt lat="45.32015" lon="5.91859">
        <ele>335.4</ele>
        <time>2021-02-24T15:09:28Z</time>
      </trkpt>
      <trkpt lat="45.32014" lon="5.91857">
        <ele>335.4</ele>
        <time>2021-02-24T15:09:27Z</time>
      </trkpt>
      <trkpt lat="45.32012" lon="5.91856">
        <ele>334.6</ele>
        <time>2021-02-24T15:09:26Z</time>
      </trkpt>
      <trkpt lat="45.32011" lon="5.91854">
        <ele>333.8</ele>
        <time>2021-02-24T15:09:25Z</time>
      </trkpt>
      <trkpt lat="45.3201" lon="5.91852">
        <ele>333.6</ele>
        <time>2021-02-24T15:09:24Z</time>
      </trkpt>
      <trkpt lat="45.32009" lon="5.9185">
        <ele>333.4</ele>
        <time>2021-02-24T15:09:23Z</time>
      </trkpt>
      <trkpt lat="45.32008" lon="5.91848">
        <ele>333.2</ele>
        <time>2021-02-24T15:09:22Z</time>
      </trkpt>
      <trkpt lat="45.32007" lon="5.91847">
        <ele>332.2</ele>
        <time>2021-02-24T15:09:21Z</time>
      </trkpt>
      <trkpt lat="45.32006" lon="5.91845">
        <ele>332</ele>
        <time>2021-02-24T15:09:20Z</time>
      </trkpt>
      <trkpt lat="45.32005" lon="5.91843">
        <ele>331.8</ele>
        <time>2021-02-24T15:09:19Z</time>
      </trkpt>
      <trkpt lat="45.32003" lon="5.91841">
        <ele>331.8</ele>
        <time>2021-02-24T15:09:18Z</time>
      </trkpt>
      <trkpt lat="45.32002" lon="5.9184">
        <ele>330.8</ele>
        <time>2021-02-24T15:09:17Z</time>
      </trkpt>
      <trkpt lat="45.32001" lon="5.91838">
        <ele>330.6</ele>
        <time>2021-02-24T15:09:16Z</time>
      </trkpt>
      <trkpt lat="45.32" lon="5.91837">
        <ele>330.8</ele>
        <time>2021-02-24T15:09:15Z</time>
      </trkpt>
      <trkpt lat="45.31998" lon="5.91835">
        <ele>330.6</ele>
        <time>2021-02-24T15:09:14Z</time>
      </trkpt>
      <trkpt lat="45.31997" lon="5.91834">
        <ele>329.8</ele>
        <time>2021-02-24T15:09:13Z</time>
      </trkpt>
      <trkpt lat="45.31996" lon="5.91833">
        <ele>329.4</ele>
        <time>2021-02-24T15:09:12Z</time>
      </trkpt>
      <trkpt lat="45.31995" lon="5.91831">
        <ele>329.2</ele>
        <time>2021-02-24T15:09:11Z</time>
      </trkpt>
      <trkpt lat="45.31993" lon="5.9183">
        <ele>329.2</ele>
        <time>2021-02-24T15:09:10Z</time>
      </trkpt>
      <trkpt lat="45.31992" lon="5.91829">
        <ele>328.2</ele>
        <time>2021-02-24T15:09:09Z</time>
      </trkpt>
      <trkpt lat="45.31991" lon="5.91828">
        <ele>327.8</ele>
        <time>2021-02-24T15:09:08Z</time>
      </trkpt>
      <trkpt lat="45.3199" lon="5.91827">
        <ele>328</ele>
        <time>2021-02-24T15:09:07Z</time>
      </trkpt>
      <trkpt lat="45.31989" lon="5.91825">
        <ele>327.6</ele>
        <time>2021-02-24T15:09:06Z</time>
      </trkpt>
      <trkpt lat="45.31987" lon="5.91824">
        <ele>327</ele>
        <time>2021-02-24T15:09:05Z</time>
      </trkpt>
      <trkpt lat="45.31986" lon="5.91823">
        <ele>327</ele>
        <time>2021-02-24T15:09:04Z</time>
      </trkpt>
      <trkpt lat="45.31985" lon="5.91822">
        <ele>327</ele>
        <time>2021-02-24T15:09:03Z</time>
      </trkpt>
      <trkpt lat="45.31984" lon="5.91821">
        <ele>326.2</ele>
        <time>2021-02-24T15:09:02Z</time>
      </trkpt>
      <trkpt lat="45.31983" lon="5.9182">
        <ele>325.8</ele>
        <time>2021-02-24T15:09:01Z</time>
      </trkpt>
      <trkpt lat="45.31981" lon="5.91818">
        <ele>325.8</ele>
        <time>2021-02-24T15:09:00Z</time>
      </trkpt>
      <trkpt lat="45.3198" lon="5.91817">
        <ele>325</ele>
        <time>2021-02-24T15:08:59Z</time>
      </trkpt>
      <trkpt lat="45.31979" lon="5.91816">
        <ele>324.6</ele>
        <time>2021-02-24T15:08:58Z</time>
      </trkpt>
      <trkpt lat="45.31978" lon="5.91815">
        <ele>324.2</ele>
        <time>2021-02-24T15:08:57Z</time>
      </trkpt>
      <trkpt lat="45.31976" lon="5.91813">
        <ele>324</ele>
        <time>2021-02-24T15:08:56Z</time>
      </trkpt>
      <trkpt lat="45.31975" lon="5.91812">
        <ele>323.4</ele>
        <time>2021-02-24T15:08:55Z</time>
      </trkpt>
      <trkpt lat="45.31974" lon="5.9181">
        <ele>323.4</ele>
        <time>2021-02-24T15:08:54Z</time>
      </trkpt>
      <trkpt lat="45.31972" lon="5.91809">
        <ele>323.4</ele>
        <time>2021-02-24T15:08:53Z</time>
      </trkpt>
      <trkpt lat="45.31971" lon="5.91808">
        <ele>322.8</ele>
        <time>2021-02-24T15:08:52Z</time>
      </trkpt>
      <trkpt lat="45.3197" lon="5.91806">
        <ele>322.2</ele>
        <time>2021-02-24T15:08:51Z</time>
      </trkpt>
      <trkpt lat="45.31968" lon="5.91804">
        <ele>322.2</ele>
        <time>2021-02-24T15:08:50Z</time>
      </trkpt>
      <trkpt lat="45.31965" lon="5.91803">
        <ele>321.8</ele>
        <time>2021-02-24T15:08:49Z</time>
      </trkpt>
      <trkpt lat="45.31963" lon="5.91801">
        <ele>321</ele>
        <time>2021-02-24T15:08:48Z</time>
      </trkpt>
      <trkpt lat="45.31961" lon="5.91799">
        <ele>320.6</ele>
        <time>2021-02-24T15:08:47Z</time>
      </trkpt>
      <trkpt lat="45.31959" lon="5.91797">
        <ele>320.4</ele>
        <time>2021-02-24T15:08:46Z</time>
      </trkpt>
      <trkpt lat="45.31957" lon="5.91794">
        <ele>319.8</ele>
        <time>2021-02-24T15:08:45Z</time>
      </trkpt>
      <trkpt lat="45.31955" lon="5.91792">
        <ele>319</ele>
        <time>2021-02-24T15:08:44Z</time>
      </trkpt>
      <trkpt lat="45.31953" lon="5.9179">
        <ele>319</ele>
        <time>2021-02-24T15:08:43Z</time>
      </trkpt>
      <trkpt lat="45.31952" lon="5.91788">
        <ele>318.8</ele>
        <time>2021-02-24T15:08:42Z</time>
      </trkpt>
      <trkpt lat="45.31951" lon="5.91787">
        <ele>318.2</ele>
        <time>2021-02-24T15:08:41Z</time>
      </trkpt>
      <trkpt lat="45.3195" lon="5.91785">
        <ele>318</ele>
        <time>2021-02-24T15:08:40Z</time>
      </trkpt>
      <trkpt lat="45.31949" lon="5.91784">
        <ele>317.8</ele>
        <time>2021-02-24T15:08:39Z</time>
      </trkpt>
      <trkpt lat="45.31948" lon="5.91782">
        <ele>317.6</ele>
        <time>2021-02-24T15:08:38Z</time>
      </trkpt>
      <trkpt lat="45.31947" lon="5.91781">
        <ele>317.2</ele>
        <time>2021-02-24T15:08:37Z</time>
      </trkpt>
      <trkpt lat="45.31945" lon="5.91781">
        <ele>316.8</ele>
        <time>2021-02-24T15:08:36Z</time>
      </trkpt>
      <trkpt lat="45.31944" lon="5.91781">
        <ele>316.6</ele>
        <time>2021-02-24T15:08:35Z</time>
      </trkpt>
      <trkpt lat="45.31943" lon="5.91781">
        <ele>316.4</ele>
        <time>2021-02-24T15:08:34Z</time>
      </trkpt>
      <trkpt lat="45.31941" lon="5.91781">
        <ele>316</ele>
        <time>2021-02-24T15:08:33Z</time>
      </trkpt>
      <trkpt lat="45.3194" lon="5.91781">
        <ele>315.8</ele>
        <time>2021-02-24T15:08:32Z</time>
      </trkpt>
      <trkpt lat="45.31939" lon="5.91781">
        <ele>315.8</ele>
        <time>2021-02-24T15:08:31Z</time>
      </trkpt>
      <trkpt lat="45.31937" lon="5.91781">
        <ele>315.2</ele>
        <time>2021-02-24T15:08:30Z</time>
      </trkpt>
      <trkpt lat="45.31936" lon="5.91782">
        <ele>314.8</ele>
        <time>2021-02-24T15:08:29Z</time>
      </trkpt>
      <trkpt lat="45.31934" lon="5.91783">
        <ele>314.4</ele>
        <time>2021-02-24T15:08:28Z</time>
      </trkpt>
      <trkpt lat="45.31932" lon="5.91783">
        <ele>314.2</ele>
        <time>2021-02-24T15:08:27Z</time>
      </trkpt>
      <trkpt lat="45.3193" lon="5.91784">
        <ele>314</ele>
        <time>2021-02-24T15:08:26Z</time>
      </trkpt>
      <trkpt lat="45.31929" lon="5.91785">
        <ele>313.8</ele>
        <time>2021-02-24T15:08:25Z</time>
      </trkpt>
      <trkpt lat="45.31927" lon="5.91786">
        <ele>313.6</ele>
        <time>2021-02-24T15:08:24Z</time>
      </trkpt>
      <trkpt lat="45.31926" lon="5.91786">
        <ele>313.2</ele>
        <time>2021-02-24T15:08:23Z</time>
      </trkpt>
      <trkpt lat="45.31924" lon="5.91787">
        <ele>313.2</ele>
        <time>2021-02-24T15:08:22Z</time>
      </trkpt>
      <trkpt lat="45.31923" lon="5.91787">
        <ele>312.8</ele>
        <time>2021-02-24T15:08:21Z</time>
      </trkpt>
      <trkpt lat="45.31922" lon="5.91788">
        <ele>312.4</ele>
        <time>2021-02-24T15:08:20Z</time>
      </trkpt>
      <trkpt lat="45.3192" lon="5.91788">
        <ele>312</ele>
        <time>2021-02-24T15:08:19Z</time>
      </trkpt>
      <trkpt lat="45.31919" lon="5.91789">
        <ele>311.8</ele>
        <time>2021-02-24T15:08:18Z</time>
      </trkpt>
      <trkpt lat="45.31919" lon="5.91789">
        <ele>311.6</ele>
        <time>2021-02-24T15:08:17Z</time>
      </trkpt>
      <trkpt lat="45.31919" lon="5.91789">
        <ele>311.4</ele>
        <time>2021-02-24T15:08:16Z</time>
      </trkpt>
      <trkpt lat="45.31914" lon="5.91788">
        <ele>310.6</ele>
        <time>2021-02-24T15:08:15Z</time>
      </trkpt>
      <trkpt lat="45.31911" lon="5.91786">
        <ele>310.2</ele>
        <time>2021-02-24T15:08:14Z</time>
      </trkpt>
      <trkpt lat="45.31908" lon="5.91784">
        <ele>310</ele>
        <time>2021-02-24T15:08:13Z</time>
      </trkpt>
      <trkpt lat="45.31906" lon="5.91783">
        <ele>309.8</ele>
        <time>2021-02-24T15:08:12Z</time>
      </trkpt>
      <trkpt lat="45.31903" lon="5.91781">
        <ele>309.6</ele>
        <time>2021-02-24T15:08:11Z</time>
      </trkpt>
      <trkpt lat="45.319" lon="5.91779">
        <ele>308.4</ele>
        <time>2021-02-24T15:08:10Z</time>
      </trkpt>
      <trkpt lat="45.319" lon="5.91776">
        <ele>308</ele>
        <time>2021-02-24T15:08:09Z</time>
      </trkpt>
      <trkpt lat="45.319" lon="5.91773">
        <ele>307.8</ele>
        <time>2021-02-24T15:08:08Z</time>
      </trkpt>
      <trkpt lat="45.31899" lon="5.9177">
        <ele>307.6</ele>
        <time>2021-02-24T15:08:07Z</time>
      </trkpt>
      <trkpt lat="45.31899" lon="5.91767">
        <ele>306.8</ele>
        <time>2021-02-24T15:08:06Z</time>
      </trkpt>
      <trkpt lat="45.31901" lon="5.91763">
        <ele>306</ele>
        <time>2021-02-24T15:08:05Z</time>
      </trkpt>
      <trkpt lat="45.31902" lon="5.9176">
        <ele>305.4</ele>
        <time>2021-02-24T15:08:04Z</time>
      </trkpt>
      <trkpt lat="45.31903" lon="5.91756">
        <ele>305.2</ele>
        <time>2021-02-24T15:08:03Z</time>
      </trkpt>
      <trkpt lat="45.31905" lon="5.91753">
        <ele>304.8</ele>
        <time>2021-02-24T15:08:02Z</time>
      </trkpt>
      <trkpt lat="45.31905" lon="5.9175">
        <ele>304.6</ele>
        <time>2021-02-24T15:08:01Z</time>
      </trkpt>
      <trkpt lat="45.31906" lon="5.91746">
        <ele>304.2</ele>
        <time>2021-02-24T15:08:00Z</time>
      </trkpt>
      <trkpt lat="45.31907" lon="5.91743">
        <ele>304</ele>
        <time>2021-02-24T15:07:59Z</time>
      </trkpt>
      <trkpt lat="45.31908" lon="5.9174">
        <ele>303.4</ele>
        <time>2021-02-24T15:07:58Z</time>
      </trkpt>
      <trkpt lat="45.31907" lon="5.91737">
        <ele>303.4</ele>
        <time>2021-02-24T15:07:57Z</time>
      </trkpt>
      <trkpt lat="45.31907" lon="5.91733">
        <ele>303</ele>
        <time>2021-02-24T15:07:56Z</time>
      </trkpt>
      <trkpt lat="45.31907" lon="5.9173">
        <ele>303</ele>
        <time>2021-02-24T15:07:55Z</time>
      </trkpt>
      <trkpt lat="45.31907" lon="5.91727">
        <ele>302.8</ele>
        <time>2021-02-24T15:07:54Z</time>
      </trkpt>
      <trkpt lat="45.31906" lon="5.91724">
        <ele>302.6</ele>
        <time>2021-02-24T15:07:53Z</time>
      </trkpt>
      <trkpt lat="45.31906" lon="5.91721">
        <ele>302.2</ele>
        <time>2021-02-24T15:07:52Z</time>
      </trkpt>
      <trkpt lat="45.31906" lon="5.91719">
        <ele>302.4</ele>
        <time>2021-02-24T15:07:51Z</time>
      </trkpt>
      <trkpt lat="45.31905" lon="5.91716">
        <ele>302</ele>
        <time>2021-02-24T15:07:50Z</time>
      </trkpt>
      <trkpt lat="45.31905" lon="5.91713">
        <ele>302.2</ele>
        <time>2021-02-24T15:07:49Z</time>
      </trkpt>
      <trkpt lat="45.31904" lon="5.9171">
        <ele>302</ele>
        <time>2021-02-24T15:07:48Z</time>
      </trkpt>
      <trkpt lat="45.31902" lon="5.91707">
        <ele>302.4</ele>
        <time>2021-02-24T15:07:47Z</time>
      </trkpt>
      <trkpt lat="45.31901" lon="5.91705">
        <ele>302.4</ele>
        <time>2021-02-24T15:07:46Z</time>
      </trkpt>
      <trkpt lat="45.319" lon="5.91702">
        <ele>302</ele>
        <time>2021-02-24T15:07:45Z</time>
      </trkpt>
      <trkpt lat="45.31898" lon="5.917">
        <ele>302</ele>
        <time>2021-02-24T15:07:44Z</time>
      </trkpt>
      <trkpt lat="45.31896" lon="5.91698">
        <ele>301.2</ele>
        <time>2021-02-24T15:07:43Z</time>
      </trkpt>
      <trkpt lat="45.31894" lon="5.91696">
        <ele>301</ele>
        <time>2021-02-24T15:07:42Z</time>
      </trkpt>
      <trkpt lat="45.31891" lon="5.91694">
        <ele>300.4</ele>
        <time>2021-02-24T15:07:41Z</time>
      </trkpt>
      <trkpt lat="45.31889" lon="5.91692">
        <ele>300.2</ele>
        <time>2021-02-24T15:07:40Z</time>
      </trkpt>
      <trkpt lat="45.31887" lon="5.9169">
        <ele>300</ele>
        <time>2021-02-24T15:07:39Z</time>
      </trkpt>
      <trkpt lat="45.31884" lon="5.91688">
        <ele>299.8</ele>
        <time>2021-02-24T15:07:38Z</time>
      </trkpt>
      <trkpt lat="45.31882" lon="5.91686">
        <ele>299.2</ele>
        <time>2021-02-24T15:07:37Z</time>
      </trkpt>
      <trkpt lat="45.3188" lon="5.91685">
        <ele>299.2</ele>
        <time>2021-02-24T15:07:36Z</time>
      </trkpt>
      <trkpt lat="45.31877" lon="5.91683">
        <ele>298.8</ele>
        <time>2021-02-24T15:07:35Z</time>
      </trkpt>
      <trkpt lat="45.31875" lon="5.91681">
        <ele>298.6</ele>
        <time>2021-02-24T15:07:34Z</time>
      </trkpt>
      <trkpt lat="45.31872" lon="5.9168">
        <ele>298.2</ele>
        <time>2021-02-24T15:07:33Z</time>
      </trkpt>
      <trkpt lat="45.3187" lon="5.91678">
        <ele>298</ele>
        <time>2021-02-24T15:07:32Z</time>
      </trkpt>
      <trkpt lat="45.31868" lon="5.91677">
        <ele>298</ele>
        <time>2021-02-24T15:07:31Z</time>
      </trkpt>
      <trkpt lat="45.31866" lon="5.91676">
        <ele>297.6</ele>
        <time>2021-02-24T15:07:30Z</time>
      </trkpt>
      <trkpt lat="45.31864" lon="5.91674">
        <ele>298</ele>
        <time>2021-02-24T15:07:29Z</time>
      </trkpt>
      <trkpt lat="45.31863" lon="5.91673">
        <ele>297.6</ele>
        <time>2021-02-24T15:07:28Z</time>
      </trkpt>
      <trkpt lat="45.3186" lon="5.91672">
        <ele>297.4</ele>
        <time>2021-02-24T15:07:27Z</time>
      </trkpt>
      <trkpt lat="45.31858" lon="5.9167">
        <ele>296.8</ele>
        <time>2021-02-24T15:07:26Z</time>
      </trkpt>
      <trkpt lat="45.31855" lon="5.91669">
        <ele>296.2</ele>
        <time>2021-02-24T15:07:25Z</time>
      </trkpt>
      <trkpt lat="45.31853" lon="5.91667">
        <ele>295.8</ele>
        <time>2021-02-24T15:07:24Z</time>
      </trkpt>
      <trkpt lat="45.31851" lon="5.91667">
        <ele>295.4</ele>
        <time>2021-02-24T15:07:23Z</time>
      </trkpt>
      <trkpt lat="45.31848" lon="5.91666">
        <ele>294.4</ele>
        <time>2021-02-24T15:07:22Z</time>
      </trkpt>
      <trkpt lat="45.31846" lon="5.91665">
        <ele>293.8</ele>
        <time>2021-02-24T15:07:21Z</time>
      </trkpt>
      <trkpt lat="45.31844" lon="5.91664">
        <ele>293</ele>
        <time>2021-02-24T15:07:20Z</time>
      </trkpt>
      <trkpt lat="45.31842" lon="5.91664">
        <ele>292.4</ele>
        <time>2021-02-24T15:07:19Z</time>
      </trkpt>
      <trkpt lat="45.3184" lon="5.91665">
        <ele>292.2</ele>
        <time>2021-02-24T15:07:18Z</time>
      </trkpt>
      <trkpt lat="45.31838" lon="5.91665">
        <ele>291.8</ele>
        <time>2021-02-24T15:07:17Z</time>
      </trkpt>
      <trkpt lat="45.31835" lon="5.91666">
        <ele>291.6</ele>
        <time>2021-02-24T15:07:16Z</time>
      </trkpt>
      <trkpt lat="45.31833" lon="5.91667">
        <ele>291.6</ele>
        <time>2021-02-24T15:07:15Z</time>
      </trkpt>
      <trkpt lat="45.31833" lon="5.91667">
        <ele>291.6</ele>
        <time>2021-02-24T15:07:14Z</time>
      </trkpt>
      <trkpt lat="45.31833" lon="5.91667">
        <ele>291.8</ele>
        <time>2021-02-24T15:07:13Z</time>
      </trkpt>
      <trkpt lat="45.31831" lon="5.91668">
        <ele>291.4</ele>
        <time>2021-02-24T15:07:12Z</time>
      </trkpt>
      <trkpt lat="45.31829" lon="5.91669">
        <ele>291.2</ele>
        <time>2021-02-24T15:07:11Z</time>
      </trkpt>
      <trkpt lat="45.31827" lon="5.9167">
        <ele>291</ele>
        <time>2021-02-24T15:07:10Z</time>
      </trkpt>
      <trkpt lat="45.31821" lon="5.91674">
        <ele>290.8</ele>
        <time>2021-02-24T15:07:09Z</time>
      </trkpt>
      <trkpt lat="45.31818" lon="5.91677">
        <ele>290.4</ele>
        <time>2021-02-24T15:07:08Z</time>
      </trkpt>
      <trkpt lat="45.31814" lon="5.9168">
        <ele>290.2</ele>
        <time>2021-02-24T15:07:07Z</time>
      </trkpt>
      <trkpt lat="45.31811" lon="5.91682">
        <ele>290.2</ele>
        <time>2021-02-24T15:07:06Z</time>
      </trkpt>
      <trkpt lat="45.31807" lon="5.91685">
        <ele>290.2</ele>
        <time>2021-02-24T15:07:05Z</time>
      </trkpt>
      <trkpt lat="45.31805" lon="5.91687">
        <ele>290.2</ele>
        <time>2021-02-24T15:07:04Z</time>
      </trkpt>
      <trkpt lat="45.31803" lon="5.91688">
        <ele>290.6</ele>
        <time>2021-02-24T15:07:03Z</time>
      </trkpt>
      <trkpt lat="45.31801" lon="5.9169">
        <ele>290.6</ele>
        <time>2021-02-24T15:07:02Z</time>
      </trkpt>
      <trkpt lat="45.31799" lon="5.91692">
        <ele>290.6</ele>
        <time>2021-02-24T15:07:01Z</time>
      </trkpt>
      <trkpt lat="45.31798" lon="5.91695">
        <ele>289.6</ele>
        <time>2021-02-24T15:07:00Z</time>
      </trkpt>
      <trkpt lat="45.31796" lon="5.91697">
        <ele>289</ele>
        <time>2021-02-24T15:06:59Z</time>
      </trkpt>
      <trkpt lat="45.31794" lon="5.917">
        <ele>288.6</ele>
        <time>2021-02-24T15:06:58Z</time>
      </trkpt>
      <trkpt lat="45.31793" lon="5.91702">
        <ele>288.4</ele>
        <time>2021-02-24T15:06:57Z</time>
      </trkpt>
      <trkpt lat="45.31791" lon="5.91705">
        <ele>288.2</ele>
        <time>2021-02-24T15:06:56Z</time>
      </trkpt>
      <trkpt lat="45.3179" lon="5.91708">
        <ele>287.8</ele>
        <time>2021-02-24T15:06:55Z</time>
      </trkpt>
      <trkpt lat="45.31789" lon="5.9171">
        <ele>287.8</ele>
        <time>2021-02-24T15:06:54Z</time>
      </trkpt>
      <trkpt lat="45.31788" lon="5.91713">
        <ele>287.6</ele>
        <time>2021-02-24T15:06:53Z</time>
      </trkpt>
      <trkpt lat="45.31786" lon="5.91715">
        <ele>288.2</ele>
        <time>2021-02-24T15:06:52Z</time>
      </trkpt>
      <trkpt lat="45.31784" lon="5.91718">
        <ele>288.4</ele>
        <time>2021-02-24T15:06:51Z</time>
      </trkpt>
      <trkpt lat="45.31783" lon="5.91721">
        <ele>289</ele>
        <time>2021-02-24T15:06:50Z</time>
      </trkpt>
      <trkpt lat="45.31781" lon="5.91724">
        <ele>288.6</ele>
        <time>2021-02-24T15:06:49Z</time>
      </trkpt>
      <trkpt lat="45.31779" lon="5.91727">
        <ele>287.6</ele>
        <time>2021-02-24T15:06:48Z</time>
      </trkpt>
      <trkpt lat="45.31779" lon="5.91727">
        <ele>287.2</ele>
        <time>2021-02-24T15:06:47Z</time>
      </trkpt>
      <trkpt lat="45.31779" lon="5.91727">
        <ele>286.8</ele>
        <time>2021-02-24T15:06:46Z</time>
      </trkpt>
      <trkpt lat="45.31773" lon="5.91736">
        <ele>286.6</ele>
        <time>2021-02-24T15:06:45Z</time>
      </trkpt>
      <trkpt lat="45.31772" lon="5.91739">
        <ele>286.4</ele>
        <time>2021-02-24T15:06:44Z</time>
      </trkpt>
      <trkpt lat="45.31771" lon="5.91742">
        <ele>286</ele>
        <time>2021-02-24T15:06:43Z</time>
      </trkpt>
      <trkpt lat="45.31769" lon="5.91745">
        <ele>286</ele>
        <time>2021-02-24T15:06:42Z</time>
      </trkpt>
      <trkpt lat="45.31768" lon="5.91749">
        <ele>285.6</ele>
        <time>2021-02-24T15:06:41Z</time>
      </trkpt>
      <trkpt lat="45.31767" lon="5.91752">
        <ele>285.2</ele>
        <time>2021-02-24T15:06:40Z</time>
      </trkpt>
      <trkpt lat="45.31766" lon="5.91755">
        <ele>285</ele>
        <time>2021-02-24T15:06:39Z</time>
      </trkpt>
      <trkpt lat="45.31765" lon="5.91758">
        <ele>284.6</ele>
        <time>2021-02-24T15:06:38Z</time>
      </trkpt>
      <trkpt lat="45.31763" lon="5.91761">
        <ele>284.8</ele>
        <time>2021-02-24T15:06:37Z</time>
      </trkpt>
      <trkpt lat="45.31763" lon="5.91761">
        <ele>284.6</ele>
        <time>2021-02-24T15:06:36Z</time>
      </trkpt>
      <trkpt lat="45.31763" lon="5.91761">
        <ele>284.4</ele>
        <time>2021-02-24T15:06:35Z</time>
      </trkpt>
      <trkpt lat="45.31756" lon="5.9177">
        <ele>284.4</ele>
        <time>2021-02-24T15:06:34Z</time>
      </trkpt>
      <trkpt lat="45.31756" lon="5.9177">
        <ele>284.6</ele>
        <time>2021-02-24T15:06:33Z</time>
      </trkpt>
      <trkpt lat="45.31756" lon="5.9177">
        <ele>284.8</ele>
        <time>2021-02-24T15:06:32Z</time>
      </trkpt>
      <trkpt lat="45.31753" lon="5.91776">
        <ele>284.8</ele>
        <time>2021-02-24T15:06:31Z</time>
      </trkpt>
      <trkpt lat="45.3175" lon="5.9178">
        <ele>285.2</ele>
        <time>2021-02-24T15:06:30Z</time>
      </trkpt>
      <trkpt lat="45.31748" lon="5.91784">
        <ele>285.4</ele>
        <time>2021-02-24T15:06:29Z</time>
      </trkpt>
      <trkpt lat="45.31745" lon="5.91788">
        <ele>284.6</ele>
        <time>2021-02-24T15:06:28Z</time>
      </trkpt>
      <trkpt lat="45.31742" lon="5.91792">
        <ele>284</ele>
        <time>2021-02-24T15:06:27Z</time>
      </trkpt>
      <trkpt lat="45.3174" lon="5.91794">
        <ele>283.2</ele>
        <time>2021-02-24T15:06:26Z</time>
      </trkpt>
      <trkpt lat="45.31738" lon="5.91796">
        <ele>282.8</ele>
        <time>2021-02-24T15:06:25Z</time>
      </trkpt>
      <trkpt lat="45.31735" lon="5.91798">
        <ele>282.2</ele>
        <time>2021-02-24T15:06:24Z</time>
      </trkpt>
      <trkpt lat="45.31733" lon="5.91801">
        <ele>281.6</ele>
        <time>2021-02-24T15:06:23Z</time>
      </trkpt>
      <trkpt lat="45.31732" lon="5.91804">
        <ele>281.2</ele>
        <time>2021-02-24T15:06:22Z</time>
      </trkpt>
      <trkpt lat="45.3173" lon="5.91806">
        <ele>280.8</ele>
        <time>2021-02-24T15:06:21Z</time>
      </trkpt>
      <trkpt lat="45.31729" lon="5.91809">
        <ele>280.8</ele>
        <time>2021-02-24T15:06:20Z</time>
      </trkpt>
      <trkpt lat="45.31728" lon="5.91812">
        <ele>280.6</ele>
        <time>2021-02-24T15:06:19Z</time>
      </trkpt>
      <trkpt lat="45.31728" lon="5.91812">
        <ele>280.6</ele>
        <time>2021-02-24T15:06:18Z</time>
      </trkpt>
      <trkpt lat="45.31728" lon="5.91812">
        <ele>280.8</ele>
        <time>2021-02-24T15:06:17Z</time>
      </trkpt>
      <trkpt lat="45.31724" lon="5.91818">
        <ele>280.8</ele>
        <time>2021-02-24T15:06:16Z</time>
      </trkpt>
      <trkpt lat="45.31723" lon="5.9182">
        <ele>281</ele>
        <time>2021-02-24T15:06:15Z</time>
      </trkpt>
      <trkpt lat="45.31722" lon="5.91821">
        <ele>281.2</ele>
        <time>2021-02-24T15:06:14Z</time>
      </trkpt>
      <trkpt lat="45.31717" lon="5.91828">
        <ele>281.2</ele>
        <time>2021-02-24T15:06:13Z</time>
      </trkpt>
      <trkpt lat="45.31715" lon="5.9183">
        <ele>281.4</ele>
        <time>2021-02-24T15:06:12Z</time>
      </trkpt>
      <trkpt lat="45.31714" lon="5.91832">
        <ele>281.4</ele>
        <time>2021-02-24T15:06:11Z</time>
      </trkpt>
      <trkpt lat="45.31709" lon="5.91839">
        <ele>281.4</ele>
        <time>2021-02-24T15:06:10Z</time>
      </trkpt>
      <trkpt lat="45.31705" lon="5.91843">
        <ele>281.6</ele>
        <time>2021-02-24T15:06:09Z</time>
      </trkpt>
      <trkpt lat="45.31701" lon="5.91846">
        <ele>282.2</ele>
        <time>2021-02-24T15:06:08Z</time>
      </trkpt>
      <trkpt lat="45.31697" lon="5.91849">
        <ele>281.8</ele>
        <time>2021-02-24T15:06:07Z</time>
      </trkpt>
      <trkpt lat="45.31693" lon="5.91853">
        <ele>281</ele>
        <time>2021-02-24T15:06:06Z</time>
      </trkpt>
      <trkpt lat="45.31693" lon="5.91853">
        <ele>280.4</ele>
        <time>2021-02-24T15:06:05Z</time>
      </trkpt>
      <trkpt lat="45.31693" lon="5.91853">
        <ele>280.2</ele>
        <time>2021-02-24T15:06:04Z</time>
      </trkpt>
      <trkpt lat="45.31689" lon="5.91855">
        <ele>279.8</ele>
        <time>2021-02-24T15:06:03Z</time>
      </trkpt>
      <trkpt lat="45.31687" lon="5.91856">
        <ele>279.4</ele>
        <time>2021-02-24T15:06:02Z</time>
      </trkpt>
      <trkpt lat="45.31686" lon="5.91857">
        <ele>279</ele>
        <time>2021-02-24T15:06:01Z</time>
      </trkpt>
      <trkpt lat="45.31679" lon="5.9186">
        <ele>278.4</ele>
        <time>2021-02-24T15:06:00Z</time>
      </trkpt>
      <trkpt lat="45.31675" lon="5.91863">
        <ele>277.8</ele>
        <time>2021-02-24T15:05:59Z</time>
      </trkpt>
      <trkpt lat="45.31671" lon="5.91866">
        <ele>277.2</ele>
        <time>2021-02-24T15:05:58Z</time>
      </trkpt>
      <trkpt lat="45.31668" lon="5.91869">
        <ele>276.8</ele>
        <time>2021-02-24T15:05:57Z</time>
      </trkpt>
      <trkpt lat="45.31664" lon="5.91872">
        <ele>276.4</ele>
        <time>2021-02-24T15:05:56Z</time>
      </trkpt>
      <trkpt lat="45.31661" lon="5.91873">
        <ele>276.2</ele>
        <time>2021-02-24T15:05:55Z</time>
      </trkpt>
      <trkpt lat="45.31659" lon="5.91875">
        <ele>276</ele>
        <time>2021-02-24T15:05:54Z</time>
      </trkpt>
      <trkpt lat="45.31656" lon="5.91876">
        <ele>275.8</ele>
        <time>2021-02-24T15:05:53Z</time>
      </trkpt>
      <trkpt lat="45.31654" lon="5.91877">
        <ele>275.6</ele>
        <time>2021-02-24T15:05:52Z</time>
      </trkpt>
      <trkpt lat="45.31652" lon="5.91878">
        <ele>275.4</ele>
        <time>2021-02-24T15:05:51Z</time>
      </trkpt>
      <trkpt lat="45.3165" lon="5.91879">
        <ele>275.2</ele>
        <time>2021-02-24T15:05:50Z</time>
      </trkpt>
      <trkpt lat="45.31647" lon="5.9188">
        <ele>275</ele>
        <time>2021-02-24T15:05:49Z</time>
      </trkpt>
      <trkpt lat="45.31645" lon="5.91881">
        <ele>274.8</ele>
        <time>2021-02-24T15:05:48Z</time>
      </trkpt>
      <trkpt lat="45.31643" lon="5.91882">
        <ele>274.4</ele>
        <time>2021-02-24T15:05:47Z</time>
      </trkpt>
      <trkpt lat="45.31641" lon="5.91884">
        <ele>274.4</ele>
        <time>2021-02-24T15:05:46Z</time>
      </trkpt>
      <trkpt lat="45.31638" lon="5.91885">
        <ele>274.2</ele>
        <time>2021-02-24T15:05:45Z</time>
      </trkpt>
      <trkpt lat="45.31636" lon="5.91887">
        <ele>274.2</ele>
        <time>2021-02-24T15:05:44Z</time>
      </trkpt>
      <trkpt lat="45.31634" lon="5.91889">
        <ele>274.2</ele>
        <time>2021-02-24T15:05:43Z</time>
      </trkpt>
      <trkpt lat="45.31632" lon="5.91891">
        <ele>274.2</ele>
        <time>2021-02-24T15:05:42Z</time>
      </trkpt>
      <trkpt lat="45.31631" lon="5.91893">
        <ele>273.8</ele>
        <time>2021-02-24T15:05:41Z</time>
      </trkpt>
      <trkpt lat="45.3163" lon="5.91895">
        <ele>273.8</ele>
        <time>2021-02-24T15:05:40Z</time>
      </trkpt>
      <trkpt lat="45.31629" lon="5.91897">
        <ele>273.8</ele>
        <time>2021-02-24T15:05:39Z</time>
      </trkpt>
      <trkpt lat="45.31628" lon="5.91899">
        <ele>274</ele>
        <time>2021-02-24T15:05:38Z</time>
      </trkpt>
      <trkpt lat="45.31611" lon="5.9184">
        <ele>278.4</ele>
      </trkpt>
      <trkpt lat="45.316" lon="5.9182">
        <ele>278.4</ele>
      </trkpt>
      <trkpt lat="45.31549" lon="5.91881">
        <ele>275.3</ele>
      </trkpt>
      <trkpt lat="45.31526" lon="5.91861">
        <ele>276</ele>
      </trkpt>
      <trkpt lat="45.31483" lon="5.9184">
        <ele>275.6</ele>
      </trkpt>
      <trkpt lat="45.31443" lon="5.91819">
        <ele>273</ele>
      </trkpt>
      <trkpt lat="45.31432" lon="5.91805">
        <ele>272.5</ele>
      </trkpt>
      <trkpt lat="45.31427" lon="5.91808">
        <ele>272.1</ele>
      </trkpt>
      <trkpt lat="45.31371" lon="5.91769">
        <ele>268.6</ele>
      </trkpt>
      <trkpt lat="45.31341" lon="5.9174">
        <ele>266.9</ele>
      </trkpt>
      <trkpt lat="45.31308" lon="5.91693">
        <ele>265.8</ele>
      </trkpt>
      <trkpt lat="45.31269" lon="5.91665">
        <ele>262.9</ele>
      </trkpt>
      <trkpt lat="45.31245" lon="5.91666">
        <ele>260.8</ele>
      </trkpt>
      <trkpt lat="45.3118" lon="5.91776">
        <ele>257.3</ele>
      </trkpt>
      <trkpt lat="45.31054" lon="5.9163">
        <ele>253.6</ele>
      </trkpt>
      <trkpt lat="45.31047" lon="5.91636">
        <ele>253.2</ele>
      </trkpt>
      <trkpt lat="45.30946" lon="5.91513">
        <ele>249.8</ele>
      </trkpt>
      <trkpt lat="45.30918" lon="5.91559">
        <ele>246.4</ele>
      </trkpt>
      <trkpt lat="45.30927" lon="5.91575">
        <ele>246.7</ele>
      </trkpt>
      <trkpt lat="45.30878" lon="5.91659">
        <ele>244.7</ele>
      </trkpt>
      <trkpt lat="45.30834" lon="5.91761">
        <ele>242.1</ele>
      </trkpt>
    </trkseg>
  </trk>
</gpx>